<?xml version="1.0" encoding="UTF-8" standalone="no" ?>
<gpx xmlns="http://www.topografix.com/GPX/1/1" xmlns:xsi="http://www.w3.org/2001/XMLSchema-instance" xsi:schemaLocation="http://www.topografix.com/GPX/1/1 http://www.topografix.com/GPX/1/1/gpx.xsd" version="1.1" creator="VisuGPX - https://www.visugpx.com">
  <metadata>
    <name>Vosges-Juin2021</name>
  </metadata>
  <trk>
    <name><![CDATA[2021-06-14_09-11_Mon]]></name>
    <extensions>
      <line xmlns="http://www.topografix.com/GPX/gpx_style/0/2">
        <color>804040</color>
        <width>4</width>
      </line>
    </extensions>
    <trkseg>
      <trkpt lat="48.08619" lon="6.92554">
        <ele>753.75</ele>
        <time>2021-06-23T09:37:53Z</time>
      </trkpt>
      <trkpt lat="48.08619" lon="6.92554">
        <ele>753.75</ele>
        <time>2021-06-23T09:37:53Z</time>
      </trkpt>
      <trkpt lat="48.08609" lon="6.92541">
        <ele>752.4</ele>
        <time>2021-06-23T09:37:57Z</time>
      </trkpt>
      <trkpt lat="48.08589" lon="6.92528">
        <ele>747.19</ele>
        <time>2021-06-23T09:38:00Z</time>
      </trkpt>
      <trkpt lat="48.08555" lon="6.92534">
        <ele>743.43</ele>
        <time>2021-06-23T09:38:04Z</time>
      </trkpt>
      <trkpt lat="48.08482" lon="6.92561">
        <ele>739.02</ele>
        <time>2021-06-23T09:38:07Z</time>
      </trkpt>
      <trkpt lat="48.08473" lon="6.92568">
        <ele>738.06</ele>
        <time>2021-06-23T09:38:11Z</time>
      </trkpt>
      <trkpt lat="48.08462" lon="6.92582">
        <ele>736.5</ele>
        <time>2021-06-23T09:38:15Z</time>
      </trkpt>
      <trkpt lat="48.08458" lon="6.9259">
        <ele>735.16</ele>
        <time>2021-06-23T09:38:18Z</time>
      </trkpt>
      <trkpt lat="48.08457" lon="6.92599">
        <ele>733.86</ele>
        <time>2021-06-23T09:38:22Z</time>
      </trkpt>
      <trkpt lat="48.08459" lon="6.9261">
        <ele>732.73</ele>
        <time>2021-06-23T09:38:25Z</time>
      </trkpt>
      <trkpt lat="48.08476" lon="6.9263">
        <ele>732.3</ele>
        <time>2021-06-23T09:38:29Z</time>
      </trkpt>
      <trkpt lat="48.08479" lon="6.92636">
        <ele>731.81</ele>
        <time>2021-06-23T09:38:33Z</time>
      </trkpt>
      <trkpt lat="48.0848" lon="6.92644">
        <ele>731.57</ele>
        <time>2021-06-23T09:38:36Z</time>
      </trkpt>
      <trkpt lat="48.08478" lon="6.92652">
        <ele>731.41</ele>
        <time>2021-06-23T09:38:40Z</time>
      </trkpt>
      <trkpt lat="48.08474" lon="6.92658">
        <ele>731.13</ele>
        <time>2021-06-23T09:38:43Z</time>
      </trkpt>
      <trkpt lat="48.08468" lon="6.92661">
        <ele>730.8</ele>
        <time>2021-06-23T09:38:47Z</time>
      </trkpt>
      <trkpt lat="48.08433" lon="6.92655">
        <ele>728.55</ele>
        <time>2021-06-23T09:38:51Z</time>
      </trkpt>
      <trkpt lat="48.08377" lon="6.92651">
        <ele>721.84</ele>
        <time>2021-06-23T09:38:54Z</time>
      </trkpt>
      <trkpt lat="48.08385" lon="6.92705">
        <ele>723.7</ele>
        <time>2021-06-23T09:39:02Z</time>
      </trkpt>
      <trkpt lat="48.0839" lon="6.92817">
        <ele>723.16</ele>
        <time>2021-06-23T09:39:09Z</time>
      </trkpt>
      <trkpt lat="48.08396" lon="6.9288">
        <ele>724.47</ele>
        <time>2021-06-23T09:39:17Z</time>
      </trkpt>
      <trkpt lat="48.08399" lon="6.92929">
        <ele>725.7</ele>
        <time>2021-06-23T09:39:24Z</time>
      </trkpt>
      <trkpt lat="48.08399" lon="6.92975">
        <ele>726.57</ele>
        <time>2021-06-23T09:39:32Z</time>
      </trkpt>
      <trkpt lat="48.08392" lon="6.93125">
        <ele>730.16</ele>
        <time>2021-06-23T09:39:39Z</time>
      </trkpt>
      <trkpt lat="48.08385" lon="6.93246">
        <ele>728.67</ele>
        <time>2021-06-23T09:39:47Z</time>
      </trkpt>
      <trkpt lat="48.08541" lon="6.93476">
        <ele>739.65</ele>
        <time>2021-06-23T09:39:50Z</time>
      </trkpt>
      <trkpt lat="48.08642" lon="6.93649">
        <ele>745.92</ele>
        <time>2021-06-23T09:39:53Z</time>
      </trkpt>
      <trkpt lat="48.08649" lon="6.93666">
        <ele>746.16</ele>
        <time>2021-06-23T09:39:56Z</time>
      </trkpt>
      <trkpt lat="48.08711" lon="6.9383">
        <ele>749.32</ele>
        <time>2021-06-23T09:39:59Z</time>
      </trkpt>
      <trkpt lat="48.08723" lon="6.93853">
        <ele>751.39</ele>
        <time>2021-06-23T09:40:01Z</time>
      </trkpt>
      <trkpt lat="48.08747" lon="6.9389">
        <ele>753.5</ele>
        <time>2021-06-23T09:40:04Z</time>
      </trkpt>
      <trkpt lat="48.08757" lon="6.93909">
        <ele>753.91</ele>
        <time>2021-06-23T09:40:07Z</time>
      </trkpt>
      <trkpt lat="48.08762" lon="6.93927">
        <ele>754.12</ele>
        <time>2021-06-23T09:40:10Z</time>
      </trkpt>
      <trkpt lat="48.08767" lon="6.93967">
        <ele>755.93</ele>
        <time>2021-06-23T09:40:13Z</time>
      </trkpt>
      <trkpt lat="48.08774" lon="6.93988">
        <ele>757.93</ele>
        <time>2021-06-23T09:40:16Z</time>
      </trkpt>
      <trkpt lat="48.08839" lon="6.94074">
        <ele>764.33</ele>
        <time>2021-06-23T09:40:19Z</time>
      </trkpt>
      <trkpt lat="48.08845" lon="6.94083">
        <ele>765.11</ele>
        <time>2021-06-23T09:40:22Z</time>
      </trkpt>
      <trkpt lat="48.08848" lon="6.94093">
        <ele>765.88</ele>
        <time>2021-06-23T09:40:25Z</time>
      </trkpt>
      <trkpt lat="48.0885" lon="6.9411">
        <ele>766.62</ele>
        <time>2021-06-23T09:40:28Z</time>
      </trkpt>
      <trkpt lat="48.08849" lon="6.94124">
        <ele>766.33</ele>
        <time>2021-06-23T09:40:31Z</time>
      </trkpt>
      <trkpt lat="48.08837" lon="6.94172">
        <ele>764.6</ele>
        <time>2021-06-23T09:40:34Z</time>
      </trkpt>
      <trkpt lat="48.08835" lon="6.94183">
        <ele>764.38</ele>
        <time>2021-06-23T09:40:36Z</time>
      </trkpt>
      <trkpt lat="48.08838" lon="6.94207">
        <ele>764.86</ele>
        <time>2021-06-23T09:40:39Z</time>
      </trkpt>
      <trkpt lat="48.08862" lon="6.94266">
        <ele>770.25</ele>
        <time>2021-06-23T09:40:42Z</time>
      </trkpt>
      <trkpt lat="48.08882" lon="6.94306">
        <ele>771.97</ele>
        <time>2021-06-23T09:40:45Z</time>
      </trkpt>
      <trkpt lat="48.08898" lon="6.94317">
        <ele>772.8</ele>
        <time>2021-06-23T09:40:48Z</time>
      </trkpt>
      <trkpt lat="48.08923" lon="6.94323">
        <ele>774.81</ele>
        <time>2021-06-23T09:40:51Z</time>
      </trkpt>
      <trkpt lat="48.08933" lon="6.94335">
        <ele>775.88</ele>
        <time>2021-06-23T09:40:54Z</time>
      </trkpt>
      <trkpt lat="48.08935" lon="6.94343">
        <ele>776.14</ele>
        <time>2021-06-23T09:40:57Z</time>
      </trkpt>
      <trkpt lat="48.08936" lon="6.94352">
        <ele>776</ele>
        <time>2021-06-23T09:41:00Z</time>
      </trkpt>
      <trkpt lat="48.08934" lon="6.94362">
        <ele>775.57</ele>
        <time>2021-06-23T09:41:03Z</time>
      </trkpt>
      <trkpt lat="48.08925" lon="6.94389">
        <ele>774.79</ele>
        <time>2021-06-23T09:41:06Z</time>
      </trkpt>
      <trkpt lat="48.08922" lon="6.94401">
        <ele>774.63</ele>
        <time>2021-06-23T09:41:09Z</time>
      </trkpt>
      <trkpt lat="48.08922" lon="6.94412">
        <ele>774.88</ele>
        <time>2021-06-23T09:41:11Z</time>
      </trkpt>
      <trkpt lat="48.08922" lon="6.94423">
        <ele>775.09</ele>
        <time>2021-06-23T09:41:14Z</time>
      </trkpt>
      <trkpt lat="48.08927" lon="6.94442">
        <ele>775.89</ele>
        <time>2021-06-23T09:41:17Z</time>
      </trkpt>
      <trkpt lat="48.08932" lon="6.94449">
        <ele>776.53</ele>
        <time>2021-06-23T09:41:20Z</time>
      </trkpt>
      <trkpt lat="48.08963" lon="6.94478">
        <ele>780.97</ele>
        <time>2021-06-23T09:41:23Z</time>
      </trkpt>
      <trkpt lat="48.08975" lon="6.94486">
        <ele>782.78</ele>
        <time>2021-06-23T09:41:26Z</time>
      </trkpt>
      <trkpt lat="48.08991" lon="6.94486">
        <ele>784.2</ele>
        <time>2021-06-23T09:41:29Z</time>
      </trkpt>
      <trkpt lat="48.08999" lon="6.94482">
        <ele>785.16</ele>
        <time>2021-06-23T09:41:32Z</time>
      </trkpt>
      <trkpt lat="48.09014" lon="6.94462">
        <ele>786.07</ele>
        <time>2021-06-23T09:41:35Z</time>
      </trkpt>
      <trkpt lat="48.09028" lon="6.94439">
        <ele>787.2</ele>
        <time>2021-06-23T09:41:38Z</time>
      </trkpt>
      <trkpt lat="48.09043" lon="6.94422">
        <ele>787.26</ele>
        <time>2021-06-23T09:41:41Z</time>
      </trkpt>
      <trkpt lat="48.09049" lon="6.94419">
        <ele>787.13</ele>
        <time>2021-06-23T09:41:44Z</time>
      </trkpt>
      <trkpt lat="48.09058" lon="6.9442">
        <ele>787.1</ele>
        <time>2021-06-23T09:41:46Z</time>
      </trkpt>
      <trkpt lat="48.09066" lon="6.94424">
        <ele>787.7</ele>
        <time>2021-06-23T09:41:49Z</time>
      </trkpt>
      <trkpt lat="48.09073" lon="6.94433">
        <ele>787.95</ele>
        <time>2021-06-23T09:41:52Z</time>
      </trkpt>
      <trkpt lat="48.09239" lon="6.947">
        <ele>797.49</ele>
        <time>2021-06-23T09:41:55Z</time>
      </trkpt>
      <trkpt lat="48.0925" lon="6.94712">
        <ele>797.4</ele>
        <time>2021-06-23T09:41:58Z</time>
      </trkpt>
      <trkpt lat="48.09358" lon="6.94807">
        <ele>808.03</ele>
        <time>2021-06-23T09:42:01Z</time>
      </trkpt>
      <trkpt lat="48.09368" lon="6.94822">
        <ele>809.3</ele>
        <time>2021-06-23T09:42:04Z</time>
      </trkpt>
      <trkpt lat="48.09374" lon="6.94834">
        <ele>809.16</ele>
        <time>2021-06-23T09:42:07Z</time>
      </trkpt>
      <trkpt lat="48.09393" lon="6.9489">
        <ele>809.66</ele>
        <time>2021-06-23T09:42:10Z</time>
      </trkpt>
      <trkpt lat="48.09402" lon="6.94908">
        <ele>811.95</ele>
        <time>2021-06-23T09:42:13Z</time>
      </trkpt>
      <trkpt lat="48.0947" lon="6.95003">
        <ele>819.97</ele>
        <time>2021-06-23T09:42:16Z</time>
      </trkpt>
      <trkpt lat="48.09484" lon="6.95028">
        <ele>819.01</ele>
        <time>2021-06-23T09:42:19Z</time>
      </trkpt>
      <trkpt lat="48.09502" lon="6.95073">
        <ele>817.65</ele>
        <time>2021-06-23T09:42:21Z</time>
      </trkpt>
      <trkpt lat="48.09583" lon="6.95304">
        <ele>827.09</ele>
        <time>2021-06-23T09:42:24Z</time>
      </trkpt>
      <trkpt lat="48.09599" lon="6.95365">
        <ele>825.12</ele>
        <time>2021-06-23T09:42:27Z</time>
      </trkpt>
      <trkpt lat="48.09603" lon="6.95396">
        <ele>824.98</ele>
        <time>2021-06-23T09:42:30Z</time>
      </trkpt>
      <trkpt lat="48.09607" lon="6.95436">
        <ele>824.11</ele>
        <time>2021-06-23T09:42:33Z</time>
      </trkpt>
      <trkpt lat="48.09607" lon="6.9547">
        <ele>821.98</ele>
        <time>2021-06-23T09:42:36Z</time>
      </trkpt>
      <trkpt lat="48.09605" lon="6.95496">
        <ele>820.9</ele>
        <time>2021-06-23T09:42:39Z</time>
      </trkpt>
      <trkpt lat="48.09599" lon="6.9552">
        <ele>818.86</ele>
        <time>2021-06-23T09:42:42Z</time>
      </trkpt>
      <trkpt lat="48.09587" lon="6.95559">
        <ele>814.66</ele>
        <time>2021-06-23T09:42:45Z</time>
      </trkpt>
      <trkpt lat="48.09541" lon="6.95674">
        <ele>809.38</ele>
        <time>2021-06-23T09:42:48Z</time>
      </trkpt>
      <trkpt lat="48.09531" lon="6.95713">
        <ele>809.08</ele>
        <time>2021-06-23T09:42:51Z</time>
      </trkpt>
      <trkpt lat="48.09525" lon="6.95758">
        <ele>809.79</ele>
        <time>2021-06-23T09:42:54Z</time>
      </trkpt>
      <trkpt lat="48.09526" lon="6.95793">
        <ele>811.61</ele>
        <time>2021-06-23T09:42:56Z</time>
      </trkpt>
      <trkpt lat="48.0953" lon="6.95829">
        <ele>812.58</ele>
        <time>2021-06-23T09:42:59Z</time>
      </trkpt>
      <trkpt lat="48.09542" lon="6.95907">
        <ele>822.16</ele>
        <time>2021-06-23T09:43:02Z</time>
      </trkpt>
      <trkpt lat="48.09574" lon="6.96095">
        <ele>827.92</ele>
        <time>2021-06-23T09:43:05Z</time>
      </trkpt>
      <trkpt lat="48.09588" lon="6.96141">
        <ele>827.88</ele>
        <time>2021-06-23T09:43:08Z</time>
      </trkpt>
      <trkpt lat="48.09622" lon="6.96219">
        <ele>821.51</ele>
        <time>2021-06-23T09:43:11Z</time>
      </trkpt>
      <trkpt lat="48.0963" lon="6.9625">
        <ele>823.95</ele>
        <time>2021-06-23T09:43:14Z</time>
      </trkpt>
      <trkpt lat="48.09653" lon="6.96376">
        <ele>824.52</ele>
        <time>2021-06-23T09:43:17Z</time>
      </trkpt>
      <trkpt lat="48.09654" lon="6.96419">
        <ele>823.82</ele>
        <time>2021-06-23T09:43:20Z</time>
      </trkpt>
      <trkpt lat="48.09653" lon="6.96467">
        <ele>825.68</ele>
        <time>2021-06-23T09:43:23Z</time>
      </trkpt>
      <trkpt lat="48.09641" lon="6.966">
        <ele>823.59</ele>
        <time>2021-06-23T09:43:26Z</time>
      </trkpt>
      <trkpt lat="48.09635" lon="6.96622">
        <ele>822.86</ele>
        <time>2021-06-23T09:43:29Z</time>
      </trkpt>
      <trkpt lat="48.09616" lon="6.96676">
        <ele>822.06</ele>
        <time>2021-06-23T09:43:31Z</time>
      </trkpt>
      <trkpt lat="48.09608" lon="6.96704">
        <ele>824.35</ele>
        <time>2021-06-23T09:43:34Z</time>
      </trkpt>
      <trkpt lat="48.09605" lon="6.96739">
        <ele>825.4</ele>
        <time>2021-06-23T09:43:37Z</time>
      </trkpt>
      <trkpt lat="48.0961" lon="6.96809">
        <ele>824.65</ele>
        <time>2021-06-23T09:43:40Z</time>
      </trkpt>
      <trkpt lat="48.09623" lon="6.96874">
        <ele>823.37</ele>
        <time>2021-06-23T09:43:43Z</time>
      </trkpt>
      <trkpt lat="48.09629" lon="6.96893">
        <ele>822.54</ele>
        <time>2021-06-23T09:43:46Z</time>
      </trkpt>
      <trkpt lat="48.09631" lon="6.9691">
        <ele>822.46</ele>
        <time>2021-06-23T09:43:49Z</time>
      </trkpt>
      <trkpt lat="48.09629" lon="6.96948">
        <ele>822.02</ele>
        <time>2021-06-23T09:43:52Z</time>
      </trkpt>
      <trkpt lat="48.09617" lon="6.97025">
        <ele>820.51</ele>
        <time>2021-06-23T09:43:55Z</time>
      </trkpt>
      <trkpt lat="48.0961" lon="6.97042">
        <ele>822.33</ele>
        <time>2021-06-23T09:43:58Z</time>
      </trkpt>
      <trkpt lat="48.09596" lon="6.97056">
        <ele>827.55</ele>
        <time>2021-06-23T09:44:01Z</time>
      </trkpt>
      <trkpt lat="48.09583" lon="6.97082">
        <ele>830.1</ele>
        <time>2021-06-23T09:44:04Z</time>
      </trkpt>
      <trkpt lat="48.09583" lon="6.97091">
        <ele>830.42</ele>
        <time>2021-06-23T09:44:06Z</time>
      </trkpt>
      <trkpt lat="48.09584" lon="6.97102">
        <ele>830.57</ele>
        <time>2021-06-23T09:44:09Z</time>
      </trkpt>
      <trkpt lat="48.09596" lon="6.97134">
        <ele>827.68</ele>
        <time>2021-06-23T09:44:12Z</time>
      </trkpt>
      <trkpt lat="48.09602" lon="6.97167">
        <ele>827.33</ele>
        <time>2021-06-23T09:44:15Z</time>
      </trkpt>
      <trkpt lat="48.09601" lon="6.97183">
        <ele>827.46</ele>
        <time>2021-06-23T09:44:18Z</time>
      </trkpt>
      <trkpt lat="48.09593" lon="6.97211">
        <ele>829.06</ele>
        <time>2021-06-23T09:44:21Z</time>
      </trkpt>
      <trkpt lat="48.09591" lon="6.97227">
        <ele>828.91</ele>
        <time>2021-06-23T09:44:24Z</time>
      </trkpt>
      <trkpt lat="48.09594" lon="6.97261">
        <ele>826.46</ele>
        <time>2021-06-23T09:44:27Z</time>
      </trkpt>
      <trkpt lat="48.09599" lon="6.97278">
        <ele>824.47</ele>
        <time>2021-06-23T09:44:30Z</time>
      </trkpt>
      <trkpt lat="48.09614" lon="6.97314">
        <ele>821.06</ele>
        <time>2021-06-23T09:44:33Z</time>
      </trkpt>
      <trkpt lat="48.09619" lon="6.97333">
        <ele>821.35</ele>
        <time>2021-06-23T09:44:36Z</time>
      </trkpt>
      <trkpt lat="48.09621" lon="6.97352">
        <ele>821.2</ele>
        <time>2021-06-23T09:44:39Z</time>
      </trkpt>
      <trkpt lat="48.09618" lon="6.97371">
        <ele>822.16</ele>
        <time>2021-06-23T09:44:41Z</time>
      </trkpt>
      <trkpt lat="48.09613" lon="6.97388">
        <ele>823.74</ele>
        <time>2021-06-23T09:44:44Z</time>
      </trkpt>
      <trkpt lat="48.09574" lon="6.97476">
        <ele>828.01</ele>
        <time>2021-06-23T09:44:47Z</time>
      </trkpt>
      <trkpt lat="48.09553" lon="6.97503">
        <ele>830.23</ele>
        <time>2021-06-23T09:44:50Z</time>
      </trkpt>
      <trkpt lat="48.09529" lon="6.97524">
        <ele>832.45</ele>
        <time>2021-06-23T09:44:53Z</time>
      </trkpt>
      <trkpt lat="48.09491" lon="6.97565">
        <ele>831.53</ele>
        <time>2021-06-23T09:44:56Z</time>
      </trkpt>
      <trkpt lat="48.09466" lon="6.97603">
        <ele>829.59</ele>
        <time>2021-06-23T09:44:59Z</time>
      </trkpt>
      <trkpt lat="48.09458" lon="6.97624">
        <ele>829.06</ele>
        <time>2021-06-23T09:45:02Z</time>
      </trkpt>
      <trkpt lat="48.09452" lon="6.97644">
        <ele>827.25</ele>
        <time>2021-06-23T09:45:05Z</time>
      </trkpt>
      <trkpt lat="48.0945" lon="6.9766">
        <ele>825.09</ele>
        <time>2021-06-23T09:45:08Z</time>
      </trkpt>
      <trkpt lat="48.09449" lon="6.97675">
        <ele>822.77</ele>
        <time>2021-06-23T09:45:11Z</time>
      </trkpt>
      <trkpt lat="48.09451" lon="6.97691">
        <ele>820.55</ele>
        <time>2021-06-23T09:45:14Z</time>
      </trkpt>
      <trkpt lat="48.0948" lon="6.978">
        <ele>813.66</ele>
        <time>2021-06-23T09:45:16Z</time>
      </trkpt>
      <trkpt lat="48.09484" lon="6.9782">
        <ele>811.99</ele>
        <time>2021-06-23T09:45:19Z</time>
      </trkpt>
      <trkpt lat="48.09486" lon="6.97836">
        <ele>810.99</ele>
        <time>2021-06-23T09:45:22Z</time>
      </trkpt>
      <trkpt lat="48.09487" lon="6.97891">
        <ele>811.2</ele>
        <time>2021-06-23T09:45:25Z</time>
      </trkpt>
      <trkpt lat="48.09496" lon="6.97935">
        <ele>816.06</ele>
        <time>2021-06-23T09:45:28Z</time>
      </trkpt>
      <trkpt lat="48.09514" lon="6.97972">
        <ele>818.48</ele>
        <time>2021-06-23T09:45:31Z</time>
      </trkpt>
      <trkpt lat="48.09527" lon="6.98006">
        <ele>819.84</ele>
        <time>2021-06-23T09:45:34Z</time>
      </trkpt>
      <trkpt lat="48.09569" lon="6.98164">
        <ele>822.64</ele>
        <time>2021-06-23T09:45:37Z</time>
      </trkpt>
      <trkpt lat="48.09577" lon="6.98191">
        <ele>821.55</ele>
        <time>2021-06-23T09:45:40Z</time>
      </trkpt>
      <trkpt lat="48.09603" lon="6.98254">
        <ele>817.71</ele>
        <time>2021-06-23T09:45:43Z</time>
      </trkpt>
      <trkpt lat="48.09612" lon="6.98279">
        <ele>816.01</ele>
        <time>2021-06-23T09:45:46Z</time>
      </trkpt>
      <trkpt lat="48.0962" lon="6.98311">
        <ele>816.53</ele>
        <time>2021-06-23T09:45:49Z</time>
      </trkpt>
      <trkpt lat="48.09633" lon="6.98381">
        <ele>818.19</ele>
        <time>2021-06-23T09:45:51Z</time>
      </trkpt>
      <trkpt lat="48.09673" lon="6.98478">
        <ele>820.93</ele>
        <time>2021-06-23T09:45:54Z</time>
      </trkpt>
      <trkpt lat="48.0968" lon="6.98517">
        <ele>824.17</ele>
        <time>2021-06-23T09:45:57Z</time>
      </trkpt>
      <trkpt lat="48.09681" lon="6.98538">
        <ele>825.46</ele>
        <time>2021-06-23T09:46:00Z</time>
      </trkpt>
      <trkpt lat="48.0968" lon="6.9856">
        <ele>825.92</ele>
        <time>2021-06-23T09:46:03Z</time>
      </trkpt>
      <trkpt lat="48.09658" lon="6.98723">
        <ele>831.21</ele>
        <time>2021-06-23T09:46:06Z</time>
      </trkpt>
      <trkpt lat="48.09648" lon="6.98775">
        <ele>834.13</ele>
        <time>2021-06-23T09:46:09Z</time>
      </trkpt>
      <trkpt lat="48.09603" lon="6.98949">
        <ele>841.81</ele>
        <time>2021-06-23T09:46:12Z</time>
      </trkpt>
      <trkpt lat="48.09591" lon="6.99013">
        <ele>843.42</ele>
        <time>2021-06-23T09:46:15Z</time>
      </trkpt>
      <trkpt lat="48.09584" lon="6.99059">
        <ele>842.32</ele>
        <time>2021-06-23T09:46:18Z</time>
      </trkpt>
      <trkpt lat="48.0958" lon="6.99116">
        <ele>842.78</ele>
        <time>2021-06-23T09:46:21Z</time>
      </trkpt>
      <trkpt lat="48.09536" lon="6.99918">
        <ele>850.85</ele>
        <time>2021-06-23T09:46:23Z</time>
      </trkpt>
      <trkpt lat="48.09523" lon="7.0012">
        <ele>854.83</ele>
        <time>2021-06-23T09:46:26Z</time>
      </trkpt>
      <trkpt lat="48.09513" lon="7.00803">
        <ele>847.9</ele>
        <time>2021-06-23T09:46:29Z</time>
      </trkpt>
      <trkpt lat="48.09514" lon="7.01016">
        <ele>848.39</ele>
        <time>2021-06-23T09:46:32Z</time>
      </trkpt>
      <trkpt lat="48.09515" lon="7.01052">
        <ele>850.06</ele>
        <time>2021-06-23T09:46:35Z</time>
      </trkpt>
      <trkpt lat="48.09522" lon="7.01087">
        <ele>849.37</ele>
        <time>2021-06-23T09:46:38Z</time>
      </trkpt>
      <trkpt lat="48.09542" lon="7.01153">
        <ele>844.25</ele>
        <time>2021-06-23T09:46:41Z</time>
      </trkpt>
      <trkpt lat="48.09561" lon="7.01225">
        <ele>834.47</ele>
        <time>2021-06-23T09:46:44Z</time>
      </trkpt>
      <trkpt lat="48.09584" lon="7.01327">
        <ele>835.99</ele>
        <time>2021-06-23T09:46:47Z</time>
      </trkpt>
      <trkpt lat="48.09586" lon="7.01351">
        <ele>834.66</ele>
        <time>2021-06-23T09:46:50Z</time>
      </trkpt>
      <trkpt lat="48.09585" lon="7.01374">
        <ele>832.6</ele>
        <time>2021-06-23T09:46:53Z</time>
      </trkpt>
      <trkpt lat="48.09557" lon="7.01527">
        <ele>822.09</ele>
        <time>2021-06-23T09:46:56Z</time>
      </trkpt>
      <trkpt lat="48.09546" lon="7.01571">
        <ele>820.9</ele>
        <time>2021-06-23T09:46:58Z</time>
      </trkpt>
      <trkpt lat="48.09523" lon="7.01633">
        <ele>813.66</ele>
        <time>2021-06-23T09:47:01Z</time>
      </trkpt>
      <trkpt lat="48.09495" lon="7.01682">
        <ele>809.41</ele>
        <time>2021-06-23T09:47:04Z</time>
      </trkpt>
      <trkpt lat="48.0949" lon="7.01695">
        <ele>807.8</ele>
        <time>2021-06-23T09:47:07Z</time>
      </trkpt>
      <trkpt lat="48.09486" lon="7.01713">
        <ele>809.05</ele>
        <time>2021-06-23T09:47:10Z</time>
      </trkpt>
      <trkpt lat="48.09485" lon="7.01734">
        <ele>809.43</ele>
        <time>2021-06-23T09:47:13Z</time>
      </trkpt>
      <trkpt lat="48.09487" lon="7.01761">
        <ele>807.32</ele>
        <time>2021-06-23T09:47:16Z</time>
      </trkpt>
      <trkpt lat="48.09517" lon="7.01947">
        <ele>791.91</ele>
        <time>2021-06-23T09:47:19Z</time>
      </trkpt>
      <trkpt lat="48.09529" lon="7.01991">
        <ele>793.48</ele>
        <time>2021-06-23T09:47:22Z</time>
      </trkpt>
      <trkpt lat="48.09546" lon="7.02022">
        <ele>790.22</ele>
        <time>2021-06-23T09:47:25Z</time>
      </trkpt>
      <trkpt lat="48.09572" lon="7.02061">
        <ele>788.14</ele>
        <time>2021-06-23T09:47:28Z</time>
      </trkpt>
      <trkpt lat="48.09592" lon="7.02087">
        <ele>786.23</ele>
        <time>2021-06-23T09:47:31Z</time>
      </trkpt>
      <trkpt lat="48.09656" lon="7.02184">
        <ele>777.53</ele>
        <time>2021-06-23T09:47:33Z</time>
      </trkpt>
      <trkpt lat="48.09676" lon="7.0222">
        <ele>774.82</ele>
        <time>2021-06-23T09:47:36Z</time>
      </trkpt>
      <trkpt lat="48.0969" lon="7.02268">
        <ele>776.19</ele>
        <time>2021-06-23T09:47:39Z</time>
      </trkpt>
      <trkpt lat="48.09691" lon="7.02268">
        <ele>774.61</ele>
        <time>2021-06-23T09:47:42Z</time>
      </trkpt>
      <trkpt lat="48.09691" lon="7.02268">
        <ele>774.61</ele>
        <time>2021-06-23T09:47:42Z</time>
      </trkpt>
      <trkpt lat="48.09698" lon="7.0227">
        <ele>773.02</ele>
        <time>2021-06-23T09:47:44Z</time>
      </trkpt>
      <trkpt lat="48.09703" lon="7.02265">
        <ele>770.08</ele>
        <time>2021-06-23T09:47:46Z</time>
      </trkpt>
      <trkpt lat="48.09704" lon="7.02251">
        <ele>767.56</ele>
        <time>2021-06-23T09:47:48Z</time>
      </trkpt>
      <trkpt lat="48.09694" lon="7.02222">
        <ele>769.28</ele>
        <time>2021-06-23T09:47:49Z</time>
      </trkpt>
      <trkpt lat="48.09645" lon="7.0212">
        <ele>771.14</ele>
        <time>2021-06-23T09:47:51Z</time>
      </trkpt>
      <trkpt lat="48.09641" lon="7.02106">
        <ele>769.95</ele>
        <time>2021-06-23T09:47:53Z</time>
      </trkpt>
      <trkpt lat="48.09621" lon="7.01973">
        <ele>768.29</ele>
        <time>2021-06-23T09:47:55Z</time>
      </trkpt>
      <trkpt lat="48.09622" lon="7.01952">
        <ele>768.8</ele>
        <time>2021-06-23T09:47:56Z</time>
      </trkpt>
      <trkpt lat="48.09628" lon="7.01939">
        <ele>769.64</ele>
        <time>2021-06-23T09:47:58Z</time>
      </trkpt>
      <trkpt lat="48.09632" lon="7.01935">
        <ele>770.03</ele>
        <time>2021-06-23T09:48:00Z</time>
      </trkpt>
      <trkpt lat="48.09638" lon="7.01932">
        <ele>770.33</ele>
        <time>2021-06-23T09:48:02Z</time>
      </trkpt>
      <trkpt lat="48.09647" lon="7.01935">
        <ele>770.77</ele>
        <time>2021-06-23T09:48:03Z</time>
      </trkpt>
      <trkpt lat="48.09658" lon="7.01943">
        <ele>770.6</ele>
        <time>2021-06-23T09:48:05Z</time>
      </trkpt>
      <trkpt lat="48.09716" lon="7.02003">
        <ele>762.55</ele>
        <time>2021-06-23T09:48:07Z</time>
      </trkpt>
      <trkpt lat="48.09729" lon="7.02022">
        <ele>761.59</ele>
        <time>2021-06-23T09:48:09Z</time>
      </trkpt>
      <trkpt lat="48.09739" lon="7.02048">
        <ele>759.47</ele>
        <time>2021-06-23T09:48:11Z</time>
      </trkpt>
      <trkpt lat="48.09745" lon="7.02072">
        <ele>757.26</ele>
        <time>2021-06-23T09:48:12Z</time>
      </trkpt>
      <trkpt lat="48.09748" lon="7.02089">
        <ele>755.84</ele>
        <time>2021-06-23T09:48:14Z</time>
      </trkpt>
      <trkpt lat="48.09745" lon="7.02148">
        <ele>752.91</ele>
        <time>2021-06-23T09:48:16Z</time>
      </trkpt>
      <trkpt lat="48.09746" lon="7.02161">
        <ele>752.1</ele>
        <time>2021-06-23T09:48:18Z</time>
      </trkpt>
      <trkpt lat="48.0975" lon="7.02176">
        <ele>750.34</ele>
        <time>2021-06-23T09:48:19Z</time>
      </trkpt>
      <trkpt lat="48.09757" lon="7.02192">
        <ele>749.21</ele>
        <time>2021-06-23T09:48:21Z</time>
      </trkpt>
      <trkpt lat="48.09796" lon="7.02256">
        <ele>748.52</ele>
        <time>2021-06-23T09:48:23Z</time>
      </trkpt>
      <trkpt lat="48.09803" lon="7.0227">
        <ele>748.24</ele>
        <time>2021-06-23T09:48:25Z</time>
      </trkpt>
      <trkpt lat="48.09823" lon="7.02327">
        <ele>747.8</ele>
        <time>2021-06-23T09:48:26Z</time>
      </trkpt>
      <trkpt lat="48.09836" lon="7.02356">
        <ele>746.84</ele>
        <time>2021-06-23T09:48:28Z</time>
      </trkpt>
      <trkpt lat="48.09848" lon="7.02376">
        <ele>746.49</ele>
        <time>2021-06-23T09:48:30Z</time>
      </trkpt>
      <trkpt lat="48.09864" lon="7.02395">
        <ele>746.05</ele>
        <time>2021-06-23T09:48:32Z</time>
      </trkpt>
      <trkpt lat="48.09887" lon="7.02415">
        <ele>745.05</ele>
        <time>2021-06-23T09:48:33Z</time>
      </trkpt>
      <trkpt lat="48.09933" lon="7.02437">
        <ele>746.02</ele>
        <time>2021-06-23T09:48:35Z</time>
      </trkpt>
      <trkpt lat="48.09948" lon="7.0244">
        <ele>745.51</ele>
        <time>2021-06-23T09:48:37Z</time>
      </trkpt>
      <trkpt lat="48.09962" lon="7.02436">
        <ele>744.01</ele>
        <time>2021-06-23T09:48:39Z</time>
      </trkpt>
      <trkpt lat="48.0997" lon="7.02432">
        <ele>743.23</ele>
        <time>2021-06-23T09:48:41Z</time>
      </trkpt>
      <trkpt lat="48.10001" lon="7.02398">
        <ele>743.38</ele>
        <time>2021-06-23T09:48:42Z</time>
      </trkpt>
      <trkpt lat="48.10015" lon="7.02391">
        <ele>744.29</ele>
        <time>2021-06-23T09:48:44Z</time>
      </trkpt>
      <trkpt lat="48.10081" lon="7.02394">
        <ele>741.82</ele>
        <time>2021-06-23T09:48:46Z</time>
      </trkpt>
      <trkpt lat="48.1012" lon="7.02408">
        <ele>740.58</ele>
        <time>2021-06-23T09:48:48Z</time>
      </trkpt>
      <trkpt lat="48.10129" lon="7.02415">
        <ele>741.32</ele>
        <time>2021-06-23T09:48:49Z</time>
      </trkpt>
      <trkpt lat="48.10136" lon="7.02421">
        <ele>742.01</ele>
        <time>2021-06-23T09:48:51Z</time>
      </trkpt>
      <trkpt lat="48.10145" lon="7.02438">
        <ele>743.15</ele>
        <time>2021-06-23T09:48:53Z</time>
      </trkpt>
      <trkpt lat="48.10158" lon="7.02476">
        <ele>744.08</ele>
        <time>2021-06-23T09:48:55Z</time>
      </trkpt>
      <trkpt lat="48.10168" lon="7.02495">
        <ele>742.84</ele>
        <time>2021-06-23T09:48:56Z</time>
      </trkpt>
      <trkpt lat="48.10198" lon="7.02532">
        <ele>742.58</ele>
        <time>2021-06-23T09:48:58Z</time>
      </trkpt>
      <trkpt lat="48.10218" lon="7.02549">
        <ele>740.71</ele>
        <time>2021-06-23T09:49:00Z</time>
      </trkpt>
      <trkpt lat="48.10236" lon="7.02555">
        <ele>738.09</ele>
        <time>2021-06-23T09:49:02Z</time>
      </trkpt>
      <trkpt lat="48.1026" lon="7.02557">
        <ele>737.33</ele>
        <time>2021-06-23T09:49:04Z</time>
      </trkpt>
      <trkpt lat="48.10269" lon="7.0256">
        <ele>738.51</ele>
        <time>2021-06-23T09:49:05Z</time>
      </trkpt>
      <trkpt lat="48.1028" lon="7.02565">
        <ele>739.88</ele>
        <time>2021-06-23T09:49:07Z</time>
      </trkpt>
      <trkpt lat="48.10287" lon="7.02571">
        <ele>741.26</ele>
        <time>2021-06-23T09:49:09Z</time>
      </trkpt>
      <trkpt lat="48.10296" lon="7.02586">
        <ele>741.79</ele>
        <time>2021-06-23T09:49:11Z</time>
      </trkpt>
      <trkpt lat="48.10299" lon="7.02595">
        <ele>741.92</ele>
        <time>2021-06-23T09:49:12Z</time>
      </trkpt>
      <trkpt lat="48.10308" lon="7.02649">
        <ele>740.74</ele>
        <time>2021-06-23T09:49:14Z</time>
      </trkpt>
      <trkpt lat="48.10314" lon="7.02674">
        <ele>739.96</ele>
        <time>2021-06-23T09:49:16Z</time>
      </trkpt>
      <trkpt lat="48.10327" lon="7.02709">
        <ele>738.66</ele>
        <time>2021-06-23T09:49:18Z</time>
      </trkpt>
      <trkpt lat="48.10353" lon="7.02757">
        <ele>738.16</ele>
        <time>2021-06-23T09:49:19Z</time>
      </trkpt>
      <trkpt lat="48.10367" lon="7.02775">
        <ele>739.24</ele>
        <time>2021-06-23T09:49:21Z</time>
      </trkpt>
      <trkpt lat="48.10433" lon="7.02843">
        <ele>732.08</ele>
        <time>2021-06-23T09:49:23Z</time>
      </trkpt>
      <trkpt lat="48.10445" lon="7.02852">
        <ele>731</ele>
        <time>2021-06-23T09:49:25Z</time>
      </trkpt>
      <trkpt lat="48.10456" lon="7.02857">
        <ele>730.55</ele>
        <time>2021-06-23T09:49:27Z</time>
      </trkpt>
      <trkpt lat="48.10471" lon="7.02859">
        <ele>730.31</ele>
        <time>2021-06-23T09:49:28Z</time>
      </trkpt>
      <trkpt lat="48.10508" lon="7.02856">
        <ele>732.91</ele>
        <time>2021-06-23T09:49:30Z</time>
      </trkpt>
      <trkpt lat="48.10513" lon="7.02858">
        <ele>733.04</ele>
        <time>2021-06-23T09:49:32Z</time>
      </trkpt>
      <trkpt lat="48.10566" lon="7.02905">
        <ele>735.1</ele>
        <time>2021-06-23T09:49:34Z</time>
      </trkpt>
      <trkpt lat="48.10576" lon="7.02919">
        <ele>734.66</ele>
        <time>2021-06-23T09:49:35Z</time>
      </trkpt>
      <trkpt lat="48.10605" lon="7.02976">
        <ele>730.64</ele>
        <time>2021-06-23T09:49:37Z</time>
      </trkpt>
      <trkpt lat="48.1063" lon="7.03013">
        <ele>728.44</ele>
        <time>2021-06-23T09:49:39Z</time>
      </trkpt>
      <trkpt lat="48.10686" lon="7.03073">
        <ele>727.59</ele>
        <time>2021-06-23T09:49:41Z</time>
      </trkpt>
      <trkpt lat="48.1074" lon="7.03122">
        <ele>725.22</ele>
        <time>2021-06-23T09:49:42Z</time>
      </trkpt>
      <trkpt lat="48.1077" lon="7.03161">
        <ele>720.81</ele>
        <time>2021-06-23T09:49:44Z</time>
      </trkpt>
      <trkpt lat="48.1078" lon="7.03171">
        <ele>719.94</ele>
        <time>2021-06-23T09:49:46Z</time>
      </trkpt>
      <trkpt lat="48.10815" lon="7.03191">
        <ele>720.81</ele>
        <time>2021-06-23T09:49:48Z</time>
      </trkpt>
      <trkpt lat="48.1083" lon="7.03205">
        <ele>721.08</ele>
        <time>2021-06-23T09:49:50Z</time>
      </trkpt>
      <trkpt lat="48.10914" lon="7.03309">
        <ele>714.89</ele>
        <time>2021-06-23T09:49:51Z</time>
      </trkpt>
      <trkpt lat="48.10927" lon="7.0332">
        <ele>713.96</ele>
        <time>2021-06-23T09:49:53Z</time>
      </trkpt>
      <trkpt lat="48.10976" lon="7.03351">
        <ele>711.68</ele>
        <time>2021-06-23T09:49:55Z</time>
      </trkpt>
      <trkpt lat="48.11013" lon="7.03379">
        <ele>712.51</ele>
        <time>2021-06-23T09:49:57Z</time>
      </trkpt>
      <trkpt lat="48.11038" lon="7.03401">
        <ele>716.99</ele>
        <time>2021-06-23T09:49:58Z</time>
      </trkpt>
      <trkpt lat="48.11054" lon="7.03425">
        <ele>719.72</ele>
        <time>2021-06-23T09:50:00Z</time>
      </trkpt>
      <trkpt lat="48.11083" lon="7.03487">
        <ele>717.89</ele>
        <time>2021-06-23T09:50:02Z</time>
      </trkpt>
      <trkpt lat="48.11094" lon="7.03501">
        <ele>717.85</ele>
        <time>2021-06-23T09:50:04Z</time>
      </trkpt>
      <trkpt lat="48.11196" lon="7.03608">
        <ele>711.71</ele>
        <time>2021-06-23T09:50:05Z</time>
      </trkpt>
      <trkpt lat="48.11255" lon="7.03667">
        <ele>709.58</ele>
        <time>2021-06-23T09:50:07Z</time>
      </trkpt>
      <trkpt lat="48.11291" lon="7.037">
        <ele>709.86</ele>
        <time>2021-06-23T09:50:09Z</time>
      </trkpt>
      <trkpt lat="48.11327" lon="7.03728">
        <ele>711.54</ele>
        <time>2021-06-23T09:50:11Z</time>
      </trkpt>
      <trkpt lat="48.11407" lon="7.03783">
        <ele>710.28</ele>
        <time>2021-06-23T09:50:13Z</time>
      </trkpt>
      <trkpt lat="48.11472" lon="7.03832">
        <ele>716.14</ele>
        <time>2021-06-23T09:50:14Z</time>
      </trkpt>
      <trkpt lat="48.11536" lon="7.03885">
        <ele>715.3</ele>
        <time>2021-06-23T09:50:16Z</time>
      </trkpt>
      <trkpt lat="48.11666" lon="7.04012">
        <ele>709.3</ele>
        <time>2021-06-23T09:50:18Z</time>
      </trkpt>
      <trkpt lat="48.1173" lon="7.04079">
        <ele>708.3</ele>
        <time>2021-06-23T09:50:20Z</time>
      </trkpt>
      <trkpt lat="48.11751" lon="7.04095">
        <ele>708.57</ele>
        <time>2021-06-23T09:50:21Z</time>
      </trkpt>
      <trkpt lat="48.11773" lon="7.04106">
        <ele>708.23</ele>
        <time>2021-06-23T09:50:23Z</time>
      </trkpt>
      <trkpt lat="48.11829" lon="7.0412">
        <ele>712.72</ele>
        <time>2021-06-23T09:50:25Z</time>
      </trkpt>
      <trkpt lat="48.11903" lon="7.04135">
        <ele>711.97</ele>
        <time>2021-06-23T09:50:27Z</time>
      </trkpt>
      <trkpt lat="48.11924" lon="7.04147">
        <ele>705.43</ele>
        <time>2021-06-23T09:50:28Z</time>
      </trkpt>
      <trkpt lat="48.11958" lon="7.04185">
        <ele>702.97</ele>
        <time>2021-06-23T09:50:30Z</time>
      </trkpt>
      <trkpt lat="48.11978" lon="7.04199">
        <ele>703.95</ele>
        <time>2021-06-23T09:50:32Z</time>
      </trkpt>
      <trkpt lat="48.11988" lon="7.04202">
        <ele>703.7</ele>
        <time>2021-06-23T09:50:34Z</time>
      </trkpt>
      <trkpt lat="48.11993" lon="7.04201">
        <ele>702.9</ele>
        <time>2021-06-23T09:50:36Z</time>
      </trkpt>
      <trkpt lat="48.11993" lon="7.04201">
        <ele>702.9</ele>
        <time>2021-06-23T09:50:36Z</time>
      </trkpt>
      <trkpt lat="48.12009" lon="7.04199">
        <ele>702.1</ele>
        <time>2021-06-23T09:50:37Z</time>
      </trkpt>
      <trkpt lat="48.12032" lon="7.04185">
        <ele>700</ele>
        <time>2021-06-23T09:50:39Z</time>
      </trkpt>
      <trkpt lat="48.12077" lon="7.04139">
        <ele>702.35</ele>
        <time>2021-06-23T09:50:40Z</time>
      </trkpt>
      <trkpt lat="48.12092" lon="7.04121">
        <ele>702.05</ele>
        <time>2021-06-23T09:50:42Z</time>
      </trkpt>
      <trkpt lat="48.12109" lon="7.04092">
        <ele>701.33</ele>
        <time>2021-06-23T09:50:43Z</time>
      </trkpt>
      <trkpt lat="48.12113" lon="7.04077">
        <ele>700.99</ele>
        <time>2021-06-23T09:50:45Z</time>
      </trkpt>
      <trkpt lat="48.12115" lon="7.04056">
        <ele>700.38</ele>
        <time>2021-06-23T09:50:47Z</time>
      </trkpt>
      <trkpt lat="48.12115" lon="7.04034">
        <ele>698.02</ele>
        <time>2021-06-23T09:50:48Z</time>
      </trkpt>
      <trkpt lat="48.12106" lon="7.03969">
        <ele>695.26</ele>
        <time>2021-06-23T09:50:50Z</time>
      </trkpt>
      <trkpt lat="48.12106" lon="7.03944">
        <ele>695.2</ele>
        <time>2021-06-23T09:50:51Z</time>
      </trkpt>
      <trkpt lat="48.12112" lon="7.03877">
        <ele>699.57</ele>
        <time>2021-06-23T09:50:53Z</time>
      </trkpt>
      <trkpt lat="48.12111" lon="7.03805">
        <ele>700.11</ele>
        <time>2021-06-23T09:50:55Z</time>
      </trkpt>
      <trkpt lat="48.12116" lon="7.03763">
        <ele>701.23</ele>
        <time>2021-06-23T09:50:56Z</time>
      </trkpt>
      <trkpt lat="48.12124" lon="7.03716">
        <ele>700.77</ele>
        <time>2021-06-23T09:50:58Z</time>
      </trkpt>
      <trkpt lat="48.12137" lon="7.03652">
        <ele>696</ele>
        <time>2021-06-23T09:50:59Z</time>
      </trkpt>
      <trkpt lat="48.1216" lon="7.03572">
        <ele>686.89</ele>
        <time>2021-06-23T09:51:01Z</time>
      </trkpt>
      <trkpt lat="48.12171" lon="7.03511">
        <ele>683.31</ele>
        <time>2021-06-23T09:51:03Z</time>
      </trkpt>
      <trkpt lat="48.12202" lon="7.03401">
        <ele>674.79</ele>
        <time>2021-06-23T09:51:04Z</time>
      </trkpt>
      <trkpt lat="48.12212" lon="7.03377">
        <ele>674.74</ele>
        <time>2021-06-23T09:51:06Z</time>
      </trkpt>
      <trkpt lat="48.12229" lon="7.03347">
        <ele>674</ele>
        <time>2021-06-23T09:51:07Z</time>
      </trkpt>
      <trkpt lat="48.12264" lon="7.03299">
        <ele>675.54</ele>
        <time>2021-06-23T09:51:09Z</time>
      </trkpt>
      <trkpt lat="48.12282" lon="7.03269">
        <ele>674.93</ele>
        <time>2021-06-23T09:51:11Z</time>
      </trkpt>
      <trkpt lat="48.12321" lon="7.03183">
        <ele>665.77</ele>
        <time>2021-06-23T09:51:12Z</time>
      </trkpt>
      <trkpt lat="48.12333" lon="7.03163">
        <ele>665.94</ele>
        <time>2021-06-23T09:51:14Z</time>
      </trkpt>
      <trkpt lat="48.12329" lon="7.03141">
        <ele>666.24</ele>
        <time>2021-06-23T09:51:17Z</time>
      </trkpt>
      <trkpt lat="48.12329" lon="7.03132">
        <ele>666.95</ele>
        <time>2021-06-23T09:51:20Z</time>
      </trkpt>
      <trkpt lat="48.12332" lon="7.03123">
        <ele>667.3</ele>
        <time>2021-06-23T09:51:24Z</time>
      </trkpt>
      <trkpt lat="48.12354" lon="7.03091">
        <ele>664.61</ele>
        <time>2021-06-23T09:51:27Z</time>
      </trkpt>
      <trkpt lat="48.12369" lon="7.03059">
        <ele>661.59</ele>
        <time>2021-06-23T09:51:30Z</time>
      </trkpt>
      <trkpt lat="48.12387" lon="7.02999">
        <ele>658.3</ele>
        <time>2021-06-23T09:51:34Z</time>
      </trkpt>
      <trkpt lat="48.12415" lon="7.02894">
        <ele>653.14</ele>
        <time>2021-06-23T09:51:37Z</time>
      </trkpt>
      <trkpt lat="48.12452" lon="7.02809">
        <ele>651.03</ele>
        <time>2021-06-23T09:51:40Z</time>
      </trkpt>
      <trkpt lat="48.1247" lon="7.02786">
        <ele>650</ele>
        <time>2021-06-23T09:51:43Z</time>
      </trkpt>
      <trkpt lat="48.12484" lon="7.02771">
        <ele>649.26</ele>
        <time>2021-06-23T09:51:47Z</time>
      </trkpt>
      <trkpt lat="48.12494" lon="7.02766">
        <ele>648.49</ele>
        <time>2021-06-23T09:51:50Z</time>
      </trkpt>
      <trkpt lat="48.12504" lon="7.02765">
        <ele>647.78</ele>
        <time>2021-06-23T09:51:53Z</time>
      </trkpt>
      <trkpt lat="48.12548" lon="7.02788">
        <ele>646</ele>
        <time>2021-06-23T09:51:57Z</time>
      </trkpt>
      <trkpt lat="48.12565" lon="7.02792">
        <ele>646.17</ele>
        <time>2021-06-23T09:52:00Z</time>
      </trkpt>
      <trkpt lat="48.12582" lon="7.0279">
        <ele>646.51</ele>
        <time>2021-06-23T09:52:03Z</time>
      </trkpt>
      <trkpt lat="48.12625" lon="7.02768">
        <ele>645.43</ele>
        <time>2021-06-23T09:52:07Z</time>
      </trkpt>
      <trkpt lat="48.12625" lon="7.02768">
        <ele>645.43</ele>
        <time>2021-06-23T09:52:07Z</time>
      </trkpt>
      <trkpt lat="48.12663" lon="7.02749">
        <ele>644.34</ele>
        <time>2021-06-23T09:52:13Z</time>
      </trkpt>
      <trkpt lat="48.12724" lon="7.02677">
        <ele>648.95</ele>
        <time>2021-06-23T09:52:20Z</time>
      </trkpt>
      <trkpt lat="48.12753" lon="7.02677">
        <ele>649.55</ele>
        <time>2021-06-23T09:52:25Z</time>
      </trkpt>
      <trkpt lat="48.12774" lon="7.02685">
        <ele>648.67</ele>
        <time>2021-06-23T09:52:30Z</time>
      </trkpt>
      <trkpt lat="48.12882" lon="7.02738">
        <ele>640.18</ele>
        <time>2021-06-23T09:52:34Z</time>
      </trkpt>
      <trkpt lat="48.12912" lon="7.0274">
        <ele>636.01</ele>
        <time>2021-06-23T09:52:39Z</time>
      </trkpt>
      <trkpt lat="48.12945" lon="7.02733">
        <ele>635.79</ele>
        <time>2021-06-23T09:52:44Z</time>
      </trkpt>
      <trkpt lat="48.12996" lon="7.02718">
        <ele>635.79</ele>
        <time>2021-06-23T09:52:49Z</time>
      </trkpt>
      <trkpt lat="48.13018" lon="7.02718">
        <ele>633.7</ele>
        <time>2021-06-23T09:52:53Z</time>
      </trkpt>
      <trkpt lat="48.13059" lon="7.02743">
        <ele>633.74</ele>
        <time>2021-06-23T09:52:58Z</time>
      </trkpt>
      <trkpt lat="48.13084" lon="7.02747">
        <ele>634.16</ele>
        <time>2021-06-23T09:53:03Z</time>
      </trkpt>
      <trkpt lat="48.13084" lon="7.02747">
        <ele>634.16</ele>
        <time>2021-06-23T09:53:03Z</time>
      </trkpt>
      <trkpt lat="48.13144" lon="7.02757">
        <ele>634.59</ele>
        <time>2021-06-23T09:53:07Z</time>
      </trkpt>
      <trkpt lat="48.13188" lon="7.02743">
        <ele>632.49</ele>
        <time>2021-06-23T09:53:10Z</time>
      </trkpt>
      <trkpt lat="48.13209" lon="7.0274">
        <ele>631.84</ele>
        <time>2021-06-23T09:53:14Z</time>
      </trkpt>
      <trkpt lat="48.13221" lon="7.02745">
        <ele>631.24</ele>
        <time>2021-06-23T09:53:18Z</time>
      </trkpt>
      <trkpt lat="48.13236" lon="7.02768">
        <ele>632.27</ele>
        <time>2021-06-23T09:53:21Z</time>
      </trkpt>
      <trkpt lat="48.13268" lon="7.0274">
        <ele>631.4</ele>
        <time>2021-06-23T09:53:27Z</time>
      </trkpt>
      <trkpt lat="48.13286" lon="7.02731">
        <ele>631.31</ele>
        <time>2021-06-23T09:53:32Z</time>
      </trkpt>
      <trkpt lat="48.13365" lon="7.02726">
        <ele>630.02</ele>
        <time>2021-06-23T09:53:37Z</time>
      </trkpt>
      <trkpt lat="48.13461" lon="7.02729">
        <ele>627.01</ele>
        <time>2021-06-23T09:53:42Z</time>
      </trkpt>
      <trkpt lat="48.13476" lon="7.02723">
        <ele>624.34</ele>
        <time>2021-06-23T09:53:47Z</time>
      </trkpt>
      <trkpt lat="48.13511" lon="7.02701">
        <ele>621.35</ele>
        <time>2021-06-23T09:53:52Z</time>
      </trkpt>
      <trkpt lat="48.13595" lon="7.02642">
        <ele>618.12</ele>
        <time>2021-06-23T09:53:57Z</time>
      </trkpt>
      <trkpt lat="48.1382" lon="7.02491">
        <ele>617.71</ele>
        <time>2021-06-23T09:54:03Z</time>
      </trkpt>
      <trkpt lat="48.13869" lon="7.0246">
        <ele>618.99</ele>
        <time>2021-06-23T09:54:08Z</time>
      </trkpt>
      <trkpt lat="48.13927" lon="7.02431">
        <ele>618.43</ele>
        <time>2021-06-23T09:54:13Z</time>
      </trkpt>
      <trkpt lat="48.14033" lon="7.0239">
        <ele>619.76</ele>
        <time>2021-06-23T09:54:18Z</time>
      </trkpt>
      <trkpt lat="48.14054" lon="7.02371">
        <ele>619.57</ele>
        <time>2021-06-23T09:54:23Z</time>
      </trkpt>
      <trkpt lat="48.14131" lon="7.02277">
        <ele>619.37</ele>
        <time>2021-06-23T09:54:28Z</time>
      </trkpt>
      <trkpt lat="48.14173" lon="7.02199">
        <ele>618.19</ele>
        <time>2021-06-23T09:54:33Z</time>
      </trkpt>
      <trkpt lat="48.1422" lon="7.02137">
        <ele>613.45</ele>
        <time>2021-06-23T09:54:39Z</time>
      </trkpt>
      <trkpt lat="48.14232" lon="7.02116">
        <ele>612.16</ele>
        <time>2021-06-23T09:54:44Z</time>
      </trkpt>
      <trkpt lat="48.14239" lon="7.02097">
        <ele>611.14</ele>
        <time>2021-06-23T09:54:49Z</time>
      </trkpt>
      <trkpt lat="48.14245" lon="7.02065">
        <ele>609.86</ele>
        <time>2021-06-23T09:54:54Z</time>
      </trkpt>
      <trkpt lat="48.14258" lon="7.01967">
        <ele>610.35</ele>
        <time>2021-06-23T09:54:59Z</time>
      </trkpt>
      <trkpt lat="48.14262" lon="7.0194">
        <ele>609.64</ele>
        <time>2021-06-23T09:55:04Z</time>
      </trkpt>
      <trkpt lat="48.14274" lon="7.01909">
        <ele>608.84</ele>
        <time>2021-06-23T09:55:09Z</time>
      </trkpt>
      <trkpt lat="48.14306" lon="7.01837">
        <ele>605.28</ele>
        <time>2021-06-23T09:55:15Z</time>
      </trkpt>
      <trkpt lat="48.14323" lon="7.01788">
        <ele>605.87</ele>
        <time>2021-06-23T09:55:20Z</time>
      </trkpt>
      <trkpt lat="48.14344" lon="7.01723">
        <ele>606.24</ele>
        <time>2021-06-23T09:55:25Z</time>
      </trkpt>
      <trkpt lat="48.14384" lon="7.01634">
        <ele>604.34</ele>
        <time>2021-06-23T09:55:30Z</time>
      </trkpt>
      <trkpt lat="48.14411" lon="7.0158">
        <ele>606</ele>
        <time>2021-06-23T09:55:35Z</time>
      </trkpt>
      <trkpt lat="48.14426" lon="7.01561">
        <ele>606.18</ele>
        <time>2021-06-23T09:55:40Z</time>
      </trkpt>
      <trkpt lat="48.14454" lon="7.01539">
        <ele>606.02</ele>
        <time>2021-06-23T09:55:46Z</time>
      </trkpt>
      <trkpt lat="48.14474" lon="7.01515">
        <ele>605.83</ele>
        <time>2021-06-23T09:55:51Z</time>
      </trkpt>
      <trkpt lat="48.14504" lon="7.01446">
        <ele>602.28</ele>
        <time>2021-06-23T09:55:56Z</time>
      </trkpt>
      <trkpt lat="48.1452" lon="7.01419">
        <ele>601.8</ele>
        <time>2021-06-23T09:56:01Z</time>
      </trkpt>
      <trkpt lat="48.14575" lon="7.01338">
        <ele>603.74</ele>
        <time>2021-06-23T09:56:06Z</time>
      </trkpt>
      <trkpt lat="48.14599" lon="7.01274">
        <ele>603.65</ele>
        <time>2021-06-23T09:56:11Z</time>
      </trkpt>
      <trkpt lat="48.1463" lon="7.01184">
        <ele>601</ele>
        <time>2021-06-23T09:56:16Z</time>
      </trkpt>
      <trkpt lat="48.14647" lon="7.01149">
        <ele>599.93</ele>
        <time>2021-06-23T09:56:22Z</time>
      </trkpt>
      <trkpt lat="48.1467" lon="7.01105">
        <ele>598.93</ele>
        <time>2021-06-23T09:56:27Z</time>
      </trkpt>
      <trkpt lat="48.14691" lon="7.01075">
        <ele>598.18</ele>
        <time>2021-06-23T09:56:32Z</time>
      </trkpt>
      <trkpt lat="48.14806" lon="7.00958">
        <ele>598.47</ele>
        <time>2021-06-23T09:56:37Z</time>
      </trkpt>
      <trkpt lat="48.14814" lon="7.00953">
        <ele>598.65</ele>
        <time>2021-06-23T09:56:42Z</time>
      </trkpt>
      <trkpt lat="48.14814" lon="7.00953">
        <ele>598.65</ele>
        <time>2021-06-23T09:56:42Z</time>
      </trkpt>
      <trkpt lat="48.14866" lon="7.00929">
        <ele>599.17</ele>
        <time>2021-06-23T09:56:48Z</time>
      </trkpt>
      <trkpt lat="48.15001" lon="7.00892">
        <ele>594.1</ele>
        <time>2021-06-23T09:56:53Z</time>
      </trkpt>
      <trkpt lat="48.15048" lon="7.00875">
        <ele>592.78</ele>
        <time>2021-06-23T09:56:59Z</time>
      </trkpt>
      <trkpt lat="48.15072" lon="7.00871">
        <ele>591.16</ele>
        <time>2021-06-23T09:57:04Z</time>
      </trkpt>
      <trkpt lat="48.15094" lon="7.0087">
        <ele>589.82</ele>
        <time>2021-06-23T09:57:10Z</time>
      </trkpt>
      <trkpt lat="48.1517" lon="7.00884">
        <ele>587.52</ele>
        <time>2021-06-23T09:57:16Z</time>
      </trkpt>
      <trkpt lat="48.15251" lon="7.00882">
        <ele>583.74</ele>
        <time>2021-06-23T09:57:21Z</time>
      </trkpt>
      <trkpt lat="48.15292" lon="7.00878">
        <ele>583.8</ele>
        <time>2021-06-23T09:57:27Z</time>
      </trkpt>
      <trkpt lat="48.15356" lon="7.00853">
        <ele>581.69</ele>
        <time>2021-06-23T09:57:32Z</time>
      </trkpt>
      <trkpt lat="48.15407" lon="7.00847">
        <ele>580.49</ele>
        <time>2021-06-23T09:57:38Z</time>
      </trkpt>
      <trkpt lat="48.15481" lon="7.00844">
        <ele>579.74</ele>
        <time>2021-06-23T09:57:43Z</time>
      </trkpt>
      <trkpt lat="48.15719" lon="7.00813">
        <ele>573</ele>
        <time>2021-06-23T09:57:49Z</time>
      </trkpt>
      <trkpt lat="48.15755" lon="7.00817">
        <ele>572.5</ele>
        <time>2021-06-23T09:57:55Z</time>
      </trkpt>
      <trkpt lat="48.15775" lon="7.0083">
        <ele>572.99</ele>
        <time>2021-06-23T09:58:00Z</time>
      </trkpt>
      <trkpt lat="48.15795" lon="7.00856">
        <ele>572.51</ele>
        <time>2021-06-23T09:58:06Z</time>
      </trkpt>
      <trkpt lat="48.15811" lon="7.00884">
        <ele>571.84</ele>
        <time>2021-06-23T09:58:11Z</time>
      </trkpt>
      <trkpt lat="48.15826" lon="7.00904">
        <ele>571.67</ele>
        <time>2021-06-23T09:58:17Z</time>
      </trkpt>
      <trkpt lat="48.15845" lon="7.00916">
        <ele>571.57</ele>
        <time>2021-06-23T09:58:22Z</time>
      </trkpt>
      <trkpt lat="48.15867" lon="7.00914">
        <ele>571.1</ele>
        <time>2021-06-23T09:58:28Z</time>
      </trkpt>
      <trkpt lat="48.16091" lon="7.0086">
        <ele>564.9</ele>
        <time>2021-06-23T09:58:34Z</time>
      </trkpt>
      <trkpt lat="48.16115" lon="7.00862">
        <ele>564.82</ele>
        <time>2021-06-23T09:58:39Z</time>
      </trkpt>
      <trkpt lat="48.1625" lon="7.00905">
        <ele>557.6</ele>
        <time>2021-06-23T09:58:45Z</time>
      </trkpt>
      <trkpt lat="48.16343" lon="7.00962">
        <ele>553.89</ele>
        <time>2021-06-23T09:58:50Z</time>
      </trkpt>
      <trkpt lat="48.16365" lon="7.00972">
        <ele>554.15</ele>
        <time>2021-06-23T09:58:56Z</time>
      </trkpt>
      <trkpt lat="48.16386" lon="7.00978">
        <ele>554.97</ele>
        <time>2021-06-23T09:59:02Z</time>
      </trkpt>
      <trkpt lat="48.16438" lon="7.00985">
        <ele>551.21</ele>
        <time>2021-06-23T09:59:07Z</time>
      </trkpt>
      <trkpt lat="48.165" lon="7.00996">
        <ele>549.01</ele>
        <time>2021-06-23T09:59:13Z</time>
      </trkpt>
      <trkpt lat="48.16515" lon="7.01005">
        <ele>548.3</ele>
        <time>2021-06-23T09:59:18Z</time>
      </trkpt>
      <trkpt lat="48.16531" lon="7.01023">
        <ele>547.09</ele>
        <time>2021-06-23T09:59:24Z</time>
      </trkpt>
      <trkpt lat="48.16568" lon="7.01057">
        <ele>546.48</ele>
        <time>2021-06-23T09:59:29Z</time>
      </trkpt>
      <trkpt lat="48.16587" lon="7.01065">
        <ele>546.76</ele>
        <time>2021-06-23T09:59:35Z</time>
      </trkpt>
      <trkpt lat="48.16603" lon="7.01068">
        <ele>545.56</ele>
        <time>2021-06-23T09:59:41Z</time>
      </trkpt>
      <trkpt lat="48.16644" lon="7.01065">
        <ele>544.15</ele>
        <time>2021-06-23T09:59:46Z</time>
      </trkpt>
      <trkpt lat="48.16657" lon="7.01066">
        <ele>543.74</ele>
        <time>2021-06-23T09:59:52Z</time>
      </trkpt>
      <trkpt lat="48.16739" lon="7.01099">
        <ele>542.49</ele>
        <time>2021-06-23T09:59:57Z</time>
      </trkpt>
      <trkpt lat="48.16753" lon="7.01109">
        <ele>542.09</ele>
        <time>2021-06-23T10:00:03Z</time>
      </trkpt>
      <trkpt lat="48.16768" lon="7.01129">
        <ele>542.22</ele>
        <time>2021-06-23T10:00:08Z</time>
      </trkpt>
      <trkpt lat="48.16796" lon="7.01183">
        <ele>541.34</ele>
        <time>2021-06-23T10:00:14Z</time>
      </trkpt>
      <trkpt lat="48.16813" lon="7.01205">
        <ele>541.02</ele>
        <time>2021-06-23T10:00:20Z</time>
      </trkpt>
      <trkpt lat="48.16868" lon="7.01263">
        <ele>540.09</ele>
        <time>2021-06-23T10:00:25Z</time>
      </trkpt>
      <trkpt lat="48.16885" lon="7.01277">
        <ele>539.29</ele>
        <time>2021-06-23T10:00:31Z</time>
      </trkpt>
      <trkpt lat="48.16977" lon="7.01341">
        <ele>537.9</ele>
        <time>2021-06-23T10:00:36Z</time>
      </trkpt>
      <trkpt lat="48.17063" lon="7.01384">
        <ele>535.35</ele>
        <time>2021-06-23T10:00:42Z</time>
      </trkpt>
      <trkpt lat="48.1714" lon="7.01413">
        <ele>535.02</ele>
        <time>2021-06-23T10:00:47Z</time>
      </trkpt>
      <trkpt lat="48.17214" lon="7.01416">
        <ele>535.3</ele>
        <time>2021-06-23T10:00:53Z</time>
      </trkpt>
      <trkpt lat="48.17233" lon="7.01422">
        <ele>534.69</ele>
        <time>2021-06-23T10:00:59Z</time>
      </trkpt>
      <trkpt lat="48.17248" lon="7.01431">
        <ele>534.61</ele>
        <time>2021-06-23T10:01:04Z</time>
      </trkpt>
      <trkpt lat="48.17248" lon="7.01431">
        <ele>534.61</ele>
        <time>2021-06-23T10:01:04Z</time>
      </trkpt>
      <trkpt lat="48.1726" lon="7.01444">
        <ele>534.61</ele>
        <time>2021-06-23T10:01:06Z</time>
      </trkpt>
      <trkpt lat="48.17201" lon="7.0159">
        <ele>534.76</ele>
        <time>2021-06-23T10:01:10Z</time>
      </trkpt>
      <trkpt lat="48.17175" lon="7.01681">
        <ele>537.54</ele>
        <time>2021-06-23T10:01:15Z</time>
      </trkpt>
      <trkpt lat="48.17165" lon="7.01703">
        <ele>538.05</ele>
        <time>2021-06-23T10:01:20Z</time>
      </trkpt>
      <trkpt lat="48.17112" lon="7.01793">
        <ele>538.97</ele>
        <time>2021-06-23T10:01:24Z</time>
      </trkpt>
      <trkpt lat="48.17105" lon="7.0181">
        <ele>539.21</ele>
        <time>2021-06-23T10:01:29Z</time>
      </trkpt>
      <trkpt lat="48.17084" lon="7.01892">
        <ele>540</ele>
        <time>2021-06-23T10:01:34Z</time>
      </trkpt>
      <trkpt lat="48.17075" lon="7.01933">
        <ele>540.4</ele>
        <time>2021-06-23T10:01:39Z</time>
      </trkpt>
      <trkpt lat="48.17065" lon="7.01964">
        <ele>541.37</ele>
        <time>2021-06-23T10:01:43Z</time>
      </trkpt>
      <trkpt lat="48.17058" lon="7.01977">
        <ele>542.08</ele>
        <time>2021-06-23T10:01:48Z</time>
      </trkpt>
      <trkpt lat="48.1702" lon="7.02036">
        <ele>546.77</ele>
        <time>2021-06-23T10:01:53Z</time>
      </trkpt>
      <trkpt lat="48.16999" lon="7.02083">
        <ele>549.29</ele>
        <time>2021-06-23T10:01:57Z</time>
      </trkpt>
      <trkpt lat="48.16959" lon="7.02212">
        <ele>556.47</ele>
        <time>2021-06-23T10:02:02Z</time>
      </trkpt>
      <trkpt lat="48.16927" lon="7.02325">
        <ele>558.49</ele>
        <time>2021-06-23T10:02:07Z</time>
      </trkpt>
      <trkpt lat="48.16882" lon="7.02475">
        <ele>559.84</ele>
        <time>2021-06-23T10:02:11Z</time>
      </trkpt>
      <trkpt lat="48.16835" lon="7.02656">
        <ele>567.15</ele>
        <time>2021-06-23T10:02:16Z</time>
      </trkpt>
      <trkpt lat="48.16799" lon="7.02793">
        <ele>570.22</ele>
        <time>2021-06-23T10:02:21Z</time>
      </trkpt>
      <trkpt lat="48.16794" lon="7.02821">
        <ele>570.22</ele>
        <time>2021-06-23T10:02:25Z</time>
      </trkpt>
      <trkpt lat="48.16784" lon="7.02947">
        <ele>575.11</ele>
        <time>2021-06-23T10:02:30Z</time>
      </trkpt>
      <trkpt lat="48.16776" lon="7.03064">
        <ele>581.65</ele>
        <time>2021-06-23T10:02:35Z</time>
      </trkpt>
      <trkpt lat="48.16776" lon="7.03095">
        <ele>584.57</ele>
        <time>2021-06-23T10:02:39Z</time>
      </trkpt>
      <trkpt lat="48.16779" lon="7.03116">
        <ele>584.98</ele>
        <time>2021-06-23T10:02:44Z</time>
      </trkpt>
      <trkpt lat="48.16784" lon="7.03134">
        <ele>584.78</ele>
        <time>2021-06-23T10:02:49Z</time>
      </trkpt>
      <trkpt lat="48.16795" lon="7.03157">
        <ele>584.58</ele>
        <time>2021-06-23T10:02:53Z</time>
      </trkpt>
      <trkpt lat="48.16804" lon="7.03173">
        <ele>583.83</ele>
        <time>2021-06-23T10:02:58Z</time>
      </trkpt>
      <trkpt lat="48.16813" lon="7.03182">
        <ele>583.98</ele>
        <time>2021-06-23T10:03:03Z</time>
      </trkpt>
      <trkpt lat="48.16813" lon="7.03182">
        <ele>583.98</ele>
        <time>2021-06-23T10:03:03Z</time>
      </trkpt>
      <trkpt lat="48.16818" lon="7.03187">
        <ele>584.14</ele>
        <time>2021-06-23T10:03:06Z</time>
      </trkpt>
      <trkpt lat="48.16834" lon="7.03195">
        <ele>584.14</ele>
        <time>2021-06-23T10:03:09Z</time>
      </trkpt>
      <trkpt lat="48.16851" lon="7.03199">
        <ele>585.69</ele>
        <time>2021-06-23T10:03:11Z</time>
      </trkpt>
      <trkpt lat="48.16875" lon="7.03193">
        <ele>587.77</ele>
        <time>2021-06-23T10:03:14Z</time>
      </trkpt>
      <trkpt lat="48.16897" lon="7.03171">
        <ele>590.48</ele>
        <time>2021-06-23T10:03:17Z</time>
      </trkpt>
      <trkpt lat="48.16934" lon="7.03112">
        <ele>591.6</ele>
        <time>2021-06-23T10:03:20Z</time>
      </trkpt>
      <trkpt lat="48.17015" lon="7.02969">
        <ele>596.11</ele>
        <time>2021-06-23T10:03:23Z</time>
      </trkpt>
      <trkpt lat="48.17112" lon="7.02811">
        <ele>605.11</ele>
        <time>2021-06-23T10:03:26Z</time>
      </trkpt>
      <trkpt lat="48.17212" lon="7.02673">
        <ele>616.08</ele>
        <time>2021-06-23T10:03:29Z</time>
      </trkpt>
      <trkpt lat="48.17254" lon="7.02612">
        <ele>618.11</ele>
        <time>2021-06-23T10:03:32Z</time>
      </trkpt>
      <trkpt lat="48.1735" lon="7.02479">
        <ele>630.64</ele>
        <time>2021-06-23T10:03:35Z</time>
      </trkpt>
      <trkpt lat="48.17382" lon="7.02448">
        <ele>629.1</ele>
        <time>2021-06-23T10:03:38Z</time>
      </trkpt>
      <trkpt lat="48.17425" lon="7.02424">
        <ele>629.28</ele>
        <time>2021-06-23T10:03:41Z</time>
      </trkpt>
      <trkpt lat="48.1746" lon="7.02412">
        <ele>629.77</ele>
        <time>2021-06-23T10:03:44Z</time>
      </trkpt>
      <trkpt lat="48.17528" lon="7.02394">
        <ele>634.75</ele>
        <time>2021-06-23T10:03:47Z</time>
      </trkpt>
      <trkpt lat="48.17552" lon="7.02392">
        <ele>637</ele>
        <time>2021-06-23T10:03:50Z</time>
      </trkpt>
      <trkpt lat="48.1758" lon="7.02396">
        <ele>637.34</ele>
        <time>2021-06-23T10:03:53Z</time>
      </trkpt>
      <trkpt lat="48.17611" lon="7.02413">
        <ele>640.14</ele>
        <time>2021-06-23T10:03:56Z</time>
      </trkpt>
      <trkpt lat="48.17656" lon="7.02442">
        <ele>645.1</ele>
        <time>2021-06-23T10:03:59Z</time>
      </trkpt>
      <trkpt lat="48.17687" lon="7.02467">
        <ele>646.61</ele>
        <time>2021-06-23T10:04:02Z</time>
      </trkpt>
      <trkpt lat="48.17707" lon="7.02479">
        <ele>647.93</ele>
        <time>2021-06-23T10:04:04Z</time>
      </trkpt>
      <trkpt lat="48.17733" lon="7.02486">
        <ele>650.32</ele>
        <time>2021-06-23T10:04:07Z</time>
      </trkpt>
      <trkpt lat="48.17757" lon="7.02488">
        <ele>652.64</ele>
        <time>2021-06-23T10:04:10Z</time>
      </trkpt>
      <trkpt lat="48.17783" lon="7.02487">
        <ele>652.64</ele>
        <time>2021-06-23T10:04:13Z</time>
      </trkpt>
      <trkpt lat="48.17827" lon="7.02472">
        <ele>652.8</ele>
        <time>2021-06-23T10:04:16Z</time>
      </trkpt>
      <trkpt lat="48.17919" lon="7.0241">
        <ele>656.53</ele>
        <time>2021-06-23T10:04:19Z</time>
      </trkpt>
      <trkpt lat="48.17933" lon="7.02397">
        <ele>657.78</ele>
        <time>2021-06-23T10:04:22Z</time>
      </trkpt>
      <trkpt lat="48.17962" lon="7.0235">
        <ele>660.53</ele>
        <time>2021-06-23T10:04:25Z</time>
      </trkpt>
      <trkpt lat="48.17972" lon="7.02339">
        <ele>661.42</ele>
        <time>2021-06-23T10:04:28Z</time>
      </trkpt>
      <trkpt lat="48.17984" lon="7.02335">
        <ele>661.11</ele>
        <time>2021-06-23T10:04:31Z</time>
      </trkpt>
      <trkpt lat="48.17995" lon="7.02336">
        <ele>661.2</ele>
        <time>2021-06-23T10:04:34Z</time>
      </trkpt>
      <trkpt lat="48.18007" lon="7.02347">
        <ele>661.14</ele>
        <time>2021-06-23T10:04:37Z</time>
      </trkpt>
      <trkpt lat="48.18013" lon="7.02359">
        <ele>661.47</ele>
        <time>2021-06-23T10:04:40Z</time>
      </trkpt>
      <trkpt lat="48.18015" lon="7.0237">
        <ele>662.53</ele>
        <time>2021-06-23T10:04:43Z</time>
      </trkpt>
      <trkpt lat="48.18015" lon="7.02386">
        <ele>664.59</ele>
        <time>2021-06-23T10:04:46Z</time>
      </trkpt>
      <trkpt lat="48.18013" lon="7.02397">
        <ele>665.95</ele>
        <time>2021-06-23T10:04:49Z</time>
      </trkpt>
      <trkpt lat="48.18008" lon="7.02408">
        <ele>667.16</ele>
        <time>2021-06-23T10:04:52Z</time>
      </trkpt>
      <trkpt lat="48.18002" lon="7.02417">
        <ele>667.98</ele>
        <time>2021-06-23T10:04:55Z</time>
      </trkpt>
      <trkpt lat="48.17953" lon="7.02442">
        <ele>668.8</ele>
        <time>2021-06-23T10:04:58Z</time>
      </trkpt>
      <trkpt lat="48.17937" lon="7.02455">
        <ele>669.04</ele>
        <time>2021-06-23T10:05:00Z</time>
      </trkpt>
      <trkpt lat="48.1789" lon="7.02518">
        <ele>677.74</ele>
        <time>2021-06-23T10:05:03Z</time>
      </trkpt>
      <trkpt lat="48.17836" lon="7.026">
        <ele>686.48</ele>
        <time>2021-06-23T10:05:06Z</time>
      </trkpt>
      <trkpt lat="48.17815" lon="7.02619">
        <ele>688.62</ele>
        <time>2021-06-23T10:05:09Z</time>
      </trkpt>
      <trkpt lat="48.17788" lon="7.02638">
        <ele>687.61</ele>
        <time>2021-06-23T10:05:12Z</time>
      </trkpt>
      <trkpt lat="48.17716" lon="7.02668">
        <ele>686.99</ele>
        <time>2021-06-23T10:05:15Z</time>
      </trkpt>
      <trkpt lat="48.17679" lon="7.02682">
        <ele>688.82</ele>
        <time>2021-06-23T10:05:18Z</time>
      </trkpt>
      <trkpt lat="48.17653" lon="7.0269">
        <ele>690.6</ele>
        <time>2021-06-23T10:05:21Z</time>
      </trkpt>
      <trkpt lat="48.17627" lon="7.02695">
        <ele>693.34</ele>
        <time>2021-06-23T10:05:24Z</time>
      </trkpt>
      <trkpt lat="48.17605" lon="7.02695">
        <ele>695.79</ele>
        <time>2021-06-23T10:05:27Z</time>
      </trkpt>
      <trkpt lat="48.17559" lon="7.02691">
        <ele>698.06</ele>
        <time>2021-06-23T10:05:30Z</time>
      </trkpt>
      <trkpt lat="48.17541" lon="7.02694">
        <ele>699.44</ele>
        <time>2021-06-23T10:05:33Z</time>
      </trkpt>
      <trkpt lat="48.17526" lon="7.02701">
        <ele>701.04</ele>
        <time>2021-06-23T10:05:36Z</time>
      </trkpt>
      <trkpt lat="48.17509" lon="7.02712">
        <ele>700.97</ele>
        <time>2021-06-23T10:05:39Z</time>
      </trkpt>
      <trkpt lat="48.17487" lon="7.02736">
        <ele>702.8</ele>
        <time>2021-06-23T10:05:42Z</time>
      </trkpt>
      <trkpt lat="48.17465" lon="7.02773">
        <ele>706.29</ele>
        <time>2021-06-23T10:05:45Z</time>
      </trkpt>
      <trkpt lat="48.17349" lon="7.02978">
        <ele>711.17</ele>
        <time>2021-06-23T10:05:48Z</time>
      </trkpt>
      <trkpt lat="48.1733" lon="7.03015">
        <ele>714.92</ele>
        <time>2021-06-23T10:05:51Z</time>
      </trkpt>
      <trkpt lat="48.17319" lon="7.0304">
        <ele>716.85</ele>
        <time>2021-06-23T10:05:53Z</time>
      </trkpt>
      <trkpt lat="48.17304" lon="7.031">
        <ele>720.95</ele>
        <time>2021-06-23T10:05:56Z</time>
      </trkpt>
      <trkpt lat="48.173" lon="7.03136">
        <ele>723.37</ele>
        <time>2021-06-23T10:05:59Z</time>
      </trkpt>
      <trkpt lat="48.17303" lon="7.03316">
        <ele>730.45</ele>
        <time>2021-06-23T10:06:02Z</time>
      </trkpt>
      <trkpt lat="48.17306" lon="7.03349">
        <ele>731.2</ele>
        <time>2021-06-23T10:06:05Z</time>
      </trkpt>
      <trkpt lat="48.17319" lon="7.03401">
        <ele>732.22</ele>
        <time>2021-06-23T10:06:08Z</time>
      </trkpt>
      <trkpt lat="48.17329" lon="7.03425">
        <ele>731.97</ele>
        <time>2021-06-23T10:06:11Z</time>
      </trkpt>
      <trkpt lat="48.17347" lon="7.03457">
        <ele>735.65</ele>
        <time>2021-06-23T10:06:14Z</time>
      </trkpt>
      <trkpt lat="48.17366" lon="7.0348">
        <ele>738.56</ele>
        <time>2021-06-23T10:06:17Z</time>
      </trkpt>
      <trkpt lat="48.17424" lon="7.03533">
        <ele>739.33</ele>
        <time>2021-06-23T10:06:20Z</time>
      </trkpt>
      <trkpt lat="48.17448" lon="7.03559">
        <ele>739.92</ele>
        <time>2021-06-23T10:06:23Z</time>
      </trkpt>
      <trkpt lat="48.17466" lon="7.03585">
        <ele>741.69</ele>
        <time>2021-06-23T10:06:26Z</time>
      </trkpt>
      <trkpt lat="48.17478" lon="7.03611">
        <ele>743.25</ele>
        <time>2021-06-23T10:06:29Z</time>
      </trkpt>
      <trkpt lat="48.17489" lon="7.03641">
        <ele>745.39</ele>
        <time>2021-06-23T10:06:32Z</time>
      </trkpt>
      <trkpt lat="48.17496" lon="7.03671">
        <ele>747.05</ele>
        <time>2021-06-23T10:06:35Z</time>
      </trkpt>
      <trkpt lat="48.17504" lon="7.03724">
        <ele>748.86</ele>
        <time>2021-06-23T10:06:38Z</time>
      </trkpt>
      <trkpt lat="48.1751" lon="7.03782">
        <ele>748.77</ele>
        <time>2021-06-23T10:06:41Z</time>
      </trkpt>
      <trkpt lat="48.17509" lon="7.03821">
        <ele>748.97</ele>
        <time>2021-06-23T10:06:44Z</time>
      </trkpt>
      <trkpt lat="48.17501" lon="7.03897">
        <ele>752.16</ele>
        <time>2021-06-23T10:06:47Z</time>
      </trkpt>
      <trkpt lat="48.17495" lon="7.03915">
        <ele>752.47</ele>
        <time>2021-06-23T10:06:49Z</time>
      </trkpt>
      <trkpt lat="48.17487" lon="7.03931">
        <ele>753.95</ele>
        <time>2021-06-23T10:06:52Z</time>
      </trkpt>
      <trkpt lat="48.17473" lon="7.03955">
        <ele>754.24</ele>
        <time>2021-06-23T10:06:55Z</time>
      </trkpt>
      <trkpt lat="48.17448" lon="7.03974">
        <ele>759.99</ele>
        <time>2021-06-23T10:06:58Z</time>
      </trkpt>
      <trkpt lat="48.17436" lon="7.03978">
        <ele>762.66</ele>
        <time>2021-06-23T10:07:01Z</time>
      </trkpt>
      <trkpt lat="48.17423" lon="7.0398">
        <ele>765.01</ele>
        <time>2021-06-23T10:07:04Z</time>
      </trkpt>
      <trkpt lat="48.17363" lon="7.03977">
        <ele>774.85</ele>
        <time>2021-06-23T10:07:07Z</time>
      </trkpt>
      <trkpt lat="48.17341" lon="7.03978">
        <ele>777.72</ele>
        <time>2021-06-23T10:07:10Z</time>
      </trkpt>
      <trkpt lat="48.17313" lon="7.03982">
        <ele>781.51</ele>
        <time>2021-06-23T10:07:13Z</time>
      </trkpt>
      <trkpt lat="48.1725" lon="7.04003">
        <ele>785.84</ele>
        <time>2021-06-23T10:07:16Z</time>
      </trkpt>
      <trkpt lat="48.17216" lon="7.04017">
        <ele>786.39</ele>
        <time>2021-06-23T10:07:19Z</time>
      </trkpt>
      <trkpt lat="48.17197" lon="7.04028">
        <ele>785.57</ele>
        <time>2021-06-23T10:07:22Z</time>
      </trkpt>
      <trkpt lat="48.17183" lon="7.04039">
        <ele>784.68</ele>
        <time>2021-06-23T10:07:25Z</time>
      </trkpt>
      <trkpt lat="48.17146" lon="7.0408">
        <ele>783.17</ele>
        <time>2021-06-23T10:07:28Z</time>
      </trkpt>
      <trkpt lat="48.17104" lon="7.04142">
        <ele>787.51</ele>
        <time>2021-06-23T10:07:31Z</time>
      </trkpt>
      <trkpt lat="48.17095" lon="7.04163">
        <ele>787.16</ele>
        <time>2021-06-23T10:07:34Z</time>
      </trkpt>
      <trkpt lat="48.17077" lon="7.0421">
        <ele>787.04</ele>
        <time>2021-06-23T10:07:37Z</time>
      </trkpt>
      <trkpt lat="48.17051" lon="7.04322">
        <ele>791.5</ele>
        <time>2021-06-23T10:07:40Z</time>
      </trkpt>
      <trkpt lat="48.17008" lon="7.04563">
        <ele>807.36</ele>
        <time>2021-06-23T10:07:42Z</time>
      </trkpt>
      <trkpt lat="48.16998" lon="7.04603">
        <ele>808.22</ele>
        <time>2021-06-23T10:07:45Z</time>
      </trkpt>
      <trkpt lat="48.16962" lon="7.0471">
        <ele>810.04</ele>
        <time>2021-06-23T10:07:48Z</time>
      </trkpt>
      <trkpt lat="48.16877" lon="7.04902">
        <ele>823.38</ele>
        <time>2021-06-23T10:07:51Z</time>
      </trkpt>
      <trkpt lat="48.1683" lon="7.04996">
        <ele>824.73</ele>
        <time>2021-06-23T10:07:54Z</time>
      </trkpt>
      <trkpt lat="48.1682" lon="7.05021">
        <ele>823.39</ele>
        <time>2021-06-23T10:07:57Z</time>
      </trkpt>
      <trkpt lat="48.16814" lon="7.05043">
        <ele>822.51</ele>
        <time>2021-06-23T10:08:00Z</time>
      </trkpt>
      <trkpt lat="48.16812" lon="7.05063">
        <ele>823.16</ele>
        <time>2021-06-23T10:08:03Z</time>
      </trkpt>
      <trkpt lat="48.16812" lon="7.05083">
        <ele>824.16</ele>
        <time>2021-06-23T10:08:06Z</time>
      </trkpt>
      <trkpt lat="48.16817" lon="7.05105">
        <ele>826.31</ele>
        <time>2021-06-23T10:08:09Z</time>
      </trkpt>
      <trkpt lat="48.16829" lon="7.05135">
        <ele>829.88</ele>
        <time>2021-06-23T10:08:12Z</time>
      </trkpt>
      <trkpt lat="48.16849" lon="7.05174">
        <ele>835.91</ele>
        <time>2021-06-23T10:08:15Z</time>
      </trkpt>
      <trkpt lat="48.1689" lon="7.05239">
        <ele>839.24</ele>
        <time>2021-06-23T10:08:18Z</time>
      </trkpt>
      <trkpt lat="48.16981" lon="7.05398">
        <ele>845.68</ele>
        <time>2021-06-23T10:08:21Z</time>
      </trkpt>
      <trkpt lat="48.17" lon="7.05421">
        <ele>848.51</ele>
        <time>2021-06-23T10:08:24Z</time>
      </trkpt>
      <trkpt lat="48.1705" lon="7.05473">
        <ele>855.65</ele>
        <time>2021-06-23T10:08:27Z</time>
      </trkpt>
      <trkpt lat="48.17069" lon="7.05497">
        <ele>856.53</ele>
        <time>2021-06-23T10:08:30Z</time>
      </trkpt>
      <trkpt lat="48.17085" lon="7.05523">
        <ele>856.26</ele>
        <time>2021-06-23T10:08:33Z</time>
      </trkpt>
      <trkpt lat="48.17097" lon="7.05554">
        <ele>855.96</ele>
        <time>2021-06-23T10:08:36Z</time>
      </trkpt>
      <trkpt lat="48.17105" lon="7.05584">
        <ele>856.53</ele>
        <time>2021-06-23T10:08:38Z</time>
      </trkpt>
      <trkpt lat="48.17113" lon="7.05619">
        <ele>859.73</ele>
        <time>2021-06-23T10:08:41Z</time>
      </trkpt>
      <trkpt lat="48.17115" lon="7.05652">
        <ele>860.05</ele>
        <time>2021-06-23T10:08:44Z</time>
      </trkpt>
      <trkpt lat="48.17115" lon="7.05678">
        <ele>859.46</ele>
        <time>2021-06-23T10:08:47Z</time>
      </trkpt>
      <trkpt lat="48.17111" lon="7.05707">
        <ele>857.81</ele>
        <time>2021-06-23T10:08:50Z</time>
      </trkpt>
      <trkpt lat="48.17102" lon="7.05738">
        <ele>858.95</ele>
        <time>2021-06-23T10:08:53Z</time>
      </trkpt>
      <trkpt lat="48.17088" lon="7.05766">
        <ele>860.32</ele>
        <time>2021-06-23T10:08:56Z</time>
      </trkpt>
      <trkpt lat="48.17049" lon="7.05827">
        <ele>864.79</ele>
        <time>2021-06-23T10:08:59Z</time>
      </trkpt>
      <trkpt lat="48.17023" lon="7.05857">
        <ele>870.05</ele>
        <time>2021-06-23T10:09:02Z</time>
      </trkpt>
      <trkpt lat="48.1696" lon="7.05893">
        <ele>869.67</ele>
        <time>2021-06-23T10:09:05Z</time>
      </trkpt>
      <trkpt lat="48.16864" lon="7.05972">
        <ele>874.55</ele>
        <time>2021-06-23T10:09:08Z</time>
      </trkpt>
      <trkpt lat="48.16814" lon="7.06008">
        <ele>870.61</ele>
        <time>2021-06-23T10:09:11Z</time>
      </trkpt>
      <trkpt lat="48.1679" lon="7.06033">
        <ele>872.59</ele>
        <time>2021-06-23T10:09:14Z</time>
      </trkpt>
      <trkpt lat="48.16772" lon="7.06055">
        <ele>875.52</ele>
        <time>2021-06-23T10:09:17Z</time>
      </trkpt>
      <trkpt lat="48.16757" lon="7.06081">
        <ele>878.51</ele>
        <time>2021-06-23T10:09:20Z</time>
      </trkpt>
      <trkpt lat="48.16747" lon="7.06108">
        <ele>880.68</ele>
        <time>2021-06-23T10:09:23Z</time>
      </trkpt>
      <trkpt lat="48.16735" lon="7.06149">
        <ele>884.44</ele>
        <time>2021-06-23T10:09:26Z</time>
      </trkpt>
      <trkpt lat="48.16728" lon="7.06205">
        <ele>886.24</ele>
        <time>2021-06-23T10:09:29Z</time>
      </trkpt>
      <trkpt lat="48.16724" lon="7.06363">
        <ele>895.55</ele>
        <time>2021-06-23T10:09:31Z</time>
      </trkpt>
      <trkpt lat="48.16717" lon="7.06513">
        <ele>902.91</ele>
        <time>2021-06-23T10:09:34Z</time>
      </trkpt>
      <trkpt lat="48.16715" lon="7.06602">
        <ele>903.92</ele>
        <time>2021-06-23T10:09:37Z</time>
      </trkpt>
      <trkpt lat="48.16721" lon="7.0674">
        <ele>911.2</ele>
        <time>2021-06-23T10:09:40Z</time>
      </trkpt>
      <trkpt lat="48.16721" lon="7.06786">
        <ele>913.78</ele>
        <time>2021-06-23T10:09:43Z</time>
      </trkpt>
      <trkpt lat="48.16717" lon="7.06826">
        <ele>915.45</ele>
        <time>2021-06-23T10:09:46Z</time>
      </trkpt>
      <trkpt lat="48.16682" lon="7.06973">
        <ele>916.93</ele>
        <time>2021-06-23T10:09:49Z</time>
      </trkpt>
      <trkpt lat="48.16675" lon="7.07015">
        <ele>916.03</ele>
        <time>2021-06-23T10:09:52Z</time>
      </trkpt>
      <trkpt lat="48.16674" lon="7.07052">
        <ele>918.34</ele>
        <time>2021-06-23T10:09:55Z</time>
      </trkpt>
      <trkpt lat="48.16682" lon="7.07193">
        <ele>925.52</ele>
        <time>2021-06-23T10:09:58Z</time>
      </trkpt>
      <trkpt lat="48.1668" lon="7.07251">
        <ele>928.42</ele>
        <time>2021-06-23T10:10:01Z</time>
      </trkpt>
      <trkpt lat="48.16676" lon="7.07308">
        <ele>929.66</ele>
        <time>2021-06-23T10:10:04Z</time>
      </trkpt>
      <trkpt lat="48.16634" lon="7.07534">
        <ele>937.38</ele>
        <time>2021-06-23T10:10:07Z</time>
      </trkpt>
      <trkpt lat="48.16625" lon="7.07566">
        <ele>936.89</ele>
        <time>2021-06-23T10:10:10Z</time>
      </trkpt>
      <trkpt lat="48.16615" lon="7.07593">
        <ele>937.7</ele>
        <time>2021-06-23T10:10:13Z</time>
      </trkpt>
      <trkpt lat="48.16586" lon="7.07659">
        <ele>942.32</ele>
        <time>2021-06-23T10:10:16Z</time>
      </trkpt>
      <trkpt lat="48.16576" lon="7.07685">
        <ele>942.93</ele>
        <time>2021-06-23T10:10:19Z</time>
      </trkpt>
      <trkpt lat="48.16516" lon="7.07895">
        <ele>947.67</ele>
        <time>2021-06-23T10:10:22Z</time>
      </trkpt>
      <trkpt lat="48.16508" lon="7.07918">
        <ele>948.06</ele>
        <time>2021-06-23T10:10:25Z</time>
      </trkpt>
      <trkpt lat="48.16491" lon="7.07955">
        <ele>949.61</ele>
        <time>2021-06-23T10:10:28Z</time>
      </trkpt>
      <trkpt lat="48.16515" lon="7.07976">
        <ele>957.44</ele>
        <time>2021-06-23T10:10:30Z</time>
      </trkpt>
      <trkpt lat="48.16515" lon="7.07976">
        <ele>957.44</ele>
        <time>2021-06-23T10:10:30Z</time>
      </trkpt>
      <trkpt lat="48.16598" lon="7.0807">
        <ele>963.47</ele>
        <time>2021-06-23T10:10:32Z</time>
      </trkpt>
      <trkpt lat="48.16614" lon="7.08084">
        <ele>963.31</ele>
        <time>2021-06-23T10:10:35Z</time>
      </trkpt>
      <trkpt lat="48.16678" lon="7.08132">
        <ele>961.3</ele>
        <time>2021-06-23T10:10:37Z</time>
      </trkpt>
      <trkpt lat="48.16724" lon="7.08151">
        <ele>961.81</ele>
        <time>2021-06-23T10:10:39Z</time>
      </trkpt>
      <trkpt lat="48.16783" lon="7.08161">
        <ele>958.31</ele>
        <time>2021-06-23T10:10:42Z</time>
      </trkpt>
      <trkpt lat="48.16816" lon="7.08161">
        <ele>959.41</ele>
        <time>2021-06-23T10:10:44Z</time>
      </trkpt>
      <trkpt lat="48.16845" lon="7.08151">
        <ele>967.49</ele>
        <time>2021-06-23T10:10:47Z</time>
      </trkpt>
      <trkpt lat="48.1686" lon="7.08151">
        <ele>969.77</ele>
        <time>2021-06-23T10:10:49Z</time>
      </trkpt>
      <trkpt lat="48.16873" lon="7.08158">
        <ele>969.7</ele>
        <time>2021-06-23T10:10:51Z</time>
      </trkpt>
      <trkpt lat="48.16881" lon="7.08167">
        <ele>968.53</ele>
        <time>2021-06-23T10:10:54Z</time>
      </trkpt>
      <trkpt lat="48.16888" lon="7.08179">
        <ele>967.58</ele>
        <time>2021-06-23T10:10:56Z</time>
      </trkpt>
      <trkpt lat="48.16892" lon="7.08192">
        <ele>966.29</ele>
        <time>2021-06-23T10:10:59Z</time>
      </trkpt>
      <trkpt lat="48.16895" lon="7.08211">
        <ele>965.2</ele>
        <time>2021-06-23T10:11:01Z</time>
      </trkpt>
      <trkpt lat="48.16898" lon="7.0825">
        <ele>961.83</ele>
        <time>2021-06-23T10:11:03Z</time>
      </trkpt>
      <trkpt lat="48.16908" lon="7.08505">
        <ele>955.02</ele>
        <time>2021-06-23T10:11:06Z</time>
      </trkpt>
      <trkpt lat="48.16907" lon="7.08529">
        <ele>954.62</ele>
        <time>2021-06-23T10:11:08Z</time>
      </trkpt>
      <trkpt lat="48.16901" lon="7.08617">
        <ele>947.75</ele>
        <time>2021-06-23T10:11:11Z</time>
      </trkpt>
      <trkpt lat="48.16903" lon="7.08668">
        <ele>940.4</ele>
        <time>2021-06-23T10:11:13Z</time>
      </trkpt>
      <trkpt lat="48.16914" lon="7.08707">
        <ele>940.23</ele>
        <time>2021-06-23T10:11:15Z</time>
      </trkpt>
      <trkpt lat="48.16953" lon="7.08782">
        <ele>944.26</ele>
        <time>2021-06-23T10:11:18Z</time>
      </trkpt>
      <trkpt lat="48.16978" lon="7.0882">
        <ele>945.05</ele>
        <time>2021-06-23T10:11:20Z</time>
      </trkpt>
      <trkpt lat="48.17003" lon="7.08849">
        <ele>945.28</ele>
        <time>2021-06-23T10:11:23Z</time>
      </trkpt>
      <trkpt lat="48.17083" lon="7.08917">
        <ele>945.84</ele>
        <time>2021-06-23T10:11:25Z</time>
      </trkpt>
      <trkpt lat="48.17098" lon="7.08928">
        <ele>942.94</ele>
        <time>2021-06-23T10:11:27Z</time>
      </trkpt>
      <trkpt lat="48.17181" lon="7.08957">
        <ele>939.73</ele>
        <time>2021-06-23T10:11:30Z</time>
      </trkpt>
      <trkpt lat="48.17192" lon="7.08965">
        <ele>938.57</ele>
        <time>2021-06-23T10:11:32Z</time>
      </trkpt>
      <trkpt lat="48.17231" lon="7.09021">
        <ele>928.56</ele>
        <time>2021-06-23T10:11:35Z</time>
      </trkpt>
      <trkpt lat="48.17255" lon="7.09039">
        <ele>926.82</ele>
        <time>2021-06-23T10:11:37Z</time>
      </trkpt>
      <trkpt lat="48.17277" lon="7.09042">
        <ele>927.42</ele>
        <time>2021-06-23T10:11:39Z</time>
      </trkpt>
      <trkpt lat="48.17294" lon="7.09037">
        <ele>925.63</ele>
        <time>2021-06-23T10:11:42Z</time>
      </trkpt>
      <trkpt lat="48.17306" lon="7.09022">
        <ele>927.55</ele>
        <time>2021-06-23T10:11:44Z</time>
      </trkpt>
      <trkpt lat="48.17314" lon="7.09002">
        <ele>930.38</ele>
        <time>2021-06-23T10:11:47Z</time>
      </trkpt>
      <trkpt lat="48.17326" lon="7.08916">
        <ele>944.63</ele>
        <time>2021-06-23T10:11:49Z</time>
      </trkpt>
      <trkpt lat="48.17333" lon="7.08891">
        <ele>945.11</ele>
        <time>2021-06-23T10:11:51Z</time>
      </trkpt>
      <trkpt lat="48.17341" lon="7.08875">
        <ele>944</ele>
        <time>2021-06-23T10:11:54Z</time>
      </trkpt>
      <trkpt lat="48.1735" lon="7.08866">
        <ele>942</ele>
        <time>2021-06-23T10:11:56Z</time>
      </trkpt>
      <trkpt lat="48.1742" lon="7.08824">
        <ele>948.85</ele>
        <time>2021-06-23T10:11:59Z</time>
      </trkpt>
      <trkpt lat="48.17434" lon="7.08819">
        <ele>952.72</ele>
        <time>2021-06-23T10:12:01Z</time>
      </trkpt>
      <trkpt lat="48.17448" lon="7.08818">
        <ele>956.34</ele>
        <time>2021-06-23T10:12:03Z</time>
      </trkpt>
      <trkpt lat="48.17461" lon="7.08825">
        <ele>960.28</ele>
        <time>2021-06-23T10:12:06Z</time>
      </trkpt>
      <trkpt lat="48.17468" lon="7.08832">
        <ele>962.21</ele>
        <time>2021-06-23T10:12:08Z</time>
      </trkpt>
      <trkpt lat="48.17481" lon="7.08851">
        <ele>963.25</ele>
        <time>2021-06-23T10:12:11Z</time>
      </trkpt>
      <trkpt lat="48.17499" lon="7.08888">
        <ele>960.83</ele>
        <time>2021-06-23T10:12:13Z</time>
      </trkpt>
      <trkpt lat="48.1751" lon="7.08916">
        <ele>958.68</ele>
        <time>2021-06-23T10:12:15Z</time>
      </trkpt>
      <trkpt lat="48.17518" lon="7.08947">
        <ele>957.11</ele>
        <time>2021-06-23T10:12:18Z</time>
      </trkpt>
      <trkpt lat="48.17529" lon="7.09">
        <ele>953.67</ele>
        <time>2021-06-23T10:12:20Z</time>
      </trkpt>
      <trkpt lat="48.17537" lon="7.0902">
        <ele>955.35</ele>
        <time>2021-06-23T10:12:23Z</time>
      </trkpt>
      <trkpt lat="48.17561" lon="7.09071">
        <ele>956.27</ele>
        <time>2021-06-23T10:12:25Z</time>
      </trkpt>
      <trkpt lat="48.17591" lon="7.09129">
        <ele>957.9</ele>
        <time>2021-06-23T10:12:27Z</time>
      </trkpt>
      <trkpt lat="48.17607" lon="7.09152">
        <ele>957.56</ele>
        <time>2021-06-23T10:12:30Z</time>
      </trkpt>
      <trkpt lat="48.1762" lon="7.09163">
        <ele>957.53</ele>
        <time>2021-06-23T10:12:32Z</time>
      </trkpt>
      <trkpt lat="48.17633" lon="7.0917">
        <ele>958.57</ele>
        <time>2021-06-23T10:12:35Z</time>
      </trkpt>
      <trkpt lat="48.17647" lon="7.09173">
        <ele>960.59</ele>
        <time>2021-06-23T10:12:37Z</time>
      </trkpt>
      <trkpt lat="48.17664" lon="7.09172">
        <ele>964.92</ele>
        <time>2021-06-23T10:12:39Z</time>
      </trkpt>
      <trkpt lat="48.17694" lon="7.09166">
        <ele>965.25</ele>
        <time>2021-06-23T10:12:42Z</time>
      </trkpt>
      <trkpt lat="48.17705" lon="7.09159">
        <ele>965.52</ele>
        <time>2021-06-23T10:12:44Z</time>
      </trkpt>
      <trkpt lat="48.17714" lon="7.09144">
        <ele>968.37</ele>
        <time>2021-06-23T10:12:47Z</time>
      </trkpt>
      <trkpt lat="48.17743" lon="7.09059">
        <ele>989.49</ele>
        <time>2021-06-23T10:12:49Z</time>
      </trkpt>
      <trkpt lat="48.17765" lon="7.09021">
        <ele>990.37</ele>
        <time>2021-06-23T10:12:51Z</time>
      </trkpt>
      <trkpt lat="48.17782" lon="7.09008">
        <ele>989.59</ele>
        <time>2021-06-23T10:12:54Z</time>
      </trkpt>
      <trkpt lat="48.17795" lon="7.09006">
        <ele>993.63</ele>
        <time>2021-06-23T10:12:56Z</time>
      </trkpt>
      <trkpt lat="48.17808" lon="7.09011">
        <ele>995.18</ele>
        <time>2021-06-23T10:12:59Z</time>
      </trkpt>
      <trkpt lat="48.17818" lon="7.09021">
        <ele>995.04</ele>
        <time>2021-06-23T10:13:01Z</time>
      </trkpt>
      <trkpt lat="48.17844" lon="7.09079">
        <ele>984.85</ele>
        <time>2021-06-23T10:13:03Z</time>
      </trkpt>
      <trkpt lat="48.17852" lon="7.09092">
        <ele>984.68</ele>
        <time>2021-06-23T10:13:06Z</time>
      </trkpt>
      <trkpt lat="48.17862" lon="7.09103">
        <ele>985.74</ele>
        <time>2021-06-23T10:13:08Z</time>
      </trkpt>
      <trkpt lat="48.17869" lon="7.09107">
        <ele>986.7</ele>
        <time>2021-06-23T10:13:11Z</time>
      </trkpt>
      <trkpt lat="48.17883" lon="7.09109">
        <ele>989.39</ele>
        <time>2021-06-23T10:13:13Z</time>
      </trkpt>
      <trkpt lat="48.17894" lon="7.09105">
        <ele>992.94</ele>
        <time>2021-06-23T10:13:15Z</time>
      </trkpt>
      <trkpt lat="48.17927" lon="7.09086">
        <ele>1001.49</ele>
        <time>2021-06-23T10:13:18Z</time>
      </trkpt>
      <trkpt lat="48.18006" lon="7.09035">
        <ele>1008.85</ele>
        <time>2021-06-23T10:13:20Z</time>
      </trkpt>
      <trkpt lat="48.1807" lon="7.09005">
        <ele>1011.22</ele>
        <time>2021-06-23T10:13:23Z</time>
      </trkpt>
      <trkpt lat="48.18085" lon="7.08994">
        <ele>1015.35</ele>
        <time>2021-06-23T10:13:25Z</time>
      </trkpt>
      <trkpt lat="48.18101" lon="7.08974">
        <ele>1027.55</ele>
        <time>2021-06-23T10:13:27Z</time>
      </trkpt>
      <trkpt lat="48.18129" lon="7.08931">
        <ele>1039.23</ele>
        <time>2021-06-23T10:13:30Z</time>
      </trkpt>
      <trkpt lat="48.18145" lon="7.0891">
        <ele>1040.23</ele>
        <time>2021-06-23T10:13:32Z</time>
      </trkpt>
      <trkpt lat="48.18162" lon="7.08897">
        <ele>1039.17</ele>
        <time>2021-06-23T10:13:35Z</time>
      </trkpt>
      <trkpt lat="48.18221" lon="7.08862">
        <ele>1046.63</ele>
        <time>2021-06-23T10:13:37Z</time>
      </trkpt>
      <trkpt lat="48.18229" lon="7.08861">
        <ele>1048.74</ele>
        <time>2021-06-23T10:13:39Z</time>
      </trkpt>
      <trkpt lat="48.18239" lon="7.08865">
        <ele>1050.41</ele>
        <time>2021-06-23T10:13:42Z</time>
      </trkpt>
      <trkpt lat="48.18251" lon="7.08878">
        <ele>1050.67</ele>
        <time>2021-06-23T10:13:44Z</time>
      </trkpt>
      <trkpt lat="48.18257" lon="7.08889">
        <ele>1050.4</ele>
        <time>2021-06-23T10:13:47Z</time>
      </trkpt>
      <trkpt lat="48.18261" lon="7.08902">
        <ele>1050.23</ele>
        <time>2021-06-23T10:13:49Z</time>
      </trkpt>
      <trkpt lat="48.18264" lon="7.08923">
        <ele>1049.39</ele>
        <time>2021-06-23T10:13:51Z</time>
      </trkpt>
      <trkpt lat="48.18267" lon="7.0904">
        <ele>1052.11</ele>
        <time>2021-06-23T10:13:54Z</time>
      </trkpt>
      <trkpt lat="48.1827" lon="7.09113">
        <ele>1058.38</ele>
        <time>2021-06-23T10:13:56Z</time>
      </trkpt>
      <trkpt lat="48.18282" lon="7.0922">
        <ele>1068.85</ele>
        <time>2021-06-23T10:13:59Z</time>
      </trkpt>
      <trkpt lat="48.18286" lon="7.09244">
        <ele>1070.69</ele>
        <time>2021-06-23T10:14:01Z</time>
      </trkpt>
      <trkpt lat="48.18293" lon="7.09265">
        <ele>1071.1</ele>
        <time>2021-06-23T10:14:03Z</time>
      </trkpt>
      <trkpt lat="48.183" lon="7.09278">
        <ele>1071.42</ele>
        <time>2021-06-23T10:14:06Z</time>
      </trkpt>
      <trkpt lat="48.18311" lon="7.0929">
        <ele>1071.42</ele>
        <time>2021-06-23T10:14:08Z</time>
      </trkpt>
      <trkpt lat="48.18324" lon="7.09302">
        <ele>1070.57</ele>
        <time>2021-06-23T10:14:11Z</time>
      </trkpt>
      <trkpt lat="48.18341" lon="7.09309">
        <ele>1070.14</ele>
        <time>2021-06-23T10:14:13Z</time>
      </trkpt>
      <trkpt lat="48.18391" lon="7.09322">
        <ele>1073.81</ele>
        <time>2021-06-23T10:14:15Z</time>
      </trkpt>
      <trkpt lat="48.18495" lon="7.09338">
        <ele>1074.95</ele>
        <time>2021-06-23T10:14:18Z</time>
      </trkpt>
      <trkpt lat="48.18535" lon="7.09349">
        <ele>1072.22</ele>
        <time>2021-06-23T10:14:20Z</time>
      </trkpt>
      <trkpt lat="48.18576" lon="7.09373">
        <ele>1070.06</ele>
        <time>2021-06-23T10:14:23Z</time>
      </trkpt>
      <trkpt lat="48.18685" lon="7.09445">
        <ele>1075.58</ele>
        <time>2021-06-23T10:14:25Z</time>
      </trkpt>
      <trkpt lat="48.18704" lon="7.09463">
        <ele>1075.1</ele>
        <time>2021-06-23T10:14:27Z</time>
      </trkpt>
      <trkpt lat="48.18717" lon="7.09483">
        <ele>1074.92</ele>
        <time>2021-06-23T10:14:30Z</time>
      </trkpt>
      <trkpt lat="48.18752" lon="7.0955">
        <ele>1072.72</ele>
        <time>2021-06-23T10:14:32Z</time>
      </trkpt>
      <trkpt lat="48.18813" lon="7.09729">
        <ele>1076.28</ele>
        <time>2021-06-23T10:14:35Z</time>
      </trkpt>
      <trkpt lat="48.18823" lon="7.09764">
        <ele>1075.66</ele>
        <time>2021-06-23T10:14:37Z</time>
      </trkpt>
      <trkpt lat="48.18826" lon="7.09783">
        <ele>1075.37</ele>
        <time>2021-06-23T10:14:39Z</time>
      </trkpt>
      <trkpt lat="48.18829" lon="7.09872">
        <ele>1072.91</ele>
        <time>2021-06-23T10:14:42Z</time>
      </trkpt>
      <trkpt lat="48.18835" lon="7.0993">
        <ele>1064.15</ele>
        <time>2021-06-23T10:14:44Z</time>
      </trkpt>
      <trkpt lat="48.18842" lon="7.09953">
        <ele>1062.14</ele>
        <time>2021-06-23T10:14:47Z</time>
      </trkpt>
      <trkpt lat="48.18849" lon="7.0997">
        <ele>1062.08</ele>
        <time>2021-06-23T10:14:49Z</time>
      </trkpt>
      <trkpt lat="48.18885" lon="7.10046">
        <ele>1060.15</ele>
        <time>2021-06-23T10:14:51Z</time>
      </trkpt>
      <trkpt lat="48.18898" lon="7.10068">
        <ele>1057.82</ele>
        <time>2021-06-23T10:14:54Z</time>
      </trkpt>
      <trkpt lat="48.18904" lon="7.10074">
        <ele>1057.23</ele>
        <time>2021-06-23T10:14:56Z</time>
      </trkpt>
      <trkpt lat="48.18919" lon="7.10085">
        <ele>1056.72</ele>
        <time>2021-06-23T10:14:59Z</time>
      </trkpt>
      <trkpt lat="48.18946" lon="7.10094">
        <ele>1056.25</ele>
        <time>2021-06-23T10:15:01Z</time>
      </trkpt>
      <trkpt lat="48.1908" lon="7.101">
        <ele>1060.32</ele>
        <time>2021-06-23T10:15:03Z</time>
      </trkpt>
      <trkpt lat="48.19101" lon="7.10095">
        <ele>1060.94</ele>
        <time>2021-06-23T10:15:06Z</time>
      </trkpt>
      <trkpt lat="48.19159" lon="7.10075">
        <ele>1060.39</ele>
        <time>2021-06-23T10:15:08Z</time>
      </trkpt>
      <trkpt lat="48.19197" lon="7.10069">
        <ele>1057.26</ele>
        <time>2021-06-23T10:15:11Z</time>
      </trkpt>
      <trkpt lat="48.1921" lon="7.10071">
        <ele>1057.15</ele>
        <time>2021-06-23T10:15:13Z</time>
      </trkpt>
      <trkpt lat="48.19278" lon="7.10099">
        <ele>1059.1</ele>
        <time>2021-06-23T10:15:15Z</time>
      </trkpt>
      <trkpt lat="48.19312" lon="7.10116">
        <ele>1058.21</ele>
        <time>2021-06-23T10:15:18Z</time>
      </trkpt>
      <trkpt lat="48.19346" lon="7.10143">
        <ele>1058.69</ele>
        <time>2021-06-23T10:15:20Z</time>
      </trkpt>
      <trkpt lat="48.19431" lon="7.10237">
        <ele>1052.61</ele>
        <time>2021-06-23T10:15:23Z</time>
      </trkpt>
      <trkpt lat="48.19491" lon="7.10308">
        <ele>1050.69</ele>
        <time>2021-06-23T10:15:25Z</time>
      </trkpt>
      <trkpt lat="48.19552" lon="7.10368">
        <ele>1044.59</ele>
        <time>2021-06-23T10:15:27Z</time>
      </trkpt>
      <trkpt lat="48.19568" lon="7.1038">
        <ele>1042.91</ele>
        <time>2021-06-23T10:15:30Z</time>
      </trkpt>
      <trkpt lat="48.19587" lon="7.10389">
        <ele>1040.57</ele>
        <time>2021-06-23T10:15:32Z</time>
      </trkpt>
      <trkpt lat="48.19617" lon="7.10399">
        <ele>1038.97</ele>
        <time>2021-06-23T10:15:35Z</time>
      </trkpt>
      <trkpt lat="48.19636" lon="7.10411">
        <ele>1038.67</ele>
        <time>2021-06-23T10:15:37Z</time>
      </trkpt>
      <trkpt lat="48.19656" lon="7.10437">
        <ele>1038.74</ele>
        <time>2021-06-23T10:15:39Z</time>
      </trkpt>
      <trkpt lat="48.19726" lon="7.10556">
        <ele>1039.19</ele>
        <time>2021-06-23T10:15:42Z</time>
      </trkpt>
      <trkpt lat="48.19742" lon="7.10579">
        <ele>1035.71</ele>
        <time>2021-06-23T10:15:44Z</time>
      </trkpt>
      <trkpt lat="48.19752" lon="7.1059">
        <ele>1033.82</ele>
        <time>2021-06-23T10:15:47Z</time>
      </trkpt>
      <trkpt lat="48.19894" lon="7.10671">
        <ele>1020.7</ele>
        <time>2021-06-23T10:15:49Z</time>
      </trkpt>
      <trkpt lat="48.1993" lon="7.10694">
        <ele>1017.59</ele>
        <time>2021-06-23T10:15:51Z</time>
      </trkpt>
      <trkpt lat="48.19935" lon="7.10699">
        <ele>1016.79</ele>
        <time>2021-06-23T10:15:54Z</time>
      </trkpt>
      <trkpt lat="48.19939" lon="7.10706">
        <ele>1015.97</ele>
        <time>2021-06-23T10:15:56Z</time>
      </trkpt>
      <trkpt lat="48.1994" lon="7.10715">
        <ele>1015.26</ele>
        <time>2021-06-23T10:15:59Z</time>
      </trkpt>
      <trkpt lat="48.19931" lon="7.10778">
        <ele>1012.47</ele>
        <time>2021-06-23T10:16:01Z</time>
      </trkpt>
      <trkpt lat="48.19927" lon="7.10817">
        <ele>1012.49</ele>
        <time>2021-06-23T10:16:03Z</time>
      </trkpt>
      <trkpt lat="48.19928" lon="7.10859">
        <ele>1009.69</ele>
        <time>2021-06-23T10:16:06Z</time>
      </trkpt>
      <trkpt lat="48.19936" lon="7.10961">
        <ele>1001.09</ele>
        <time>2021-06-23T10:16:08Z</time>
      </trkpt>
      <trkpt lat="48.19933" lon="7.10983">
        <ele>1000.15</ele>
        <time>2021-06-23T10:16:11Z</time>
      </trkpt>
      <trkpt lat="48.19923" lon="7.10995">
        <ele>1000.26</ele>
        <time>2021-06-23T10:16:13Z</time>
      </trkpt>
      <trkpt lat="48.19913" lon="7.10996">
        <ele>999.84</ele>
        <time>2021-06-23T10:16:15Z</time>
      </trkpt>
      <trkpt lat="48.19906" lon="7.10994">
        <ele>999.09</ele>
        <time>2021-06-23T10:16:18Z</time>
      </trkpt>
      <trkpt lat="48.19868" lon="7.10969">
        <ele>1001.57</ele>
        <time>2021-06-23T10:16:20Z</time>
      </trkpt>
      <trkpt lat="48.1978" lon="7.10964">
        <ele>988.45</ele>
        <time>2021-06-23T10:16:23Z</time>
      </trkpt>
      <trkpt lat="48.19701" lon="7.10938">
        <ele>995.09</ele>
        <time>2021-06-23T10:16:25Z</time>
      </trkpt>
      <trkpt lat="48.19676" lon="7.10935">
        <ele>993.89</ele>
        <time>2021-06-23T10:16:27Z</time>
      </trkpt>
      <trkpt lat="48.19667" lon="7.10938">
        <ele>990.42</ele>
        <time>2021-06-23T10:16:30Z</time>
      </trkpt>
      <trkpt lat="48.19659" lon="7.10945">
        <ele>986.22</ele>
        <time>2021-06-23T10:16:32Z</time>
      </trkpt>
      <trkpt lat="48.19637" lon="7.1097">
        <ele>979.83</ele>
        <time>2021-06-23T10:16:35Z</time>
      </trkpt>
      <trkpt lat="48.19625" lon="7.1098">
        <ele>978.06</ele>
        <time>2021-06-23T10:16:37Z</time>
      </trkpt>
      <trkpt lat="48.19611" lon="7.10985">
        <ele>978.81</ele>
        <time>2021-06-23T10:16:39Z</time>
      </trkpt>
      <trkpt lat="48.19557" lon="7.10989">
        <ele>977.97</ele>
        <time>2021-06-23T10:16:42Z</time>
      </trkpt>
      <trkpt lat="48.19527" lon="7.11004">
        <ele>978.05</ele>
        <time>2021-06-23T10:16:44Z</time>
      </trkpt>
      <trkpt lat="48.19515" lon="7.11019">
        <ele>976.77</ele>
        <time>2021-06-23T10:16:47Z</time>
      </trkpt>
      <trkpt lat="48.19504" lon="7.11038">
        <ele>971.99</ele>
        <time>2021-06-23T10:16:49Z</time>
      </trkpt>
      <trkpt lat="48.19496" lon="7.11059">
        <ele>966.53</ele>
        <time>2021-06-23T10:16:51Z</time>
      </trkpt>
      <trkpt lat="48.19483" lon="7.11103">
        <ele>962.98</ele>
        <time>2021-06-23T10:16:54Z</time>
      </trkpt>
      <trkpt lat="48.19456" lon="7.11157">
        <ele>962.09</ele>
        <time>2021-06-23T10:16:56Z</time>
      </trkpt>
      <trkpt lat="48.19444" lon="7.11173">
        <ele>960.97</ele>
        <time>2021-06-23T10:16:59Z</time>
      </trkpt>
      <trkpt lat="48.1943" lon="7.11185">
        <ele>961.88</ele>
        <time>2021-06-23T10:17:01Z</time>
      </trkpt>
      <trkpt lat="48.19413" lon="7.11194">
        <ele>963.07</ele>
        <time>2021-06-23T10:17:03Z</time>
      </trkpt>
      <trkpt lat="48.19381" lon="7.11199">
        <ele>964.59</ele>
        <time>2021-06-23T10:17:06Z</time>
      </trkpt>
      <trkpt lat="48.19354" lon="7.11196">
        <ele>960.37</ele>
        <time>2021-06-23T10:17:08Z</time>
      </trkpt>
      <trkpt lat="48.19338" lon="7.11189">
        <ele>956.66</ele>
        <time>2021-06-23T10:17:11Z</time>
      </trkpt>
      <trkpt lat="48.1932" lon="7.11175">
        <ele>953.9</ele>
        <time>2021-06-23T10:17:13Z</time>
      </trkpt>
      <trkpt lat="48.19308" lon="7.11162">
        <ele>952.79</ele>
        <time>2021-06-23T10:17:15Z</time>
      </trkpt>
      <trkpt lat="48.19286" lon="7.11129">
        <ele>952.95</ele>
        <time>2021-06-23T10:17:18Z</time>
      </trkpt>
      <trkpt lat="48.19272" lon="7.11091">
        <ele>954.78</ele>
        <time>2021-06-23T10:17:20Z</time>
      </trkpt>
      <trkpt lat="48.19246" lon="7.1101">
        <ele>952.9</ele>
        <time>2021-06-23T10:17:23Z</time>
      </trkpt>
      <trkpt lat="48.19236" lon="7.10986">
        <ele>950.32</ele>
        <time>2021-06-23T10:17:25Z</time>
      </trkpt>
      <trkpt lat="48.19208" lon="7.10936">
        <ele>944.09</ele>
        <time>2021-06-23T10:17:27Z</time>
      </trkpt>
      <trkpt lat="48.19182" lon="7.10885">
        <ele>943.54</ele>
        <time>2021-06-23T10:17:30Z</time>
      </trkpt>
      <trkpt lat="48.19175" lon="7.1088">
        <ele>940.67</ele>
        <time>2021-06-23T10:17:32Z</time>
      </trkpt>
      <trkpt lat="48.19169" lon="7.10881">
        <ele>936.81</ele>
        <time>2021-06-23T10:17:35Z</time>
      </trkpt>
      <trkpt lat="48.19163" lon="7.10892">
        <ele>931.62</ele>
        <time>2021-06-23T10:17:37Z</time>
      </trkpt>
      <trkpt lat="48.19164" lon="7.1091">
        <ele>928.05</ele>
        <time>2021-06-23T10:17:39Z</time>
      </trkpt>
      <trkpt lat="48.19168" lon="7.10921">
        <ele>927.6</ele>
        <time>2021-06-23T10:17:42Z</time>
      </trkpt>
      <trkpt lat="48.19207" lon="7.10982">
        <ele>934.35</ele>
        <time>2021-06-23T10:17:44Z</time>
      </trkpt>
      <trkpt lat="48.19217" lon="7.11005">
        <ele>936.5</ele>
        <time>2021-06-23T10:17:47Z</time>
      </trkpt>
      <trkpt lat="48.19225" lon="7.11046">
        <ele>936.55</ele>
        <time>2021-06-23T10:17:49Z</time>
      </trkpt>
      <trkpt lat="48.19234" lon="7.11138">
        <ele>928.46</ele>
        <time>2021-06-23T10:17:52Z</time>
      </trkpt>
      <trkpt lat="48.19251" lon="7.1122">
        <ele>918.65</ele>
        <time>2021-06-23T10:17:54Z</time>
      </trkpt>
      <trkpt lat="48.19255" lon="7.11256">
        <ele>914.37</ele>
        <time>2021-06-23T10:17:56Z</time>
      </trkpt>
      <trkpt lat="48.19256" lon="7.11313">
        <ele>907.56</ele>
        <time>2021-06-23T10:17:59Z</time>
      </trkpt>
      <trkpt lat="48.19255" lon="7.11337">
        <ele>904.53</ele>
        <time>2021-06-23T10:18:01Z</time>
      </trkpt>
      <trkpt lat="48.19248" lon="7.11394">
        <ele>904.53</ele>
        <time>2021-06-23T10:18:04Z</time>
      </trkpt>
      <trkpt lat="48.19257" lon="7.11404">
        <ele>905.97</ele>
        <time>2021-06-23T10:18:06Z</time>
      </trkpt>
      <trkpt lat="48.19285" lon="7.11452">
        <ele>903.56</ele>
        <time>2021-06-23T10:18:08Z</time>
      </trkpt>
      <trkpt lat="48.19296" lon="7.11476">
        <ele>900.08</ele>
        <time>2021-06-23T10:18:11Z</time>
      </trkpt>
      <trkpt lat="48.19314" lon="7.11526">
        <ele>895.17</ele>
        <time>2021-06-23T10:18:13Z</time>
      </trkpt>
      <trkpt lat="48.19346" lon="7.1167">
        <ele>896.33</ele>
        <time>2021-06-23T10:18:16Z</time>
      </trkpt>
      <trkpt lat="48.19351" lon="7.11714">
        <ele>900.95</ele>
        <time>2021-06-23T10:18:18Z</time>
      </trkpt>
      <trkpt lat="48.19358" lon="7.11736">
        <ele>901.42</ele>
        <time>2021-06-23T10:18:21Z</time>
      </trkpt>
      <trkpt lat="48.19393" lon="7.11771">
        <ele>894.02</ele>
        <time>2021-06-23T10:18:23Z</time>
      </trkpt>
      <trkpt lat="48.19408" lon="7.11792">
        <ele>893.14</ele>
        <time>2021-06-23T10:18:25Z</time>
      </trkpt>
      <trkpt lat="48.19428" lon="7.11826">
        <ele>890.27</ele>
        <time>2021-06-23T10:18:28Z</time>
      </trkpt>
      <trkpt lat="48.19445" lon="7.1186">
        <ele>883.62</ele>
        <time>2021-06-23T10:18:30Z</time>
      </trkpt>
      <trkpt lat="48.19455" lon="7.11886">
        <ele>881.4</ele>
        <time>2021-06-23T10:18:33Z</time>
      </trkpt>
      <trkpt lat="48.19466" lon="7.11938">
        <ele>888.11</ele>
        <time>2021-06-23T10:18:35Z</time>
      </trkpt>
      <trkpt lat="48.1949" lon="7.12013">
        <ele>889.11</ele>
        <time>2021-06-23T10:18:38Z</time>
      </trkpt>
      <trkpt lat="48.19502" lon="7.12066">
        <ele>884.95</ele>
        <time>2021-06-23T10:18:40Z</time>
      </trkpt>
      <trkpt lat="48.19535" lon="7.12252">
        <ele>861.1</ele>
        <time>2021-06-23T10:18:42Z</time>
      </trkpt>
      <trkpt lat="48.19536" lon="7.12264">
        <ele>860.14</ele>
        <time>2021-06-23T10:18:45Z</time>
      </trkpt>
      <trkpt lat="48.19535" lon="7.12274">
        <ele>860.06</ele>
        <time>2021-06-23T10:18:47Z</time>
      </trkpt>
      <trkpt lat="48.1953" lon="7.12289">
        <ele>861.97</ele>
        <time>2021-06-23T10:18:50Z</time>
      </trkpt>
      <trkpt lat="48.19505" lon="7.12338">
        <ele>871.64</ele>
        <time>2021-06-23T10:18:52Z</time>
      </trkpt>
      <trkpt lat="48.19495" lon="7.12374">
        <ele>874.51</ele>
        <time>2021-06-23T10:18:55Z</time>
      </trkpt>
      <trkpt lat="48.19491" lon="7.12392">
        <ele>875.73</ele>
        <time>2021-06-23T10:18:57Z</time>
      </trkpt>
      <trkpt lat="48.19491" lon="7.12401">
        <ele>875.87</ele>
        <time>2021-06-23T10:18:59Z</time>
      </trkpt>
      <trkpt lat="48.19492" lon="7.1241">
        <ele>874.75</ele>
        <time>2021-06-23T10:19:02Z</time>
      </trkpt>
      <trkpt lat="48.19496" lon="7.1242">
        <ele>871.98</ele>
        <time>2021-06-23T10:19:04Z</time>
      </trkpt>
      <trkpt lat="48.19504" lon="7.12427">
        <ele>868.08</ele>
        <time>2021-06-23T10:19:07Z</time>
      </trkpt>
      <trkpt lat="48.19522" lon="7.12432">
        <ele>862.99</ele>
        <time>2021-06-23T10:19:09Z</time>
      </trkpt>
      <trkpt lat="48.19534" lon="7.1244">
        <ele>860.7</ele>
        <time>2021-06-23T10:19:12Z</time>
      </trkpt>
      <trkpt lat="48.19573" lon="7.12477">
        <ele>859.16</ele>
        <time>2021-06-23T10:19:14Z</time>
      </trkpt>
      <trkpt lat="48.1961" lon="7.12508">
        <ele>853.53</ele>
        <time>2021-06-23T10:19:16Z</time>
      </trkpt>
      <trkpt lat="48.1965" lon="7.12533">
        <ele>849.74</ele>
        <time>2021-06-23T10:19:19Z</time>
      </trkpt>
      <trkpt lat="48.19711" lon="7.12566">
        <ele>843.31</ele>
        <time>2021-06-23T10:19:21Z</time>
      </trkpt>
      <trkpt lat="48.19725" lon="7.12577">
        <ele>841.9</ele>
        <time>2021-06-23T10:19:24Z</time>
      </trkpt>
      <trkpt lat="48.19729" lon="7.12583">
        <ele>841.55</ele>
        <time>2021-06-23T10:19:26Z</time>
      </trkpt>
      <trkpt lat="48.19733" lon="7.12599">
        <ele>841.02</ele>
        <time>2021-06-23T10:19:29Z</time>
      </trkpt>
      <trkpt lat="48.19734" lon="7.12611">
        <ele>841.11</ele>
        <time>2021-06-23T10:19:31Z</time>
      </trkpt>
      <trkpt lat="48.19732" lon="7.12675">
        <ele>838.5</ele>
        <time>2021-06-23T10:19:33Z</time>
      </trkpt>
      <trkpt lat="48.19737" lon="7.12752">
        <ele>826.12</ele>
        <time>2021-06-23T10:19:36Z</time>
      </trkpt>
      <trkpt lat="48.19736" lon="7.12766">
        <ele>826.99</ele>
        <time>2021-06-23T10:19:38Z</time>
      </trkpt>
      <trkpt lat="48.19729" lon="7.12811">
        <ele>839.22</ele>
        <time>2021-06-23T10:19:41Z</time>
      </trkpt>
      <trkpt lat="48.19729" lon="7.12821">
        <ele>842.11</ele>
        <time>2021-06-23T10:19:43Z</time>
      </trkpt>
      <trkpt lat="48.19732" lon="7.12831">
        <ele>844.04</ele>
        <time>2021-06-23T10:19:46Z</time>
      </trkpt>
      <trkpt lat="48.19738" lon="7.1284">
        <ele>845.38</ele>
        <time>2021-06-23T10:19:48Z</time>
      </trkpt>
      <trkpt lat="48.19744" lon="7.12843">
        <ele>844.71</ele>
        <time>2021-06-23T10:19:50Z</time>
      </trkpt>
      <trkpt lat="48.19826" lon="7.12857">
        <ele>823.63</ele>
        <time>2021-06-23T10:19:53Z</time>
      </trkpt>
      <trkpt lat="48.19838" lon="7.12862">
        <ele>821.9</ele>
        <time>2021-06-23T10:19:55Z</time>
      </trkpt>
      <trkpt lat="48.19853" lon="7.12871">
        <ele>821.49</ele>
        <time>2021-06-23T10:19:58Z</time>
      </trkpt>
      <trkpt lat="48.19863" lon="7.12884">
        <ele>822.94</ele>
        <time>2021-06-23T10:20:00Z</time>
      </trkpt>
      <trkpt lat="48.19869" lon="7.12896">
        <ele>824.81</ele>
        <time>2021-06-23T10:20:03Z</time>
      </trkpt>
      <trkpt lat="48.19873" lon="7.12911">
        <ele>826.58</ele>
        <time>2021-06-23T10:20:05Z</time>
      </trkpt>
      <trkpt lat="48.19875" lon="7.12924">
        <ele>827.42</ele>
        <time>2021-06-23T10:20:07Z</time>
      </trkpt>
      <trkpt lat="48.19877" lon="7.1295">
        <ele>828.33</ele>
        <time>2021-06-23T10:20:10Z</time>
      </trkpt>
      <trkpt lat="48.19877" lon="7.13067">
        <ele>824.96</ele>
        <time>2021-06-23T10:20:12Z</time>
      </trkpt>
      <trkpt lat="48.19872" lon="7.13141">
        <ele>824.78</ele>
        <time>2021-06-23T10:20:15Z</time>
      </trkpt>
      <trkpt lat="48.19872" lon="7.13187">
        <ele>824.71</ele>
        <time>2021-06-23T10:20:17Z</time>
      </trkpt>
      <trkpt lat="48.19875" lon="7.13212">
        <ele>823.86</ele>
        <time>2021-06-23T10:20:20Z</time>
      </trkpt>
      <trkpt lat="48.19878" lon="7.13227">
        <ele>822.01</ele>
        <time>2021-06-23T10:20:22Z</time>
      </trkpt>
      <trkpt lat="48.19888" lon="7.13245">
        <ele>815.39</ele>
        <time>2021-06-23T10:20:24Z</time>
      </trkpt>
      <trkpt lat="48.19895" lon="7.13249">
        <ele>814.5</ele>
        <time>2021-06-23T10:20:27Z</time>
      </trkpt>
      <trkpt lat="48.19905" lon="7.13249">
        <ele>813.65</ele>
        <time>2021-06-23T10:20:29Z</time>
      </trkpt>
      <trkpt lat="48.19912" lon="7.13243">
        <ele>811.84</ele>
        <time>2021-06-23T10:20:32Z</time>
      </trkpt>
      <trkpt lat="48.19942" lon="7.1321">
        <ele>806.99</ele>
        <time>2021-06-23T10:20:34Z</time>
      </trkpt>
      <trkpt lat="48.19992" lon="7.13167">
        <ele>800.86</ele>
        <time>2021-06-23T10:20:37Z</time>
      </trkpt>
      <trkpt lat="48.20024" lon="7.13142">
        <ele>799.37</ele>
        <time>2021-06-23T10:20:39Z</time>
      </trkpt>
      <trkpt lat="48.20062" lon="7.13121">
        <ele>795.75</ele>
        <time>2021-06-23T10:20:41Z</time>
      </trkpt>
      <trkpt lat="48.20088" lon="7.13112">
        <ele>792.27</ele>
        <time>2021-06-23T10:20:44Z</time>
      </trkpt>
      <trkpt lat="48.20132" lon="7.13107">
        <ele>789.9</ele>
        <time>2021-06-23T10:20:46Z</time>
      </trkpt>
      <trkpt lat="48.2016" lon="7.13117">
        <ele>789.23</ele>
        <time>2021-06-23T10:20:49Z</time>
      </trkpt>
      <trkpt lat="48.20178" lon="7.13133">
        <ele>790.13</ele>
        <time>2021-06-23T10:20:51Z</time>
      </trkpt>
      <trkpt lat="48.20236" lon="7.13197">
        <ele>791.13</ele>
        <time>2021-06-23T10:20:54Z</time>
      </trkpt>
      <trkpt lat="48.20262" lon="7.13221">
        <ele>788.99</ele>
        <time>2021-06-23T10:20:56Z</time>
      </trkpt>
      <trkpt lat="48.20281" lon="7.13237">
        <ele>785.95</ele>
        <time>2021-06-23T10:20:58Z</time>
      </trkpt>
      <trkpt lat="48.20374" lon="7.13288">
        <ele>776.35</ele>
        <time>2021-06-23T10:21:01Z</time>
      </trkpt>
      <trkpt lat="48.20439" lon="7.13332">
        <ele>769.85</ele>
        <time>2021-06-23T10:21:03Z</time>
      </trkpt>
      <trkpt lat="48.20488" lon="7.13361">
        <ele>763.11</ele>
        <time>2021-06-23T10:21:06Z</time>
      </trkpt>
      <trkpt lat="48.20519" lon="7.13386">
        <ele>762.09</ele>
        <time>2021-06-23T10:21:08Z</time>
      </trkpt>
      <trkpt lat="48.20536" lon="7.13405">
        <ele>757.87</ele>
        <time>2021-06-23T10:21:11Z</time>
      </trkpt>
      <trkpt lat="48.20566" lon="7.13454">
        <ele>754.76</ele>
        <time>2021-06-23T10:21:13Z</time>
      </trkpt>
      <trkpt lat="48.20582" lon="7.1349">
        <ele>755.09</ele>
        <time>2021-06-23T10:21:15Z</time>
      </trkpt>
      <trkpt lat="48.2059" lon="7.13521">
        <ele>755.73</ele>
        <time>2021-06-23T10:21:18Z</time>
      </trkpt>
      <trkpt lat="48.20594" lon="7.13531">
        <ele>754.83</ele>
        <time>2021-06-23T10:21:20Z</time>
      </trkpt>
      <trkpt lat="48.206" lon="7.13538">
        <ele>753.06</ele>
        <time>2021-06-23T10:21:23Z</time>
      </trkpt>
      <trkpt lat="48.20607" lon="7.13541">
        <ele>750.82</ele>
        <time>2021-06-23T10:21:25Z</time>
      </trkpt>
      <trkpt lat="48.20616" lon="7.13537">
        <ele>748.43</ele>
        <time>2021-06-23T10:21:28Z</time>
      </trkpt>
      <trkpt lat="48.20619" lon="7.13531">
        <ele>747.85</ele>
        <time>2021-06-23T10:21:30Z</time>
      </trkpt>
      <trkpt lat="48.2062" lon="7.13523">
        <ele>747.78</ele>
        <time>2021-06-23T10:21:32Z</time>
      </trkpt>
      <trkpt lat="48.20617" lon="7.13509">
        <ele>748.47</ele>
        <time>2021-06-23T10:21:35Z</time>
      </trkpt>
      <trkpt lat="48.20586" lon="7.13454">
        <ele>749.53</ele>
        <time>2021-06-23T10:21:37Z</time>
      </trkpt>
      <trkpt lat="48.20555" lon="7.13383">
        <ele>746.93</ele>
        <time>2021-06-23T10:21:40Z</time>
      </trkpt>
      <trkpt lat="48.20532" lon="7.13343">
        <ele>749.8</ele>
        <time>2021-06-23T10:21:42Z</time>
      </trkpt>
      <trkpt lat="48.20492" lon="7.13285">
        <ele>742.55</ele>
        <time>2021-06-23T10:21:45Z</time>
      </trkpt>
      <trkpt lat="48.20447" lon="7.13235">
        <ele>737.79</ele>
        <time>2021-06-23T10:21:47Z</time>
      </trkpt>
      <trkpt lat="48.20413" lon="7.13188">
        <ele>728.24</ele>
        <time>2021-06-23T10:21:49Z</time>
      </trkpt>
      <trkpt lat="48.20395" lon="7.13168">
        <ele>725.44</ele>
        <time>2021-06-23T10:21:52Z</time>
      </trkpt>
      <trkpt lat="48.20385" lon="7.13159">
        <ele>724.74</ele>
        <time>2021-06-23T10:21:54Z</time>
      </trkpt>
      <trkpt lat="48.20371" lon="7.13153">
        <ele>724.85</ele>
        <time>2021-06-23T10:21:57Z</time>
      </trkpt>
      <trkpt lat="48.20338" lon="7.13142">
        <ele>727.3</ele>
        <time>2021-06-23T10:21:59Z</time>
      </trkpt>
      <trkpt lat="48.2033" lon="7.13137">
        <ele>727.28</ele>
        <time>2021-06-23T10:22:02Z</time>
      </trkpt>
      <trkpt lat="48.20317" lon="7.13125">
        <ele>726.86</ele>
        <time>2021-06-23T10:22:04Z</time>
      </trkpt>
      <trkpt lat="48.20308" lon="7.13109">
        <ele>723.71</ele>
        <time>2021-06-23T10:22:06Z</time>
      </trkpt>
      <trkpt lat="48.203" lon="7.13087">
        <ele>722.37</ele>
        <time>2021-06-23T10:22:09Z</time>
      </trkpt>
      <trkpt lat="48.20295" lon="7.13068">
        <ele>721.46</ele>
        <time>2021-06-23T10:22:11Z</time>
      </trkpt>
      <trkpt lat="48.20292" lon="7.13047">
        <ele>718.15</ele>
        <time>2021-06-23T10:22:14Z</time>
      </trkpt>
      <trkpt lat="48.20291" lon="7.13035">
        <ele>715.43</ele>
        <time>2021-06-23T10:22:16Z</time>
      </trkpt>
      <trkpt lat="48.20296" lon="7.12986">
        <ele>705.39</ele>
        <time>2021-06-23T10:22:18Z</time>
      </trkpt>
      <trkpt lat="48.20295" lon="7.12969">
        <ele>703.64</ele>
        <time>2021-06-23T10:22:21Z</time>
      </trkpt>
      <trkpt lat="48.20289" lon="7.12946">
        <ele>705.2</ele>
        <time>2021-06-23T10:22:23Z</time>
      </trkpt>
      <trkpt lat="48.20261" lon="7.12886">
        <ele>705.74</ele>
        <time>2021-06-23T10:22:26Z</time>
      </trkpt>
      <trkpt lat="48.20233" lon="7.1282">
        <ele>697.94</ele>
        <time>2021-06-23T10:22:28Z</time>
      </trkpt>
      <trkpt lat="48.20225" lon="7.12812">
        <ele>696.27</ele>
        <time>2021-06-23T10:22:31Z</time>
      </trkpt>
      <trkpt lat="48.20219" lon="7.12808">
        <ele>695.21</ele>
        <time>2021-06-23T10:22:33Z</time>
      </trkpt>
      <trkpt lat="48.20211" lon="7.12808">
        <ele>694.24</ele>
        <time>2021-06-23T10:22:35Z</time>
      </trkpt>
      <trkpt lat="48.20166" lon="7.12835">
        <ele>696.34</ele>
        <time>2021-06-23T10:22:38Z</time>
      </trkpt>
      <trkpt lat="48.20145" lon="7.12857">
        <ele>700.63</ele>
        <time>2021-06-23T10:22:40Z</time>
      </trkpt>
      <trkpt lat="48.20138" lon="7.12863">
        <ele>701.48</ele>
        <time>2021-06-23T10:22:43Z</time>
      </trkpt>
      <trkpt lat="48.20101" lon="7.12881">
        <ele>707.04</ele>
        <time>2021-06-23T10:22:45Z</time>
      </trkpt>
      <trkpt lat="48.20093" lon="7.12881">
        <ele>708.7</ele>
        <time>2021-06-23T10:22:48Z</time>
      </trkpt>
      <trkpt lat="48.2009" lon="7.12878">
        <ele>709.45</ele>
        <time>2021-06-23T10:22:50Z</time>
      </trkpt>
      <trkpt lat="48.20086" lon="7.12871">
        <ele>710.09</ele>
        <time>2021-06-23T10:22:52Z</time>
      </trkpt>
      <trkpt lat="48.20086" lon="7.12861">
        <ele>709.99</ele>
        <time>2021-06-23T10:22:55Z</time>
      </trkpt>
      <trkpt lat="48.20107" lon="7.12808">
        <ele>695.74</ele>
        <time>2021-06-23T10:22:57Z</time>
      </trkpt>
      <trkpt lat="48.20112" lon="7.12789">
        <ele>691.09</ele>
        <time>2021-06-23T10:23:00Z</time>
      </trkpt>
      <trkpt lat="48.20114" lon="7.12766">
        <ele>688.65</ele>
        <time>2021-06-23T10:23:02Z</time>
      </trkpt>
      <trkpt lat="48.20115" lon="7.12742">
        <ele>687.58</ele>
        <time>2021-06-23T10:23:05Z</time>
      </trkpt>
      <trkpt lat="48.20109" lon="7.12699">
        <ele>689.68</ele>
        <time>2021-06-23T10:23:07Z</time>
      </trkpt>
      <trkpt lat="48.20104" lon="7.12685">
        <ele>692.14</ele>
        <time>2021-06-23T10:23:09Z</time>
      </trkpt>
      <trkpt lat="48.20094" lon="7.12663">
        <ele>696.32</ele>
        <time>2021-06-23T10:23:12Z</time>
      </trkpt>
      <trkpt lat="48.20091" lon="7.12651">
        <ele>698.08</ele>
        <time>2021-06-23T10:23:14Z</time>
      </trkpt>
      <trkpt lat="48.20091" lon="7.1264">
        <ele>698.71</ele>
        <time>2021-06-23T10:23:17Z</time>
      </trkpt>
      <trkpt lat="48.20094" lon="7.12628">
        <ele>698.49</ele>
        <time>2021-06-23T10:23:19Z</time>
      </trkpt>
      <trkpt lat="48.20101" lon="7.12617">
        <ele>696.53</ele>
        <time>2021-06-23T10:23:22Z</time>
      </trkpt>
      <trkpt lat="48.20123" lon="7.12597">
        <ele>689.24</ele>
        <time>2021-06-23T10:23:24Z</time>
      </trkpt>
      <trkpt lat="48.20131" lon="7.12587">
        <ele>685.83</ele>
        <time>2021-06-23T10:23:26Z</time>
      </trkpt>
      <trkpt lat="48.20136" lon="7.12574">
        <ele>681.14</ele>
        <time>2021-06-23T10:23:29Z</time>
      </trkpt>
      <trkpt lat="48.20139" lon="7.12559">
        <ele>676.06</ele>
        <time>2021-06-23T10:23:31Z</time>
      </trkpt>
      <trkpt lat="48.20139" lon="7.12547">
        <ele>673.51</ele>
        <time>2021-06-23T10:23:34Z</time>
      </trkpt>
      <trkpt lat="48.20136" lon="7.12533">
        <ele>673.41</ele>
        <time>2021-06-23T10:23:36Z</time>
      </trkpt>
      <trkpt lat="48.20125" lon="7.12504">
        <ele>673.89</ele>
        <time>2021-06-23T10:23:39Z</time>
      </trkpt>
      <trkpt lat="48.20079" lon="7.12415">
        <ele>670.68</ele>
        <time>2021-06-23T10:23:41Z</time>
      </trkpt>
      <trkpt lat="48.20027" lon="7.12286">
        <ele>648.27</ele>
        <time>2021-06-23T10:23:43Z</time>
      </trkpt>
      <trkpt lat="48.19999" lon="7.1224">
        <ele>656.02</ele>
        <time>2021-06-23T10:23:46Z</time>
      </trkpt>
      <trkpt lat="48.19993" lon="7.1222">
        <ele>654.31</ele>
        <time>2021-06-23T10:23:48Z</time>
      </trkpt>
      <trkpt lat="48.19995" lon="7.122">
        <ele>648.72</ele>
        <time>2021-06-23T10:23:51Z</time>
      </trkpt>
      <trkpt lat="48.2" lon="7.12183">
        <ele>646.58</ele>
        <time>2021-06-23T10:23:53Z</time>
      </trkpt>
      <trkpt lat="48.20004" lon="7.12177">
        <ele>646.67</ele>
        <time>2021-06-23T10:23:56Z</time>
      </trkpt>
      <trkpt lat="48.2001" lon="7.12168">
        <ele>646.54</ele>
        <time>2021-06-23T10:23:58Z</time>
      </trkpt>
      <trkpt lat="48.20026" lon="7.12159">
        <ele>645.13</ele>
        <time>2021-06-23T10:24:00Z</time>
      </trkpt>
      <trkpt lat="48.2004" lon="7.12157">
        <ele>644.18</ele>
        <time>2021-06-23T10:24:03Z</time>
      </trkpt>
      <trkpt lat="48.20057" lon="7.12171">
        <ele>640.87</ele>
        <time>2021-06-23T10:24:05Z</time>
      </trkpt>
      <trkpt lat="48.20076" lon="7.12212">
        <ele>635.55</ele>
        <time>2021-06-23T10:24:08Z</time>
      </trkpt>
      <trkpt lat="48.20091" lon="7.1223">
        <ele>631.93</ele>
        <time>2021-06-23T10:24:10Z</time>
      </trkpt>
      <trkpt lat="48.2015" lon="7.12279">
        <ele>626.38</ele>
        <time>2021-06-23T10:24:13Z</time>
      </trkpt>
      <trkpt lat="48.20242" lon="7.12346">
        <ele>627.84</ele>
        <time>2021-06-23T10:24:15Z</time>
      </trkpt>
      <trkpt lat="48.20331" lon="7.12394">
        <ele>630.57</ele>
        <time>2021-06-23T10:24:17Z</time>
      </trkpt>
      <trkpt lat="48.20353" lon="7.12424">
        <ele>619.41</ele>
        <time>2021-06-23T10:24:20Z</time>
      </trkpt>
      <trkpt lat="48.20366" lon="7.12464">
        <ele>607.86</ele>
        <time>2021-06-23T10:24:22Z</time>
      </trkpt>
      <trkpt lat="48.20387" lon="7.12491">
        <ele>604.74</ele>
        <time>2021-06-23T10:24:25Z</time>
      </trkpt>
      <trkpt lat="48.20441" lon="7.12526">
        <ele>602.39</ele>
        <time>2021-06-23T10:24:27Z</time>
      </trkpt>
      <trkpt lat="48.20495" lon="7.12606">
        <ele>591.38</ele>
        <time>2021-06-23T10:24:30Z</time>
      </trkpt>
      <trkpt lat="48.20514" lon="7.12639">
        <ele>588.01</ele>
        <time>2021-06-23T10:24:32Z</time>
      </trkpt>
      <trkpt lat="48.20608" lon="7.12768">
        <ele>579.45</ele>
        <time>2021-06-23T10:24:34Z</time>
      </trkpt>
      <trkpt lat="48.20679" lon="7.12836">
        <ele>572.29</ele>
        <time>2021-06-23T10:24:37Z</time>
      </trkpt>
      <trkpt lat="48.20733" lon="7.12908">
        <ele>570.65</ele>
        <time>2021-06-23T10:24:39Z</time>
      </trkpt>
      <trkpt lat="48.20795" lon="7.12964">
        <ele>564.55</ele>
        <time>2021-06-23T10:24:42Z</time>
      </trkpt>
      <trkpt lat="48.20837" lon="7.13028">
        <ele>559.58</ele>
        <time>2021-06-23T10:24:44Z</time>
      </trkpt>
      <trkpt lat="48.20855" lon="7.13073">
        <ele>565.24</ele>
        <time>2021-06-23T10:24:47Z</time>
      </trkpt>
      <trkpt lat="48.20866" lon="7.13114">
        <ele>565.56</ele>
        <time>2021-06-23T10:24:49Z</time>
      </trkpt>
      <trkpt lat="48.20874" lon="7.13176">
        <ele>561.78</ele>
        <time>2021-06-23T10:24:51Z</time>
      </trkpt>
      <trkpt lat="48.20883" lon="7.13208">
        <ele>560.97</ele>
        <time>2021-06-23T10:24:54Z</time>
      </trkpt>
      <trkpt lat="48.20897" lon="7.13243">
        <ele>563.71</ele>
        <time>2021-06-23T10:24:56Z</time>
      </trkpt>
      <trkpt lat="48.2094" lon="7.13294">
        <ele>571.99</ele>
        <time>2021-06-23T10:24:59Z</time>
      </trkpt>
      <trkpt lat="48.21031" lon="7.13381">
        <ele>556.09</ele>
        <time>2021-06-23T10:25:01Z</time>
      </trkpt>
      <trkpt lat="48.21047" lon="7.13391">
        <ele>554.95</ele>
        <time>2021-06-23T10:25:04Z</time>
      </trkpt>
      <trkpt lat="48.21061" lon="7.13392">
        <ele>553.29</ele>
        <time>2021-06-23T10:25:06Z</time>
      </trkpt>
      <trkpt lat="48.2109" lon="7.13382">
        <ele>550.66</ele>
        <time>2021-06-23T10:25:08Z</time>
      </trkpt>
      <trkpt lat="48.21108" lon="7.1338">
        <ele>548.89</ele>
        <time>2021-06-23T10:25:11Z</time>
      </trkpt>
      <trkpt lat="48.21125" lon="7.13382">
        <ele>546.56</ele>
        <time>2021-06-23T10:25:13Z</time>
      </trkpt>
      <trkpt lat="48.21141" lon="7.13386">
        <ele>543.85</ele>
        <time>2021-06-23T10:25:16Z</time>
      </trkpt>
      <trkpt lat="48.21186" lon="7.13415">
        <ele>539.41</ele>
        <time>2021-06-23T10:25:18Z</time>
      </trkpt>
      <trkpt lat="48.21204" lon="7.13434">
        <ele>542.3</ele>
        <time>2021-06-23T10:25:21Z</time>
      </trkpt>
      <trkpt lat="48.2125" lon="7.13497">
        <ele>539.52</ele>
        <time>2021-06-23T10:25:23Z</time>
      </trkpt>
      <trkpt lat="48.21268" lon="7.1351">
        <ele>535.12</ele>
        <time>2021-06-23T10:25:25Z</time>
      </trkpt>
      <trkpt lat="48.213" lon="7.13526">
        <ele>529.66</ele>
        <time>2021-06-23T10:25:28Z</time>
      </trkpt>
      <trkpt lat="48.21351" lon="7.13581">
        <ele>530.53</ele>
        <time>2021-06-23T10:25:30Z</time>
      </trkpt>
      <trkpt lat="48.21367" lon="7.13605">
        <ele>526.99</ele>
        <time>2021-06-23T10:25:33Z</time>
      </trkpt>
      <trkpt lat="48.21376" lon="7.13633">
        <ele>525.95</ele>
        <time>2021-06-23T10:25:35Z</time>
      </trkpt>
      <trkpt lat="48.2138" lon="7.13694">
        <ele>526.37</ele>
        <time>2021-06-23T10:25:38Z</time>
      </trkpt>
      <trkpt lat="48.21382" lon="7.1371">
        <ele>526.7</ele>
        <time>2021-06-23T10:25:40Z</time>
      </trkpt>
      <trkpt lat="48.21389" lon="7.13734">
        <ele>525.34</ele>
        <time>2021-06-23T10:25:42Z</time>
      </trkpt>
      <trkpt lat="48.21402" lon="7.13757">
        <ele>523.67</ele>
        <time>2021-06-23T10:25:45Z</time>
      </trkpt>
      <trkpt lat="48.21424" lon="7.13781">
        <ele>520.98</ele>
        <time>2021-06-23T10:25:47Z</time>
      </trkpt>
      <trkpt lat="48.21436" lon="7.13802">
        <ele>521.05</ele>
        <time>2021-06-23T10:25:50Z</time>
      </trkpt>
      <trkpt lat="48.21466" lon="7.13885">
        <ele>518.15</ele>
        <time>2021-06-23T10:25:52Z</time>
      </trkpt>
      <trkpt lat="48.21489" lon="7.13939">
        <ele>518.18</ele>
        <time>2021-06-23T10:25:55Z</time>
      </trkpt>
      <trkpt lat="48.21509" lon="7.1398">
        <ele>517.66</ele>
        <time>2021-06-23T10:25:57Z</time>
      </trkpt>
      <trkpt lat="48.2154" lon="7.14018">
        <ele>511.27</ele>
        <time>2021-06-23T10:25:59Z</time>
      </trkpt>
      <trkpt lat="48.21571" lon="7.14045">
        <ele>508.08</ele>
        <time>2021-06-23T10:26:02Z</time>
      </trkpt>
      <trkpt lat="48.21606" lon="7.14061">
        <ele>506.56</ele>
        <time>2021-06-23T10:26:04Z</time>
      </trkpt>
      <trkpt lat="48.2165" lon="7.14068">
        <ele>504.45</ele>
        <time>2021-06-23T10:26:07Z</time>
      </trkpt>
      <trkpt lat="48.21679" lon="7.14079">
        <ele>502.93</ele>
        <time>2021-06-23T10:26:09Z</time>
      </trkpt>
      <trkpt lat="48.21694" lon="7.14088">
        <ele>502.01</ele>
        <time>2021-06-23T10:26:12Z</time>
      </trkpt>
      <trkpt lat="48.21714" lon="7.14109">
        <ele>499.86</ele>
        <time>2021-06-23T10:26:14Z</time>
      </trkpt>
      <trkpt lat="48.21785" lon="7.14234">
        <ele>496.91</ele>
        <time>2021-06-23T10:26:16Z</time>
      </trkpt>
      <trkpt lat="48.21807" lon="7.14262">
        <ele>491.94</ele>
        <time>2021-06-23T10:26:19Z</time>
      </trkpt>
      <trkpt lat="48.21863" lon="7.14305">
        <ele>494.91</ele>
        <time>2021-06-23T10:26:21Z</time>
      </trkpt>
      <trkpt lat="48.21877" lon="7.14319">
        <ele>495.6</ele>
        <time>2021-06-23T10:26:24Z</time>
      </trkpt>
      <trkpt lat="48.21888" lon="7.14333">
        <ele>495.08</ele>
        <time>2021-06-23T10:26:26Z</time>
      </trkpt>
      <trkpt lat="48.2193" lon="7.14399">
        <ele>492.28</ele>
        <time>2021-06-23T10:26:29Z</time>
      </trkpt>
      <trkpt lat="48.2194" lon="7.14411">
        <ele>490.7</ele>
        <time>2021-06-23T10:26:31Z</time>
      </trkpt>
      <trkpt lat="48.21956" lon="7.14422">
        <ele>488.23</ele>
        <time>2021-06-23T10:26:33Z</time>
      </trkpt>
      <trkpt lat="48.21973" lon="7.14429">
        <ele>485.53</ele>
        <time>2021-06-23T10:26:36Z</time>
      </trkpt>
      <trkpt lat="48.22008" lon="7.14436">
        <ele>483.72</ele>
        <time>2021-06-23T10:26:38Z</time>
      </trkpt>
      <trkpt lat="48.22094" lon="7.1449">
        <ele>481.64</ele>
        <time>2021-06-23T10:26:41Z</time>
      </trkpt>
      <trkpt lat="48.22127" lon="7.14514">
        <ele>481.02</ele>
        <time>2021-06-23T10:26:43Z</time>
      </trkpt>
      <trkpt lat="48.22154" lon="7.14537">
        <ele>477.42</ele>
        <time>2021-06-23T10:26:46Z</time>
      </trkpt>
      <trkpt lat="48.22171" lon="7.14561">
        <ele>474.48</ele>
        <time>2021-06-23T10:26:48Z</time>
      </trkpt>
      <trkpt lat="48.2222" lon="7.14649">
        <ele>472.73</ele>
        <time>2021-06-23T10:26:50Z</time>
      </trkpt>
      <trkpt lat="48.22232" lon="7.14663">
        <ele>471.39</ele>
        <time>2021-06-23T10:26:53Z</time>
      </trkpt>
      <trkpt lat="48.22246" lon="7.14669">
        <ele>470.36</ele>
        <time>2021-06-23T10:26:55Z</time>
      </trkpt>
      <trkpt lat="48.22275" lon="7.14675">
        <ele>467.93</ele>
        <time>2021-06-23T10:26:58Z</time>
      </trkpt>
      <trkpt lat="48.22291" lon="7.14685">
        <ele>466.87</ele>
        <time>2021-06-23T10:27:00Z</time>
      </trkpt>
      <trkpt lat="48.22303" lon="7.147">
        <ele>465.92</ele>
        <time>2021-06-23T10:27:03Z</time>
      </trkpt>
      <trkpt lat="48.22337" lon="7.14756">
        <ele>466.27</ele>
        <time>2021-06-23T10:27:05Z</time>
      </trkpt>
      <trkpt lat="48.22351" lon="7.14788">
        <ele>466.01</ele>
        <time>2021-06-23T10:27:07Z</time>
      </trkpt>
      <trkpt lat="48.22368" lon="7.14834">
        <ele>464.38</ele>
        <time>2021-06-23T10:27:10Z</time>
      </trkpt>
      <trkpt lat="48.22387" lon="7.14878">
        <ele>464.8</ele>
        <time>2021-06-23T10:27:12Z</time>
      </trkpt>
      <trkpt lat="48.224" lon="7.149">
        <ele>466.11</ele>
        <time>2021-06-23T10:27:15Z</time>
      </trkpt>
      <trkpt lat="48.22468" lon="7.14957">
        <ele>463.23</ele>
        <time>2021-06-23T10:27:17Z</time>
      </trkpt>
      <trkpt lat="48.22506" lon="7.1498">
        <ele>462.31</ele>
        <time>2021-06-23T10:27:20Z</time>
      </trkpt>
      <trkpt lat="48.22554" lon="7.15019">
        <ele>457.95</ele>
        <time>2021-06-23T10:27:22Z</time>
      </trkpt>
      <trkpt lat="48.22598" lon="7.15062">
        <ele>456.63</ele>
        <time>2021-06-23T10:27:24Z</time>
      </trkpt>
      <trkpt lat="48.22631" lon="7.15099">
        <ele>455.83</ele>
        <time>2021-06-23T10:27:27Z</time>
      </trkpt>
      <trkpt lat="48.22663" lon="7.15138">
        <ele>451.97</ele>
        <time>2021-06-23T10:27:29Z</time>
      </trkpt>
      <trkpt lat="48.22754" lon="7.1527">
        <ele>444.54</ele>
        <time>2021-06-23T10:27:32Z</time>
      </trkpt>
      <trkpt lat="48.22879" lon="7.15432">
        <ele>447.3</ele>
        <time>2021-06-23T10:27:34Z</time>
      </trkpt>
      <trkpt lat="48.22891" lon="7.15455">
        <ele>447.24</ele>
        <time>2021-06-23T10:27:37Z</time>
      </trkpt>
      <trkpt lat="48.22939" lon="7.1557">
        <ele>441.73</ele>
        <time>2021-06-23T10:27:39Z</time>
      </trkpt>
      <trkpt lat="48.22945" lon="7.15591">
        <ele>439.89</ele>
        <time>2021-06-23T10:27:41Z</time>
      </trkpt>
      <trkpt lat="48.22959" lon="7.15691">
        <ele>440.27</ele>
        <time>2021-06-23T10:27:44Z</time>
      </trkpt>
      <trkpt lat="48.22989" lon="7.15867">
        <ele>433.44</ele>
        <time>2021-06-23T10:27:46Z</time>
      </trkpt>
      <trkpt lat="48.22995" lon="7.15939">
        <ele>430.96</ele>
        <time>2021-06-23T10:27:49Z</time>
      </trkpt>
      <trkpt lat="48.22998" lon="7.15959">
        <ele>430.69</ele>
        <time>2021-06-23T10:27:51Z</time>
      </trkpt>
      <trkpt lat="48.23006" lon="7.15981">
        <ele>430.89</ele>
        <time>2021-06-23T10:27:54Z</time>
      </trkpt>
      <trkpt lat="48.2302" lon="7.16006">
        <ele>430.4</ele>
        <time>2021-06-23T10:27:56Z</time>
      </trkpt>
      <trkpt lat="48.23077" lon="7.16076">
        <ele>426.77</ele>
        <time>2021-06-23T10:27:58Z</time>
      </trkpt>
      <trkpt lat="48.23091" lon="7.16087">
        <ele>426.14</ele>
        <time>2021-06-23T10:28:01Z</time>
      </trkpt>
      <trkpt lat="48.23104" lon="7.16093">
        <ele>425.92</ele>
        <time>2021-06-23T10:28:03Z</time>
      </trkpt>
      <trkpt lat="48.2315" lon="7.16094">
        <ele>426.94</ele>
        <time>2021-06-23T10:28:06Z</time>
      </trkpt>
      <trkpt lat="48.2318" lon="7.16109">
        <ele>426.43</ele>
        <time>2021-06-23T10:28:08Z</time>
      </trkpt>
      <trkpt lat="48.23225" lon="7.16122">
        <ele>427.98</ele>
        <time>2021-06-23T10:28:11Z</time>
      </trkpt>
      <trkpt lat="48.23327" lon="7.16169">
        <ele>422.41</ele>
        <time>2021-06-23T10:28:13Z</time>
      </trkpt>
      <trkpt lat="48.23364" lon="7.16196">
        <ele>421.02</ele>
        <time>2021-06-23T10:28:15Z</time>
      </trkpt>
      <trkpt lat="48.23381" lon="7.16213">
        <ele>419.62</ele>
        <time>2021-06-23T10:28:18Z</time>
      </trkpt>
      <trkpt lat="48.23422" lon="7.16258">
        <ele>416.57</ele>
        <time>2021-06-23T10:28:20Z</time>
      </trkpt>
      <trkpt lat="48.23494" lon="7.16302">
        <ele>420.37</ele>
        <time>2021-06-23T10:28:23Z</time>
      </trkpt>
      <trkpt lat="48.23515" lon="7.16324">
        <ele>423.81</ele>
        <time>2021-06-23T10:28:25Z</time>
      </trkpt>
      <trkpt lat="48.23532" lon="7.16351">
        <ele>426.54</ele>
        <time>2021-06-23T10:28:28Z</time>
      </trkpt>
      <trkpt lat="48.23546" lon="7.16383">
        <ele>429.25</ele>
        <time>2021-06-23T10:28:30Z</time>
      </trkpt>
      <trkpt lat="48.23554" lon="7.16409">
        <ele>428.97</ele>
        <time>2021-06-23T10:28:32Z</time>
      </trkpt>
      <trkpt lat="48.23571" lon="7.16504">
        <ele>421.59</ele>
        <time>2021-06-23T10:28:35Z</time>
      </trkpt>
      <trkpt lat="48.23576" lon="7.16525">
        <ele>421.16</ele>
        <time>2021-06-23T10:28:37Z</time>
      </trkpt>
      <trkpt lat="48.23596" lon="7.16582">
        <ele>425.88</ele>
        <time>2021-06-23T10:28:40Z</time>
      </trkpt>
      <trkpt lat="48.23602" lon="7.16608">
        <ele>426.83</ele>
        <time>2021-06-23T10:28:42Z</time>
      </trkpt>
      <trkpt lat="48.23612" lon="7.16706">
        <ele>421.08</ele>
        <time>2021-06-23T10:28:45Z</time>
      </trkpt>
      <trkpt lat="48.23622" lon="7.16766">
        <ele>420.48</ele>
        <time>2021-06-23T10:28:47Z</time>
      </trkpt>
      <trkpt lat="48.23629" lon="7.16796">
        <ele>421.26</ele>
        <time>2021-06-23T10:28:49Z</time>
      </trkpt>
      <trkpt lat="48.23663" lon="7.16895">
        <ele>420.16</ele>
        <time>2021-06-23T10:28:52Z</time>
      </trkpt>
      <trkpt lat="48.23683" lon="7.16967">
        <ele>420.71</ele>
        <time>2021-06-23T10:28:54Z</time>
      </trkpt>
      <trkpt lat="48.23715" lon="7.17142">
        <ele>417.64</ele>
        <time>2021-06-23T10:28:57Z</time>
      </trkpt>
      <trkpt lat="48.23732" lon="7.17206">
        <ele>413.9</ele>
        <time>2021-06-23T10:28:59Z</time>
      </trkpt>
      <trkpt lat="48.23796" lon="7.1736">
        <ele>414.15</ele>
        <time>2021-06-23T10:29:02Z</time>
      </trkpt>
      <trkpt lat="48.23799" lon="7.17383">
        <ele>410.29</ele>
        <time>2021-06-23T10:29:04Z</time>
      </trkpt>
      <trkpt lat="48.23807" lon="7.17393">
        <ele>410.89</ele>
        <time>2021-06-23T10:29:06Z</time>
      </trkpt>
      <trkpt lat="48.23861" lon="7.1751">
        <ele>402.05</ele>
        <time>2021-06-23T10:29:09Z</time>
      </trkpt>
      <trkpt lat="48.23883" lon="7.17604">
        <ele>395.76</ele>
        <time>2021-06-23T10:29:11Z</time>
      </trkpt>
      <trkpt lat="48.23891" lon="7.17668">
        <ele>389.9</ele>
        <time>2021-06-23T10:29:14Z</time>
      </trkpt>
      <trkpt lat="48.23896" lon="7.17688">
        <ele>387.87</ele>
        <time>2021-06-23T10:29:16Z</time>
      </trkpt>
      <trkpt lat="48.23906" lon="7.17708">
        <ele>387.92</ele>
        <time>2021-06-23T10:29:19Z</time>
      </trkpt>
      <trkpt lat="48.23944" lon="7.17751">
        <ele>391.85</ele>
        <time>2021-06-23T10:29:21Z</time>
      </trkpt>
      <trkpt lat="48.24" lon="7.17804">
        <ele>387.18</ele>
        <time>2021-06-23T10:29:23Z</time>
      </trkpt>
      <trkpt lat="48.24032" lon="7.17838">
        <ele>386.98</ele>
        <time>2021-06-23T10:29:26Z</time>
      </trkpt>
      <trkpt lat="48.24094" lon="7.1791">
        <ele>386.61</ele>
        <time>2021-06-23T10:29:28Z</time>
      </trkpt>
      <trkpt lat="48.24136" lon="7.17964">
        <ele>384.14</ele>
        <time>2021-06-23T10:29:31Z</time>
      </trkpt>
      <trkpt lat="48.24146" lon="7.17972">
        <ele>384</ele>
        <time>2021-06-23T10:29:33Z</time>
      </trkpt>
      <trkpt lat="48.2417" lon="7.17985">
        <ele>384</ele>
        <time>2021-06-23T10:29:36Z</time>
      </trkpt>
      <trkpt lat="48.24223" lon="7.17994">
        <ele>383</ele>
        <time>2021-06-23T10:29:38Z</time>
      </trkpt>
      <trkpt lat="48.24247" lon="7.17988">
        <ele>383</ele>
        <time>2021-06-23T10:29:40Z</time>
      </trkpt>
      <trkpt lat="48.2428" lon="7.17982">
        <ele>382.92</ele>
        <time>2021-06-23T10:29:43Z</time>
      </trkpt>
      <trkpt lat="48.24311" lon="7.17986">
        <ele>381.89</ele>
        <time>2021-06-23T10:29:45Z</time>
      </trkpt>
      <trkpt lat="48.24384" lon="7.18017">
        <ele>381.32</ele>
        <time>2021-06-23T10:29:48Z</time>
      </trkpt>
      <trkpt lat="48.24385" lon="7.18024">
        <ele>381.13</ele>
        <time>2021-06-23T10:29:51Z</time>
      </trkpt>
      <trkpt lat="48.24389" lon="7.18028">
        <ele>380.99</ele>
        <time>2021-06-23T10:29:54Z</time>
      </trkpt>
      <trkpt lat="48.24387" lon="7.18042">
        <ele>380.49</ele>
        <time>2021-06-23T10:29:57Z</time>
      </trkpt>
      <trkpt lat="48.24372" lon="7.18092">
        <ele>379.43</ele>
        <time>2021-06-23T10:30:00Z</time>
      </trkpt>
      <trkpt lat="48.24345" lon="7.18205">
        <ele>380</ele>
        <time>2021-06-23T10:30:03Z</time>
      </trkpt>
      <trkpt lat="48.24344" lon="7.18214">
        <ele>380</ele>
        <time>2021-06-23T10:30:07Z</time>
      </trkpt>
      <trkpt lat="48.24351" lon="7.18223">
        <ele>380.02</ele>
        <time>2021-06-23T10:30:12Z</time>
      </trkpt>
      <trkpt lat="48.2439" lon="7.1825">
        <ele>379.96</ele>
        <time>2021-06-23T10:30:18Z</time>
      </trkpt>
      <trkpt lat="48.24434" lon="7.18277">
        <ele>378.03</ele>
        <time>2021-06-23T10:30:23Z</time>
      </trkpt>
      <trkpt lat="48.24465" lon="7.18298">
        <ele>377.29</ele>
        <time>2021-06-23T10:30:29Z</time>
      </trkpt>
      <trkpt lat="48.24528" lon="7.18358">
        <ele>376.12</ele>
        <time>2021-06-23T10:30:34Z</time>
      </trkpt>
      <trkpt lat="48.24537" lon="7.18372">
        <ele>376.14</ele>
        <time>2021-06-23T10:30:40Z</time>
      </trkpt>
      <trkpt lat="48.24539" lon="7.18384">
        <ele>376.34</ele>
        <time>2021-06-23T10:30:45Z</time>
      </trkpt>
      <trkpt lat="48.24543" lon="7.1843">
        <ele>376.28</ele>
        <time>2021-06-23T10:30:51Z</time>
      </trkpt>
      <trkpt lat="48.24547" lon="7.18437">
        <ele>376.17</ele>
        <time>2021-06-23T10:30:56Z</time>
      </trkpt>
      <trkpt lat="48.24559" lon="7.18448">
        <ele>375.98</ele>
        <time>2021-06-23T10:31:02Z</time>
      </trkpt>
      <trkpt lat="48.24574" lon="7.18453">
        <ele>375.8</ele>
        <time>2021-06-23T10:31:07Z</time>
      </trkpt>
      <trkpt lat="48.24583" lon="7.18459">
        <ele>375.48</ele>
        <time>2021-06-23T10:31:13Z</time>
      </trkpt>
      <trkpt lat="48.2461" lon="7.18502">
        <ele>373.97</ele>
        <time>2021-06-23T10:31:18Z</time>
      </trkpt>
      <trkpt lat="48.2464" lon="7.18538">
        <ele>371.62</ele>
        <time>2021-06-23T10:31:24Z</time>
      </trkpt>
      <trkpt lat="48.24656" lon="7.1855">
        <ele>371.19</ele>
        <time>2021-06-23T10:31:29Z</time>
      </trkpt>
      <trkpt lat="48.24687" lon="7.18531">
        <ele>371.23</ele>
        <time>2021-06-23T10:31:36Z</time>
      </trkpt>
      <trkpt lat="48.24687" lon="7.18531">
        <ele>371.23</ele>
        <time>2021-06-23T10:31:36Z</time>
      </trkpt>
      <trkpt lat="48.24691" lon="7.18528">
        <ele>371.13</ele>
        <time>2021-06-23T10:31:36Z</time>
      </trkpt>
      <trkpt lat="48.24659" lon="7.1844">
        <ele>373.4</ele>
        <time>2021-06-23T10:31:40Z</time>
      </trkpt>
      <trkpt lat="48.24631" lon="7.18381">
        <ele>375.3</ele>
        <time>2021-06-23T10:31:44Z</time>
      </trkpt>
      <trkpt lat="48.24601" lon="7.18308">
        <ele>374.73</ele>
        <time>2021-06-23T10:31:48Z</time>
      </trkpt>
      <trkpt lat="48.24599" lon="7.18298">
        <ele>374.56</ele>
        <time>2021-06-23T10:31:51Z</time>
      </trkpt>
      <trkpt lat="48.24584" lon="7.1827">
        <ele>374.56</ele>
        <time>2021-06-23T10:31:55Z</time>
      </trkpt>
      <trkpt lat="48.24539" lon="7.18189">
        <ele>379.92</ele>
        <time>2021-06-23T10:31:59Z</time>
      </trkpt>
      <trkpt lat="48.2452" lon="7.18122">
        <ele>381.72</ele>
        <time>2021-06-23T10:32:03Z</time>
      </trkpt>
      <trkpt lat="48.24498" lon="7.18026">
        <ele>383.27</ele>
        <time>2021-06-23T10:32:07Z</time>
      </trkpt>
      <trkpt lat="48.24481" lon="7.1797">
        <ele>386.78</ele>
        <time>2021-06-23T10:32:10Z</time>
      </trkpt>
      <trkpt lat="48.24476" lon="7.17955">
        <ele>387.55</ele>
        <time>2021-06-23T10:32:14Z</time>
      </trkpt>
      <trkpt lat="48.24441" lon="7.17896">
        <ele>388.73</ele>
        <time>2021-06-23T10:32:18Z</time>
      </trkpt>
      <trkpt lat="48.24435" lon="7.17883">
        <ele>389.13</ele>
        <time>2021-06-23T10:32:22Z</time>
      </trkpt>
      <trkpt lat="48.24403" lon="7.17744">
        <ele>391.49</ele>
        <time>2021-06-23T10:32:25Z</time>
      </trkpt>
      <trkpt lat="48.24384" lon="7.17668">
        <ele>391.42</ele>
        <time>2021-06-23T10:32:29Z</time>
      </trkpt>
      <trkpt lat="48.24329" lon="7.17505">
        <ele>398.2</ele>
        <time>2021-06-23T10:32:33Z</time>
      </trkpt>
      <trkpt lat="48.24312" lon="7.17463">
        <ele>400.2</ele>
        <time>2021-06-23T10:32:37Z</time>
      </trkpt>
      <trkpt lat="48.24307" lon="7.17445">
        <ele>401.15</ele>
        <time>2021-06-23T10:32:41Z</time>
      </trkpt>
      <trkpt lat="48.24302" lon="7.17415">
        <ele>401.31</ele>
        <time>2021-06-23T10:32:44Z</time>
      </trkpt>
      <trkpt lat="48.243" lon="7.17372">
        <ele>404</ele>
        <time>2021-06-23T10:32:48Z</time>
      </trkpt>
      <trkpt lat="48.24301" lon="7.16983">
        <ele>413.7</ele>
        <time>2021-06-23T10:32:52Z</time>
      </trkpt>
      <trkpt lat="48.24296" lon="7.1691">
        <ele>412.04</ele>
        <time>2021-06-23T10:32:56Z</time>
      </trkpt>
      <trkpt lat="48.24288" lon="7.16846">
        <ele>414.23</ele>
        <time>2021-06-23T10:32:59Z</time>
      </trkpt>
      <trkpt lat="48.24245" lon="7.16641">
        <ele>421.16</ele>
        <time>2021-06-23T10:33:03Z</time>
      </trkpt>
      <trkpt lat="48.24247" lon="7.16619">
        <ele>420.49</ele>
        <time>2021-06-23T10:33:07Z</time>
      </trkpt>
      <trkpt lat="48.24277" lon="7.16482">
        <ele>426.91</ele>
        <time>2021-06-23T10:33:11Z</time>
      </trkpt>
      <trkpt lat="48.24293" lon="7.16391">
        <ele>438.23</ele>
        <time>2021-06-23T10:33:14Z</time>
      </trkpt>
      <trkpt lat="48.24303" lon="7.16295">
        <ele>437.8</ele>
        <time>2021-06-23T10:33:18Z</time>
      </trkpt>
      <trkpt lat="48.24309" lon="7.16271">
        <ele>441.07</ele>
        <time>2021-06-23T10:33:22Z</time>
      </trkpt>
      <trkpt lat="48.24321" lon="7.16247">
        <ele>445.02</ele>
        <time>2021-06-23T10:33:26Z</time>
      </trkpt>
      <trkpt lat="48.24342" lon="7.16213">
        <ele>450.01</ele>
        <time>2021-06-23T10:33:30Z</time>
      </trkpt>
      <trkpt lat="48.24362" lon="7.16187">
        <ele>452.69</ele>
        <time>2021-06-23T10:33:33Z</time>
      </trkpt>
      <trkpt lat="48.24375" lon="7.16179">
        <ele>454.51</ele>
        <time>2021-06-23T10:33:37Z</time>
      </trkpt>
      <trkpt lat="48.24391" lon="7.16176">
        <ele>455.1</ele>
        <time>2021-06-23T10:33:41Z</time>
      </trkpt>
      <trkpt lat="48.24405" lon="7.16181">
        <ele>455.9</ele>
        <time>2021-06-23T10:33:45Z</time>
      </trkpt>
      <trkpt lat="48.24422" lon="7.16194">
        <ele>456.62</ele>
        <time>2021-06-23T10:33:48Z</time>
      </trkpt>
      <trkpt lat="48.24434" lon="7.16209">
        <ele>458.38</ele>
        <time>2021-06-23T10:33:52Z</time>
      </trkpt>
      <trkpt lat="48.24446" lon="7.16232">
        <ele>462.27</ele>
        <time>2021-06-23T10:33:56Z</time>
      </trkpt>
      <trkpt lat="48.24462" lon="7.16255">
        <ele>468.08</ele>
        <time>2021-06-23T10:34:00Z</time>
      </trkpt>
      <trkpt lat="48.24476" lon="7.16265">
        <ele>471.03</ele>
        <time>2021-06-23T10:34:04Z</time>
      </trkpt>
      <trkpt lat="48.24539" lon="7.16277">
        <ele>475.14</ele>
        <time>2021-06-23T10:34:07Z</time>
      </trkpt>
      <trkpt lat="48.2457" lon="7.16275">
        <ele>476.53</ele>
        <time>2021-06-23T10:34:11Z</time>
      </trkpt>
      <trkpt lat="48.24591" lon="7.16267">
        <ele>476.01</ele>
        <time>2021-06-23T10:34:15Z</time>
      </trkpt>
      <trkpt lat="48.24611" lon="7.16256">
        <ele>478.07</ele>
        <time>2021-06-23T10:34:19Z</time>
      </trkpt>
      <trkpt lat="48.24649" lon="7.16226">
        <ele>481.7</ele>
        <time>2021-06-23T10:34:22Z</time>
      </trkpt>
      <trkpt lat="48.24738" lon="7.16148">
        <ele>491.55</ele>
        <time>2021-06-23T10:34:26Z</time>
      </trkpt>
      <trkpt lat="48.24757" lon="7.16135">
        <ele>494.54</ele>
        <time>2021-06-23T10:34:30Z</time>
      </trkpt>
      <trkpt lat="48.24808" lon="7.16113">
        <ele>499.85</ele>
        <time>2021-06-23T10:34:34Z</time>
      </trkpt>
      <trkpt lat="48.24841" lon="7.16094">
        <ele>502.19</ele>
        <time>2021-06-23T10:34:37Z</time>
      </trkpt>
      <trkpt lat="48.24859" lon="7.16076">
        <ele>501.99</ele>
        <time>2021-06-23T10:34:41Z</time>
      </trkpt>
      <trkpt lat="48.24879" lon="7.16048">
        <ele>503.27</ele>
        <time>2021-06-23T10:34:45Z</time>
      </trkpt>
      <trkpt lat="48.24925" lon="7.15965">
        <ele>508.31</ele>
        <time>2021-06-23T10:34:49Z</time>
      </trkpt>
      <trkpt lat="48.24956" lon="7.15895">
        <ele>517.76</ele>
        <time>2021-06-23T10:34:53Z</time>
      </trkpt>
      <trkpt lat="48.24967" lon="7.15874">
        <ele>519.22</ele>
        <time>2021-06-23T10:34:56Z</time>
      </trkpt>
      <trkpt lat="48.25063" lon="7.15749">
        <ele>525.87</ele>
        <time>2021-06-23T10:35:00Z</time>
      </trkpt>
      <trkpt lat="48.2509" lon="7.15709">
        <ele>534</ele>
        <time>2021-06-23T10:35:04Z</time>
      </trkpt>
      <trkpt lat="48.2514" lon="7.15651">
        <ele>540.32</ele>
        <time>2021-06-23T10:35:08Z</time>
      </trkpt>
      <trkpt lat="48.25189" lon="7.15588">
        <ele>550.69</ele>
        <time>2021-06-23T10:35:11Z</time>
      </trkpt>
      <trkpt lat="48.25195" lon="7.15565">
        <ele>547.4</ele>
        <time>2021-06-23T10:35:15Z</time>
      </trkpt>
      <trkpt lat="48.25194" lon="7.15545">
        <ele>544.27</ele>
        <time>2021-06-23T10:35:19Z</time>
      </trkpt>
      <trkpt lat="48.2519" lon="7.15528">
        <ele>543.2</ele>
        <time>2021-06-23T10:35:23Z</time>
      </trkpt>
      <trkpt lat="48.25179" lon="7.15512">
        <ele>545.38</ele>
        <time>2021-06-23T10:35:27Z</time>
      </trkpt>
      <trkpt lat="48.25167" lon="7.15507">
        <ele>547.71</ele>
        <time>2021-06-23T10:35:30Z</time>
      </trkpt>
      <trkpt lat="48.25153" lon="7.15508">
        <ele>553.45</ele>
        <time>2021-06-23T10:35:34Z</time>
      </trkpt>
      <trkpt lat="48.24957" lon="7.15592">
        <ele>573.3</ele>
        <time>2021-06-23T10:35:38Z</time>
      </trkpt>
      <trkpt lat="48.24914" lon="7.15615">
        <ele>576.24</ele>
        <time>2021-06-23T10:35:42Z</time>
      </trkpt>
      <trkpt lat="48.24883" lon="7.15637">
        <ele>577.82</ele>
        <time>2021-06-23T10:35:45Z</time>
      </trkpt>
      <trkpt lat="48.24778" lon="7.1573">
        <ele>598.65</ele>
        <time>2021-06-23T10:35:49Z</time>
      </trkpt>
      <trkpt lat="48.24765" lon="7.15745">
        <ele>601.74</ele>
        <time>2021-06-23T10:35:53Z</time>
      </trkpt>
      <trkpt lat="48.24759" lon="7.15764">
        <ele>600.07</ele>
        <time>2021-06-23T10:35:57Z</time>
      </trkpt>
      <trkpt lat="48.24752" lon="7.15815">
        <ele>592.69</ele>
        <time>2021-06-23T10:36:01Z</time>
      </trkpt>
      <trkpt lat="48.24749" lon="7.15832">
        <ele>590.73</ele>
        <time>2021-06-23T10:36:04Z</time>
      </trkpt>
      <trkpt lat="48.24743" lon="7.15845">
        <ele>590.08</ele>
        <time>2021-06-23T10:36:08Z</time>
      </trkpt>
      <trkpt lat="48.24735" lon="7.15855">
        <ele>590.73</ele>
        <time>2021-06-23T10:36:12Z</time>
      </trkpt>
      <trkpt lat="48.24724" lon="7.15863">
        <ele>592.18</ele>
        <time>2021-06-23T10:36:16Z</time>
      </trkpt>
      <trkpt lat="48.24709" lon="7.15866">
        <ele>593.05</ele>
        <time>2021-06-23T10:36:19Z</time>
      </trkpt>
      <trkpt lat="48.24695" lon="7.1586">
        <ele>596.14</ele>
        <time>2021-06-23T10:36:23Z</time>
      </trkpt>
      <trkpt lat="48.24683" lon="7.1585">
        <ele>596.26</ele>
        <time>2021-06-23T10:36:27Z</time>
      </trkpt>
      <trkpt lat="48.24676" lon="7.15836">
        <ele>598.05</ele>
        <time>2021-06-23T10:36:31Z</time>
      </trkpt>
      <trkpt lat="48.24671" lon="7.1582">
        <ele>599.67</ele>
        <time>2021-06-23T10:36:34Z</time>
      </trkpt>
      <trkpt lat="48.24669" lon="7.158">
        <ele>601.85</ele>
        <time>2021-06-23T10:36:38Z</time>
      </trkpt>
      <trkpt lat="48.24668" lon="7.15764">
        <ele>605.24</ele>
        <time>2021-06-23T10:36:42Z</time>
      </trkpt>
      <trkpt lat="48.24647" lon="7.15595">
        <ele>619.28</ele>
        <time>2021-06-23T10:36:46Z</time>
      </trkpt>
      <trkpt lat="48.24641" lon="7.15507">
        <ele>624.46</ele>
        <time>2021-06-23T10:36:50Z</time>
      </trkpt>
      <trkpt lat="48.2464" lon="7.15438">
        <ele>633.52</ele>
        <time>2021-06-23T10:36:53Z</time>
      </trkpt>
      <trkpt lat="48.24644" lon="7.15346">
        <ele>634.11</ele>
        <time>2021-06-23T10:36:57Z</time>
      </trkpt>
      <trkpt lat="48.24658" lon="7.15194">
        <ele>647.27</ele>
        <time>2021-06-23T10:37:01Z</time>
      </trkpt>
      <trkpt lat="48.24662" lon="7.15027">
        <ele>653.24</ele>
        <time>2021-06-23T10:37:05Z</time>
      </trkpt>
      <trkpt lat="48.24667" lon="7.15">
        <ele>657.2</ele>
        <time>2021-06-23T10:37:08Z</time>
      </trkpt>
      <trkpt lat="48.24674" lon="7.14981">
        <ele>657.95</ele>
        <time>2021-06-23T10:37:12Z</time>
      </trkpt>
      <trkpt lat="48.24794" lon="7.14752">
        <ele>674.79</ele>
        <time>2021-06-23T10:37:16Z</time>
      </trkpt>
      <trkpt lat="48.24804" lon="7.14728">
        <ele>676.83</ele>
        <time>2021-06-23T10:37:20Z</time>
      </trkpt>
      <trkpt lat="48.2481" lon="7.14699">
        <ele>678.38</ele>
        <time>2021-06-23T10:37:24Z</time>
      </trkpt>
      <trkpt lat="48.24819" lon="7.14615">
        <ele>683.74</ele>
        <time>2021-06-23T10:37:27Z</time>
      </trkpt>
      <trkpt lat="48.24819" lon="7.14581">
        <ele>685.8</ele>
        <time>2021-06-23T10:37:31Z</time>
      </trkpt>
      <trkpt lat="48.24814" lon="7.14551">
        <ele>687.54</ele>
        <time>2021-06-23T10:37:35Z</time>
      </trkpt>
      <trkpt lat="48.24804" lon="7.1453">
        <ele>687.51</ele>
        <time>2021-06-23T10:37:39Z</time>
      </trkpt>
      <trkpt lat="48.24793" lon="7.14515">
        <ele>691.33</ele>
        <time>2021-06-23T10:37:42Z</time>
      </trkpt>
      <trkpt lat="48.24777" lon="7.14503">
        <ele>694.35</ele>
        <time>2021-06-23T10:37:46Z</time>
      </trkpt>
      <trkpt lat="48.24757" lon="7.14492">
        <ele>703.97</ele>
        <time>2021-06-23T10:37:50Z</time>
      </trkpt>
      <trkpt lat="48.24738" lon="7.14488">
        <ele>707.95</ele>
        <time>2021-06-23T10:37:54Z</time>
      </trkpt>
      <trkpt lat="48.24696" lon="7.14498">
        <ele>698.98</ele>
        <time>2021-06-23T10:37:57Z</time>
      </trkpt>
      <trkpt lat="48.24681" lon="7.14498">
        <ele>696.14</ele>
        <time>2021-06-23T10:38:01Z</time>
      </trkpt>
      <trkpt lat="48.24668" lon="7.14491">
        <ele>695.47</ele>
        <time>2021-06-23T10:38:05Z</time>
      </trkpt>
      <trkpt lat="48.24658" lon="7.14481">
        <ele>695.86</ele>
        <time>2021-06-23T10:38:09Z</time>
      </trkpt>
      <trkpt lat="48.24652" lon="7.14472">
        <ele>696.9</ele>
        <time>2021-06-23T10:38:13Z</time>
      </trkpt>
      <trkpt lat="48.24647" lon="7.14453">
        <ele>698.87</ele>
        <time>2021-06-23T10:38:16Z</time>
      </trkpt>
      <trkpt lat="48.24646" lon="7.14431">
        <ele>700.94</ele>
        <time>2021-06-23T10:38:20Z</time>
      </trkpt>
      <trkpt lat="48.24656" lon="7.14347">
        <ele>709.23</ele>
        <time>2021-06-23T10:38:24Z</time>
      </trkpt>
      <trkpt lat="48.24664" lon="7.14239">
        <ele>722.5</ele>
        <time>2021-06-23T10:38:28Z</time>
      </trkpt>
      <trkpt lat="48.24661" lon="7.14196">
        <ele>726.05</ele>
        <time>2021-06-23T10:38:31Z</time>
      </trkpt>
      <trkpt lat="48.24621" lon="7.13979">
        <ele>736.65</ele>
        <time>2021-06-23T10:38:35Z</time>
      </trkpt>
      <trkpt lat="48.2461" lon="7.13932">
        <ele>739.01</ele>
        <time>2021-06-23T10:38:39Z</time>
      </trkpt>
      <trkpt lat="48.24603" lon="7.13914">
        <ele>739.35</ele>
        <time>2021-06-23T10:38:43Z</time>
      </trkpt>
      <trkpt lat="48.2449" lon="7.13726">
        <ele>758.87</ele>
        <time>2021-06-23T10:38:47Z</time>
      </trkpt>
      <trkpt lat="48.24477" lon="7.1371">
        <ele>760.23</ele>
        <time>2021-06-23T10:38:50Z</time>
      </trkpt>
      <trkpt lat="48.24428" lon="7.13664">
        <ele>758.86</ele>
        <time>2021-06-23T10:38:54Z</time>
      </trkpt>
      <trkpt lat="48.24406" lon="7.13638">
        <ele>760.7</ele>
        <time>2021-06-23T10:38:58Z</time>
      </trkpt>
      <trkpt lat="48.24389" lon="7.13613">
        <ele>761.61</ele>
        <time>2021-06-23T10:39:02Z</time>
      </trkpt>
      <trkpt lat="48.24379" lon="7.13594">
        <ele>761.57</ele>
        <time>2021-06-23T10:39:05Z</time>
      </trkpt>
      <trkpt lat="48.24373" lon="7.13578">
        <ele>761.64</ele>
        <time>2021-06-23T10:39:09Z</time>
      </trkpt>
      <trkpt lat="48.24368" lon="7.13555">
        <ele>762.42</ele>
        <time>2021-06-23T10:39:13Z</time>
      </trkpt>
      <trkpt lat="48.24366" lon="7.13534">
        <ele>763.12</ele>
        <time>2021-06-23T10:39:17Z</time>
      </trkpt>
      <trkpt lat="48.24367" lon="7.13452">
        <ele>771.34</ele>
        <time>2021-06-23T10:39:20Z</time>
      </trkpt>
      <trkpt lat="48.24362" lon="7.1341">
        <ele>772.77</ele>
        <time>2021-06-23T10:39:24Z</time>
      </trkpt>
      <trkpt lat="48.24355" lon="7.13386">
        <ele>772.93</ele>
        <time>2021-06-23T10:39:28Z</time>
      </trkpt>
      <trkpt lat="48.24341" lon="7.13329">
        <ele>776.06</ele>
        <time>2021-06-23T10:39:32Z</time>
      </trkpt>
      <trkpt lat="48.24333" lon="7.13279">
        <ele>775.99</ele>
        <time>2021-06-23T10:39:36Z</time>
      </trkpt>
      <trkpt lat="48.24332" lon="7.13264">
        <ele>775.54</ele>
        <time>2021-06-23T10:39:39Z</time>
      </trkpt>
      <trkpt lat="48.24332" lon="7.13264">
        <ele>775.54</ele>
        <time>2021-06-23T10:39:39Z</time>
      </trkpt>
      <trkpt lat="48.24332" lon="7.13254">
        <ele>775.1</ele>
        <time>2021-06-23T10:39:43Z</time>
      </trkpt>
      <trkpt lat="48.24335" lon="7.13216">
        <ele>771.4</ele>
        <time>2021-06-23T10:39:47Z</time>
      </trkpt>
      <trkpt lat="48.2434" lon="7.13195">
        <ele>769.3</ele>
        <time>2021-06-23T10:39:51Z</time>
      </trkpt>
      <trkpt lat="48.24347" lon="7.13179">
        <ele>767.81</ele>
        <time>2021-06-23T10:39:55Z</time>
      </trkpt>
      <trkpt lat="48.24362" lon="7.13163">
        <ele>765.13</ele>
        <time>2021-06-23T10:39:59Z</time>
      </trkpt>
      <trkpt lat="48.24378" lon="7.13153">
        <ele>763.6</ele>
        <time>2021-06-23T10:40:03Z</time>
      </trkpt>
      <trkpt lat="48.24496" lon="7.13104">
        <ele>759.39</ele>
        <time>2021-06-23T10:40:07Z</time>
      </trkpt>
      <trkpt lat="48.2453" lon="7.13085">
        <ele>758.5</ele>
        <time>2021-06-23T10:40:11Z</time>
      </trkpt>
      <trkpt lat="48.24564" lon="7.13056">
        <ele>749.34</ele>
        <time>2021-06-23T10:40:15Z</time>
      </trkpt>
      <trkpt lat="48.24626" lon="7.12998">
        <ele>738.34</ele>
        <time>2021-06-23T10:40:18Z</time>
      </trkpt>
      <trkpt lat="48.24666" lon="7.12953">
        <ele>736.61</ele>
        <time>2021-06-23T10:40:22Z</time>
      </trkpt>
      <trkpt lat="48.24724" lon="7.12895">
        <ele>732.06</ele>
        <time>2021-06-23T10:40:26Z</time>
      </trkpt>
      <trkpt lat="48.24884" lon="7.12751">
        <ele>715.71</ele>
        <time>2021-06-23T10:40:30Z</time>
      </trkpt>
      <trkpt lat="48.24907" lon="7.12738">
        <ele>715.76</ele>
        <time>2021-06-23T10:40:34Z</time>
      </trkpt>
      <trkpt lat="48.24923" lon="7.12735">
        <ele>716.71</ele>
        <time>2021-06-23T10:40:38Z</time>
      </trkpt>
      <trkpt lat="48.24943" lon="7.12743">
        <ele>720.15</ele>
        <time>2021-06-23T10:40:42Z</time>
      </trkpt>
      <trkpt lat="48.24996" lon="7.12781">
        <ele>712.42</ele>
        <time>2021-06-23T10:40:46Z</time>
      </trkpt>
      <trkpt lat="48.25027" lon="7.12798">
        <ele>705.05</ele>
        <time>2021-06-23T10:40:50Z</time>
      </trkpt>
      <trkpt lat="48.25058" lon="7.12804">
        <ele>699.46</ele>
        <time>2021-06-23T10:40:54Z</time>
      </trkpt>
      <trkpt lat="48.25096" lon="7.12805">
        <ele>697.4</ele>
        <time>2021-06-23T10:40:57Z</time>
      </trkpt>
      <trkpt lat="48.25141" lon="7.12823">
        <ele>693.01</ele>
        <time>2021-06-23T10:41:01Z</time>
      </trkpt>
      <trkpt lat="48.25193" lon="7.12883">
        <ele>690.07</ele>
        <time>2021-06-23T10:41:05Z</time>
      </trkpt>
      <trkpt lat="48.25252" lon="7.12928">
        <ele>690.23</ele>
        <time>2021-06-23T10:41:09Z</time>
      </trkpt>
      <trkpt lat="48.2526" lon="7.1293">
        <ele>688.44</ele>
        <time>2021-06-23T10:41:13Z</time>
      </trkpt>
      <trkpt lat="48.25266" lon="7.12927">
        <ele>685.32</ele>
        <time>2021-06-23T10:41:17Z</time>
      </trkpt>
      <trkpt lat="48.2527" lon="7.12917">
        <ele>681.29</ele>
        <time>2021-06-23T10:41:21Z</time>
      </trkpt>
      <trkpt lat="48.2527" lon="7.12908">
        <ele>679.32</ele>
        <time>2021-06-23T10:41:25Z</time>
      </trkpt>
      <trkpt lat="48.25267" lon="7.129">
        <ele>678.38</ele>
        <time>2021-06-23T10:41:29Z</time>
      </trkpt>
      <trkpt lat="48.25261" lon="7.12894">
        <ele>678.44</ele>
        <time>2021-06-23T10:41:33Z</time>
      </trkpt>
      <trkpt lat="48.25242" lon="7.12883">
        <ele>680.45</ele>
        <time>2021-06-23T10:41:36Z</time>
      </trkpt>
      <trkpt lat="48.25225" lon="7.12866">
        <ele>679.77</ele>
        <time>2021-06-23T10:41:40Z</time>
      </trkpt>
      <trkpt lat="48.25213" lon="7.1285">
        <ele>678.23</ele>
        <time>2021-06-23T10:41:44Z</time>
      </trkpt>
      <trkpt lat="48.25195" lon="7.12816">
        <ele>675.88</ele>
        <time>2021-06-23T10:41:48Z</time>
      </trkpt>
      <trkpt lat="48.25153" lon="7.12719">
        <ele>664.72</ele>
        <time>2021-06-23T10:41:52Z</time>
      </trkpt>
      <trkpt lat="48.25144" lon="7.12705">
        <ele>662.84</ele>
        <time>2021-06-23T10:41:56Z</time>
      </trkpt>
      <trkpt lat="48.25133" lon="7.12698">
        <ele>662.36</ele>
        <time>2021-06-23T10:42:00Z</time>
      </trkpt>
      <trkpt lat="48.25084" lon="7.12689">
        <ele>668.26</ele>
        <time>2021-06-23T10:42:04Z</time>
      </trkpt>
      <trkpt lat="48.25072" lon="7.12684">
        <ele>668.76</ele>
        <time>2021-06-23T10:42:08Z</time>
      </trkpt>
      <trkpt lat="48.25064" lon="7.12678">
        <ele>668.43</ele>
        <time>2021-06-23T10:42:12Z</time>
      </trkpt>
      <trkpt lat="48.2506" lon="7.12673">
        <ele>667.69</ele>
        <time>2021-06-23T10:42:15Z</time>
      </trkpt>
      <trkpt lat="48.25055" lon="7.12657">
        <ele>665.18</ele>
        <time>2021-06-23T10:42:19Z</time>
      </trkpt>
      <trkpt lat="48.25054" lon="7.12638">
        <ele>661.52</ele>
        <time>2021-06-23T10:42:23Z</time>
      </trkpt>
      <trkpt lat="48.25058" lon="7.12621">
        <ele>660.32</ele>
        <time>2021-06-23T10:42:27Z</time>
      </trkpt>
      <trkpt lat="48.25068" lon="7.12586">
        <ele>655.21</ele>
        <time>2021-06-23T10:42:31Z</time>
      </trkpt>
      <trkpt lat="48.25067" lon="7.12572">
        <ele>654.6</ele>
        <time>2021-06-23T10:42:35Z</time>
      </trkpt>
      <trkpt lat="48.25064" lon="7.12555">
        <ele>654.44</ele>
        <time>2021-06-23T10:42:39Z</time>
      </trkpt>
      <trkpt lat="48.25061" lon="7.12545">
        <ele>654.18</ele>
        <time>2021-06-23T10:42:43Z</time>
      </trkpt>
      <trkpt lat="48.25049" lon="7.12527">
        <ele>654.76</ele>
        <time>2021-06-23T10:42:47Z</time>
      </trkpt>
      <trkpt lat="48.25017" lon="7.12506">
        <ele>654.13</ele>
        <time>2021-06-23T10:42:51Z</time>
      </trkpt>
      <trkpt lat="48.24974" lon="7.12481">
        <ele>650.84</ele>
        <time>2021-06-23T10:42:54Z</time>
      </trkpt>
      <trkpt lat="48.24941" lon="7.12471">
        <ele>648.48</ele>
        <time>2021-06-23T10:42:58Z</time>
      </trkpt>
      <trkpt lat="48.24909" lon="7.12464">
        <ele>645.17</ele>
        <time>2021-06-23T10:43:02Z</time>
      </trkpt>
      <trkpt lat="48.24877" lon="7.12458">
        <ele>643.97</ele>
        <time>2021-06-23T10:43:06Z</time>
      </trkpt>
      <trkpt lat="48.24846" lon="7.12456">
        <ele>643.02</ele>
        <time>2021-06-23T10:43:10Z</time>
      </trkpt>
      <trkpt lat="48.24766" lon="7.12467">
        <ele>632.28</ele>
        <time>2021-06-23T10:43:14Z</time>
      </trkpt>
      <trkpt lat="48.24752" lon="7.12467">
        <ele>630.17</ele>
        <time>2021-06-23T10:43:18Z</time>
      </trkpt>
      <trkpt lat="48.24744" lon="7.12464">
        <ele>629.38</ele>
        <time>2021-06-23T10:43:22Z</time>
      </trkpt>
      <trkpt lat="48.24736" lon="7.12458">
        <ele>628.52</ele>
        <time>2021-06-23T10:43:26Z</time>
      </trkpt>
      <trkpt lat="48.24727" lon="7.12448">
        <ele>627.17</ele>
        <time>2021-06-23T10:43:30Z</time>
      </trkpt>
      <trkpt lat="48.24701" lon="7.12395">
        <ele>622.59</ele>
        <time>2021-06-23T10:43:33Z</time>
      </trkpt>
      <trkpt lat="48.24663" lon="7.12324">
        <ele>625.35</ele>
        <time>2021-06-23T10:43:37Z</time>
      </trkpt>
      <trkpt lat="48.24658" lon="7.12309">
        <ele>628.67</ele>
        <time>2021-06-23T10:43:41Z</time>
      </trkpt>
      <trkpt lat="48.24659" lon="7.12298">
        <ele>630.39</ele>
        <time>2021-06-23T10:43:45Z</time>
      </trkpt>
      <trkpt lat="48.24662" lon="7.1229">
        <ele>631.41</ele>
        <time>2021-06-23T10:43:49Z</time>
      </trkpt>
      <trkpt lat="48.24668" lon="7.12283">
        <ele>631.9</ele>
        <time>2021-06-23T10:43:53Z</time>
      </trkpt>
      <trkpt lat="48.24674" lon="7.1228">
        <ele>631.91</ele>
        <time>2021-06-23T10:43:57Z</time>
      </trkpt>
      <trkpt lat="48.24699" lon="7.12279">
        <ele>629.6</ele>
        <time>2021-06-23T10:44:01Z</time>
      </trkpt>
      <trkpt lat="48.24754" lon="7.12292">
        <ele>614.18</ele>
        <time>2021-06-23T10:44:05Z</time>
      </trkpt>
      <trkpt lat="48.24803" lon="7.1231">
        <ele>606.95</ele>
        <time>2021-06-23T10:44:09Z</time>
      </trkpt>
      <trkpt lat="48.24816" lon="7.12313">
        <ele>605.35</ele>
        <time>2021-06-23T10:44:12Z</time>
      </trkpt>
      <trkpt lat="48.24844" lon="7.12312">
        <ele>601.97</ele>
        <time>2021-06-23T10:44:16Z</time>
      </trkpt>
      <trkpt lat="48.24865" lon="7.12306">
        <ele>599.87</ele>
        <time>2021-06-23T10:44:20Z</time>
      </trkpt>
      <trkpt lat="48.24932" lon="7.12278">
        <ele>605.08</ele>
        <time>2021-06-23T10:44:24Z</time>
      </trkpt>
      <trkpt lat="48.25011" lon="7.12278">
        <ele>596.67</ele>
        <time>2021-06-23T10:44:28Z</time>
      </trkpt>
      <trkpt lat="48.25075" lon="7.12264">
        <ele>589.38</ele>
        <time>2021-06-23T10:44:32Z</time>
      </trkpt>
      <trkpt lat="48.25109" lon="7.1226">
        <ele>583.01</ele>
        <time>2021-06-23T10:44:36Z</time>
      </trkpt>
      <trkpt lat="48.25139" lon="7.12252">
        <ele>579.66</ele>
        <time>2021-06-23T10:44:40Z</time>
      </trkpt>
      <trkpt lat="48.25237" lon="7.12206">
        <ele>571.76</ele>
        <time>2021-06-23T10:44:44Z</time>
      </trkpt>
      <trkpt lat="48.25298" lon="7.1215">
        <ele>570.68</ele>
        <time>2021-06-23T10:44:48Z</time>
      </trkpt>
      <trkpt lat="48.25386" lon="7.12089">
        <ele>548.36</ele>
        <time>2021-06-23T10:44:51Z</time>
      </trkpt>
      <trkpt lat="48.2541" lon="7.12064">
        <ele>542.12</ele>
        <time>2021-06-23T10:44:55Z</time>
      </trkpt>
      <trkpt lat="48.25434" lon="7.12036">
        <ele>539.08</ele>
        <time>2021-06-23T10:44:59Z</time>
      </trkpt>
      <trkpt lat="48.25474" lon="7.11981">
        <ele>537.97</ele>
        <time>2021-06-23T10:45:03Z</time>
      </trkpt>
      <trkpt lat="48.25484" lon="7.11962">
        <ele>539.33</ele>
        <time>2021-06-23T10:45:07Z</time>
      </trkpt>
      <trkpt lat="48.25519" lon="7.11889">
        <ele>536.99</ele>
        <time>2021-06-23T10:45:11Z</time>
      </trkpt>
      <trkpt lat="48.2554" lon="7.11854">
        <ele>538.21</ele>
        <time>2021-06-23T10:45:15Z</time>
      </trkpt>
      <trkpt lat="48.25562" lon="7.11822">
        <ele>535.91</ele>
        <time>2021-06-23T10:45:19Z</time>
      </trkpt>
      <trkpt lat="48.25625" lon="7.11753">
        <ele>528.72</ele>
        <time>2021-06-23T10:45:23Z</time>
      </trkpt>
      <trkpt lat="48.25651" lon="7.11715">
        <ele>526.45</ele>
        <time>2021-06-23T10:45:27Z</time>
      </trkpt>
      <trkpt lat="48.25677" lon="7.11662">
        <ele>520.95</ele>
        <time>2021-06-23T10:45:30Z</time>
      </trkpt>
      <trkpt lat="48.25698" lon="7.1161">
        <ele>516.31</ele>
        <time>2021-06-23T10:45:34Z</time>
      </trkpt>
      <trkpt lat="48.25746" lon="7.11504">
        <ele>514.05</ele>
        <time>2021-06-23T10:45:38Z</time>
      </trkpt>
      <trkpt lat="48.25774" lon="7.1145">
        <ele>505.69</ele>
        <time>2021-06-23T10:45:42Z</time>
      </trkpt>
      <trkpt lat="48.25785" lon="7.11424">
        <ele>505.74</ele>
        <time>2021-06-23T10:45:46Z</time>
      </trkpt>
      <trkpt lat="48.25812" lon="7.11332">
        <ele>503.35</ele>
        <time>2021-06-23T10:45:50Z</time>
      </trkpt>
      <trkpt lat="48.25819" lon="7.11297">
        <ele>500.88</ele>
        <time>2021-06-23T10:45:54Z</time>
      </trkpt>
      <trkpt lat="48.2582" lon="7.11264">
        <ele>499.66</ele>
        <time>2021-06-23T10:45:58Z</time>
      </trkpt>
      <trkpt lat="48.25819" lon="7.11222">
        <ele>499.05</ele>
        <time>2021-06-23T10:46:02Z</time>
      </trkpt>
      <trkpt lat="48.25804" lon="7.11071">
        <ele>497.8</ele>
        <time>2021-06-23T10:46:06Z</time>
      </trkpt>
      <trkpt lat="48.25801" lon="7.11031">
        <ele>495.95</ele>
        <time>2021-06-23T10:46:09Z</time>
      </trkpt>
      <trkpt lat="48.25802" lon="7.10991">
        <ele>491.74</ele>
        <time>2021-06-23T10:46:13Z</time>
      </trkpt>
      <trkpt lat="48.25822" lon="7.10873">
        <ele>487.14</ele>
        <time>2021-06-23T10:46:17Z</time>
      </trkpt>
      <trkpt lat="48.25823" lon="7.10851">
        <ele>486.59</ele>
        <time>2021-06-23T10:46:21Z</time>
      </trkpt>
      <trkpt lat="48.25822" lon="7.1083">
        <ele>486.32</ele>
        <time>2021-06-23T10:46:25Z</time>
      </trkpt>
      <trkpt lat="48.25812" lon="7.10759">
        <ele>484.73</ele>
        <time>2021-06-23T10:46:29Z</time>
      </trkpt>
      <trkpt lat="48.25798" lon="7.10596">
        <ele>477.01</ele>
        <time>2021-06-23T10:46:33Z</time>
      </trkpt>
      <trkpt lat="48.25791" lon="7.10569">
        <ele>474.97</ele>
        <time>2021-06-23T10:46:37Z</time>
      </trkpt>
      <trkpt lat="48.25777" lon="7.1053">
        <ele>474.16</ele>
        <time>2021-06-23T10:46:41Z</time>
      </trkpt>
      <trkpt lat="48.25765" lon="7.10502">
        <ele>475.9</ele>
        <time>2021-06-23T10:46:45Z</time>
      </trkpt>
      <trkpt lat="48.25743" lon="7.10464">
        <ele>477.5</ele>
        <time>2021-06-23T10:46:48Z</time>
      </trkpt>
      <trkpt lat="48.25722" lon="7.10406">
        <ele>477.46</ele>
        <time>2021-06-23T10:46:52Z</time>
      </trkpt>
      <trkpt lat="48.25496" lon="7.09688">
        <ele>464.16</ele>
        <time>2021-06-23T10:46:56Z</time>
      </trkpt>
      <trkpt lat="48.25484" lon="7.0964">
        <ele>463.96</ele>
        <time>2021-06-23T10:47:00Z</time>
      </trkpt>
      <trkpt lat="48.25479" lon="7.09551">
        <ele>465</ele>
        <time>2021-06-23T10:47:04Z</time>
      </trkpt>
      <trkpt lat="48.2547" lon="7.09014">
        <ele>453.07</ele>
        <time>2021-06-23T10:47:08Z</time>
      </trkpt>
      <trkpt lat="48.25464" lon="7.08835">
        <ele>451.29</ele>
        <time>2021-06-23T10:47:12Z</time>
      </trkpt>
      <trkpt lat="48.25461" lon="7.08795">
        <ele>448.86</ele>
        <time>2021-06-23T10:47:16Z</time>
      </trkpt>
      <trkpt lat="48.25457" lon="7.08761">
        <ele>447.39</ele>
        <time>2021-06-23T10:47:20Z</time>
      </trkpt>
      <trkpt lat="48.25442" lon="7.08688">
        <ele>441.21</ele>
        <time>2021-06-23T10:47:24Z</time>
      </trkpt>
      <trkpt lat="48.25433" lon="7.08652">
        <ele>441.47</ele>
        <time>2021-06-23T10:47:27Z</time>
      </trkpt>
      <trkpt lat="48.25409" lon="7.08562">
        <ele>439.84</ele>
        <time>2021-06-23T10:47:31Z</time>
      </trkpt>
      <trkpt lat="48.25405" lon="7.08539">
        <ele>439</ele>
        <time>2021-06-23T10:47:35Z</time>
      </trkpt>
      <trkpt lat="48.25403" lon="7.08521">
        <ele>438.38</ele>
        <time>2021-06-23T10:47:39Z</time>
      </trkpt>
      <trkpt lat="48.25405" lon="7.08441">
        <ele>438</ele>
        <time>2021-06-23T10:47:43Z</time>
      </trkpt>
      <trkpt lat="48.25401" lon="7.08411">
        <ele>438</ele>
        <time>2021-06-23T10:47:47Z</time>
      </trkpt>
      <trkpt lat="48.2537" lon="7.08216">
        <ele>432</ele>
        <time>2021-06-23T10:47:51Z</time>
      </trkpt>
      <trkpt lat="48.25264" lon="7.07555">
        <ele>422.28</ele>
        <time>2021-06-23T10:47:55Z</time>
      </trkpt>
      <trkpt lat="48.25264" lon="7.07555">
        <ele>422.28</ele>
        <time>2021-06-23T10:47:55Z</time>
      </trkpt>
      <trkpt lat="48.25223" lon="7.07301">
        <ele>422.79</ele>
        <time>2021-06-23T10:48:00Z</time>
      </trkpt>
      <trkpt lat="48.25191" lon="7.07073">
        <ele>427.82</ele>
        <time>2021-06-23T10:48:05Z</time>
      </trkpt>
      <trkpt lat="48.25185" lon="7.07026">
        <ele>429.39</ele>
        <time>2021-06-23T10:48:10Z</time>
      </trkpt>
      <trkpt lat="48.25182" lon="7.06978">
        <ele>427.42</ele>
        <time>2021-06-23T10:48:15Z</time>
      </trkpt>
      <trkpt lat="48.25183" lon="7.06924">
        <ele>425.15</ele>
        <time>2021-06-23T10:48:20Z</time>
      </trkpt>
      <trkpt lat="48.25185" lon="7.06869">
        <ele>425.91</ele>
        <time>2021-06-23T10:48:26Z</time>
      </trkpt>
      <trkpt lat="48.25196" lon="7.06748">
        <ele>423.11</ele>
        <time>2021-06-23T10:48:31Z</time>
      </trkpt>
      <trkpt lat="48.25196" lon="7.06748">
        <ele>423.11</ele>
        <time>2021-06-23T10:48:31Z</time>
      </trkpt>
      <trkpt lat="48.25198" lon="7.06725">
        <ele>420.31</ele>
        <time>2021-06-23T10:48:36Z</time>
      </trkpt>
      <trkpt lat="48.25208" lon="7.06653">
        <ele>415.25</ele>
        <time>2021-06-23T10:48:40Z</time>
      </trkpt>
      <trkpt lat="48.25253" lon="7.06433">
        <ele>407.65</ele>
        <time>2021-06-23T10:48:45Z</time>
      </trkpt>
      <trkpt lat="48.251" lon="7.06292">
        <ele>404.32</ele>
        <time>2021-06-23T10:48:50Z</time>
      </trkpt>
      <trkpt lat="48.25086" lon="7.06285">
        <ele>404.02</ele>
        <time>2021-06-23T10:48:55Z</time>
      </trkpt>
      <trkpt lat="48.25069" lon="7.06284">
        <ele>404.53</ele>
        <time>2021-06-23T10:49:01Z</time>
      </trkpt>
      <trkpt lat="48.25043" lon="7.06294">
        <ele>405.44</ele>
        <time>2021-06-23T10:49:06Z</time>
      </trkpt>
      <trkpt lat="48.24935" lon="7.06346">
        <ele>409.12</ele>
        <time>2021-06-23T10:49:11Z</time>
      </trkpt>
      <trkpt lat="48.24913" lon="7.06357">
        <ele>409.84</ele>
        <time>2021-06-23T10:49:16Z</time>
      </trkpt>
      <trkpt lat="48.24895" lon="7.06372">
        <ele>410.08</ele>
        <time>2021-06-23T10:49:21Z</time>
      </trkpt>
      <trkpt lat="48.2485" lon="7.06418">
        <ele>410.42</ele>
        <time>2021-06-23T10:49:26Z</time>
      </trkpt>
      <trkpt lat="48.24816" lon="7.06441">
        <ele>412.57</ele>
        <time>2021-06-23T10:49:31Z</time>
      </trkpt>
      <trkpt lat="48.24649" lon="7.06545">
        <ele>420.03</ele>
        <time>2021-06-23T10:49:37Z</time>
      </trkpt>
      <trkpt lat="48.24576" lon="7.066">
        <ele>426.73</ele>
        <time>2021-06-23T10:49:42Z</time>
      </trkpt>
      <trkpt lat="48.24559" lon="7.06606">
        <ele>428.39</ele>
        <time>2021-06-23T10:49:47Z</time>
      </trkpt>
      <trkpt lat="48.24547" lon="7.06607">
        <ele>428.73</ele>
        <time>2021-06-23T10:49:52Z</time>
      </trkpt>
      <trkpt lat="48.24469" lon="7.0659">
        <ele>422.38</ele>
        <time>2021-06-23T10:49:57Z</time>
      </trkpt>
      <trkpt lat="48.24451" lon="7.0658">
        <ele>421.1</ele>
        <time>2021-06-23T10:50:02Z</time>
      </trkpt>
      <trkpt lat="48.24436" lon="7.06566">
        <ele>420.57</ele>
        <time>2021-06-23T10:50:07Z</time>
      </trkpt>
      <trkpt lat="48.24413" lon="7.06538">
        <ele>420.52</ele>
        <time>2021-06-23T10:50:12Z</time>
      </trkpt>
      <trkpt lat="48.24391" lon="7.06521">
        <ele>420.92</ele>
        <time>2021-06-23T10:50:18Z</time>
      </trkpt>
      <trkpt lat="48.24373" lon="7.06514">
        <ele>421.28</ele>
        <time>2021-06-23T10:50:23Z</time>
      </trkpt>
      <trkpt lat="48.24358" lon="7.06511">
        <ele>421.47</ele>
        <time>2021-06-23T10:50:28Z</time>
      </trkpt>
      <trkpt lat="48.24346" lon="7.06513">
        <ele>421.77</ele>
        <time>2021-06-23T10:50:33Z</time>
      </trkpt>
      <trkpt lat="48.24334" lon="7.06519">
        <ele>422</ele>
        <time>2021-06-23T10:50:38Z</time>
      </trkpt>
      <trkpt lat="48.24278" lon="7.06554">
        <ele>424.95</ele>
        <time>2021-06-23T10:50:43Z</time>
      </trkpt>
      <trkpt lat="48.24248" lon="7.06569">
        <ele>424.04</ele>
        <time>2021-06-23T10:50:48Z</time>
      </trkpt>
      <trkpt lat="48.24228" lon="7.06576">
        <ele>424.58</ele>
        <time>2021-06-23T10:50:54Z</time>
      </trkpt>
      <trkpt lat="48.24212" lon="7.06577">
        <ele>425.21</ele>
        <time>2021-06-23T10:50:59Z</time>
      </trkpt>
      <trkpt lat="48.24194" lon="7.06575">
        <ele>426.02</ele>
        <time>2021-06-23T10:51:04Z</time>
      </trkpt>
      <trkpt lat="48.24148" lon="7.06558">
        <ele>425.97</ele>
        <time>2021-06-23T10:51:09Z</time>
      </trkpt>
      <trkpt lat="48.24113" lon="7.0654">
        <ele>425.02</ele>
        <time>2021-06-23T10:51:14Z</time>
      </trkpt>
      <trkpt lat="48.24101" lon="7.06528">
        <ele>425.36</ele>
        <time>2021-06-23T10:51:19Z</time>
      </trkpt>
      <trkpt lat="48.23999" lon="7.06393">
        <ele>425.23</ele>
        <time>2021-06-23T10:51:24Z</time>
      </trkpt>
      <trkpt lat="48.23968" lon="7.06357">
        <ele>425.02</ele>
        <time>2021-06-23T10:51:29Z</time>
      </trkpt>
      <trkpt lat="48.23948" lon="7.06336">
        <ele>425.79</ele>
        <time>2021-06-23T10:51:35Z</time>
      </trkpt>
      <trkpt lat="48.23924" lon="7.06319">
        <ele>426.98</ele>
        <time>2021-06-23T10:51:40Z</time>
      </trkpt>
      <trkpt lat="48.23827" lon="7.06263">
        <ele>426.91</ele>
        <time>2021-06-23T10:51:45Z</time>
      </trkpt>
      <trkpt lat="48.23682" lon="7.06163">
        <ele>432.52</ele>
        <time>2021-06-23T10:51:50Z</time>
      </trkpt>
      <trkpt lat="48.23537" lon="7.06092">
        <ele>435</ele>
        <time>2021-06-23T10:51:55Z</time>
      </trkpt>
      <trkpt lat="48.235" lon="7.06078">
        <ele>435.99</ele>
        <time>2021-06-23T10:52:00Z</time>
      </trkpt>
      <trkpt lat="48.2348" lon="7.06077">
        <ele>436.55</ele>
        <time>2021-06-23T10:52:05Z</time>
      </trkpt>
      <trkpt lat="48.23461" lon="7.06079">
        <ele>436.85</ele>
        <time>2021-06-23T10:52:11Z</time>
      </trkpt>
      <trkpt lat="48.23418" lon="7.0609">
        <ele>436.76</ele>
        <time>2021-06-23T10:52:16Z</time>
      </trkpt>
      <trkpt lat="48.23362" lon="7.0611">
        <ele>440.94</ele>
        <time>2021-06-23T10:52:21Z</time>
      </trkpt>
      <trkpt lat="48.23334" lon="7.06125">
        <ele>442.47</ele>
        <time>2021-06-23T10:52:26Z</time>
      </trkpt>
      <trkpt lat="48.23289" lon="7.0616">
        <ele>442.83</ele>
        <time>2021-06-23T10:52:31Z</time>
      </trkpt>
      <trkpt lat="48.23267" lon="7.06173">
        <ele>444.17</ele>
        <time>2021-06-23T10:52:36Z</time>
      </trkpt>
      <trkpt lat="48.23239" lon="7.06177">
        <ele>446.41</ele>
        <time>2021-06-23T10:52:41Z</time>
      </trkpt>
      <trkpt lat="48.23219" lon="7.06176">
        <ele>447</ele>
        <time>2021-06-23T10:52:46Z</time>
      </trkpt>
      <trkpt lat="48.23193" lon="7.06171">
        <ele>447.13</ele>
        <time>2021-06-23T10:52:52Z</time>
      </trkpt>
      <trkpt lat="48.23163" lon="7.06157">
        <ele>449.42</ele>
        <time>2021-06-23T10:52:57Z</time>
      </trkpt>
      <trkpt lat="48.23163" lon="7.06157">
        <ele>449.42</ele>
        <time>2021-06-23T10:52:57Z</time>
      </trkpt>
      <trkpt lat="48.23148" lon="7.06147">
        <ele>450.33</ele>
        <time>2021-06-23T10:53:02Z</time>
      </trkpt>
      <trkpt lat="48.23073" lon="7.06065">
        <ele>452.98</ele>
        <time>2021-06-23T10:53:08Z</time>
      </trkpt>
      <trkpt lat="48.23054" lon="7.06049">
        <ele>454</ele>
        <time>2021-06-23T10:53:13Z</time>
      </trkpt>
      <trkpt lat="48.22991" lon="7.06013">
        <ele>453.64</ele>
        <time>2021-06-23T10:53:18Z</time>
      </trkpt>
      <trkpt lat="48.22974" lon="7.06001">
        <ele>453.93</ele>
        <time>2021-06-23T10:53:24Z</time>
      </trkpt>
      <trkpt lat="48.22953" lon="7.05971">
        <ele>454.7</ele>
        <time>2021-06-23T10:53:29Z</time>
      </trkpt>
      <trkpt lat="48.22823" lon="7.05791">
        <ele>455.58</ele>
        <time>2021-06-23T10:53:34Z</time>
      </trkpt>
      <trkpt lat="48.22808" lon="7.05773">
        <ele>457.08</ele>
        <time>2021-06-23T10:53:40Z</time>
      </trkpt>
      <trkpt lat="48.22694" lon="7.0566">
        <ele>460.77</ele>
        <time>2021-06-23T10:53:45Z</time>
      </trkpt>
      <trkpt lat="48.22571" lon="7.05475">
        <ele>462.18</ele>
        <time>2021-06-23T10:53:50Z</time>
      </trkpt>
      <trkpt lat="48.22552" lon="7.05451">
        <ele>462.68</ele>
        <time>2021-06-23T10:53:56Z</time>
      </trkpt>
      <trkpt lat="48.22527" lon="7.05431">
        <ele>464.53</ele>
        <time>2021-06-23T10:54:01Z</time>
      </trkpt>
      <trkpt lat="48.22454" lon="7.05382">
        <ele>466.59</ele>
        <time>2021-06-23T10:54:07Z</time>
      </trkpt>
      <trkpt lat="48.22421" lon="7.05343">
        <ele>467.68</ele>
        <time>2021-06-23T10:54:12Z</time>
      </trkpt>
      <trkpt lat="48.22339" lon="7.05228">
        <ele>472</ele>
        <time>2021-06-23T10:54:17Z</time>
      </trkpt>
      <trkpt lat="48.2227" lon="7.05104">
        <ele>473.41</ele>
        <time>2021-06-23T10:54:23Z</time>
      </trkpt>
      <trkpt lat="48.22262" lon="7.05093">
        <ele>473.95</ele>
        <time>2021-06-23T10:54:28Z</time>
      </trkpt>
      <trkpt lat="48.22187" lon="7.0503">
        <ele>473.05</ele>
        <time>2021-06-23T10:54:33Z</time>
      </trkpt>
      <trkpt lat="48.22122" lon="7.04981">
        <ele>474.92</ele>
        <time>2021-06-23T10:54:39Z</time>
      </trkpt>
      <trkpt lat="48.22072" lon="7.0495">
        <ele>476.94</ele>
        <time>2021-06-23T10:54:44Z</time>
      </trkpt>
      <trkpt lat="48.22025" lon="7.04912">
        <ele>479.34</ele>
        <time>2021-06-23T10:54:49Z</time>
      </trkpt>
      <trkpt lat="48.22006" lon="7.04901">
        <ele>480.12</ele>
        <time>2021-06-23T10:54:55Z</time>
      </trkpt>
      <trkpt lat="48.21917" lon="7.04878">
        <ele>482.98</ele>
        <time>2021-06-23T10:55:00Z</time>
      </trkpt>
      <trkpt lat="48.21887" lon="7.04863">
        <ele>484.06</ele>
        <time>2021-06-23T10:55:06Z</time>
      </trkpt>
      <trkpt lat="48.21862" lon="7.04848">
        <ele>485.44</ele>
        <time>2021-06-23T10:55:11Z</time>
      </trkpt>
      <trkpt lat="48.21847" lon="7.04836">
        <ele>486</ele>
        <time>2021-06-23T10:55:16Z</time>
      </trkpt>
      <trkpt lat="48.21742" lon="7.04721">
        <ele>491.02</ele>
        <time>2021-06-23T10:55:22Z</time>
      </trkpt>
      <trkpt lat="48.21713" lon="7.04662">
        <ele>492.11</ele>
        <time>2021-06-23T10:55:27Z</time>
      </trkpt>
      <trkpt lat="48.21696" lon="7.04633">
        <ele>492.73</ele>
        <time>2021-06-23T10:55:32Z</time>
      </trkpt>
      <trkpt lat="48.21653" lon="7.04593">
        <ele>495.5</ele>
        <time>2021-06-23T10:55:38Z</time>
      </trkpt>
      <trkpt lat="48.21639" lon="7.04588">
        <ele>495.82</ele>
        <time>2021-06-23T10:55:43Z</time>
      </trkpt>
      <trkpt lat="48.21557" lon="7.04597">
        <ele>503.36</ele>
        <time>2021-06-23T10:55:48Z</time>
      </trkpt>
      <trkpt lat="48.21543" lon="7.04595">
        <ele>504.52</ele>
        <time>2021-06-23T10:55:54Z</time>
      </trkpt>
      <trkpt lat="48.21522" lon="7.04589">
        <ele>505.66</ele>
        <time>2021-06-23T10:55:59Z</time>
      </trkpt>
      <trkpt lat="48.21485" lon="7.04579">
        <ele>507.05</ele>
        <time>2021-06-23T10:56:05Z</time>
      </trkpt>
      <trkpt lat="48.21449" lon="7.04562">
        <ele>509.84</ele>
        <time>2021-06-23T10:56:10Z</time>
      </trkpt>
      <trkpt lat="48.21427" lon="7.04543">
        <ele>511.72</ele>
        <time>2021-06-23T10:56:15Z</time>
      </trkpt>
      <trkpt lat="48.21405" lon="7.04511">
        <ele>515.79</ele>
        <time>2021-06-23T10:56:21Z</time>
      </trkpt>
      <trkpt lat="48.21336" lon="7.04381">
        <ele>513.84</ele>
        <time>2021-06-23T10:56:26Z</time>
      </trkpt>
      <trkpt lat="48.21305" lon="7.04329">
        <ele>518.03</ele>
        <time>2021-06-23T10:56:31Z</time>
      </trkpt>
      <trkpt lat="48.21286" lon="7.04309">
        <ele>519.58</ele>
        <time>2021-06-23T10:56:37Z</time>
      </trkpt>
      <trkpt lat="48.21218" lon="7.04246">
        <ele>523.55</ele>
        <time>2021-06-23T10:56:42Z</time>
      </trkpt>
      <trkpt lat="48.21136" lon="7.04156">
        <ele>531.43</ele>
        <time>2021-06-23T10:56:48Z</time>
      </trkpt>
      <trkpt lat="48.21101" lon="7.04138">
        <ele>533.31</ele>
        <time>2021-06-23T10:56:53Z</time>
      </trkpt>
      <trkpt lat="48.21024" lon="7.04084">
        <ele>538.49</ele>
        <time>2021-06-23T10:56:58Z</time>
      </trkpt>
      <trkpt lat="48.2098" lon="7.04058">
        <ele>537.32</ele>
        <time>2021-06-23T10:57:04Z</time>
      </trkpt>
      <trkpt lat="48.20963" lon="7.0405">
        <ele>536.8</ele>
        <time>2021-06-23T10:57:09Z</time>
      </trkpt>
      <trkpt lat="48.20945" lon="7.04045">
        <ele>537.21</ele>
        <time>2021-06-23T10:57:14Z</time>
      </trkpt>
      <trkpt lat="48.20919" lon="7.04042">
        <ele>540.22</ele>
        <time>2021-06-23T10:57:20Z</time>
      </trkpt>
      <trkpt lat="48.20894" lon="7.04044">
        <ele>543.29</ele>
        <time>2021-06-23T10:57:25Z</time>
      </trkpt>
      <trkpt lat="48.20754" lon="7.04062">
        <ele>547.63</ele>
        <time>2021-06-23T10:57:30Z</time>
      </trkpt>
      <trkpt lat="48.20614" lon="7.04073">
        <ele>563.06</ele>
        <time>2021-06-23T10:57:36Z</time>
      </trkpt>
      <trkpt lat="48.20557" lon="7.04085">
        <ele>562.77</ele>
        <time>2021-06-23T10:57:41Z</time>
      </trkpt>
      <trkpt lat="48.20496" lon="7.04102">
        <ele>569.84</ele>
        <time>2021-06-23T10:57:47Z</time>
      </trkpt>
      <trkpt lat="48.20468" lon="7.04114">
        <ele>568.21</ele>
        <time>2021-06-23T10:57:52Z</time>
      </trkpt>
      <trkpt lat="48.20446" lon="7.04131">
        <ele>569.36</ele>
        <time>2021-06-23T10:57:57Z</time>
      </trkpt>
      <trkpt lat="48.20339" lon="7.04237">
        <ele>572.52</ele>
        <time>2021-06-23T10:58:03Z</time>
      </trkpt>
      <trkpt lat="48.20254" lon="7.04328">
        <ele>576.78</ele>
        <time>2021-06-23T10:58:08Z</time>
      </trkpt>
      <trkpt lat="48.20225" lon="7.04374">
        <ele>582.89</ele>
        <time>2021-06-23T10:58:13Z</time>
      </trkpt>
      <trkpt lat="48.20212" lon="7.04391">
        <ele>584.55</ele>
        <time>2021-06-23T10:58:19Z</time>
      </trkpt>
      <trkpt lat="48.20201" lon="7.04396">
        <ele>584.58</ele>
        <time>2021-06-23T10:58:24Z</time>
      </trkpt>
      <trkpt lat="48.2019" lon="7.04397">
        <ele>583.77</ele>
        <time>2021-06-23T10:58:29Z</time>
      </trkpt>
      <trkpt lat="48.20178" lon="7.04391">
        <ele>582.08</ele>
        <time>2021-06-23T10:58:35Z</time>
      </trkpt>
      <trkpt lat="48.2017" lon="7.04381">
        <ele>581.22</ele>
        <time>2021-06-23T10:58:40Z</time>
      </trkpt>
      <trkpt lat="48.20164" lon="7.04367">
        <ele>581.33</ele>
        <time>2021-06-23T10:58:46Z</time>
      </trkpt>
      <trkpt lat="48.20164" lon="7.04367">
        <ele>581.33</ele>
        <time>2021-06-23T10:58:46Z</time>
      </trkpt>
      <trkpt lat="48.20155" lon="7.04347">
        <ele>581.43</ele>
        <time>2021-06-23T10:58:48Z</time>
      </trkpt>
      <trkpt lat="48.20145" lon="7.04316">
        <ele>582.29</ele>
        <time>2021-06-23T10:58:50Z</time>
      </trkpt>
      <trkpt lat="48.20142" lon="7.04298">
        <ele>583.06</ele>
        <time>2021-06-23T10:58:52Z</time>
      </trkpt>
      <trkpt lat="48.20142" lon="7.0427">
        <ele>583.99</ele>
        <time>2021-06-23T10:58:54Z</time>
      </trkpt>
      <trkpt lat="48.20144" lon="7.04246">
        <ele>584.51</ele>
        <time>2021-06-23T10:58:56Z</time>
      </trkpt>
      <trkpt lat="48.20159" lon="7.0417">
        <ele>584.1</ele>
        <time>2021-06-23T10:58:58Z</time>
      </trkpt>
      <trkpt lat="48.20159" lon="7.04142">
        <ele>584.68</ele>
        <time>2021-06-23T10:59:00Z</time>
      </trkpt>
      <trkpt lat="48.20156" lon="7.0413">
        <ele>585.45</ele>
        <time>2021-06-23T10:59:02Z</time>
      </trkpt>
      <trkpt lat="48.20146" lon="7.04109">
        <ele>587.63</ele>
        <time>2021-06-23T10:59:04Z</time>
      </trkpt>
      <trkpt lat="48.20108" lon="7.04062">
        <ele>592.32</ele>
        <time>2021-06-23T10:59:06Z</time>
      </trkpt>
      <trkpt lat="48.20093" lon="7.04048">
        <ele>595.67</ele>
        <time>2021-06-23T10:59:08Z</time>
      </trkpt>
      <trkpt lat="48.20083" lon="7.04026">
        <ele>598.24</ele>
        <time>2021-06-23T10:59:10Z</time>
      </trkpt>
      <trkpt lat="48.20081" lon="7.04011">
        <ele>600.1</ele>
        <time>2021-06-23T10:59:12Z</time>
      </trkpt>
      <trkpt lat="48.20081" lon="7.03995">
        <ele>601.26</ele>
        <time>2021-06-23T10:59:15Z</time>
      </trkpt>
      <trkpt lat="48.20084" lon="7.03973">
        <ele>601.68</ele>
        <time>2021-06-23T10:59:17Z</time>
      </trkpt>
      <trkpt lat="48.20137" lon="7.0378">
        <ele>609.24</ele>
        <time>2021-06-23T10:59:19Z</time>
      </trkpt>
      <trkpt lat="48.20158" lon="7.03711">
        <ele>614.51</ele>
        <time>2021-06-23T10:59:21Z</time>
      </trkpt>
      <trkpt lat="48.20186" lon="7.03645">
        <ele>614.91</ele>
        <time>2021-06-23T10:59:23Z</time>
      </trkpt>
      <trkpt lat="48.20242" lon="7.03518">
        <ele>626.28</ele>
        <time>2021-06-23T10:59:25Z</time>
      </trkpt>
      <trkpt lat="48.20256" lon="7.03494">
        <ele>625.53</ele>
        <time>2021-06-23T10:59:27Z</time>
      </trkpt>
      <trkpt lat="48.20277" lon="7.03473">
        <ele>623.24</ele>
        <time>2021-06-23T10:59:29Z</time>
      </trkpt>
      <trkpt lat="48.20319" lon="7.03437">
        <ele>621.9</ele>
        <time>2021-06-23T10:59:31Z</time>
      </trkpt>
      <trkpt lat="48.20349" lon="7.03415">
        <ele>627.14</ele>
        <time>2021-06-23T10:59:33Z</time>
      </trkpt>
      <trkpt lat="48.20366" lon="7.03412">
        <ele>626.86</ele>
        <time>2021-06-23T10:59:35Z</time>
      </trkpt>
      <trkpt lat="48.20377" lon="7.03417">
        <ele>625.79</ele>
        <time>2021-06-23T10:59:37Z</time>
      </trkpt>
      <trkpt lat="48.20386" lon="7.03428">
        <ele>624.16</ele>
        <time>2021-06-23T10:59:39Z</time>
      </trkpt>
      <trkpt lat="48.2042" lon="7.03488">
        <ele>622.12</ele>
        <time>2021-06-23T10:59:41Z</time>
      </trkpt>
      <trkpt lat="48.2043" lon="7.035">
        <ele>621.94</ele>
        <time>2021-06-23T10:59:43Z</time>
      </trkpt>
      <trkpt lat="48.20439" lon="7.03504">
        <ele>622.86</ele>
        <time>2021-06-23T10:59:46Z</time>
      </trkpt>
      <trkpt lat="48.20448" lon="7.03504">
        <ele>623.56</ele>
        <time>2021-06-23T10:59:48Z</time>
      </trkpt>
      <trkpt lat="48.20458" lon="7.035">
        <ele>623.52</ele>
        <time>2021-06-23T10:59:50Z</time>
      </trkpt>
      <trkpt lat="48.20466" lon="7.03492">
        <ele>623.99</ele>
        <time>2021-06-23T10:59:52Z</time>
      </trkpt>
      <trkpt lat="48.20474" lon="7.0348">
        <ele>624.98</ele>
        <time>2021-06-23T10:59:54Z</time>
      </trkpt>
      <trkpt lat="48.2048" lon="7.03465">
        <ele>626.23</ele>
        <time>2021-06-23T10:59:56Z</time>
      </trkpt>
      <trkpt lat="48.20485" lon="7.03413">
        <ele>630.4</ele>
        <time>2021-06-23T10:59:58Z</time>
      </trkpt>
      <trkpt lat="48.20484" lon="7.0339">
        <ele>632.18</ele>
        <time>2021-06-23T11:00:00Z</time>
      </trkpt>
      <trkpt lat="48.20482" lon="7.03372">
        <ele>632.16</ele>
        <time>2021-06-23T11:00:02Z</time>
      </trkpt>
      <trkpt lat="48.20478" lon="7.03356">
        <ele>632.01</ele>
        <time>2021-06-23T11:00:04Z</time>
      </trkpt>
      <trkpt lat="48.20467" lon="7.03333">
        <ele>631</ele>
        <time>2021-06-23T11:00:06Z</time>
      </trkpt>
      <trkpt lat="48.20429" lon="7.03272">
        <ele>629.04</ele>
        <time>2021-06-23T11:00:08Z</time>
      </trkpt>
      <trkpt lat="48.20419" lon="7.03253">
        <ele>629.75</ele>
        <time>2021-06-23T11:00:10Z</time>
      </trkpt>
      <trkpt lat="48.20412" lon="7.03227">
        <ele>631.86</ele>
        <time>2021-06-23T11:00:12Z</time>
      </trkpt>
      <trkpt lat="48.20409" lon="7.032">
        <ele>634.34</ele>
        <time>2021-06-23T11:00:14Z</time>
      </trkpt>
      <trkpt lat="48.20407" lon="7.03139">
        <ele>637.44</ele>
        <time>2021-06-23T11:00:17Z</time>
      </trkpt>
      <trkpt lat="48.204" lon="7.02992">
        <ele>647.59</ele>
        <time>2021-06-23T11:00:19Z</time>
      </trkpt>
      <trkpt lat="48.2038" lon="7.02852">
        <ele>656.33</ele>
        <time>2021-06-23T11:00:21Z</time>
      </trkpt>
      <trkpt lat="48.20375" lon="7.02826">
        <ele>655.82</ele>
        <time>2021-06-23T11:00:23Z</time>
      </trkpt>
      <trkpt lat="48.20361" lon="7.02808">
        <ele>655.27</ele>
        <time>2021-06-23T11:00:25Z</time>
      </trkpt>
      <trkpt lat="48.2035" lon="7.02803">
        <ele>655.28</ele>
        <time>2021-06-23T11:00:27Z</time>
      </trkpt>
      <trkpt lat="48.20339" lon="7.02803">
        <ele>656.14</ele>
        <time>2021-06-23T11:00:29Z</time>
      </trkpt>
      <trkpt lat="48.20316" lon="7.02809">
        <ele>657.24</ele>
        <time>2021-06-23T11:00:31Z</time>
      </trkpt>
      <trkpt lat="48.20233" lon="7.02857">
        <ele>660.62</ele>
        <time>2021-06-23T11:00:33Z</time>
      </trkpt>
      <trkpt lat="48.20194" lon="7.02885">
        <ele>666.97</ele>
        <time>2021-06-23T11:00:35Z</time>
      </trkpt>
      <trkpt lat="48.20151" lon="7.0292">
        <ele>670.61</ele>
        <time>2021-06-23T11:00:37Z</time>
      </trkpt>
      <trkpt lat="48.20128" lon="7.02935">
        <ele>670.92</ele>
        <time>2021-06-23T11:00:39Z</time>
      </trkpt>
      <trkpt lat="48.20111" lon="7.02937">
        <ele>669.38</ele>
        <time>2021-06-23T11:00:41Z</time>
      </trkpt>
      <trkpt lat="48.20093" lon="7.02936">
        <ele>669.57</ele>
        <time>2021-06-23T11:00:43Z</time>
      </trkpt>
      <trkpt lat="48.20041" lon="7.02917">
        <ele>679.69</ele>
        <time>2021-06-23T11:00:45Z</time>
      </trkpt>
      <trkpt lat="48.20022" lon="7.02902">
        <ele>684.76</ele>
        <time>2021-06-23T11:00:48Z</time>
      </trkpt>
      <trkpt lat="48.20013" lon="7.02889">
        <ele>686.76</ele>
        <time>2021-06-23T11:00:50Z</time>
      </trkpt>
      <trkpt lat="48.20008" lon="7.0287">
        <ele>688.09</ele>
        <time>2021-06-23T11:00:52Z</time>
      </trkpt>
      <trkpt lat="48.20009" lon="7.02845">
        <ele>688.34</ele>
        <time>2021-06-23T11:00:54Z</time>
      </trkpt>
      <trkpt lat="48.20017" lon="7.0281">
        <ele>687.67</ele>
        <time>2021-06-23T11:00:56Z</time>
      </trkpt>
      <trkpt lat="48.20052" lon="7.02692">
        <ele>680.84</ele>
        <time>2021-06-23T11:00:58Z</time>
      </trkpt>
      <trkpt lat="48.20055" lon="7.02665">
        <ele>677.09</ele>
        <time>2021-06-23T11:01:00Z</time>
      </trkpt>
      <trkpt lat="48.20055" lon="7.02645">
        <ele>674.8</ele>
        <time>2021-06-23T11:01:02Z</time>
      </trkpt>
      <trkpt lat="48.20049" lon="7.02614">
        <ele>671.81</ele>
        <time>2021-06-23T11:01:04Z</time>
      </trkpt>
      <trkpt lat="48.20039" lon="7.02593">
        <ele>672.23</ele>
        <time>2021-06-23T11:01:06Z</time>
      </trkpt>
      <trkpt lat="48.20024" lon="7.02572">
        <ele>674.4</ele>
        <time>2021-06-23T11:01:08Z</time>
      </trkpt>
      <trkpt lat="48.20009" lon="7.02544">
        <ele>674.43</ele>
        <time>2021-06-23T11:01:10Z</time>
      </trkpt>
      <trkpt lat="48.20005" lon="7.02529">
        <ele>673.16</ele>
        <time>2021-06-23T11:01:12Z</time>
      </trkpt>
      <trkpt lat="48.20006" lon="7.02513">
        <ele>672.07</ele>
        <time>2021-06-23T11:01:14Z</time>
      </trkpt>
      <trkpt lat="48.20056" lon="7.02412">
        <ele>676.71</ele>
        <time>2021-06-23T11:01:16Z</time>
      </trkpt>
      <trkpt lat="48.20064" lon="7.02391">
        <ele>677.03</ele>
        <time>2021-06-23T11:01:19Z</time>
      </trkpt>
      <trkpt lat="48.20071" lon="7.02364">
        <ele>678.41</ele>
        <time>2021-06-23T11:01:21Z</time>
      </trkpt>
      <trkpt lat="48.20086" lon="7.02231">
        <ele>687.37</ele>
        <time>2021-06-23T11:01:23Z</time>
      </trkpt>
      <trkpt lat="48.20093" lon="7.02202">
        <ele>689.6</ele>
        <time>2021-06-23T11:01:25Z</time>
      </trkpt>
      <trkpt lat="48.20124" lon="7.02126">
        <ele>693.32</ele>
        <time>2021-06-23T11:01:27Z</time>
      </trkpt>
      <trkpt lat="48.20146" lon="7.02025">
        <ele>688.06</ele>
        <time>2021-06-23T11:01:29Z</time>
      </trkpt>
      <trkpt lat="48.20154" lon="7.01985">
        <ele>684.28</ele>
        <time>2021-06-23T11:01:31Z</time>
      </trkpt>
      <trkpt lat="48.2016" lon="7.0193">
        <ele>682.39</ele>
        <time>2021-06-23T11:01:33Z</time>
      </trkpt>
      <trkpt lat="48.20168" lon="7.01713">
        <ele>693.76</ele>
        <time>2021-06-23T11:01:35Z</time>
      </trkpt>
      <trkpt lat="48.20173" lon="7.01688">
        <ele>693.35</ele>
        <time>2021-06-23T11:01:37Z</time>
      </trkpt>
      <trkpt lat="48.2018" lon="7.01669">
        <ele>693.05</ele>
        <time>2021-06-23T11:01:39Z</time>
      </trkpt>
      <trkpt lat="48.20189" lon="7.01651">
        <ele>692.91</ele>
        <time>2021-06-23T11:01:41Z</time>
      </trkpt>
      <trkpt lat="48.20231" lon="7.01605">
        <ele>686.04</ele>
        <time>2021-06-23T11:01:43Z</time>
      </trkpt>
      <trkpt lat="48.2024" lon="7.01593">
        <ele>684.8</ele>
        <time>2021-06-23T11:01:45Z</time>
      </trkpt>
      <trkpt lat="48.20247" lon="7.01576">
        <ele>684.26</ele>
        <time>2021-06-23T11:01:47Z</time>
      </trkpt>
      <trkpt lat="48.20254" lon="7.01544">
        <ele>683.18</ele>
        <time>2021-06-23T11:01:50Z</time>
      </trkpt>
      <trkpt lat="48.20259" lon="7.01506">
        <ele>681.85</ele>
        <time>2021-06-23T11:01:52Z</time>
      </trkpt>
      <trkpt lat="48.2026" lon="7.01465">
        <ele>682.45</ele>
        <time>2021-06-23T11:01:54Z</time>
      </trkpt>
      <trkpt lat="48.20259" lon="7.01429">
        <ele>683.58</ele>
        <time>2021-06-23T11:01:56Z</time>
      </trkpt>
      <trkpt lat="48.20254" lon="7.01391">
        <ele>685.41</ele>
        <time>2021-06-23T11:01:58Z</time>
      </trkpt>
      <trkpt lat="48.20237" lon="7.01308">
        <ele>689.44</ele>
        <time>2021-06-23T11:02:00Z</time>
      </trkpt>
      <trkpt lat="48.20225" lon="7.01262">
        <ele>690.01</ele>
        <time>2021-06-23T11:02:02Z</time>
      </trkpt>
      <trkpt lat="48.20225" lon="7.01262">
        <ele>690.01</ele>
        <time>2021-06-23T11:02:02Z</time>
      </trkpt>
      <trkpt lat="48.20217" lon="7.01233">
        <ele>690.59</ele>
        <time>2021-06-23T11:02:05Z</time>
      </trkpt>
      <trkpt lat="48.20205" lon="7.0121">
        <ele>690.78</ele>
        <time>2021-06-23T11:02:07Z</time>
      </trkpt>
      <trkpt lat="48.20192" lon="7.01192">
        <ele>691.23</ele>
        <time>2021-06-23T11:02:10Z</time>
      </trkpt>
      <trkpt lat="48.20174" lon="7.01176">
        <ele>693.2</ele>
        <time>2021-06-23T11:02:12Z</time>
      </trkpt>
      <trkpt lat="48.2014" lon="7.01165">
        <ele>693.03</ele>
        <time>2021-06-23T11:02:15Z</time>
      </trkpt>
      <trkpt lat="48.20108" lon="7.0117">
        <ele>692</ele>
        <time>2021-06-23T11:02:17Z</time>
      </trkpt>
      <trkpt lat="48.20013" lon="7.01223">
        <ele>689.07</ele>
        <time>2021-06-23T11:02:20Z</time>
      </trkpt>
      <trkpt lat="48.19951" lon="7.01264">
        <ele>681.35</ele>
        <time>2021-06-23T11:02:23Z</time>
      </trkpt>
      <trkpt lat="48.19934" lon="7.01283">
        <ele>680.48</ele>
        <time>2021-06-23T11:02:25Z</time>
      </trkpt>
      <trkpt lat="48.19876" lon="7.01395">
        <ele>684.97</ele>
        <time>2021-06-23T11:02:28Z</time>
      </trkpt>
      <trkpt lat="48.19762" lon="7.01574">
        <ele>671.73</ele>
        <time>2021-06-23T11:02:30Z</time>
      </trkpt>
      <trkpt lat="48.19744" lon="7.01594">
        <ele>670.29</ele>
        <time>2021-06-23T11:02:33Z</time>
      </trkpt>
      <trkpt lat="48.19732" lon="7.01601">
        <ele>669.12</ele>
        <time>2021-06-23T11:02:35Z</time>
      </trkpt>
      <trkpt lat="48.19719" lon="7.01605">
        <ele>667.56</ele>
        <time>2021-06-23T11:02:38Z</time>
      </trkpt>
      <trkpt lat="48.19684" lon="7.01606">
        <ele>665.2</ele>
        <time>2021-06-23T11:02:41Z</time>
      </trkpt>
      <trkpt lat="48.19621" lon="7.01605">
        <ele>661.85</ele>
        <time>2021-06-23T11:02:43Z</time>
      </trkpt>
      <trkpt lat="48.1957" lon="7.0161">
        <ele>660.11</ele>
        <time>2021-06-23T11:02:46Z</time>
      </trkpt>
      <trkpt lat="48.19545" lon="7.0162">
        <ele>659.43</ele>
        <time>2021-06-23T11:02:48Z</time>
      </trkpt>
      <trkpt lat="48.19436" lon="7.01683">
        <ele>654.41</ele>
        <time>2021-06-23T11:02:51Z</time>
      </trkpt>
      <trkpt lat="48.19214" lon="7.01769">
        <ele>635.2</ele>
        <time>2021-06-23T11:02:54Z</time>
      </trkpt>
      <trkpt lat="48.19197" lon="7.01772">
        <ele>634.56</ele>
        <time>2021-06-23T11:02:56Z</time>
      </trkpt>
      <trkpt lat="48.19169" lon="7.01767">
        <ele>632.73</ele>
        <time>2021-06-23T11:02:59Z</time>
      </trkpt>
      <trkpt lat="48.19149" lon="7.0175">
        <ele>632</ele>
        <time>2021-06-23T11:03:01Z</time>
      </trkpt>
      <trkpt lat="48.19138" lon="7.01724">
        <ele>630.18</ele>
        <time>2021-06-23T11:03:04Z</time>
      </trkpt>
      <trkpt lat="48.19133" lon="7.0169">
        <ele>628.34</ele>
        <time>2021-06-23T11:03:06Z</time>
      </trkpt>
      <trkpt lat="48.1913" lon="7.01532">
        <ele>621.55</ele>
        <time>2021-06-23T11:03:09Z</time>
      </trkpt>
      <trkpt lat="48.19127" lon="7.01512">
        <ele>620.17</ele>
        <time>2021-06-23T11:03:12Z</time>
      </trkpt>
      <trkpt lat="48.19122" lon="7.01489">
        <ele>619.29</ele>
        <time>2021-06-23T11:03:14Z</time>
      </trkpt>
      <trkpt lat="48.19113" lon="7.01463">
        <ele>619.05</ele>
        <time>2021-06-23T11:03:17Z</time>
      </trkpt>
      <trkpt lat="48.19073" lon="7.01383">
        <ele>612.92</ele>
        <time>2021-06-23T11:03:19Z</time>
      </trkpt>
      <trkpt lat="48.19063" lon="7.01367">
        <ele>611.53</ele>
        <time>2021-06-23T11:03:22Z</time>
      </trkpt>
      <trkpt lat="48.19046" lon="7.01351">
        <ele>611.45</ele>
        <time>2021-06-23T11:03:25Z</time>
      </trkpt>
      <trkpt lat="48.19028" lon="7.01339">
        <ele>613.18</ele>
        <time>2021-06-23T11:03:27Z</time>
      </trkpt>
      <trkpt lat="48.19008" lon="7.01329">
        <ele>612.58</ele>
        <time>2021-06-23T11:03:30Z</time>
      </trkpt>
      <trkpt lat="48.18994" lon="7.01326">
        <ele>611.8</ele>
        <time>2021-06-23T11:03:32Z</time>
      </trkpt>
      <trkpt lat="48.18984" lon="7.01326">
        <ele>611.21</ele>
        <time>2021-06-23T11:03:35Z</time>
      </trkpt>
      <trkpt lat="48.18964" lon="7.01334">
        <ele>610.48</ele>
        <time>2021-06-23T11:03:37Z</time>
      </trkpt>
      <trkpt lat="48.18869" lon="7.01418">
        <ele>601.91</ele>
        <time>2021-06-23T11:03:40Z</time>
      </trkpt>
      <trkpt lat="48.18851" lon="7.01443">
        <ele>600.48</ele>
        <time>2021-06-23T11:03:43Z</time>
      </trkpt>
      <trkpt lat="48.18814" lon="7.01508">
        <ele>600.62</ele>
        <time>2021-06-23T11:03:45Z</time>
      </trkpt>
      <trkpt lat="48.18787" lon="7.0156">
        <ele>596.69</ele>
        <time>2021-06-23T11:03:48Z</time>
      </trkpt>
      <trkpt lat="48.18763" lon="7.01616">
        <ele>596.64</ele>
        <time>2021-06-23T11:03:50Z</time>
      </trkpt>
      <trkpt lat="48.18739" lon="7.0168">
        <ele>596.46</ele>
        <time>2021-06-23T11:03:53Z</time>
      </trkpt>
      <trkpt lat="48.18733" lon="7.01709">
        <ele>595.29</ele>
        <time>2021-06-23T11:03:55Z</time>
      </trkpt>
      <trkpt lat="48.18731" lon="7.01733">
        <ele>593.59</ele>
        <time>2021-06-23T11:03:58Z</time>
      </trkpt>
      <trkpt lat="48.18733" lon="7.01768">
        <ele>590.44</ele>
        <time>2021-06-23T11:04:01Z</time>
      </trkpt>
      <trkpt lat="48.18741" lon="7.01806">
        <ele>588.39</ele>
        <time>2021-06-23T11:04:03Z</time>
      </trkpt>
      <trkpt lat="48.1875" lon="7.01827">
        <ele>587.69</ele>
        <time>2021-06-23T11:04:06Z</time>
      </trkpt>
      <trkpt lat="48.1876" lon="7.01842">
        <ele>587.77</ele>
        <time>2021-06-23T11:04:08Z</time>
      </trkpt>
      <trkpt lat="48.18777" lon="7.01859">
        <ele>588.18</ele>
        <time>2021-06-23T11:04:11Z</time>
      </trkpt>
      <trkpt lat="48.18834" lon="7.01878">
        <ele>590.45</ele>
        <time>2021-06-23T11:04:14Z</time>
      </trkpt>
      <trkpt lat="48.1885" lon="7.01887">
        <ele>588.76</ele>
        <time>2021-06-23T11:04:16Z</time>
      </trkpt>
      <trkpt lat="48.18855" lon="7.01896">
        <ele>587.1</ele>
        <time>2021-06-23T11:04:19Z</time>
      </trkpt>
      <trkpt lat="48.18856" lon="7.01909">
        <ele>584.48</ele>
        <time>2021-06-23T11:04:21Z</time>
      </trkpt>
      <trkpt lat="48.18853" lon="7.01916">
        <ele>582.57</ele>
        <time>2021-06-23T11:04:24Z</time>
      </trkpt>
      <trkpt lat="48.18845" lon="7.0192">
        <ele>580.92</ele>
        <time>2021-06-23T11:04:26Z</time>
      </trkpt>
      <trkpt lat="48.18836" lon="7.01918">
        <ele>579.42</ele>
        <time>2021-06-23T11:04:29Z</time>
      </trkpt>
      <trkpt lat="48.18822" lon="7.01903">
        <ele>581.69</ele>
        <time>2021-06-23T11:04:32Z</time>
      </trkpt>
      <trkpt lat="48.18809" lon="7.01893">
        <ele>583.79</ele>
        <time>2021-06-23T11:04:34Z</time>
      </trkpt>
      <trkpt lat="48.18789" lon="7.01887">
        <ele>582.19</ele>
        <time>2021-06-23T11:04:37Z</time>
      </trkpt>
      <trkpt lat="48.18698" lon="7.01873">
        <ele>570.75</ele>
        <time>2021-06-23T11:04:39Z</time>
      </trkpt>
      <trkpt lat="48.18682" lon="7.01869">
        <ele>569.49</ele>
        <time>2021-06-23T11:04:42Z</time>
      </trkpt>
      <trkpt lat="48.18666" lon="7.01861">
        <ele>569</ele>
        <time>2021-06-23T11:04:44Z</time>
      </trkpt>
      <trkpt lat="48.18652" lon="7.01843">
        <ele>568.22</ele>
        <time>2021-06-23T11:04:47Z</time>
      </trkpt>
      <trkpt lat="48.18652" lon="7.01843">
        <ele>568.22</ele>
        <time>2021-06-23T11:04:47Z</time>
      </trkpt>
      <trkpt lat="48.18625" lon="7.01811">
        <ele>567.43</ele>
        <time>2021-06-23T11:04:52Z</time>
      </trkpt>
      <trkpt lat="48.18561" lon="7.01722">
        <ele>562.77</ele>
        <time>2021-06-23T11:04:57Z</time>
      </trkpt>
      <trkpt lat="48.18532" lon="7.01679">
        <ele>560.86</ele>
        <time>2021-06-23T11:05:02Z</time>
      </trkpt>
      <trkpt lat="48.18508" lon="7.01637">
        <ele>556.79</ele>
        <time>2021-06-23T11:05:07Z</time>
      </trkpt>
      <trkpt lat="48.18503" lon="7.01624">
        <ele>555.98</ele>
        <time>2021-06-23T11:05:12Z</time>
      </trkpt>
      <trkpt lat="48.18498" lon="7.01606">
        <ele>555.51</ele>
        <time>2021-06-23T11:05:17Z</time>
      </trkpt>
      <trkpt lat="48.18496" lon="7.01584">
        <ele>554.73</ele>
        <time>2021-06-23T11:05:22Z</time>
      </trkpt>
      <trkpt lat="48.18498" lon="7.01458">
        <ele>552.65</ele>
        <time>2021-06-23T11:05:27Z</time>
      </trkpt>
      <trkpt lat="48.18499" lon="7.01353">
        <ele>546.55</ele>
        <time>2021-06-23T11:05:32Z</time>
      </trkpt>
      <trkpt lat="48.18503" lon="7.01324">
        <ele>543.03</ele>
        <time>2021-06-23T11:05:37Z</time>
      </trkpt>
      <trkpt lat="48.18509" lon="7.01309">
        <ele>541.51</ele>
        <time>2021-06-23T11:05:42Z</time>
      </trkpt>
      <trkpt lat="48.18526" lon="7.01283">
        <ele>541.38</ele>
        <time>2021-06-23T11:05:47Z</time>
      </trkpt>
      <trkpt lat="48.18563" lon="7.01247">
        <ele>541.74</ele>
        <time>2021-06-23T11:05:52Z</time>
      </trkpt>
      <trkpt lat="48.18608" lon="7.01207">
        <ele>538.45</ele>
        <time>2021-06-23T11:05:57Z</time>
      </trkpt>
      <trkpt lat="48.18643" lon="7.0117">
        <ele>537.71</ele>
        <time>2021-06-23T11:06:02Z</time>
      </trkpt>
      <trkpt lat="48.18656" lon="7.01145">
        <ele>536.82</ele>
        <time>2021-06-23T11:06:07Z</time>
      </trkpt>
      <trkpt lat="48.18664" lon="7.01124">
        <ele>536.17</ele>
        <time>2021-06-23T11:06:12Z</time>
      </trkpt>
      <trkpt lat="48.18781" lon="7.00612">
        <ele>514.65</ele>
        <time>2021-06-23T11:06:17Z</time>
      </trkpt>
      <trkpt lat="48.18793" lon="7.00572">
        <ele>512.81</ele>
        <time>2021-06-23T11:06:22Z</time>
      </trkpt>
      <trkpt lat="48.18814" lon="7.00521">
        <ele>512.17</ele>
        <time>2021-06-23T11:06:27Z</time>
      </trkpt>
      <trkpt lat="48.18817" lon="7.00508">
        <ele>512.04</ele>
        <time>2021-06-23T11:06:32Z</time>
      </trkpt>
      <trkpt lat="48.18817" lon="7.0049">
        <ele>511.39</ele>
        <time>2021-06-23T11:06:37Z</time>
      </trkpt>
      <trkpt lat="48.18809" lon="7.0047">
        <ele>509.52</ele>
        <time>2021-06-23T11:06:42Z</time>
      </trkpt>
      <trkpt lat="48.18753" lon="7.00393">
        <ele>504.13</ele>
        <time>2021-06-23T11:06:47Z</time>
      </trkpt>
      <trkpt lat="48.187" lon="7.00306">
        <ele>502.02</ele>
        <time>2021-06-23T11:06:52Z</time>
      </trkpt>
      <trkpt lat="48.18673" lon="7.00271">
        <ele>501.95</ele>
        <time>2021-06-23T11:06:57Z</time>
      </trkpt>
      <trkpt lat="48.1863" lon="7.00234">
        <ele>501.33</ele>
        <time>2021-06-23T11:07:02Z</time>
      </trkpt>
      <trkpt lat="48.1863" lon="7.00234">
        <ele>501.33</ele>
        <time>2021-06-23T11:07:02Z</time>
      </trkpt>
      <trkpt lat="48.18602" lon="7.00209">
        <ele>500.71</ele>
        <time>2021-06-23T11:07:08Z</time>
      </trkpt>
      <trkpt lat="48.18592" lon="7.00204">
        <ele>500.58</ele>
        <time>2021-06-23T11:07:14Z</time>
      </trkpt>
      <trkpt lat="48.1849" lon="7.00196">
        <ele>502.03</ele>
        <time>2021-06-23T11:07:19Z</time>
      </trkpt>
      <trkpt lat="48.18431" lon="7.00195">
        <ele>500.98</ele>
        <time>2021-06-23T11:07:25Z</time>
      </trkpt>
      <trkpt lat="48.1842" lon="7.00191">
        <ele>501</ele>
        <time>2021-06-23T11:07:31Z</time>
      </trkpt>
      <trkpt lat="48.18415" lon="7.00215">
        <ele>500.26</ele>
        <time>2021-06-23T11:07:39Z</time>
      </trkpt>
      <trkpt lat="48.18404" lon="7.0024">
        <ele>500</ele>
        <time>2021-06-23T11:07:48Z</time>
      </trkpt>
      <trkpt lat="48.18386" lon="7.00264">
        <ele>500.11</ele>
        <time>2021-06-23T11:07:57Z</time>
      </trkpt>
      <trkpt lat="48.18248" lon="7.00383">
        <ele>507.05</ele>
        <time>2021-06-23T11:08:05Z</time>
      </trkpt>
      <trkpt lat="48.18121" lon="7.00506">
        <ele>509.64</ele>
        <time>2021-06-23T11:08:14Z</time>
      </trkpt>
      <trkpt lat="48.18102" lon="7.00531">
        <ele>510.29</ele>
        <time>2021-06-23T11:08:22Z</time>
      </trkpt>
      <trkpt lat="48.17997" lon="7.00698">
        <ele>515.25</ele>
        <time>2021-06-23T11:08:31Z</time>
      </trkpt>
      <trkpt lat="48.17961" lon="7.0074">
        <ele>516.79</ele>
        <time>2021-06-23T11:08:40Z</time>
      </trkpt>
      <trkpt lat="48.17718" lon="7.00938">
        <ele>522.64</ele>
        <time>2021-06-23T11:08:48Z</time>
      </trkpt>
      <trkpt lat="48.1769" lon="7.00971">
        <ele>523.3</ele>
        <time>2021-06-23T11:08:57Z</time>
      </trkpt>
      <trkpt lat="48.17589" lon="7.01117">
        <ele>530.46</ele>
        <time>2021-06-23T11:09:05Z</time>
      </trkpt>
      <trkpt lat="48.1756" lon="7.01145">
        <ele>531.91</ele>
        <time>2021-06-23T11:09:14Z</time>
      </trkpt>
      <trkpt lat="48.17483" lon="7.01185">
        <ele>530.83</ele>
        <time>2021-06-23T11:09:23Z</time>
      </trkpt>
      <trkpt lat="48.17461" lon="7.01201">
        <ele>530.15</ele>
        <time>2021-06-23T11:09:31Z</time>
      </trkpt>
      <trkpt lat="48.17332" lon="7.01311">
        <ele>528.87</ele>
        <time>2021-06-23T11:09:40Z</time>
      </trkpt>
      <trkpt lat="48.17319" lon="7.01322">
        <ele>528.91</ele>
        <time>2021-06-23T11:09:48Z</time>
      </trkpt>
      <trkpt lat="48.17312" lon="7.01332">
        <ele>528.83</ele>
        <time>2021-06-23T11:09:57Z</time>
      </trkpt>
      <trkpt lat="48.17295" lon="7.01361">
        <ele>529.79</ele>
        <time>2021-06-23T11:10:06Z</time>
      </trkpt>
      <trkpt lat="48.17201" lon="7.0159">
        <ele>534.76</ele>
        <time>2021-06-23T11:10:14Z</time>
      </trkpt>
      <trkpt lat="48.17175" lon="7.01681">
        <ele>537.54</ele>
        <time>2021-06-23T11:10:23Z</time>
      </trkpt>
      <trkpt lat="48.17165" lon="7.01703">
        <ele>538.05</ele>
        <time>2021-06-23T11:10:31Z</time>
      </trkpt>
      <trkpt lat="48.17112" lon="7.01793">
        <ele>538.97</ele>
        <time>2021-06-23T11:10:40Z</time>
      </trkpt>
      <trkpt lat="48.17105" lon="7.0181">
        <ele>539.21</ele>
        <time>2021-06-23T11:10:49Z</time>
      </trkpt>
      <trkpt lat="48.17097" lon="7.01838">
        <ele>539.58</ele>
        <time>2021-06-23T11:10:57Z</time>
      </trkpt>
      <trkpt lat="48.17075" lon="7.01933">
        <ele>540.4</ele>
        <time>2021-06-23T11:11:06Z</time>
      </trkpt>
      <trkpt lat="48.17065" lon="7.01964">
        <ele>541.37</ele>
        <time>2021-06-23T11:11:14Z</time>
      </trkpt>
      <trkpt lat="48.17058" lon="7.01977">
        <ele>542.08</ele>
        <time>2021-06-23T11:11:23Z</time>
      </trkpt>
      <trkpt lat="48.1702" lon="7.02036">
        <ele>546.77</ele>
        <time>2021-06-23T11:11:32Z</time>
      </trkpt>
      <trkpt lat="48.16999" lon="7.02083">
        <ele>549.29</ele>
        <time>2021-06-23T11:11:40Z</time>
      </trkpt>
      <trkpt lat="48.16959" lon="7.02212">
        <ele>556.47</ele>
        <time>2021-06-23T11:11:49Z</time>
      </trkpt>
      <trkpt lat="48.16927" lon="7.02325">
        <ele>558.49</ele>
        <time>2021-06-23T11:11:57Z</time>
      </trkpt>
      <trkpt lat="48.16893" lon="7.02438">
        <ele>559.16</ele>
        <time>2021-06-23T11:12:06Z</time>
      </trkpt>
      <trkpt lat="48.16893" lon="7.02438">
        <ele>559.16</ele>
        <time>2021-06-23T11:12:06Z</time>
      </trkpt>
      <trkpt lat="48.16882" lon="7.02475">
        <ele>559.84</ele>
        <time>2021-06-23T11:12:09Z</time>
      </trkpt>
      <trkpt lat="48.16835" lon="7.02656">
        <ele>567.15</ele>
        <time>2021-06-23T11:12:11Z</time>
      </trkpt>
      <trkpt lat="48.16799" lon="7.02793">
        <ele>570.22</ele>
        <time>2021-06-23T11:12:14Z</time>
      </trkpt>
      <trkpt lat="48.16794" lon="7.02821">
        <ele>570.22</ele>
        <time>2021-06-23T11:12:16Z</time>
      </trkpt>
      <trkpt lat="48.16784" lon="7.02947">
        <ele>575.11</ele>
        <time>2021-06-23T11:12:19Z</time>
      </trkpt>
      <trkpt lat="48.16776" lon="7.03064">
        <ele>581.65</ele>
        <time>2021-06-23T11:12:21Z</time>
      </trkpt>
      <trkpt lat="48.16776" lon="7.03095">
        <ele>584.57</ele>
        <time>2021-06-23T11:12:23Z</time>
      </trkpt>
      <trkpt lat="48.16779" lon="7.03116">
        <ele>584.98</ele>
        <time>2021-06-23T11:12:26Z</time>
      </trkpt>
      <trkpt lat="48.16784" lon="7.03134">
        <ele>584.78</ele>
        <time>2021-06-23T11:12:28Z</time>
      </trkpt>
      <trkpt lat="48.16795" lon="7.03157">
        <ele>584.58</ele>
        <time>2021-06-23T11:12:31Z</time>
      </trkpt>
      <trkpt lat="48.16804" lon="7.03173">
        <ele>583.83</ele>
        <time>2021-06-23T11:12:33Z</time>
      </trkpt>
      <trkpt lat="48.16818" lon="7.03187">
        <ele>584.14</ele>
        <time>2021-06-23T11:12:36Z</time>
      </trkpt>
      <trkpt lat="48.16834" lon="7.03195">
        <ele>584.14</ele>
        <time>2021-06-23T11:12:38Z</time>
      </trkpt>
      <trkpt lat="48.16844" lon="7.03197">
        <ele>584.91</ele>
        <time>2021-06-23T11:12:41Z</time>
      </trkpt>
      <trkpt lat="48.16844" lon="7.03197">
        <ele>584.91</ele>
        <time>2021-06-23T11:12:41Z</time>
      </trkpt>
      <trkpt lat="48.16851" lon="7.03199">
        <ele>585.69</ele>
        <time>2021-06-23T11:12:45Z</time>
      </trkpt>
      <trkpt lat="48.16875" lon="7.03193">
        <ele>587.77</ele>
        <time>2021-06-23T11:12:48Z</time>
      </trkpt>
      <trkpt lat="48.16897" lon="7.03171">
        <ele>590.48</ele>
        <time>2021-06-23T11:12:52Z</time>
      </trkpt>
      <trkpt lat="48.16934" lon="7.03112">
        <ele>591.6</ele>
        <time>2021-06-23T11:12:56Z</time>
      </trkpt>
      <trkpt lat="48.17015" lon="7.02969">
        <ele>596.11</ele>
        <time>2021-06-23T11:13:00Z</time>
      </trkpt>
      <trkpt lat="48.17112" lon="7.02811">
        <ele>605.11</ele>
        <time>2021-06-23T11:13:03Z</time>
      </trkpt>
      <trkpt lat="48.17212" lon="7.02673">
        <ele>616.08</ele>
        <time>2021-06-23T11:13:07Z</time>
      </trkpt>
      <trkpt lat="48.17254" lon="7.02612">
        <ele>618.11</ele>
        <time>2021-06-23T11:13:11Z</time>
      </trkpt>
      <trkpt lat="48.1735" lon="7.02479">
        <ele>630.64</ele>
        <time>2021-06-23T11:13:15Z</time>
      </trkpt>
      <trkpt lat="48.17382" lon="7.02448">
        <ele>629.1</ele>
        <time>2021-06-23T11:13:18Z</time>
      </trkpt>
      <trkpt lat="48.17425" lon="7.02424">
        <ele>629.28</ele>
        <time>2021-06-23T11:13:22Z</time>
      </trkpt>
      <trkpt lat="48.1746" lon="7.02412">
        <ele>629.77</ele>
        <time>2021-06-23T11:13:26Z</time>
      </trkpt>
      <trkpt lat="48.17528" lon="7.02394">
        <ele>634.75</ele>
        <time>2021-06-23T11:13:30Z</time>
      </trkpt>
      <trkpt lat="48.17552" lon="7.02392">
        <ele>637</ele>
        <time>2021-06-23T11:13:34Z</time>
      </trkpt>
      <trkpt lat="48.1758" lon="7.02396">
        <ele>637.34</ele>
        <time>2021-06-23T11:13:37Z</time>
      </trkpt>
      <trkpt lat="48.17611" lon="7.02413">
        <ele>640.14</ele>
        <time>2021-06-23T11:13:41Z</time>
      </trkpt>
      <trkpt lat="48.17656" lon="7.02442">
        <ele>645.1</ele>
        <time>2021-06-23T11:13:45Z</time>
      </trkpt>
      <trkpt lat="48.17687" lon="7.02467">
        <ele>646.61</ele>
        <time>2021-06-23T11:13:49Z</time>
      </trkpt>
      <trkpt lat="48.17707" lon="7.02479">
        <ele>647.93</ele>
        <time>2021-06-23T11:13:52Z</time>
      </trkpt>
      <trkpt lat="48.17733" lon="7.02486">
        <ele>650.32</ele>
        <time>2021-06-23T11:13:56Z</time>
      </trkpt>
      <trkpt lat="48.17757" lon="7.02488">
        <ele>652.64</ele>
        <time>2021-06-23T11:14:00Z</time>
      </trkpt>
      <trkpt lat="48.17783" lon="7.02487">
        <ele>652.64</ele>
        <time>2021-06-23T11:14:04Z</time>
      </trkpt>
      <trkpt lat="48.17827" lon="7.02472">
        <ele>652.8</ele>
        <time>2021-06-23T11:14:07Z</time>
      </trkpt>
      <trkpt lat="48.17919" lon="7.0241">
        <ele>656.53</ele>
        <time>2021-06-23T11:14:11Z</time>
      </trkpt>
      <trkpt lat="48.17933" lon="7.02397">
        <ele>657.78</ele>
        <time>2021-06-23T11:14:15Z</time>
      </trkpt>
      <trkpt lat="48.17962" lon="7.0235">
        <ele>660.53</ele>
        <time>2021-06-23T11:14:19Z</time>
      </trkpt>
      <trkpt lat="48.17972" lon="7.02339">
        <ele>661.42</ele>
        <time>2021-06-23T11:14:22Z</time>
      </trkpt>
      <trkpt lat="48.17984" lon="7.02335">
        <ele>661.11</ele>
        <time>2021-06-23T11:14:26Z</time>
      </trkpt>
      <trkpt lat="48.17995" lon="7.02336">
        <ele>661.2</ele>
        <time>2021-06-23T11:14:30Z</time>
      </trkpt>
      <trkpt lat="48.18007" lon="7.02347">
        <ele>661.17</ele>
        <time>2021-06-23T11:14:34Z</time>
      </trkpt>
      <trkpt lat="48.18007" lon="7.02347">
        <ele>661.17</ele>
        <time>2021-06-23T11:14:34Z</time>
      </trkpt>
      <trkpt lat="48.18013" lon="7.02359">
        <ele>661.47</ele>
        <time>2021-06-23T11:14:37Z</time>
      </trkpt>
      <trkpt lat="48.18015" lon="7.0237">
        <ele>662.53</ele>
        <time>2021-06-23T11:14:39Z</time>
      </trkpt>
      <trkpt lat="48.18015" lon="7.02386">
        <ele>664.59</ele>
        <time>2021-06-23T11:14:42Z</time>
      </trkpt>
      <trkpt lat="48.18013" lon="7.02397">
        <ele>665.95</ele>
        <time>2021-06-23T11:14:45Z</time>
      </trkpt>
      <trkpt lat="48.18008" lon="7.02408">
        <ele>667.16</ele>
        <time>2021-06-23T11:14:48Z</time>
      </trkpt>
      <trkpt lat="48.18002" lon="7.02417">
        <ele>667.98</ele>
        <time>2021-06-23T11:14:50Z</time>
      </trkpt>
      <trkpt lat="48.17953" lon="7.02442">
        <ele>668.8</ele>
        <time>2021-06-23T11:14:53Z</time>
      </trkpt>
      <trkpt lat="48.17937" lon="7.02455">
        <ele>669.04</ele>
        <time>2021-06-23T11:14:56Z</time>
      </trkpt>
      <trkpt lat="48.1789" lon="7.02518">
        <ele>677.74</ele>
        <time>2021-06-23T11:14:59Z</time>
      </trkpt>
      <trkpt lat="48.17836" lon="7.026">
        <ele>686.48</ele>
        <time>2021-06-23T11:15:02Z</time>
      </trkpt>
      <trkpt lat="48.17815" lon="7.02619">
        <ele>688.62</ele>
        <time>2021-06-23T11:15:04Z</time>
      </trkpt>
      <trkpt lat="48.17788" lon="7.02638">
        <ele>687.61</ele>
        <time>2021-06-23T11:15:07Z</time>
      </trkpt>
      <trkpt lat="48.17679" lon="7.02682">
        <ele>688.82</ele>
        <time>2021-06-23T11:15:10Z</time>
      </trkpt>
      <trkpt lat="48.17653" lon="7.0269">
        <ele>690.6</ele>
        <time>2021-06-23T11:15:13Z</time>
      </trkpt>
      <trkpt lat="48.17627" lon="7.02695">
        <ele>693.34</ele>
        <time>2021-06-23T11:15:16Z</time>
      </trkpt>
      <trkpt lat="48.17605" lon="7.02695">
        <ele>695.79</ele>
        <time>2021-06-23T11:15:18Z</time>
      </trkpt>
      <trkpt lat="48.17559" lon="7.02691">
        <ele>698.06</ele>
        <time>2021-06-23T11:15:21Z</time>
      </trkpt>
      <trkpt lat="48.17541" lon="7.02694">
        <ele>699.44</ele>
        <time>2021-06-23T11:15:24Z</time>
      </trkpt>
      <trkpt lat="48.17526" lon="7.02701">
        <ele>701.04</ele>
        <time>2021-06-23T11:15:27Z</time>
      </trkpt>
      <trkpt lat="48.17509" lon="7.02712">
        <ele>700.97</ele>
        <time>2021-06-23T11:15:30Z</time>
      </trkpt>
      <trkpt lat="48.17487" lon="7.02736">
        <ele>702.8</ele>
        <time>2021-06-23T11:15:32Z</time>
      </trkpt>
      <trkpt lat="48.17465" lon="7.02773">
        <ele>706.29</ele>
        <time>2021-06-23T11:15:35Z</time>
      </trkpt>
      <trkpt lat="48.17349" lon="7.02978">
        <ele>711.17</ele>
        <time>2021-06-23T11:15:38Z</time>
      </trkpt>
      <trkpt lat="48.1733" lon="7.03015">
        <ele>714.92</ele>
        <time>2021-06-23T11:15:41Z</time>
      </trkpt>
      <trkpt lat="48.17319" lon="7.0304">
        <ele>716.85</ele>
        <time>2021-06-23T11:15:44Z</time>
      </trkpt>
      <trkpt lat="48.17304" lon="7.031">
        <ele>720.95</ele>
        <time>2021-06-23T11:15:46Z</time>
      </trkpt>
      <trkpt lat="48.173" lon="7.03136">
        <ele>723.37</ele>
        <time>2021-06-23T11:15:49Z</time>
      </trkpt>
      <trkpt lat="48.17303" lon="7.03316">
        <ele>730.45</ele>
        <time>2021-06-23T11:15:52Z</time>
      </trkpt>
      <trkpt lat="48.17306" lon="7.03349">
        <ele>731.2</ele>
        <time>2021-06-23T11:15:55Z</time>
      </trkpt>
      <trkpt lat="48.17319" lon="7.03401">
        <ele>732.22</ele>
        <time>2021-06-23T11:15:58Z</time>
      </trkpt>
      <trkpt lat="48.17329" lon="7.03425">
        <ele>731.97</ele>
        <time>2021-06-23T11:16:00Z</time>
      </trkpt>
      <trkpt lat="48.17347" lon="7.03457">
        <ele>735.65</ele>
        <time>2021-06-23T11:16:03Z</time>
      </trkpt>
      <trkpt lat="48.17366" lon="7.0348">
        <ele>738.56</ele>
        <time>2021-06-23T11:16:06Z</time>
      </trkpt>
      <trkpt lat="48.17424" lon="7.03533">
        <ele>739.33</ele>
        <time>2021-06-23T11:16:09Z</time>
      </trkpt>
      <trkpt lat="48.17448" lon="7.03559">
        <ele>739.92</ele>
        <time>2021-06-23T11:16:12Z</time>
      </trkpt>
      <trkpt lat="48.17466" lon="7.03585">
        <ele>741.69</ele>
        <time>2021-06-23T11:16:14Z</time>
      </trkpt>
      <trkpt lat="48.17478" lon="7.03611">
        <ele>743.25</ele>
        <time>2021-06-23T11:16:17Z</time>
      </trkpt>
      <trkpt lat="48.17489" lon="7.03641">
        <ele>745.39</ele>
        <time>2021-06-23T11:16:20Z</time>
      </trkpt>
      <trkpt lat="48.17496" lon="7.03671">
        <ele>747.05</ele>
        <time>2021-06-23T11:16:23Z</time>
      </trkpt>
      <trkpt lat="48.17504" lon="7.03724">
        <ele>748.86</ele>
        <time>2021-06-23T11:16:26Z</time>
      </trkpt>
      <trkpt lat="48.1751" lon="7.03782">
        <ele>748.77</ele>
        <time>2021-06-23T11:16:28Z</time>
      </trkpt>
      <trkpt lat="48.17509" lon="7.03821">
        <ele>748.97</ele>
        <time>2021-06-23T11:16:31Z</time>
      </trkpt>
      <trkpt lat="48.17501" lon="7.03897">
        <ele>752.16</ele>
        <time>2021-06-23T11:16:34Z</time>
      </trkpt>
      <trkpt lat="48.17495" lon="7.03915">
        <ele>752.47</ele>
        <time>2021-06-23T11:16:37Z</time>
      </trkpt>
      <trkpt lat="48.17487" lon="7.03931">
        <ele>753.95</ele>
        <time>2021-06-23T11:16:39Z</time>
      </trkpt>
      <trkpt lat="48.17473" lon="7.03955">
        <ele>754.24</ele>
        <time>2021-06-23T11:16:42Z</time>
      </trkpt>
      <trkpt lat="48.17448" lon="7.03974">
        <ele>759.99</ele>
        <time>2021-06-23T11:16:45Z</time>
      </trkpt>
      <trkpt lat="48.17436" lon="7.03978">
        <ele>762.66</ele>
        <time>2021-06-23T11:16:48Z</time>
      </trkpt>
      <trkpt lat="48.17423" lon="7.0398">
        <ele>765.01</ele>
        <time>2021-06-23T11:16:51Z</time>
      </trkpt>
      <trkpt lat="48.17363" lon="7.03977">
        <ele>774.85</ele>
        <time>2021-06-23T11:16:53Z</time>
      </trkpt>
      <trkpt lat="48.17341" lon="7.03978">
        <ele>777.72</ele>
        <time>2021-06-23T11:16:56Z</time>
      </trkpt>
      <trkpt lat="48.17313" lon="7.03982">
        <ele>781.51</ele>
        <time>2021-06-23T11:16:59Z</time>
      </trkpt>
      <trkpt lat="48.1725" lon="7.04003">
        <ele>785.84</ele>
        <time>2021-06-23T11:17:02Z</time>
      </trkpt>
      <trkpt lat="48.17216" lon="7.04017">
        <ele>786.39</ele>
        <time>2021-06-23T11:17:05Z</time>
      </trkpt>
      <trkpt lat="48.17197" lon="7.04028">
        <ele>785.57</ele>
        <time>2021-06-23T11:17:07Z</time>
      </trkpt>
      <trkpt lat="48.17183" lon="7.04039">
        <ele>784.68</ele>
        <time>2021-06-23T11:17:10Z</time>
      </trkpt>
      <trkpt lat="48.17146" lon="7.0408">
        <ele>783.17</ele>
        <time>2021-06-23T11:17:13Z</time>
      </trkpt>
      <trkpt lat="48.17104" lon="7.04142">
        <ele>787.51</ele>
        <time>2021-06-23T11:17:16Z</time>
      </trkpt>
      <trkpt lat="48.17095" lon="7.04163">
        <ele>787.16</ele>
        <time>2021-06-23T11:17:19Z</time>
      </trkpt>
      <trkpt lat="48.17077" lon="7.0421">
        <ele>787.04</ele>
        <time>2021-06-23T11:17:21Z</time>
      </trkpt>
      <trkpt lat="48.17051" lon="7.04322">
        <ele>791.5</ele>
        <time>2021-06-23T11:17:24Z</time>
      </trkpt>
      <trkpt lat="48.17008" lon="7.04563">
        <ele>807.36</ele>
        <time>2021-06-23T11:17:27Z</time>
      </trkpt>
      <trkpt lat="48.16998" lon="7.04603">
        <ele>808.22</ele>
        <time>2021-06-23T11:17:30Z</time>
      </trkpt>
      <trkpt lat="48.16962" lon="7.0471">
        <ele>810.04</ele>
        <time>2021-06-23T11:17:33Z</time>
      </trkpt>
      <trkpt lat="48.16877" lon="7.04902">
        <ele>823.38</ele>
        <time>2021-06-23T11:17:35Z</time>
      </trkpt>
      <trkpt lat="48.1683" lon="7.04996">
        <ele>824.73</ele>
        <time>2021-06-23T11:17:38Z</time>
      </trkpt>
      <trkpt lat="48.1682" lon="7.05021">
        <ele>823.39</ele>
        <time>2021-06-23T11:17:41Z</time>
      </trkpt>
      <trkpt lat="48.16814" lon="7.05043">
        <ele>822.51</ele>
        <time>2021-06-23T11:17:44Z</time>
      </trkpt>
      <trkpt lat="48.16812" lon="7.05063">
        <ele>823.16</ele>
        <time>2021-06-23T11:17:47Z</time>
      </trkpt>
      <trkpt lat="48.16812" lon="7.05083">
        <ele>824.16</ele>
        <time>2021-06-23T11:17:49Z</time>
      </trkpt>
      <trkpt lat="48.16817" lon="7.05105">
        <ele>826.31</ele>
        <time>2021-06-23T11:17:52Z</time>
      </trkpt>
      <trkpt lat="48.16829" lon="7.05135">
        <ele>829.88</ele>
        <time>2021-06-23T11:17:55Z</time>
      </trkpt>
      <trkpt lat="48.16849" lon="7.05174">
        <ele>835.91</ele>
        <time>2021-06-23T11:17:58Z</time>
      </trkpt>
      <trkpt lat="48.1689" lon="7.05239">
        <ele>839.24</ele>
        <time>2021-06-23T11:18:01Z</time>
      </trkpt>
      <trkpt lat="48.16981" lon="7.05398">
        <ele>845.68</ele>
        <time>2021-06-23T11:18:03Z</time>
      </trkpt>
      <trkpt lat="48.17" lon="7.05421">
        <ele>848.51</ele>
        <time>2021-06-23T11:18:06Z</time>
      </trkpt>
      <trkpt lat="48.1705" lon="7.05473">
        <ele>855.65</ele>
        <time>2021-06-23T11:18:09Z</time>
      </trkpt>
      <trkpt lat="48.17069" lon="7.05497">
        <ele>856.53</ele>
        <time>2021-06-23T11:18:12Z</time>
      </trkpt>
      <trkpt lat="48.17085" lon="7.05523">
        <ele>856.26</ele>
        <time>2021-06-23T11:18:15Z</time>
      </trkpt>
      <trkpt lat="48.17097" lon="7.05554">
        <ele>855.96</ele>
        <time>2021-06-23T11:18:17Z</time>
      </trkpt>
      <trkpt lat="48.17105" lon="7.05584">
        <ele>856.53</ele>
        <time>2021-06-23T11:18:20Z</time>
      </trkpt>
      <trkpt lat="48.17113" lon="7.05619">
        <ele>859.73</ele>
        <time>2021-06-23T11:18:23Z</time>
      </trkpt>
      <trkpt lat="48.17115" lon="7.05652">
        <ele>860.05</ele>
        <time>2021-06-23T11:18:26Z</time>
      </trkpt>
      <trkpt lat="48.17115" lon="7.05678">
        <ele>859.46</ele>
        <time>2021-06-23T11:18:28Z</time>
      </trkpt>
      <trkpt lat="48.17111" lon="7.05707">
        <ele>857.81</ele>
        <time>2021-06-23T11:18:31Z</time>
      </trkpt>
      <trkpt lat="48.17102" lon="7.05738">
        <ele>858.95</ele>
        <time>2021-06-23T11:18:34Z</time>
      </trkpt>
      <trkpt lat="48.17088" lon="7.05766">
        <ele>860.32</ele>
        <time>2021-06-23T11:18:37Z</time>
      </trkpt>
      <trkpt lat="48.17049" lon="7.05827">
        <ele>864.79</ele>
        <time>2021-06-23T11:18:40Z</time>
      </trkpt>
      <trkpt lat="48.17023" lon="7.05857">
        <ele>870.05</ele>
        <time>2021-06-23T11:18:42Z</time>
      </trkpt>
      <trkpt lat="48.1696" lon="7.05893">
        <ele>869.67</ele>
        <time>2021-06-23T11:18:45Z</time>
      </trkpt>
      <trkpt lat="48.16864" lon="7.05972">
        <ele>874.55</ele>
        <time>2021-06-23T11:18:48Z</time>
      </trkpt>
      <trkpt lat="48.16814" lon="7.06008">
        <ele>870.61</ele>
        <time>2021-06-23T11:18:51Z</time>
      </trkpt>
      <trkpt lat="48.1679" lon="7.06033">
        <ele>872.59</ele>
        <time>2021-06-23T11:18:54Z</time>
      </trkpt>
      <trkpt lat="48.16772" lon="7.06055">
        <ele>875.52</ele>
        <time>2021-06-23T11:18:56Z</time>
      </trkpt>
      <trkpt lat="48.16757" lon="7.06081">
        <ele>878.51</ele>
        <time>2021-06-23T11:18:59Z</time>
      </trkpt>
      <trkpt lat="48.16747" lon="7.06108">
        <ele>880.68</ele>
        <time>2021-06-23T11:19:02Z</time>
      </trkpt>
      <trkpt lat="48.16735" lon="7.06149">
        <ele>884.44</ele>
        <time>2021-06-23T11:19:05Z</time>
      </trkpt>
      <trkpt lat="48.16728" lon="7.06205">
        <ele>886.24</ele>
        <time>2021-06-23T11:19:08Z</time>
      </trkpt>
      <trkpt lat="48.16724" lon="7.06363">
        <ele>895.55</ele>
        <time>2021-06-23T11:19:10Z</time>
      </trkpt>
      <trkpt lat="48.16717" lon="7.06513">
        <ele>902.91</ele>
        <time>2021-06-23T11:19:13Z</time>
      </trkpt>
      <trkpt lat="48.16715" lon="7.06602">
        <ele>903.92</ele>
        <time>2021-06-23T11:19:16Z</time>
      </trkpt>
      <trkpt lat="48.16721" lon="7.0674">
        <ele>911.2</ele>
        <time>2021-06-23T11:19:19Z</time>
      </trkpt>
      <trkpt lat="48.16721" lon="7.06786">
        <ele>913.78</ele>
        <time>2021-06-23T11:19:22Z</time>
      </trkpt>
      <trkpt lat="48.16717" lon="7.06826">
        <ele>915.45</ele>
        <time>2021-06-23T11:19:24Z</time>
      </trkpt>
      <trkpt lat="48.16682" lon="7.06973">
        <ele>916.93</ele>
        <time>2021-06-23T11:19:27Z</time>
      </trkpt>
      <trkpt lat="48.16675" lon="7.07015">
        <ele>916.03</ele>
        <time>2021-06-23T11:19:30Z</time>
      </trkpt>
      <trkpt lat="48.16674" lon="7.07052">
        <ele>918.34</ele>
        <time>2021-06-23T11:19:33Z</time>
      </trkpt>
      <trkpt lat="48.16682" lon="7.07193">
        <ele>925.52</ele>
        <time>2021-06-23T11:19:36Z</time>
      </trkpt>
      <trkpt lat="48.1668" lon="7.07251">
        <ele>928.42</ele>
        <time>2021-06-23T11:19:38Z</time>
      </trkpt>
      <trkpt lat="48.16676" lon="7.07308">
        <ele>929.66</ele>
        <time>2021-06-23T11:19:41Z</time>
      </trkpt>
      <trkpt lat="48.16634" lon="7.07534">
        <ele>937.38</ele>
        <time>2021-06-23T11:19:44Z</time>
      </trkpt>
      <trkpt lat="48.16625" lon="7.07566">
        <ele>936.89</ele>
        <time>2021-06-23T11:19:47Z</time>
      </trkpt>
      <trkpt lat="48.16615" lon="7.07593">
        <ele>937.7</ele>
        <time>2021-06-23T11:19:50Z</time>
      </trkpt>
      <trkpt lat="48.16586" lon="7.07659">
        <ele>942.32</ele>
        <time>2021-06-23T11:19:52Z</time>
      </trkpt>
      <trkpt lat="48.16576" lon="7.07685">
        <ele>942.93</ele>
        <time>2021-06-23T11:19:55Z</time>
      </trkpt>
      <trkpt lat="48.16516" lon="7.07895">
        <ele>947.67</ele>
        <time>2021-06-23T11:19:58Z</time>
      </trkpt>
      <trkpt lat="48.16508" lon="7.07918">
        <ele>948.06</ele>
        <time>2021-06-23T11:20:01Z</time>
      </trkpt>
      <trkpt lat="48.16491" lon="7.07955">
        <ele>949.61</ele>
        <time>2021-06-23T11:20:04Z</time>
      </trkpt>
      <trkpt lat="48.16484" lon="7.07944">
        <ele>948.96</ele>
        <time>2021-06-23T11:20:04Z</time>
      </trkpt>
      <trkpt lat="48.16484" lon="7.07944">
        <ele>948.96</ele>
        <time>2021-06-23T11:20:04Z</time>
      </trkpt>
      <trkpt lat="48.16473" lon="7.07925">
        <ele>948.3</ele>
        <time>2021-06-23T11:20:07Z</time>
      </trkpt>
      <trkpt lat="48.16462" lon="7.07913">
        <ele>949.8</ele>
        <time>2021-06-23T11:20:10Z</time>
      </trkpt>
      <trkpt lat="48.1641" lon="7.07893">
        <ele>958.83</ele>
        <time>2021-06-23T11:20:13Z</time>
      </trkpt>
      <trkpt lat="48.16381" lon="7.07874">
        <ele>963.13</ele>
        <time>2021-06-23T11:20:16Z</time>
      </trkpt>
      <trkpt lat="48.16306" lon="7.07794">
        <ele>970.68</ele>
        <time>2021-06-23T11:20:19Z</time>
      </trkpt>
      <trkpt lat="48.16272" lon="7.07765">
        <ele>973.08</ele>
        <time>2021-06-23T11:20:22Z</time>
      </trkpt>
      <trkpt lat="48.16248" lon="7.07748">
        <ele>975.1</ele>
        <time>2021-06-23T11:20:25Z</time>
      </trkpt>
      <trkpt lat="48.16222" lon="7.07745">
        <ele>973.52</ele>
        <time>2021-06-23T11:20:28Z</time>
      </trkpt>
      <trkpt lat="48.16178" lon="7.07744">
        <ele>970.57</ele>
        <time>2021-06-23T11:20:31Z</time>
      </trkpt>
      <trkpt lat="48.16136" lon="7.07736">
        <ele>968.35</ele>
        <time>2021-06-23T11:20:34Z</time>
      </trkpt>
      <trkpt lat="48.16079" lon="7.07705">
        <ele>967.28</ele>
        <time>2021-06-23T11:20:37Z</time>
      </trkpt>
      <trkpt lat="48.15985" lon="7.07618">
        <ele>966.05</ele>
        <time>2021-06-23T11:20:40Z</time>
      </trkpt>
      <trkpt lat="48.15939" lon="7.07556">
        <ele>969.56</ele>
        <time>2021-06-23T11:20:43Z</time>
      </trkpt>
      <trkpt lat="48.15926" lon="7.07534">
        <ele>970.17</ele>
        <time>2021-06-23T11:20:45Z</time>
      </trkpt>
      <trkpt lat="48.15894" lon="7.07469">
        <ele>974.32</ele>
        <time>2021-06-23T11:20:48Z</time>
      </trkpt>
      <trkpt lat="48.15876" lon="7.07447">
        <ele>976.73</ele>
        <time>2021-06-23T11:20:51Z</time>
      </trkpt>
      <trkpt lat="48.15773" lon="7.07357">
        <ele>981.01</ele>
        <time>2021-06-23T11:20:54Z</time>
      </trkpt>
      <trkpt lat="48.15755" lon="7.07345">
        <ele>981.27</ele>
        <time>2021-06-23T11:20:57Z</time>
      </trkpt>
      <trkpt lat="48.15741" lon="7.07339">
        <ele>982.96</ele>
        <time>2021-06-23T11:21:00Z</time>
      </trkpt>
      <trkpt lat="48.15613" lon="7.07328">
        <ele>988.35</ele>
        <time>2021-06-23T11:21:03Z</time>
      </trkpt>
      <trkpt lat="48.15599" lon="7.07323">
        <ele>988.85</ele>
        <time>2021-06-23T11:21:06Z</time>
      </trkpt>
      <trkpt lat="48.15584" lon="7.07314">
        <ele>989.78</ele>
        <time>2021-06-23T11:21:09Z</time>
      </trkpt>
      <trkpt lat="48.1555" lon="7.07289">
        <ele>988.86</ele>
        <time>2021-06-23T11:21:12Z</time>
      </trkpt>
      <trkpt lat="48.15501" lon="7.07246">
        <ele>987.3</ele>
        <time>2021-06-23T11:21:15Z</time>
      </trkpt>
      <trkpt lat="48.15429" lon="7.07166">
        <ele>991.78</ele>
        <time>2021-06-23T11:21:18Z</time>
      </trkpt>
      <trkpt lat="48.154" lon="7.07136">
        <ele>988.44</ele>
        <time>2021-06-23T11:21:21Z</time>
      </trkpt>
      <trkpt lat="48.15286" lon="7.07081">
        <ele>977.77</ele>
        <time>2021-06-23T11:21:24Z</time>
      </trkpt>
      <trkpt lat="48.15259" lon="7.07065">
        <ele>981.93</ele>
        <time>2021-06-23T11:21:27Z</time>
      </trkpt>
      <trkpt lat="48.1521" lon="7.07018">
        <ele>989.86</ele>
        <time>2021-06-23T11:21:30Z</time>
      </trkpt>
      <trkpt lat="48.15088" lon="7.0697">
        <ele>982.27</ele>
        <time>2021-06-23T11:21:33Z</time>
      </trkpt>
      <trkpt lat="48.15038" lon="7.06932">
        <ele>982.98</ele>
        <time>2021-06-23T11:21:36Z</time>
      </trkpt>
      <trkpt lat="48.14917" lon="7.06791">
        <ele>994.5</ele>
        <time>2021-06-23T11:21:38Z</time>
      </trkpt>
      <trkpt lat="48.14861" lon="7.06739">
        <ele>996.4</ele>
        <time>2021-06-23T11:21:41Z</time>
      </trkpt>
      <trkpt lat="48.14818" lon="7.0672">
        <ele>1001.78</ele>
        <time>2021-06-23T11:21:44Z</time>
      </trkpt>
      <trkpt lat="48.1478" lon="7.06714">
        <ele>1006.31</ele>
        <time>2021-06-23T11:21:47Z</time>
      </trkpt>
      <trkpt lat="48.14741" lon="7.06721">
        <ele>1009.09</ele>
        <time>2021-06-23T11:21:50Z</time>
      </trkpt>
      <trkpt lat="48.14693" lon="7.06742">
        <ele>1014.42</ele>
        <time>2021-06-23T11:21:53Z</time>
      </trkpt>
      <trkpt lat="48.14666" lon="7.06749">
        <ele>1017.12</ele>
        <time>2021-06-23T11:21:56Z</time>
      </trkpt>
      <trkpt lat="48.14639" lon="7.06755">
        <ele>1018.32</ele>
        <time>2021-06-23T11:21:59Z</time>
      </trkpt>
      <trkpt lat="48.14618" lon="7.06756">
        <ele>1020.39</ele>
        <time>2021-06-23T11:22:02Z</time>
      </trkpt>
      <trkpt lat="48.14598" lon="7.06754">
        <ele>1021.45</ele>
        <time>2021-06-23T11:22:05Z</time>
      </trkpt>
      <trkpt lat="48.14564" lon="7.06744">
        <ele>1022.34</ele>
        <time>2021-06-23T11:22:08Z</time>
      </trkpt>
      <trkpt lat="48.14437" lon="7.06699">
        <ele>1025.55</ele>
        <time>2021-06-23T11:22:11Z</time>
      </trkpt>
      <trkpt lat="48.14398" lon="7.06678">
        <ele>1027.25</ele>
        <time>2021-06-23T11:22:14Z</time>
      </trkpt>
      <trkpt lat="48.14388" lon="7.0667">
        <ele>1028.63</ele>
        <time>2021-06-23T11:22:17Z</time>
      </trkpt>
      <trkpt lat="48.14369" lon="7.06648">
        <ele>1029.61</ele>
        <time>2021-06-23T11:22:20Z</time>
      </trkpt>
      <trkpt lat="48.14306" lon="7.06535">
        <ele>1031.06</ele>
        <time>2021-06-23T11:22:23Z</time>
      </trkpt>
      <trkpt lat="48.14293" lon="7.06516">
        <ele>1030.14</ele>
        <time>2021-06-23T11:22:26Z</time>
      </trkpt>
      <trkpt lat="48.14194" lon="7.06415">
        <ele>1018.08</ele>
        <time>2021-06-23T11:22:29Z</time>
      </trkpt>
      <trkpt lat="48.14145" lon="7.06362">
        <ele>1011.25</ele>
        <time>2021-06-23T11:22:32Z</time>
      </trkpt>
      <trkpt lat="48.14109" lon="7.06313">
        <ele>1013.41</ele>
        <time>2021-06-23T11:22:34Z</time>
      </trkpt>
      <trkpt lat="48.1409" lon="7.0628">
        <ele>1015.25</ele>
        <time>2021-06-23T11:22:37Z</time>
      </trkpt>
      <trkpt lat="48.14074" lon="7.06258">
        <ele>1016.53</ele>
        <time>2021-06-23T11:22:40Z</time>
      </trkpt>
      <trkpt lat="48.14055" lon="7.06235">
        <ele>1017.07</ele>
        <time>2021-06-23T11:22:43Z</time>
      </trkpt>
      <trkpt lat="48.14044" lon="7.06224">
        <ele>1017.84</ele>
        <time>2021-06-23T11:22:46Z</time>
      </trkpt>
      <trkpt lat="48.14028" lon="7.0622">
        <ele>1018.08</ele>
        <time>2021-06-23T11:22:49Z</time>
      </trkpt>
      <trkpt lat="48.14018" lon="7.06222">
        <ele>1018.69</ele>
        <time>2021-06-23T11:22:52Z</time>
      </trkpt>
      <trkpt lat="48.14" lon="7.06233">
        <ele>1018.83</ele>
        <time>2021-06-23T11:22:55Z</time>
      </trkpt>
      <trkpt lat="48.13989" lon="7.06244">
        <ele>1018.45</ele>
        <time>2021-06-23T11:22:58Z</time>
      </trkpt>
      <trkpt lat="48.1398" lon="7.06259">
        <ele>1017.12</ele>
        <time>2021-06-23T11:23:01Z</time>
      </trkpt>
      <trkpt lat="48.13962" lon="7.06303">
        <ele>1012.2</ele>
        <time>2021-06-23T11:23:04Z</time>
      </trkpt>
      <trkpt lat="48.13952" lon="7.06314">
        <ele>1010.97</ele>
        <time>2021-06-23T11:23:07Z</time>
      </trkpt>
      <trkpt lat="48.13945" lon="7.06318">
        <ele>1010.84</ele>
        <time>2021-06-23T11:23:10Z</time>
      </trkpt>
      <trkpt lat="48.13929" lon="7.0632">
        <ele>1010.45</ele>
        <time>2021-06-23T11:23:13Z</time>
      </trkpt>
      <trkpt lat="48.13913" lon="7.06318">
        <ele>1010.38</ele>
        <time>2021-06-23T11:23:16Z</time>
      </trkpt>
      <trkpt lat="48.13857" lon="7.06306">
        <ele>1003.96</ele>
        <time>2021-06-23T11:23:19Z</time>
      </trkpt>
      <trkpt lat="48.13826" lon="7.06297">
        <ele>1000.27</ele>
        <time>2021-06-23T11:23:22Z</time>
      </trkpt>
      <trkpt lat="48.1381" lon="7.0629">
        <ele>998.73</ele>
        <time>2021-06-23T11:23:25Z</time>
      </trkpt>
      <trkpt lat="48.138" lon="7.06282">
        <ele>997.81</ele>
        <time>2021-06-23T11:23:27Z</time>
      </trkpt>
      <trkpt lat="48.13789" lon="7.06269">
        <ele>996.96</ele>
        <time>2021-06-23T11:23:30Z</time>
      </trkpt>
      <trkpt lat="48.13731" lon="7.06167">
        <ele>991.67</ele>
        <time>2021-06-23T11:23:33Z</time>
      </trkpt>
      <trkpt lat="48.13713" lon="7.0614">
        <ele>989.83</ele>
        <time>2021-06-23T11:23:36Z</time>
      </trkpt>
      <trkpt lat="48.13703" lon="7.06131">
        <ele>988.71</ele>
        <time>2021-06-23T11:23:39Z</time>
      </trkpt>
      <trkpt lat="48.13688" lon="7.06123">
        <ele>986.73</ele>
        <time>2021-06-23T11:23:42Z</time>
      </trkpt>
      <trkpt lat="48.13663" lon="7.06116">
        <ele>983.34</ele>
        <time>2021-06-23T11:23:45Z</time>
      </trkpt>
      <trkpt lat="48.13648" lon="7.06118">
        <ele>981.57</ele>
        <time>2021-06-23T11:23:48Z</time>
      </trkpt>
      <trkpt lat="48.13632" lon="7.06131">
        <ele>981.59</ele>
        <time>2021-06-23T11:23:51Z</time>
      </trkpt>
      <trkpt lat="48.13629" lon="7.06146">
        <ele>983.92</ele>
        <time>2021-06-23T11:23:54Z</time>
      </trkpt>
      <trkpt lat="48.1363" lon="7.06157">
        <ele>985.61</ele>
        <time>2021-06-23T11:23:57Z</time>
      </trkpt>
      <trkpt lat="48.13635" lon="7.06174">
        <ele>986.56</ele>
        <time>2021-06-23T11:24:00Z</time>
      </trkpt>
      <trkpt lat="48.13635" lon="7.06174">
        <ele>986.56</ele>
        <time>2021-06-23T11:24:00Z</time>
      </trkpt>
      <trkpt lat="48.1365" lon="7.06226">
        <ele>988.22</ele>
        <time>2021-06-23T11:24:03Z</time>
      </trkpt>
      <trkpt lat="48.13655" lon="7.06259">
        <ele>989.06</ele>
        <time>2021-06-23T11:24:05Z</time>
      </trkpt>
      <trkpt lat="48.13656" lon="7.06275">
        <ele>989.52</ele>
        <time>2021-06-23T11:24:08Z</time>
      </trkpt>
      <trkpt lat="48.1365" lon="7.06332">
        <ele>994.63</ele>
        <time>2021-06-23T11:24:10Z</time>
      </trkpt>
      <trkpt lat="48.13651" lon="7.06351">
        <ele>996.2</ele>
        <time>2021-06-23T11:24:13Z</time>
      </trkpt>
      <trkpt lat="48.13667" lon="7.06483">
        <ele>1010.48</ele>
        <time>2021-06-23T11:24:16Z</time>
      </trkpt>
      <trkpt lat="48.13668" lon="7.06571">
        <ele>1015.74</ele>
        <time>2021-06-23T11:24:18Z</time>
      </trkpt>
      <trkpt lat="48.13671" lon="7.06607">
        <ele>1015.95</ele>
        <time>2021-06-23T11:24:21Z</time>
      </trkpt>
      <trkpt lat="48.1368" lon="7.06663">
        <ele>1010.58</ele>
        <time>2021-06-23T11:24:23Z</time>
      </trkpt>
      <trkpt lat="48.13679" lon="7.06676">
        <ele>1009.63</ele>
        <time>2021-06-23T11:24:26Z</time>
      </trkpt>
      <trkpt lat="48.13677" lon="7.06684">
        <ele>1009.61</ele>
        <time>2021-06-23T11:24:29Z</time>
      </trkpt>
      <trkpt lat="48.13673" lon="7.06688">
        <ele>1010.44</ele>
        <time>2021-06-23T11:24:31Z</time>
      </trkpt>
      <trkpt lat="48.13666" lon="7.0669">
        <ele>1012.92</ele>
        <time>2021-06-23T11:24:34Z</time>
      </trkpt>
      <trkpt lat="48.13662" lon="7.06688">
        <ele>1014.7</ele>
        <time>2021-06-23T11:24:37Z</time>
      </trkpt>
      <trkpt lat="48.13659" lon="7.06682">
        <ele>1016.17</ele>
        <time>2021-06-23T11:24:39Z</time>
      </trkpt>
      <trkpt lat="48.13657" lon="7.06661">
        <ele>1018.84</ele>
        <time>2021-06-23T11:24:42Z</time>
      </trkpt>
      <trkpt lat="48.13655" lon="7.066">
        <ele>1020.88</ele>
        <time>2021-06-23T11:24:44Z</time>
      </trkpt>
      <trkpt lat="48.13653" lon="7.06583">
        <ele>1020.92</ele>
        <time>2021-06-23T11:24:47Z</time>
      </trkpt>
      <trkpt lat="48.13647" lon="7.06562">
        <ele>1022.1</ele>
        <time>2021-06-23T11:24:50Z</time>
      </trkpt>
      <trkpt lat="48.1364" lon="7.06544">
        <ele>1023.74</ele>
        <time>2021-06-23T11:24:52Z</time>
      </trkpt>
      <trkpt lat="48.13573" lon="7.06461">
        <ele>1029.11</ele>
        <time>2021-06-23T11:24:55Z</time>
      </trkpt>
      <trkpt lat="48.13561" lon="7.06437">
        <ele>1029.51</ele>
        <time>2021-06-23T11:24:58Z</time>
      </trkpt>
      <trkpt lat="48.13543" lon="7.06385">
        <ele>1027.93</ele>
        <time>2021-06-23T11:25:00Z</time>
      </trkpt>
      <trkpt lat="48.13539" lon="7.06379">
        <ele>1027.94</ele>
        <time>2021-06-23T11:25:03Z</time>
      </trkpt>
      <trkpt lat="48.13534" lon="7.06374">
        <ele>1028.7</ele>
        <time>2021-06-23T11:25:05Z</time>
      </trkpt>
      <trkpt lat="48.1353" lon="7.06375">
        <ele>1029.92</ele>
        <time>2021-06-23T11:25:08Z</time>
      </trkpt>
      <trkpt lat="48.13525" lon="7.06376">
        <ele>1031.27</ele>
        <time>2021-06-23T11:25:11Z</time>
      </trkpt>
      <trkpt lat="48.13522" lon="7.0638">
        <ele>1032.67</ele>
        <time>2021-06-23T11:25:13Z</time>
      </trkpt>
      <trkpt lat="48.13521" lon="7.06397">
        <ele>1035.53</ele>
        <time>2021-06-23T11:25:16Z</time>
      </trkpt>
      <trkpt lat="48.13524" lon="7.0641">
        <ele>1036.49</ele>
        <time>2021-06-23T11:25:18Z</time>
      </trkpt>
      <trkpt lat="48.13547" lon="7.06459">
        <ele>1034.39</ele>
        <time>2021-06-23T11:25:21Z</time>
      </trkpt>
      <trkpt lat="48.13551" lon="7.06476">
        <ele>1034.76</ele>
        <time>2021-06-23T11:25:24Z</time>
      </trkpt>
      <trkpt lat="48.13555" lon="7.06522">
        <ele>1038.6</ele>
        <time>2021-06-23T11:25:26Z</time>
      </trkpt>
      <trkpt lat="48.13555" lon="7.06547">
        <ele>1041.14</ele>
        <time>2021-06-23T11:25:29Z</time>
      </trkpt>
      <trkpt lat="48.13554" lon="7.06565">
        <ele>1043.18</ele>
        <time>2021-06-23T11:25:32Z</time>
      </trkpt>
      <trkpt lat="48.1355" lon="7.06586">
        <ele>1045.26</ele>
        <time>2021-06-23T11:25:34Z</time>
      </trkpt>
      <trkpt lat="48.13511" lon="7.06703">
        <ele>1049.13</ele>
        <time>2021-06-23T11:25:37Z</time>
      </trkpt>
      <trkpt lat="48.13504" lon="7.06719">
        <ele>1049.94</ele>
        <time>2021-06-23T11:25:39Z</time>
      </trkpt>
      <trkpt lat="48.13497" lon="7.06732">
        <ele>1050.41</ele>
        <time>2021-06-23T11:25:42Z</time>
      </trkpt>
      <trkpt lat="48.13439" lon="7.06795">
        <ele>1056.54</ele>
        <time>2021-06-23T11:25:45Z</time>
      </trkpt>
      <trkpt lat="48.13424" lon="7.06815">
        <ele>1058.56</ele>
        <time>2021-06-23T11:25:47Z</time>
      </trkpt>
      <trkpt lat="48.13402" lon="7.06849">
        <ele>1060.5</ele>
        <time>2021-06-23T11:25:50Z</time>
      </trkpt>
      <trkpt lat="48.13391" lon="7.06885">
        <ele>1062.39</ele>
        <time>2021-06-23T11:25:52Z</time>
      </trkpt>
      <trkpt lat="48.13365" lon="7.07058">
        <ele>1067.47</ele>
        <time>2021-06-23T11:25:55Z</time>
      </trkpt>
      <trkpt lat="48.13357" lon="7.07128">
        <ele>1070.65</ele>
        <time>2021-06-23T11:25:58Z</time>
      </trkpt>
      <trkpt lat="48.13354" lon="7.0717">
        <ele>1072.87</ele>
        <time>2021-06-23T11:26:00Z</time>
      </trkpt>
      <trkpt lat="48.13357" lon="7.07373">
        <ele>1082.56</ele>
        <time>2021-06-23T11:26:03Z</time>
      </trkpt>
      <trkpt lat="48.13348" lon="7.07453">
        <ele>1094.29</ele>
        <time>2021-06-23T11:26:06Z</time>
      </trkpt>
      <trkpt lat="48.13352" lon="7.07473">
        <ele>1096.8</ele>
        <time>2021-06-23T11:26:08Z</time>
      </trkpt>
      <trkpt lat="48.13384" lon="7.07518">
        <ele>1095.1</ele>
        <time>2021-06-23T11:26:11Z</time>
      </trkpt>
      <trkpt lat="48.13434" lon="7.07627">
        <ele>1100.5</ele>
        <time>2021-06-23T11:26:13Z</time>
      </trkpt>
      <trkpt lat="48.13471" lon="7.07676">
        <ele>1104.69</ele>
        <time>2021-06-23T11:26:16Z</time>
      </trkpt>
      <trkpt lat="48.1356" lon="7.07768">
        <ele>1110.04</ele>
        <time>2021-06-23T11:26:19Z</time>
      </trkpt>
      <trkpt lat="48.13571" lon="7.07783">
        <ele>1110.86</ele>
        <time>2021-06-23T11:26:21Z</time>
      </trkpt>
      <trkpt lat="48.13597" lon="7.07826">
        <ele>1115.56</ele>
        <time>2021-06-23T11:26:24Z</time>
      </trkpt>
      <trkpt lat="48.13614" lon="7.07861">
        <ele>1118.27</ele>
        <time>2021-06-23T11:26:26Z</time>
      </trkpt>
      <trkpt lat="48.13657" lon="7.07995">
        <ele>1124.24</ele>
        <time>2021-06-23T11:26:29Z</time>
      </trkpt>
      <trkpt lat="48.13689" lon="7.08084">
        <ele>1127.56</ele>
        <time>2021-06-23T11:26:32Z</time>
      </trkpt>
      <trkpt lat="48.13699" lon="7.08118">
        <ele>1128.88</ele>
        <time>2021-06-23T11:26:34Z</time>
      </trkpt>
      <trkpt lat="48.13708" lon="7.0816">
        <ele>1131.66</ele>
        <time>2021-06-23T11:26:37Z</time>
      </trkpt>
      <trkpt lat="48.13713" lon="7.08288">
        <ele>1136.32</ele>
        <time>2021-06-23T11:26:40Z</time>
      </trkpt>
      <trkpt lat="48.13722" lon="7.08419">
        <ele>1137.01</ele>
        <time>2021-06-23T11:26:42Z</time>
      </trkpt>
      <trkpt lat="48.13723" lon="7.08533">
        <ele>1140.59</ele>
        <time>2021-06-23T11:26:45Z</time>
      </trkpt>
      <trkpt lat="48.13721" lon="7.08554">
        <ele>1140.35</ele>
        <time>2021-06-23T11:26:47Z</time>
      </trkpt>
      <trkpt lat="48.13706" lon="7.08626">
        <ele>1140.48</ele>
        <time>2021-06-23T11:26:50Z</time>
      </trkpt>
      <trkpt lat="48.13685" lon="7.08693">
        <ele>1143.79</ele>
        <time>2021-06-23T11:26:53Z</time>
      </trkpt>
      <trkpt lat="48.13675" lon="7.08733">
        <ele>1146.03</ele>
        <time>2021-06-23T11:26:55Z</time>
      </trkpt>
      <trkpt lat="48.13654" lon="7.08845">
        <ele>1147</ele>
        <time>2021-06-23T11:26:58Z</time>
      </trkpt>
      <trkpt lat="48.13648" lon="7.08852">
        <ele>1147</ele>
        <time>2021-06-23T11:26:59Z</time>
      </trkpt>
      <trkpt lat="48.13628" lon="7.08856">
        <ele>1147</ele>
        <time>2021-06-23T11:27:01Z</time>
      </trkpt>
      <trkpt lat="48.13617" lon="7.08863">
        <ele>1146.96</ele>
        <time>2021-06-23T11:27:02Z</time>
      </trkpt>
      <trkpt lat="48.13586" lon="7.08895">
        <ele>1144.21</ele>
        <time>2021-06-23T11:27:03Z</time>
      </trkpt>
      <trkpt lat="48.13563" lon="7.0893">
        <ele>1140.48</ele>
        <time>2021-06-23T11:27:05Z</time>
      </trkpt>
      <trkpt lat="48.13549" lon="7.08962">
        <ele>1137.35</ele>
        <time>2021-06-23T11:27:06Z</time>
      </trkpt>
      <trkpt lat="48.13535" lon="7.09003">
        <ele>1133.67</ele>
        <time>2021-06-23T11:27:08Z</time>
      </trkpt>
      <trkpt lat="48.13508" lon="7.0913">
        <ele>1127.36</ele>
        <time>2021-06-23T11:27:09Z</time>
      </trkpt>
      <trkpt lat="48.13496" lon="7.09175">
        <ele>1124.53</ele>
        <time>2021-06-23T11:27:10Z</time>
      </trkpt>
      <trkpt lat="48.13488" lon="7.09194">
        <ele>1121.61</ele>
        <time>2021-06-23T11:27:12Z</time>
      </trkpt>
      <trkpt lat="48.13488" lon="7.09194">
        <ele>1121.61</ele>
        <time>2021-06-23T11:27:12Z</time>
      </trkpt>
      <trkpt lat="48.13472" lon="7.09222">
        <ele>1120.02</ele>
        <time>2021-06-23T11:27:14Z</time>
      </trkpt>
      <trkpt lat="48.13447" lon="7.09254">
        <ele>1117.55</ele>
        <time>2021-06-23T11:27:15Z</time>
      </trkpt>
      <trkpt lat="48.13431" lon="7.09271">
        <ele>1116.29</ele>
        <time>2021-06-23T11:27:17Z</time>
      </trkpt>
      <trkpt lat="48.13421" lon="7.09279">
        <ele>1115.54</ele>
        <time>2021-06-23T11:27:19Z</time>
      </trkpt>
      <trkpt lat="48.13407" lon="7.09286">
        <ele>1113.57</ele>
        <time>2021-06-23T11:27:20Z</time>
      </trkpt>
      <trkpt lat="48.13383" lon="7.09288">
        <ele>1110</ele>
        <time>2021-06-23T11:27:22Z</time>
      </trkpt>
      <trkpt lat="48.1337" lon="7.09284">
        <ele>1108.21</ele>
        <time>2021-06-23T11:27:24Z</time>
      </trkpt>
      <trkpt lat="48.13343" lon="7.09263">
        <ele>1106.12</ele>
        <time>2021-06-23T11:27:26Z</time>
      </trkpt>
      <trkpt lat="48.13323" lon="7.09241">
        <ele>1104.46</ele>
        <time>2021-06-23T11:27:27Z</time>
      </trkpt>
      <trkpt lat="48.13315" lon="7.09235">
        <ele>1103.76</ele>
        <time>2021-06-23T11:27:29Z</time>
      </trkpt>
      <trkpt lat="48.13291" lon="7.09227">
        <ele>1102.94</ele>
        <time>2021-06-23T11:27:31Z</time>
      </trkpt>
      <trkpt lat="48.13221" lon="7.09219">
        <ele>1103.57</ele>
        <time>2021-06-23T11:27:32Z</time>
      </trkpt>
      <trkpt lat="48.13022" lon="7.09179">
        <ele>1099.02</ele>
        <time>2021-06-23T11:27:34Z</time>
      </trkpt>
      <trkpt lat="48.12994" lon="7.09176">
        <ele>1097.6</ele>
        <time>2021-06-23T11:27:36Z</time>
      </trkpt>
      <trkpt lat="48.12968" lon="7.09178">
        <ele>1096.82</ele>
        <time>2021-06-23T11:27:37Z</time>
      </trkpt>
      <trkpt lat="48.12948" lon="7.09182">
        <ele>1095.66</ele>
        <time>2021-06-23T11:27:39Z</time>
      </trkpt>
      <trkpt lat="48.1293" lon="7.09191">
        <ele>1094.87</ele>
        <time>2021-06-23T11:27:41Z</time>
      </trkpt>
      <trkpt lat="48.12903" lon="7.09213">
        <ele>1091.46</ele>
        <time>2021-06-23T11:27:43Z</time>
      </trkpt>
      <trkpt lat="48.1286" lon="7.09256">
        <ele>1086.34</ele>
        <time>2021-06-23T11:27:44Z</time>
      </trkpt>
      <trkpt lat="48.12775" lon="7.09361">
        <ele>1082.84</ele>
        <time>2021-06-23T11:27:46Z</time>
      </trkpt>
      <trkpt lat="48.12712" lon="7.09424">
        <ele>1076.43</ele>
        <time>2021-06-23T11:27:48Z</time>
      </trkpt>
      <trkpt lat="48.12687" lon="7.09444">
        <ele>1073.6</ele>
        <time>2021-06-23T11:27:49Z</time>
      </trkpt>
      <trkpt lat="48.12631" lon="7.09495">
        <ele>1070.38</ele>
        <time>2021-06-23T11:27:51Z</time>
      </trkpt>
      <trkpt lat="48.12608" lon="7.09523">
        <ele>1069.9</ele>
        <time>2021-06-23T11:27:53Z</time>
      </trkpt>
      <trkpt lat="48.12538" lon="7.09623">
        <ele>1056.52</ele>
        <time>2021-06-23T11:27:55Z</time>
      </trkpt>
      <trkpt lat="48.12513" lon="7.09665">
        <ele>1056.44</ele>
        <time>2021-06-23T11:27:56Z</time>
      </trkpt>
      <trkpt lat="48.12493" lon="7.09715">
        <ele>1061.91</ele>
        <time>2021-06-23T11:27:58Z</time>
      </trkpt>
      <trkpt lat="48.12485" lon="7.09729">
        <ele>1063.81</ele>
        <time>2021-06-23T11:28:00Z</time>
      </trkpt>
      <trkpt lat="48.1247" lon="7.09752">
        <ele>1063.28</ele>
        <time>2021-06-23T11:28:01Z</time>
      </trkpt>
      <trkpt lat="48.12451" lon="7.0977">
        <ele>1054.92</ele>
        <time>2021-06-23T11:28:03Z</time>
      </trkpt>
      <trkpt lat="48.12391" lon="7.09815">
        <ele>1043.16</ele>
        <time>2021-06-23T11:28:05Z</time>
      </trkpt>
      <trkpt lat="48.12382" lon="7.09825">
        <ele>1042.55</ele>
        <time>2021-06-23T11:28:06Z</time>
      </trkpt>
      <trkpt lat="48.12377" lon="7.09838">
        <ele>1041.4</ele>
        <time>2021-06-23T11:28:08Z</time>
      </trkpt>
      <trkpt lat="48.1237" lon="7.09862">
        <ele>1038.84</ele>
        <time>2021-06-23T11:28:10Z</time>
      </trkpt>
      <trkpt lat="48.12357" lon="7.09932">
        <ele>1027.17</ele>
        <time>2021-06-23T11:28:12Z</time>
      </trkpt>
      <trkpt lat="48.12345" lon="7.0997">
        <ele>1025.36</ele>
        <time>2021-06-23T11:28:13Z</time>
      </trkpt>
      <trkpt lat="48.12339" lon="7.09982">
        <ele>1026.07</ele>
        <time>2021-06-23T11:28:15Z</time>
      </trkpt>
      <trkpt lat="48.12325" lon="7.0999">
        <ele>1027.11</ele>
        <time>2021-06-23T11:28:17Z</time>
      </trkpt>
      <trkpt lat="48.12306" lon="7.09991">
        <ele>1027.32</ele>
        <time>2021-06-23T11:28:18Z</time>
      </trkpt>
      <trkpt lat="48.12285" lon="7.0998">
        <ele>1026.52</ele>
        <time>2021-06-23T11:28:20Z</time>
      </trkpt>
      <trkpt lat="48.12238" lon="7.09941">
        <ele>1025.01</ele>
        <time>2021-06-23T11:28:22Z</time>
      </trkpt>
      <trkpt lat="48.1222" lon="7.09936">
        <ele>1022.24</ele>
        <time>2021-06-23T11:28:24Z</time>
      </trkpt>
      <trkpt lat="48.12203" lon="7.09939">
        <ele>1021.67</ele>
        <time>2021-06-23T11:28:25Z</time>
      </trkpt>
      <trkpt lat="48.12189" lon="7.09947">
        <ele>1021.73</ele>
        <time>2021-06-23T11:28:27Z</time>
      </trkpt>
      <trkpt lat="48.12176" lon="7.0997">
        <ele>1021.87</ele>
        <time>2021-06-23T11:28:29Z</time>
      </trkpt>
      <trkpt lat="48.12168" lon="7.09993">
        <ele>1021.95</ele>
        <time>2021-06-23T11:28:30Z</time>
      </trkpt>
      <trkpt lat="48.12166" lon="7.1006">
        <ele>1020.41</ele>
        <time>2021-06-23T11:28:32Z</time>
      </trkpt>
      <trkpt lat="48.12175" lon="7.10132">
        <ele>1016.43</ele>
        <time>2021-06-23T11:28:34Z</time>
      </trkpt>
      <trkpt lat="48.12184" lon="7.10167">
        <ele>1014.53</ele>
        <time>2021-06-23T11:28:35Z</time>
      </trkpt>
      <trkpt lat="48.12195" lon="7.102">
        <ele>1014.42</ele>
        <time>2021-06-23T11:28:37Z</time>
      </trkpt>
      <trkpt lat="48.12225" lon="7.10252">
        <ele>1015.82</ele>
        <time>2021-06-23T11:28:39Z</time>
      </trkpt>
      <trkpt lat="48.12262" lon="7.1031">
        <ele>1013.65</ele>
        <time>2021-06-23T11:28:41Z</time>
      </trkpt>
      <trkpt lat="48.12291" lon="7.10371">
        <ele>1009.17</ele>
        <time>2021-06-23T11:28:42Z</time>
      </trkpt>
      <trkpt lat="48.12304" lon="7.10426">
        <ele>1002.92</ele>
        <time>2021-06-23T11:28:44Z</time>
      </trkpt>
      <trkpt lat="48.12298" lon="7.10478">
        <ele>999.39</ele>
        <time>2021-06-23T11:28:46Z</time>
      </trkpt>
      <trkpt lat="48.12281" lon="7.10527">
        <ele>999.62</ele>
        <time>2021-06-23T11:28:47Z</time>
      </trkpt>
      <trkpt lat="48.12248" lon="7.10604">
        <ele>1000.14</ele>
        <time>2021-06-23T11:28:49Z</time>
      </trkpt>
      <trkpt lat="48.12205" lon="7.10689">
        <ele>1005.08</ele>
        <time>2021-06-23T11:28:51Z</time>
      </trkpt>
      <trkpt lat="48.12202" lon="7.10687">
        <ele>1005.82</ele>
        <time>2021-06-23T11:28:54Z</time>
      </trkpt>
      <trkpt lat="48.12196" lon="7.10689">
        <ele>1006.48</ele>
        <time>2021-06-23T11:28:56Z</time>
      </trkpt>
      <trkpt lat="48.12159" lon="7.10758">
        <ele>1006.72</ele>
        <time>2021-06-23T11:28:59Z</time>
      </trkpt>
      <trkpt lat="48.12129" lon="7.10798">
        <ele>1006.27</ele>
        <time>2021-06-23T11:29:02Z</time>
      </trkpt>
      <trkpt lat="48.12114" lon="7.10807">
        <ele>1006.7</ele>
        <time>2021-06-23T11:29:05Z</time>
      </trkpt>
      <trkpt lat="48.12096" lon="7.10808">
        <ele>1007.99</ele>
        <time>2021-06-23T11:29:07Z</time>
      </trkpt>
      <trkpt lat="48.12096" lon="7.10808">
        <ele>1007.99</ele>
        <time>2021-06-23T11:29:07Z</time>
      </trkpt>
      <trkpt lat="48.12092" lon="7.10807">
        <ele>1008.26</ele>
        <time>2021-06-23T11:29:09Z</time>
      </trkpt>
      <trkpt lat="48.12061" lon="7.10787">
        <ele>1009.38</ele>
        <time>2021-06-23T11:29:11Z</time>
      </trkpt>
      <trkpt lat="48.12049" lon="7.10789">
        <ele>1008.69</ele>
        <time>2021-06-23T11:29:13Z</time>
      </trkpt>
      <trkpt lat="48.12014" lon="7.1076">
        <ele>1011.99</ele>
        <time>2021-06-23T11:29:16Z</time>
      </trkpt>
      <trkpt lat="48.11989" lon="7.10731">
        <ele>1015.83</ele>
        <time>2021-06-23T11:29:19Z</time>
      </trkpt>
      <trkpt lat="48.11969" lon="7.10715">
        <ele>1015.09</ele>
        <time>2021-06-23T11:29:22Z</time>
      </trkpt>
      <trkpt lat="48.11946" lon="7.10701">
        <ele>1012.36</ele>
        <time>2021-06-23T11:29:25Z</time>
      </trkpt>
      <trkpt lat="48.11907" lon="7.10683">
        <ele>1006.29</ele>
        <time>2021-06-23T11:29:28Z</time>
      </trkpt>
      <trkpt lat="48.11889" lon="7.10672">
        <ele>1005.68</ele>
        <time>2021-06-23T11:29:31Z</time>
      </trkpt>
      <trkpt lat="48.11843" lon="7.10627">
        <ele>1002.85</ele>
        <time>2021-06-23T11:29:33Z</time>
      </trkpt>
      <trkpt lat="48.11781" lon="7.10571">
        <ele>992.18</ele>
        <time>2021-06-23T11:29:36Z</time>
      </trkpt>
      <trkpt lat="48.1161" lon="7.10396">
        <ele>975.11</ele>
        <time>2021-06-23T11:29:39Z</time>
      </trkpt>
      <trkpt lat="48.11586" lon="7.10375">
        <ele>972.95</ele>
        <time>2021-06-23T11:29:42Z</time>
      </trkpt>
      <trkpt lat="48.11539" lon="7.10346">
        <ele>974.74</ele>
        <time>2021-06-23T11:29:45Z</time>
      </trkpt>
      <trkpt lat="48.11516" lon="7.10336">
        <ele>977.8</ele>
        <time>2021-06-23T11:29:48Z</time>
      </trkpt>
      <trkpt lat="48.11501" lon="7.10335">
        <ele>978.32</ele>
        <time>2021-06-23T11:29:51Z</time>
      </trkpt>
      <trkpt lat="48.1147" lon="7.10344">
        <ele>971.24</ele>
        <time>2021-06-23T11:29:54Z</time>
      </trkpt>
      <trkpt lat="48.11457" lon="7.10346">
        <ele>968.93</ele>
        <time>2021-06-23T11:29:57Z</time>
      </trkpt>
      <trkpt lat="48.11444" lon="7.10343">
        <ele>968.35</ele>
        <time>2021-06-23T11:30:00Z</time>
      </trkpt>
      <trkpt lat="48.11431" lon="7.10338">
        <ele>969.8</ele>
        <time>2021-06-23T11:30:03Z</time>
      </trkpt>
      <trkpt lat="48.11416" lon="7.10327">
        <ele>971.81</ele>
        <time>2021-06-23T11:30:05Z</time>
      </trkpt>
      <trkpt lat="48.11374" lon="7.10288">
        <ele>970.94</ele>
        <time>2021-06-23T11:30:08Z</time>
      </trkpt>
      <trkpt lat="48.11355" lon="7.10266">
        <ele>969.47</ele>
        <time>2021-06-23T11:30:11Z</time>
      </trkpt>
      <trkpt lat="48.11338" lon="7.1024">
        <ele>969.18</ele>
        <time>2021-06-23T11:30:14Z</time>
      </trkpt>
      <trkpt lat="48.11318" lon="7.10202">
        <ele>969.62</ele>
        <time>2021-06-23T11:30:17Z</time>
      </trkpt>
      <trkpt lat="48.11303" lon="7.10165">
        <ele>968.29</ele>
        <time>2021-06-23T11:30:20Z</time>
      </trkpt>
      <trkpt lat="48.11276" lon="7.10064">
        <ele>964.26</ele>
        <time>2021-06-23T11:30:23Z</time>
      </trkpt>
      <trkpt lat="48.1127" lon="7.10032">
        <ele>958.28</ele>
        <time>2021-06-23T11:30:26Z</time>
      </trkpt>
      <trkpt lat="48.11269" lon="7.10008">
        <ele>955.03</ele>
        <time>2021-06-23T11:30:29Z</time>
      </trkpt>
      <trkpt lat="48.11271" lon="7.09993">
        <ele>953.27</ele>
        <time>2021-06-23T11:30:32Z</time>
      </trkpt>
      <trkpt lat="48.11247" lon="7.09996">
        <ele>951.55</ele>
        <time>2021-06-23T11:30:34Z</time>
      </trkpt>
      <trkpt lat="48.11237" lon="7.09997">
        <ele>951.97</ele>
        <time>2021-06-23T11:30:35Z</time>
      </trkpt>
      <trkpt lat="48.11226" lon="7.10001">
        <ele>953.15</ele>
        <time>2021-06-23T11:30:37Z</time>
      </trkpt>
      <trkpt lat="48.11222" lon="7.10006">
        <ele>954.35</ele>
        <time>2021-06-23T11:30:39Z</time>
      </trkpt>
      <trkpt lat="48.11216" lon="7.09992">
        <ele>955.34</ele>
        <time>2021-06-23T11:30:51Z</time>
      </trkpt>
      <trkpt lat="48.11189" lon="7.09957">
        <ele>959.59</ele>
        <time>2021-06-23T11:31:02Z</time>
      </trkpt>
      <trkpt lat="48.11171" lon="7.09922">
        <ele>960.85</ele>
        <time>2021-06-23T11:31:14Z</time>
      </trkpt>
      <trkpt lat="48.11149" lon="7.09866">
        <ele>962.16</ele>
        <time>2021-06-23T11:31:25Z</time>
      </trkpt>
      <trkpt lat="48.11132" lon="7.09826">
        <ele>963.1</ele>
        <time>2021-06-23T11:31:37Z</time>
      </trkpt>
      <trkpt lat="48.11087" lon="7.097">
        <ele>978.46</ele>
        <time>2021-06-23T11:31:49Z</time>
      </trkpt>
      <trkpt lat="48.11078" lon="7.09662">
        <ele>981.65</ele>
        <time>2021-06-23T11:32:00Z</time>
      </trkpt>
      <trkpt lat="48.11075" lon="7.09626">
        <ele>983.53</ele>
        <time>2021-06-23T11:32:12Z</time>
      </trkpt>
      <trkpt lat="48.11079" lon="7.09568">
        <ele>984.16</ele>
        <time>2021-06-23T11:32:23Z</time>
      </trkpt>
      <trkpt lat="48.11079" lon="7.09568">
        <ele>984.16</ele>
        <time>2021-06-23T11:32:23Z</time>
      </trkpt>
      <trkpt lat="48.11075" lon="7.09626">
        <ele>983.53</ele>
        <time>2021-06-23T11:32:35Z</time>
      </trkpt>
      <trkpt lat="48.11078" lon="7.09662">
        <ele>981.65</ele>
        <time>2021-06-23T11:32:46Z</time>
      </trkpt>
      <trkpt lat="48.11087" lon="7.097">
        <ele>978.46</ele>
        <time>2021-06-23T11:32:58Z</time>
      </trkpt>
      <trkpt lat="48.11132" lon="7.09826">
        <ele>963.1</ele>
        <time>2021-06-23T11:33:09Z</time>
      </trkpt>
      <trkpt lat="48.11149" lon="7.09866">
        <ele>962.16</ele>
        <time>2021-06-23T11:33:21Z</time>
      </trkpt>
      <trkpt lat="48.11171" lon="7.09922">
        <ele>960.85</ele>
        <time>2021-06-23T11:33:32Z</time>
      </trkpt>
      <trkpt lat="48.11189" lon="7.09957">
        <ele>959.59</ele>
        <time>2021-06-23T11:33:44Z</time>
      </trkpt>
      <trkpt lat="48.11216" lon="7.09992">
        <ele>955.34</ele>
        <time>2021-06-23T11:33:56Z</time>
      </trkpt>
      <trkpt lat="48.11222" lon="7.10006">
        <ele>954.35</ele>
        <time>2021-06-23T11:34:07Z</time>
      </trkpt>
      <trkpt lat="48.11226" lon="7.10001">
        <ele>953.15</ele>
        <time>2021-06-23T11:34:08Z</time>
      </trkpt>
      <trkpt lat="48.11237" lon="7.09997">
        <ele>951.97</ele>
        <time>2021-06-23T11:34:09Z</time>
      </trkpt>
      <trkpt lat="48.11247" lon="7.09996">
        <ele>951.55</ele>
        <time>2021-06-23T11:34:10Z</time>
      </trkpt>
      <trkpt lat="48.11263" lon="7.10021">
        <ele>955.5</ele>
        <time>2021-06-23T11:34:13Z</time>
      </trkpt>
      <trkpt lat="48.1127" lon="7.10032">
        <ele>958.28</ele>
        <time>2021-06-23T11:34:16Z</time>
      </trkpt>
      <trkpt lat="48.11276" lon="7.10064">
        <ele>964.26</ele>
        <time>2021-06-23T11:34:19Z</time>
      </trkpt>
      <trkpt lat="48.11303" lon="7.10165">
        <ele>968.29</ele>
        <time>2021-06-23T11:34:21Z</time>
      </trkpt>
      <trkpt lat="48.11318" lon="7.10202">
        <ele>969.62</ele>
        <time>2021-06-23T11:34:24Z</time>
      </trkpt>
      <trkpt lat="48.11338" lon="7.1024">
        <ele>969.18</ele>
        <time>2021-06-23T11:34:27Z</time>
      </trkpt>
      <trkpt lat="48.11355" lon="7.10266">
        <ele>969.47</ele>
        <time>2021-06-23T11:34:30Z</time>
      </trkpt>
      <trkpt lat="48.11374" lon="7.10288">
        <ele>970.94</ele>
        <time>2021-06-23T11:34:33Z</time>
      </trkpt>
      <trkpt lat="48.11416" lon="7.10327">
        <ele>971.81</ele>
        <time>2021-06-23T11:34:35Z</time>
      </trkpt>
      <trkpt lat="48.11431" lon="7.10338">
        <ele>969.8</ele>
        <time>2021-06-23T11:34:38Z</time>
      </trkpt>
      <trkpt lat="48.11444" lon="7.10343">
        <ele>968.35</ele>
        <time>2021-06-23T11:34:41Z</time>
      </trkpt>
      <trkpt lat="48.11457" lon="7.10346">
        <ele>968.93</ele>
        <time>2021-06-23T11:34:44Z</time>
      </trkpt>
      <trkpt lat="48.1147" lon="7.10344">
        <ele>971.24</ele>
        <time>2021-06-23T11:34:47Z</time>
      </trkpt>
      <trkpt lat="48.11501" lon="7.10335">
        <ele>978.32</ele>
        <time>2021-06-23T11:34:50Z</time>
      </trkpt>
      <trkpt lat="48.11516" lon="7.10336">
        <ele>977.8</ele>
        <time>2021-06-23T11:34:52Z</time>
      </trkpt>
      <trkpt lat="48.11539" lon="7.10346">
        <ele>974.74</ele>
        <time>2021-06-23T11:34:55Z</time>
      </trkpt>
      <trkpt lat="48.11586" lon="7.10375">
        <ele>972.95</ele>
        <time>2021-06-23T11:34:58Z</time>
      </trkpt>
      <trkpt lat="48.1161" lon="7.10396">
        <ele>975.11</ele>
        <time>2021-06-23T11:35:01Z</time>
      </trkpt>
      <trkpt lat="48.11781" lon="7.10571">
        <ele>992.18</ele>
        <time>2021-06-23T11:35:04Z</time>
      </trkpt>
      <trkpt lat="48.11843" lon="7.10627">
        <ele>1002.85</ele>
        <time>2021-06-23T11:35:06Z</time>
      </trkpt>
      <trkpt lat="48.11889" lon="7.10672">
        <ele>1005.68</ele>
        <time>2021-06-23T11:35:09Z</time>
      </trkpt>
      <trkpt lat="48.11907" lon="7.10683">
        <ele>1006.29</ele>
        <time>2021-06-23T11:35:12Z</time>
      </trkpt>
      <trkpt lat="48.11946" lon="7.10701">
        <ele>1012.36</ele>
        <time>2021-06-23T11:35:15Z</time>
      </trkpt>
      <trkpt lat="48.11969" lon="7.10715">
        <ele>1015.09</ele>
        <time>2021-06-23T11:35:18Z</time>
      </trkpt>
      <trkpt lat="48.11989" lon="7.10731">
        <ele>1015.83</ele>
        <time>2021-06-23T11:35:21Z</time>
      </trkpt>
      <trkpt lat="48.12014" lon="7.1076">
        <ele>1011.99</ele>
        <time>2021-06-23T11:35:23Z</time>
      </trkpt>
      <trkpt lat="48.12049" lon="7.10789">
        <ele>1008.69</ele>
        <time>2021-06-23T11:35:26Z</time>
      </trkpt>
      <trkpt lat="48.12064" lon="7.10807">
        <ele>1008.19</ele>
        <time>2021-06-23T11:35:29Z</time>
      </trkpt>
      <trkpt lat="48.12071" lon="7.10824">
        <ele>1006.57</ele>
        <time>2021-06-23T11:35:32Z</time>
      </trkpt>
      <trkpt lat="48.12086" lon="7.10905">
        <ele>999.99</ele>
        <time>2021-06-23T11:35:35Z</time>
      </trkpt>
      <trkpt lat="48.12091" lon="7.10921">
        <ele>999.53</ele>
        <time>2021-06-23T11:35:37Z</time>
      </trkpt>
      <trkpt lat="48.12114" lon="7.10967">
        <ele>997.29</ele>
        <time>2021-06-23T11:35:40Z</time>
      </trkpt>
      <trkpt lat="48.12119" lon="7.1098">
        <ele>995.39</ele>
        <time>2021-06-23T11:35:43Z</time>
      </trkpt>
      <trkpt lat="48.12137" lon="7.11049">
        <ele>990.73</ele>
        <time>2021-06-23T11:35:46Z</time>
      </trkpt>
      <trkpt lat="48.1211" lon="7.11102">
        <ele>988.47</ele>
        <time>2021-06-23T11:35:47Z</time>
      </trkpt>
      <trkpt lat="48.12099" lon="7.11114">
        <ele>986.67</ele>
        <time>2021-06-23T11:35:49Z</time>
      </trkpt>
      <trkpt lat="48.1205" lon="7.11139">
        <ele>975.22</ele>
        <time>2021-06-23T11:35:51Z</time>
      </trkpt>
      <trkpt lat="48.12033" lon="7.11154">
        <ele>971.94</ele>
        <time>2021-06-23T11:35:52Z</time>
      </trkpt>
      <trkpt lat="48.11975" lon="7.11225">
        <ele>963.04</ele>
        <time>2021-06-23T11:35:54Z</time>
      </trkpt>
      <trkpt lat="48.11967" lon="7.11238">
        <ele>962.72</ele>
        <time>2021-06-23T11:35:55Z</time>
      </trkpt>
      <trkpt lat="48.11962" lon="7.11253">
        <ele>963.03</ele>
        <time>2021-06-23T11:35:57Z</time>
      </trkpt>
      <trkpt lat="48.1196" lon="7.11264">
        <ele>963.17</ele>
        <time>2021-06-23T11:35:58Z</time>
      </trkpt>
      <trkpt lat="48.11959" lon="7.11276">
        <ele>963.66</ele>
        <time>2021-06-23T11:36:00Z</time>
      </trkpt>
      <trkpt lat="48.11961" lon="7.11287">
        <ele>963.3</ele>
        <time>2021-06-23T11:36:01Z</time>
      </trkpt>
      <trkpt lat="48.11968" lon="7.11305">
        <ele>963.06</ele>
        <time>2021-06-23T11:36:03Z</time>
      </trkpt>
      <trkpt lat="48.11985" lon="7.11322">
        <ele>964.17</ele>
        <time>2021-06-23T11:36:04Z</time>
      </trkpt>
      <trkpt lat="48.11998" lon="7.11331">
        <ele>965.22</ele>
        <time>2021-06-23T11:36:06Z</time>
      </trkpt>
      <trkpt lat="48.12087" lon="7.11367">
        <ele>967.23</ele>
        <time>2021-06-23T11:36:07Z</time>
      </trkpt>
      <trkpt lat="48.12109" lon="7.11379">
        <ele>967.31</ele>
        <time>2021-06-23T11:36:09Z</time>
      </trkpt>
      <trkpt lat="48.1224" lon="7.11487">
        <ele>950.48</ele>
        <time>2021-06-23T11:36:11Z</time>
      </trkpt>
      <trkpt lat="48.12256" lon="7.11508">
        <ele>948.05</ele>
        <time>2021-06-23T11:36:12Z</time>
      </trkpt>
      <trkpt lat="48.12265" lon="7.11532">
        <ele>946.49</ele>
        <time>2021-06-23T11:36:14Z</time>
      </trkpt>
      <trkpt lat="48.12287" lon="7.11623">
        <ele>942.03</ele>
        <time>2021-06-23T11:36:15Z</time>
      </trkpt>
      <trkpt lat="48.12294" lon="7.11647">
        <ele>938.84</ele>
        <time>2021-06-23T11:36:17Z</time>
      </trkpt>
      <trkpt lat="48.12322" lon="7.117">
        <ele>926.46</ele>
        <time>2021-06-23T11:36:18Z</time>
      </trkpt>
      <trkpt lat="48.12333" lon="7.11715">
        <ele>924.29</ele>
        <time>2021-06-23T11:36:20Z</time>
      </trkpt>
      <trkpt lat="48.12348" lon="7.11728">
        <ele>922.04</ele>
        <time>2021-06-23T11:36:21Z</time>
      </trkpt>
      <trkpt lat="48.12382" lon="7.1175">
        <ele>921.57</ele>
        <time>2021-06-23T11:36:23Z</time>
      </trkpt>
      <trkpt lat="48.12426" lon="7.11776">
        <ele>922.78</ele>
        <time>2021-06-23T11:36:24Z</time>
      </trkpt>
      <trkpt lat="48.1246" lon="7.1179">
        <ele>919.32</ele>
        <time>2021-06-23T11:36:26Z</time>
      </trkpt>
      <trkpt lat="48.1253" lon="7.11814">
        <ele>910.29</ele>
        <time>2021-06-23T11:36:27Z</time>
      </trkpt>
      <trkpt lat="48.12557" lon="7.11827">
        <ele>904.58</ele>
        <time>2021-06-23T11:36:29Z</time>
      </trkpt>
      <trkpt lat="48.12574" lon="7.11845">
        <ele>901.74</ele>
        <time>2021-06-23T11:36:30Z</time>
      </trkpt>
      <trkpt lat="48.12597" lon="7.11887">
        <ele>898.78</ele>
        <time>2021-06-23T11:36:32Z</time>
      </trkpt>
      <trkpt lat="48.12604" lon="7.11916">
        <ele>900.35</ele>
        <time>2021-06-23T11:36:34Z</time>
      </trkpt>
      <trkpt lat="48.12607" lon="7.11947">
        <ele>899.29</ele>
        <time>2021-06-23T11:36:35Z</time>
      </trkpt>
      <trkpt lat="48.12606" lon="7.11978">
        <ele>897.56</ele>
        <time>2021-06-23T11:36:37Z</time>
      </trkpt>
      <trkpt lat="48.12597" lon="7.12013">
        <ele>896.06</ele>
        <time>2021-06-23T11:36:38Z</time>
      </trkpt>
      <trkpt lat="48.12597" lon="7.12013">
        <ele>896.06</ele>
        <time>2021-06-23T11:36:38Z</time>
      </trkpt>
      <trkpt lat="48.12586" lon="7.1204">
        <ele>896.23</ele>
        <time>2021-06-23T11:36:40Z</time>
      </trkpt>
      <trkpt lat="48.12553" lon="7.12096">
        <ele>891.32</ele>
        <time>2021-06-23T11:36:42Z</time>
      </trkpt>
      <trkpt lat="48.12539" lon="7.12115">
        <ele>887.31</ele>
        <time>2021-06-23T11:36:44Z</time>
      </trkpt>
      <trkpt lat="48.1252" lon="7.12129">
        <ele>885.31</ele>
        <time>2021-06-23T11:36:46Z</time>
      </trkpt>
      <trkpt lat="48.12505" lon="7.12134">
        <ele>884.57</ele>
        <time>2021-06-23T11:36:48Z</time>
      </trkpt>
      <trkpt lat="48.12481" lon="7.12136">
        <ele>883.07</ele>
        <time>2021-06-23T11:36:50Z</time>
      </trkpt>
      <trkpt lat="48.12468" lon="7.12132">
        <ele>882.86</ele>
        <time>2021-06-23T11:36:52Z</time>
      </trkpt>
      <trkpt lat="48.12457" lon="7.12126">
        <ele>883.32</ele>
        <time>2021-06-23T11:36:54Z</time>
      </trkpt>
      <trkpt lat="48.12427" lon="7.12104">
        <ele>883.55</ele>
        <time>2021-06-23T11:36:56Z</time>
      </trkpt>
      <trkpt lat="48.12383" lon="7.12065">
        <ele>884.68</ele>
        <time>2021-06-23T11:36:58Z</time>
      </trkpt>
      <trkpt lat="48.12353" lon="7.12019">
        <ele>881.76</ele>
        <time>2021-06-23T11:37:00Z</time>
      </trkpt>
      <trkpt lat="48.12327" lon="7.11974">
        <ele>878.69</ele>
        <time>2021-06-23T11:37:02Z</time>
      </trkpt>
      <trkpt lat="48.12281" lon="7.11879">
        <ele>868.35</ele>
        <time>2021-06-23T11:37:04Z</time>
      </trkpt>
      <trkpt lat="48.12269" lon="7.11863">
        <ele>868.47</ele>
        <time>2021-06-23T11:37:06Z</time>
      </trkpt>
      <trkpt lat="48.1225" lon="7.11849">
        <ele>867.3</ele>
        <time>2021-06-23T11:37:08Z</time>
      </trkpt>
      <trkpt lat="48.12192" lon="7.1182">
        <ele>860.66</ele>
        <time>2021-06-23T11:37:10Z</time>
      </trkpt>
      <trkpt lat="48.12157" lon="7.11807">
        <ele>857.49</ele>
        <time>2021-06-23T11:37:12Z</time>
      </trkpt>
      <trkpt lat="48.12129" lon="7.11788">
        <ele>855.69</ele>
        <time>2021-06-23T11:37:14Z</time>
      </trkpt>
      <trkpt lat="48.12051" lon="7.11722">
        <ele>851.38</ele>
        <time>2021-06-23T11:37:16Z</time>
      </trkpt>
      <trkpt lat="48.11993" lon="7.11677">
        <ele>853.52</ele>
        <time>2021-06-23T11:37:18Z</time>
      </trkpt>
      <trkpt lat="48.11979" lon="7.11669">
        <ele>852.91</ele>
        <time>2021-06-23T11:37:20Z</time>
      </trkpt>
      <trkpt lat="48.11917" lon="7.11651">
        <ele>847.1</ele>
        <time>2021-06-23T11:37:22Z</time>
      </trkpt>
      <trkpt lat="48.11841" lon="7.11648">
        <ele>834.36</ele>
        <time>2021-06-23T11:37:24Z</time>
      </trkpt>
      <trkpt lat="48.11783" lon="7.11629">
        <ele>830.97</ele>
        <time>2021-06-23T11:37:26Z</time>
      </trkpt>
      <trkpt lat="48.11748" lon="7.11614">
        <ele>827.14</ele>
        <time>2021-06-23T11:37:28Z</time>
      </trkpt>
      <trkpt lat="48.11711" lon="7.11587">
        <ele>823.79</ele>
        <time>2021-06-23T11:37:30Z</time>
      </trkpt>
      <trkpt lat="48.11684" lon="7.1156">
        <ele>821.52</ele>
        <time>2021-06-23T11:37:32Z</time>
      </trkpt>
      <trkpt lat="48.11648" lon="7.11511">
        <ele>818.42</ele>
        <time>2021-06-23T11:37:34Z</time>
      </trkpt>
      <trkpt lat="48.11583" lon="7.11397">
        <ele>813.07</ele>
        <time>2021-06-23T11:37:36Z</time>
      </trkpt>
      <trkpt lat="48.11527" lon="7.11263">
        <ele>802.39</ele>
        <time>2021-06-23T11:37:38Z</time>
      </trkpt>
      <trkpt lat="48.11516" lon="7.11244">
        <ele>799.89</ele>
        <time>2021-06-23T11:37:40Z</time>
      </trkpt>
      <trkpt lat="48.11507" lon="7.11234">
        <ele>798.24</ele>
        <time>2021-06-23T11:37:42Z</time>
      </trkpt>
      <trkpt lat="48.11494" lon="7.11224">
        <ele>796.95</ele>
        <time>2021-06-23T11:37:44Z</time>
      </trkpt>
      <trkpt lat="48.11472" lon="7.11213">
        <ele>796.74</ele>
        <time>2021-06-23T11:37:46Z</time>
      </trkpt>
      <trkpt lat="48.11368" lon="7.11165">
        <ele>794.2</ele>
        <time>2021-06-23T11:37:48Z</time>
      </trkpt>
      <trkpt lat="48.11339" lon="7.11156">
        <ele>789.74</ele>
        <time>2021-06-23T11:37:50Z</time>
      </trkpt>
      <trkpt lat="48.11326" lon="7.11157">
        <ele>787.81</ele>
        <time>2021-06-23T11:37:51Z</time>
      </trkpt>
      <trkpt lat="48.11307" lon="7.11165">
        <ele>786.59</ele>
        <time>2021-06-23T11:37:53Z</time>
      </trkpt>
      <trkpt lat="48.11307" lon="7.11165">
        <ele>786.59</ele>
        <time>2021-06-23T11:37:53Z</time>
      </trkpt>
      <trkpt lat="48.11299" lon="7.11169">
        <ele>785.37</ele>
        <time>2021-06-23T11:37:57Z</time>
      </trkpt>
      <trkpt lat="48.11287" lon="7.11178">
        <ele>785.39</ele>
        <time>2021-06-23T11:38:00Z</time>
      </trkpt>
      <trkpt lat="48.11275" lon="7.11192">
        <ele>784.49</ele>
        <time>2021-06-23T11:38:04Z</time>
      </trkpt>
      <trkpt lat="48.11221" lon="7.11308">
        <ele>776.99</ele>
        <time>2021-06-23T11:38:07Z</time>
      </trkpt>
      <trkpt lat="48.11197" lon="7.11342">
        <ele>776.93</ele>
        <time>2021-06-23T11:38:11Z</time>
      </trkpt>
      <trkpt lat="48.11182" lon="7.11357">
        <ele>775.38</ele>
        <time>2021-06-23T11:38:14Z</time>
      </trkpt>
      <trkpt lat="48.11165" lon="7.11367">
        <ele>774.15</ele>
        <time>2021-06-23T11:38:18Z</time>
      </trkpt>
      <trkpt lat="48.11101" lon="7.11395">
        <ele>767.09</ele>
        <time>2021-06-23T11:38:21Z</time>
      </trkpt>
      <trkpt lat="48.11089" lon="7.11377">
        <ele>766.74</ele>
        <time>2021-06-23T11:38:23Z</time>
      </trkpt>
      <trkpt lat="48.11075" lon="7.11373">
        <ele>766.91</ele>
        <time>2021-06-23T11:38:25Z</time>
      </trkpt>
      <trkpt lat="48.11066" lon="7.11372">
        <ele>767.27</ele>
        <time>2021-06-23T11:38:27Z</time>
      </trkpt>
      <trkpt lat="48.11023" lon="7.11386">
        <ele>767.19</ele>
        <time>2021-06-23T11:38:30Z</time>
      </trkpt>
      <trkpt lat="48.11008" lon="7.11388">
        <ele>767.05</ele>
        <time>2021-06-23T11:38:32Z</time>
      </trkpt>
      <trkpt lat="48.1098" lon="7.11381">
        <ele>767.07</ele>
        <time>2021-06-23T11:38:34Z</time>
      </trkpt>
      <trkpt lat="48.10942" lon="7.11357">
        <ele>768.37</ele>
        <time>2021-06-23T11:38:36Z</time>
      </trkpt>
      <trkpt lat="48.10932" lon="7.11353">
        <ele>769.18</ele>
        <time>2021-06-23T11:38:38Z</time>
      </trkpt>
      <trkpt lat="48.10924" lon="7.11353">
        <ele>769.78</ele>
        <time>2021-06-23T11:38:40Z</time>
      </trkpt>
      <trkpt lat="48.10915" lon="7.11359">
        <ele>770.27</ele>
        <time>2021-06-23T11:38:42Z</time>
      </trkpt>
      <trkpt lat="48.10908" lon="7.11375">
        <ele>770.47</ele>
        <time>2021-06-23T11:38:45Z</time>
      </trkpt>
      <trkpt lat="48.10905" lon="7.1142">
        <ele>770.81</ele>
        <time>2021-06-23T11:38:47Z</time>
      </trkpt>
      <trkpt lat="48.109" lon="7.11655">
        <ele>773.14</ele>
        <time>2021-06-23T11:38:49Z</time>
      </trkpt>
      <trkpt lat="48.10905" lon="7.11757">
        <ele>770.47</ele>
        <time>2021-06-23T11:38:51Z</time>
      </trkpt>
      <trkpt lat="48.10901" lon="7.11782">
        <ele>769.95</ele>
        <time>2021-06-23T11:38:53Z</time>
      </trkpt>
      <trkpt lat="48.1089" lon="7.11806">
        <ele>768.89</ele>
        <time>2021-06-23T11:38:55Z</time>
      </trkpt>
      <trkpt lat="48.10882" lon="7.11811">
        <ele>768.31</ele>
        <time>2021-06-23T11:38:57Z</time>
      </trkpt>
      <trkpt lat="48.10872" lon="7.11812">
        <ele>768.19</ele>
        <time>2021-06-23T11:38:59Z</time>
      </trkpt>
      <trkpt lat="48.10834" lon="7.11803">
        <ele>771.37</ele>
        <time>2021-06-23T11:39:02Z</time>
      </trkpt>
      <trkpt lat="48.10817" lon="7.11807">
        <ele>772.33</ele>
        <time>2021-06-23T11:39:04Z</time>
      </trkpt>
      <trkpt lat="48.10777" lon="7.1183">
        <ele>772.03</ele>
        <time>2021-06-23T11:39:06Z</time>
      </trkpt>
      <trkpt lat="48.10717" lon="7.11856">
        <ele>770.93</ele>
        <time>2021-06-23T11:39:08Z</time>
      </trkpt>
      <trkpt lat="48.10706" lon="7.11867">
        <ele>769.66</ele>
        <time>2021-06-23T11:39:10Z</time>
      </trkpt>
      <trkpt lat="48.10691" lon="7.11891">
        <ele>767.78</ele>
        <time>2021-06-23T11:39:12Z</time>
      </trkpt>
      <trkpt lat="48.10684" lon="7.11906">
        <ele>768.39</ele>
        <time>2021-06-23T11:39:14Z</time>
      </trkpt>
      <trkpt lat="48.10679" lon="7.11924">
        <ele>768.53</ele>
        <time>2021-06-23T11:39:17Z</time>
      </trkpt>
      <trkpt lat="48.10673" lon="7.11966">
        <ele>768.09</ele>
        <time>2021-06-23T11:39:19Z</time>
      </trkpt>
      <trkpt lat="48.1067" lon="7.11973">
        <ele>768.23</ele>
        <time>2021-06-23T11:39:21Z</time>
      </trkpt>
      <trkpt lat="48.10666" lon="7.11975">
        <ele>768.75</ele>
        <time>2021-06-23T11:39:23Z</time>
      </trkpt>
      <trkpt lat="48.106" lon="7.11986">
        <ele>771.73</ele>
        <time>2021-06-23T11:39:25Z</time>
      </trkpt>
      <trkpt lat="48.10587" lon="7.11992">
        <ele>771.97</ele>
        <time>2021-06-23T11:39:27Z</time>
      </trkpt>
      <trkpt lat="48.10582" lon="7.11999">
        <ele>771.37</ele>
        <time>2021-06-23T11:39:29Z</time>
      </trkpt>
      <trkpt lat="48.10579" lon="7.12009">
        <ele>770.73</ele>
        <time>2021-06-23T11:39:31Z</time>
      </trkpt>
      <trkpt lat="48.10578" lon="7.1202">
        <ele>769.55</ele>
        <time>2021-06-23T11:39:34Z</time>
      </trkpt>
      <trkpt lat="48.10587" lon="7.12224">
        <ele>780.27</ele>
        <time>2021-06-23T11:39:36Z</time>
      </trkpt>
      <trkpt lat="48.10585" lon="7.12238">
        <ele>781.28</ele>
        <time>2021-06-23T11:39:38Z</time>
      </trkpt>
      <trkpt lat="48.10582" lon="7.12252">
        <ele>781.89</ele>
        <time>2021-06-23T11:39:40Z</time>
      </trkpt>
      <trkpt lat="48.10577" lon="7.12261">
        <ele>781.51</ele>
        <time>2021-06-23T11:39:42Z</time>
      </trkpt>
      <trkpt lat="48.10489" lon="7.1234">
        <ele>781.06</ele>
        <time>2021-06-23T11:39:44Z</time>
      </trkpt>
      <trkpt lat="48.10443" lon="7.12375">
        <ele>784.66</ele>
        <time>2021-06-23T11:39:46Z</time>
      </trkpt>
      <trkpt lat="48.10426" lon="7.12382">
        <ele>787.65</ele>
        <time>2021-06-23T11:39:48Z</time>
      </trkpt>
      <trkpt lat="48.10366" lon="7.12392">
        <ele>791.6</ele>
        <time>2021-06-23T11:39:49Z</time>
      </trkpt>
      <trkpt lat="48.10344" lon="7.12404">
        <ele>790.65</ele>
        <time>2021-06-23T11:39:51Z</time>
      </trkpt>
      <trkpt lat="48.103" lon="7.12448">
        <ele>790.33</ele>
        <time>2021-06-23T11:39:53Z</time>
      </trkpt>
      <trkpt lat="48.10258" lon="7.12499">
        <ele>794.81</ele>
        <time>2021-06-23T11:39:55Z</time>
      </trkpt>
      <trkpt lat="48.10247" lon="7.12518">
        <ele>796.06</ele>
        <time>2021-06-23T11:39:56Z</time>
      </trkpt>
      <trkpt lat="48.10231" lon="7.12552">
        <ele>798.76</ele>
        <time>2021-06-23T11:39:58Z</time>
      </trkpt>
      <trkpt lat="48.10211" lon="7.12603">
        <ele>805.83</ele>
        <time>2021-06-23T11:40:00Z</time>
      </trkpt>
      <trkpt lat="48.10196" lon="7.12677">
        <ele>805.8</ele>
        <time>2021-06-23T11:40:02Z</time>
      </trkpt>
      <trkpt lat="48.10176" lon="7.12758">
        <ele>810.84</ele>
        <time>2021-06-23T11:40:04Z</time>
      </trkpt>
      <trkpt lat="48.10134" lon="7.12888">
        <ele>817.23</ele>
        <time>2021-06-23T11:40:05Z</time>
      </trkpt>
      <trkpt lat="48.10122" lon="7.12909">
        <ele>816.07</ele>
        <time>2021-06-23T11:40:07Z</time>
      </trkpt>
      <trkpt lat="48.10104" lon="7.12926">
        <ele>815.98</ele>
        <time>2021-06-23T11:40:09Z</time>
      </trkpt>
      <trkpt lat="48.10075" lon="7.12939">
        <ele>818.17</ele>
        <time>2021-06-23T11:40:11Z</time>
      </trkpt>
      <trkpt lat="48.10036" lon="7.12945">
        <ele>822.77</ele>
        <time>2021-06-23T11:40:12Z</time>
      </trkpt>
      <trkpt lat="48.10025" lon="7.1295">
        <ele>822.41</ele>
        <time>2021-06-23T11:40:14Z</time>
      </trkpt>
      <trkpt lat="48.10009" lon="7.12966">
        <ele>819.62</ele>
        <time>2021-06-23T11:40:16Z</time>
      </trkpt>
      <trkpt lat="48.09993" lon="7.12973">
        <ele>819.53</ele>
        <time>2021-06-23T11:40:18Z</time>
      </trkpt>
      <trkpt lat="48.09982" lon="7.12974">
        <ele>820.54</ele>
        <time>2021-06-23T11:40:20Z</time>
      </trkpt>
      <trkpt lat="48.09952" lon="7.12966">
        <ele>821.27</ele>
        <time>2021-06-23T11:40:21Z</time>
      </trkpt>
      <trkpt lat="48.09952" lon="7.12966">
        <ele>821.27</ele>
        <time>2021-06-23T11:40:21Z</time>
      </trkpt>
      <trkpt lat="48.0994" lon="7.12963">
        <ele>821.99</ele>
        <time>2021-06-23T11:40:23Z</time>
      </trkpt>
      <trkpt lat="48.09924" lon="7.12954">
        <ele>821.23</ele>
        <time>2021-06-23T11:40:25Z</time>
      </trkpt>
      <trkpt lat="48.09904" lon="7.12937">
        <ele>820.62</ele>
        <time>2021-06-23T11:40:27Z</time>
      </trkpt>
      <trkpt lat="48.09889" lon="7.12915">
        <ele>821.21</ele>
        <time>2021-06-23T11:40:29Z</time>
      </trkpt>
      <trkpt lat="48.09844" lon="7.12814">
        <ele>826.14</ele>
        <time>2021-06-23T11:40:31Z</time>
      </trkpt>
      <trkpt lat="48.09813" lon="7.12708">
        <ele>830.41</ele>
        <time>2021-06-23T11:40:33Z</time>
      </trkpt>
      <trkpt lat="48.09781" lon="7.12646">
        <ele>833.71</ele>
        <time>2021-06-23T11:40:35Z</time>
      </trkpt>
      <trkpt lat="48.09707" lon="7.12463">
        <ele>837.71</ele>
        <time>2021-06-23T11:40:37Z</time>
      </trkpt>
      <trkpt lat="48.09673" lon="7.12399">
        <ele>837.26</ele>
        <time>2021-06-23T11:40:38Z</time>
      </trkpt>
      <trkpt lat="48.09663" lon="7.12371">
        <ele>837.84</ele>
        <time>2021-06-23T11:40:40Z</time>
      </trkpt>
      <trkpt lat="48.09654" lon="7.12337">
        <ele>837.96</ele>
        <time>2021-06-23T11:40:42Z</time>
      </trkpt>
      <trkpt lat="48.0963" lon="7.12242">
        <ele>835.09</ele>
        <time>2021-06-23T11:40:44Z</time>
      </trkpt>
      <trkpt lat="48.0955" lon="7.11851">
        <ele>840.29</ele>
        <time>2021-06-23T11:40:46Z</time>
      </trkpt>
      <trkpt lat="48.09544" lon="7.11831">
        <ele>841.91</ele>
        <time>2021-06-23T11:40:48Z</time>
      </trkpt>
      <trkpt lat="48.09536" lon="7.11817">
        <ele>844.68</ele>
        <time>2021-06-23T11:40:50Z</time>
      </trkpt>
      <trkpt lat="48.09524" lon="7.11809">
        <ele>848.11</ele>
        <time>2021-06-23T11:40:52Z</time>
      </trkpt>
      <trkpt lat="48.09515" lon="7.11807">
        <ele>851.41</ele>
        <time>2021-06-23T11:40:54Z</time>
      </trkpt>
      <trkpt lat="48.09507" lon="7.11809">
        <ele>853.18</ele>
        <time>2021-06-23T11:40:55Z</time>
      </trkpt>
      <trkpt lat="48.09491" lon="7.11818">
        <ele>856.48</ele>
        <time>2021-06-23T11:40:57Z</time>
      </trkpt>
      <trkpt lat="48.09457" lon="7.11853">
        <ele>862.95</ele>
        <time>2021-06-23T11:40:59Z</time>
      </trkpt>
      <trkpt lat="48.09445" lon="7.11867">
        <ele>865.66</ele>
        <time>2021-06-23T11:41:01Z</time>
      </trkpt>
      <trkpt lat="48.09438" lon="7.11881">
        <ele>865.71</ele>
        <time>2021-06-23T11:41:03Z</time>
      </trkpt>
      <trkpt lat="48.09411" lon="7.11952">
        <ele>864.72</ele>
        <time>2021-06-23T11:41:05Z</time>
      </trkpt>
      <trkpt lat="48.09404" lon="7.11976">
        <ele>863.17</ele>
        <time>2021-06-23T11:41:07Z</time>
      </trkpt>
      <trkpt lat="48.09399" lon="7.12006">
        <ele>860.87</ele>
        <time>2021-06-23T11:41:09Z</time>
      </trkpt>
      <trkpt lat="48.09395" lon="7.12052">
        <ele>858.36</ele>
        <time>2021-06-23T11:41:11Z</time>
      </trkpt>
      <trkpt lat="48.09386" lon="7.12095">
        <ele>858.97</ele>
        <time>2021-06-23T11:41:12Z</time>
      </trkpt>
      <trkpt lat="48.09371" lon="7.12139">
        <ele>863.19</ele>
        <time>2021-06-23T11:41:14Z</time>
      </trkpt>
      <trkpt lat="48.09343" lon="7.12211">
        <ele>863.98</ele>
        <time>2021-06-23T11:41:16Z</time>
      </trkpt>
      <trkpt lat="48.09329" lon="7.12237">
        <ele>864.91</ele>
        <time>2021-06-23T11:41:18Z</time>
      </trkpt>
      <trkpt lat="48.09317" lon="7.12252">
        <ele>866.17</ele>
        <time>2021-06-23T11:41:20Z</time>
      </trkpt>
      <trkpt lat="48.09294" lon="7.12275">
        <ele>866.65</ele>
        <time>2021-06-23T11:41:22Z</time>
      </trkpt>
      <trkpt lat="48.09245" lon="7.12301">
        <ele>865.52</ele>
        <time>2021-06-23T11:41:24Z</time>
      </trkpt>
      <trkpt lat="48.0923" lon="7.12301">
        <ele>865.05</ele>
        <time>2021-06-23T11:41:26Z</time>
      </trkpt>
      <trkpt lat="48.09217" lon="7.12295">
        <ele>865.38</ele>
        <time>2021-06-23T11:41:28Z</time>
      </trkpt>
      <trkpt lat="48.09201" lon="7.12276">
        <ele>866.89</ele>
        <time>2021-06-23T11:41:29Z</time>
      </trkpt>
      <trkpt lat="48.09187" lon="7.12248">
        <ele>867.55</ele>
        <time>2021-06-23T11:41:31Z</time>
      </trkpt>
      <trkpt lat="48.09177" lon="7.12213">
        <ele>867.52</ele>
        <time>2021-06-23T11:41:33Z</time>
      </trkpt>
      <trkpt lat="48.09163" lon="7.12145">
        <ele>868.24</ele>
        <time>2021-06-23T11:41:35Z</time>
      </trkpt>
      <trkpt lat="48.09146" lon="7.12025">
        <ele>871.91</ele>
        <time>2021-06-23T11:41:37Z</time>
      </trkpt>
      <trkpt lat="48.09127" lon="7.11866">
        <ele>885.32</ele>
        <time>2021-06-23T11:41:39Z</time>
      </trkpt>
      <trkpt lat="48.09124" lon="7.1185">
        <ele>888.09</ele>
        <time>2021-06-23T11:41:41Z</time>
      </trkpt>
      <trkpt lat="48.09119" lon="7.11842">
        <ele>889.45</ele>
        <time>2021-06-23T11:41:43Z</time>
      </trkpt>
      <trkpt lat="48.09109" lon="7.11837">
        <ele>890.08</ele>
        <time>2021-06-23T11:41:45Z</time>
      </trkpt>
      <trkpt lat="48.09058" lon="7.11836">
        <ele>886.65</ele>
        <time>2021-06-23T11:41:46Z</time>
      </trkpt>
      <trkpt lat="48.09007" lon="7.11821">
        <ele>885.99</ele>
        <time>2021-06-23T11:41:48Z</time>
      </trkpt>
      <trkpt lat="48.08928" lon="7.11771">
        <ele>890.3</ele>
        <time>2021-06-23T11:41:50Z</time>
      </trkpt>
      <trkpt lat="48.0883" lon="7.11707">
        <ele>887.09</ele>
        <time>2021-06-23T11:41:52Z</time>
      </trkpt>
      <trkpt lat="48.08819" lon="7.11696">
        <ele>887.45</ele>
        <time>2021-06-23T11:41:54Z</time>
      </trkpt>
      <trkpt lat="48.08808" lon="7.11671">
        <ele>887.22</ele>
        <time>2021-06-23T11:41:56Z</time>
      </trkpt>
      <trkpt lat="48.08798" lon="7.11638">
        <ele>887.29</ele>
        <time>2021-06-23T11:41:58Z</time>
      </trkpt>
      <trkpt lat="48.08798" lon="7.11638">
        <ele>887.29</ele>
        <time>2021-06-23T11:41:58Z</time>
      </trkpt>
      <trkpt lat="48.08792" lon="7.11619">
        <ele>887.37</ele>
        <time>2021-06-23T11:41:58Z</time>
      </trkpt>
      <trkpt lat="48.08772" lon="7.11634">
        <ele>886.13</ele>
        <time>2021-06-23T11:42:01Z</time>
      </trkpt>
      <trkpt lat="48.08749" lon="7.11655">
        <ele>888.26</ele>
        <time>2021-06-23T11:42:03Z</time>
      </trkpt>
      <trkpt lat="48.08713" lon="7.117">
        <ele>892.97</ele>
        <time>2021-06-23T11:42:06Z</time>
      </trkpt>
      <trkpt lat="48.08698" lon="7.11726">
        <ele>895.12</ele>
        <time>2021-06-23T11:42:08Z</time>
      </trkpt>
      <trkpt lat="48.08634" lon="7.11856">
        <ele>902.82</ele>
        <time>2021-06-23T11:42:11Z</time>
      </trkpt>
      <trkpt lat="48.08627" lon="7.11878">
        <ele>903.44</ele>
        <time>2021-06-23T11:42:13Z</time>
      </trkpt>
      <trkpt lat="48.08623" lon="7.11902">
        <ele>904.21</ele>
        <time>2021-06-23T11:42:16Z</time>
      </trkpt>
      <trkpt lat="48.08622" lon="7.1192">
        <ele>904.99</ele>
        <time>2021-06-23T11:42:19Z</time>
      </trkpt>
      <trkpt lat="48.08635" lon="7.12045">
        <ele>909.45</ele>
        <time>2021-06-23T11:42:21Z</time>
      </trkpt>
      <trkpt lat="48.08629" lon="7.12111">
        <ele>911.39</ele>
        <time>2021-06-23T11:42:24Z</time>
      </trkpt>
      <trkpt lat="48.08633" lon="7.122">
        <ele>915.37</ele>
        <time>2021-06-23T11:42:26Z</time>
      </trkpt>
      <trkpt lat="48.08629" lon="7.12266">
        <ele>916.4</ele>
        <time>2021-06-23T11:42:29Z</time>
      </trkpt>
      <trkpt lat="48.08626" lon="7.12292">
        <ele>918.09</ele>
        <time>2021-06-23T11:42:31Z</time>
      </trkpt>
      <trkpt lat="48.08616" lon="7.12337">
        <ele>921.98</ele>
        <time>2021-06-23T11:42:34Z</time>
      </trkpt>
      <trkpt lat="48.0861" lon="7.12409">
        <ele>923.6</ele>
        <time>2021-06-23T11:42:36Z</time>
      </trkpt>
      <trkpt lat="48.08595" lon="7.12457">
        <ele>925.41</ele>
        <time>2021-06-23T11:42:39Z</time>
      </trkpt>
      <trkpt lat="48.08586" lon="7.1248">
        <ele>927.17</ele>
        <time>2021-06-23T11:42:41Z</time>
      </trkpt>
      <trkpt lat="48.08576" lon="7.12499">
        <ele>928.08</ele>
        <time>2021-06-23T11:42:44Z</time>
      </trkpt>
      <trkpt lat="48.08557" lon="7.12525">
        <ele>929.12</ele>
        <time>2021-06-23T11:42:46Z</time>
      </trkpt>
      <trkpt lat="48.08532" lon="7.12545">
        <ele>930.7</ele>
        <time>2021-06-23T11:42:49Z</time>
      </trkpt>
      <trkpt lat="48.08425" lon="7.12594">
        <ele>933.27</ele>
        <time>2021-06-23T11:42:51Z</time>
      </trkpt>
      <trkpt lat="48.08361" lon="7.12609">
        <ele>934.24</ele>
        <time>2021-06-23T11:42:54Z</time>
      </trkpt>
      <trkpt lat="48.08351" lon="7.12608">
        <ele>933.92</ele>
        <time>2021-06-23T11:42:56Z</time>
      </trkpt>
      <trkpt lat="48.08333" lon="7.12602">
        <ele>934</ele>
        <time>2021-06-23T11:42:59Z</time>
      </trkpt>
      <trkpt lat="48.08295" lon="7.12573">
        <ele>937.8</ele>
        <time>2021-06-23T11:43:01Z</time>
      </trkpt>
      <trkpt lat="48.08281" lon="7.12565">
        <ele>938.71</ele>
        <time>2021-06-23T11:43:04Z</time>
      </trkpt>
      <trkpt lat="48.08267" lon="7.12562">
        <ele>937.37</ele>
        <time>2021-06-23T11:43:06Z</time>
      </trkpt>
      <trkpt lat="48.08246" lon="7.12567">
        <ele>933.64</ele>
        <time>2021-06-23T11:43:09Z</time>
      </trkpt>
      <trkpt lat="48.08213" lon="7.12594">
        <ele>927.54</ele>
        <time>2021-06-23T11:43:11Z</time>
      </trkpt>
      <trkpt lat="48.082" lon="7.12602">
        <ele>926.9</ele>
        <time>2021-06-23T11:43:14Z</time>
      </trkpt>
      <trkpt lat="48.08191" lon="7.12603">
        <ele>926.98</ele>
        <time>2021-06-23T11:43:16Z</time>
      </trkpt>
      <trkpt lat="48.08097" lon="7.12591">
        <ele>932.74</ele>
        <time>2021-06-23T11:43:19Z</time>
      </trkpt>
      <trkpt lat="48.0808" lon="7.1259">
        <ele>933.29</ele>
        <time>2021-06-23T11:43:21Z</time>
      </trkpt>
      <trkpt lat="48.08068" lon="7.12594">
        <ele>934.36</ele>
        <time>2021-06-23T11:43:24Z</time>
      </trkpt>
      <trkpt lat="48.08062" lon="7.126">
        <ele>935.03</ele>
        <time>2021-06-23T11:43:27Z</time>
      </trkpt>
      <trkpt lat="48.08057" lon="7.12609">
        <ele>935.83</ele>
        <time>2021-06-23T11:43:29Z</time>
      </trkpt>
      <trkpt lat="48.08052" lon="7.12627">
        <ele>936.39</ele>
        <time>2021-06-23T11:43:32Z</time>
      </trkpt>
      <trkpt lat="48.08052" lon="7.1265">
        <ele>936.13</ele>
        <time>2021-06-23T11:43:34Z</time>
      </trkpt>
      <trkpt lat="48.08059" lon="7.127">
        <ele>935.45</ele>
        <time>2021-06-23T11:43:37Z</time>
      </trkpt>
      <trkpt lat="48.0806" lon="7.12739">
        <ele>936.41</ele>
        <time>2021-06-23T11:43:39Z</time>
      </trkpt>
      <trkpt lat="48.08053" lon="7.12811">
        <ele>939.18</ele>
        <time>2021-06-23T11:43:42Z</time>
      </trkpt>
      <trkpt lat="48.08048" lon="7.12841">
        <ele>938.82</ele>
        <time>2021-06-23T11:43:44Z</time>
      </trkpt>
      <trkpt lat="48.0804" lon="7.12864">
        <ele>939.47</ele>
        <time>2021-06-23T11:43:47Z</time>
      </trkpt>
      <trkpt lat="48.08024" lon="7.12891">
        <ele>941.76</ele>
        <time>2021-06-23T11:43:49Z</time>
      </trkpt>
      <trkpt lat="48.07992" lon="7.12939">
        <ele>943.05</ele>
        <time>2021-06-23T11:43:52Z</time>
      </trkpt>
      <trkpt lat="48.07982" lon="7.12968">
        <ele>942.78</ele>
        <time>2021-06-23T11:43:54Z</time>
      </trkpt>
      <trkpt lat="48.07977" lon="7.13023">
        <ele>943.11</ele>
        <time>2021-06-23T11:43:57Z</time>
      </trkpt>
      <trkpt lat="48.0797" lon="7.1307">
        <ele>944.85</ele>
        <time>2021-06-23T11:43:59Z</time>
      </trkpt>
      <trkpt lat="48.07964" lon="7.13092">
        <ele>945.6</ele>
        <time>2021-06-23T11:44:02Z</time>
      </trkpt>
      <trkpt lat="48.07941" lon="7.13158">
        <ele>950.75</ele>
        <time>2021-06-23T11:44:04Z</time>
      </trkpt>
      <trkpt lat="48.07939" lon="7.13185">
        <ele>952.79</ele>
        <time>2021-06-23T11:44:07Z</time>
      </trkpt>
      <trkpt lat="48.07942" lon="7.13215">
        <ele>954.56</ele>
        <time>2021-06-23T11:44:09Z</time>
      </trkpt>
      <trkpt lat="48.07948" lon="7.1323">
        <ele>955.74</ele>
        <time>2021-06-23T11:44:12Z</time>
      </trkpt>
      <trkpt lat="48.08035" lon="7.1339">
        <ele>968.12</ele>
        <time>2021-06-23T11:44:14Z</time>
      </trkpt>
      <trkpt lat="48.08074" lon="7.1344">
        <ele>969.89</ele>
        <time>2021-06-23T11:44:17Z</time>
      </trkpt>
      <trkpt lat="48.08091" lon="7.13467">
        <ele>970.06</ele>
        <time>2021-06-23T11:44:19Z</time>
      </trkpt>
      <trkpt lat="48.08179" lon="7.13647">
        <ele>977.46</ele>
        <time>2021-06-23T11:44:22Z</time>
      </trkpt>
      <trkpt lat="48.08202" lon="7.13714">
        <ele>985.67</ele>
        <time>2021-06-23T11:44:24Z</time>
      </trkpt>
      <trkpt lat="48.08214" lon="7.13738">
        <ele>985.79</ele>
        <time>2021-06-23T11:44:27Z</time>
      </trkpt>
      <trkpt lat="48.08226" lon="7.13761">
        <ele>984.78</ele>
        <time>2021-06-23T11:44:29Z</time>
      </trkpt>
      <trkpt lat="48.08322" lon="7.13912">
        <ele>984.39</ele>
        <time>2021-06-23T11:44:32Z</time>
      </trkpt>
      <trkpt lat="48.08336" lon="7.13936">
        <ele>984.21</ele>
        <time>2021-06-23T11:44:35Z</time>
      </trkpt>
      <trkpt lat="48.08341" lon="7.13949">
        <ele>984.1</ele>
        <time>2021-06-23T11:44:37Z</time>
      </trkpt>
      <trkpt lat="48.08343" lon="7.13966">
        <ele>983.79</ele>
        <time>2021-06-23T11:44:40Z</time>
      </trkpt>
      <trkpt lat="48.08341" lon="7.13979">
        <ele>984.14</ele>
        <time>2021-06-23T11:44:42Z</time>
      </trkpt>
      <trkpt lat="48.08335" lon="7.13992">
        <ele>985.04</ele>
        <time>2021-06-23T11:44:45Z</time>
      </trkpt>
      <trkpt lat="48.08323" lon="7.14002">
        <ele>987.55</ele>
        <time>2021-06-23T11:44:47Z</time>
      </trkpt>
      <trkpt lat="48.08306" lon="7.14002">
        <ele>991.53</ele>
        <time>2021-06-23T11:44:50Z</time>
      </trkpt>
      <trkpt lat="48.08261" lon="7.1399">
        <ele>995.44</ele>
        <time>2021-06-23T11:44:52Z</time>
      </trkpt>
      <trkpt lat="48.08234" lon="7.13987">
        <ele>997.77</ele>
        <time>2021-06-23T11:44:55Z</time>
      </trkpt>
      <trkpt lat="48.08222" lon="7.13988">
        <ele>998.21</ele>
        <time>2021-06-23T11:44:57Z</time>
      </trkpt>
      <trkpt lat="48.08171" lon="7.14001">
        <ele>997.53</ele>
        <time>2021-06-23T11:45:00Z</time>
      </trkpt>
      <trkpt lat="48.08157" lon="7.14008">
        <ele>997.88</ele>
        <time>2021-06-23T11:45:02Z</time>
      </trkpt>
      <trkpt lat="48.08138" lon="7.14022">
        <ele>998.1</ele>
        <time>2021-06-23T11:45:05Z</time>
      </trkpt>
      <trkpt lat="48.08117" lon="7.14043">
        <ele>997.67</ele>
        <time>2021-06-23T11:45:07Z</time>
      </trkpt>
      <trkpt lat="48.08101" lon="7.14064">
        <ele>996.4</ele>
        <time>2021-06-23T11:45:10Z</time>
      </trkpt>
      <trkpt lat="48.08089" lon="7.14084">
        <ele>995.2</ele>
        <time>2021-06-23T11:45:12Z</time>
      </trkpt>
      <trkpt lat="48.08081" lon="7.14107">
        <ele>993.67</ele>
        <time>2021-06-23T11:45:15Z</time>
      </trkpt>
      <trkpt lat="48.08073" lon="7.14136">
        <ele>994.17</ele>
        <time>2021-06-23T11:45:17Z</time>
      </trkpt>
      <trkpt lat="48.08057" lon="7.1422">
        <ele>990.21</ele>
        <time>2021-06-23T11:45:20Z</time>
      </trkpt>
      <trkpt lat="48.08052" lon="7.14235">
        <ele>989.13</ele>
        <time>2021-06-23T11:45:22Z</time>
      </trkpt>
      <trkpt lat="48.08046" lon="7.14248">
        <ele>988.31</ele>
        <time>2021-06-23T11:45:25Z</time>
      </trkpt>
      <trkpt lat="48.08028" lon="7.14268">
        <ele>987.31</ele>
        <time>2021-06-23T11:45:27Z</time>
      </trkpt>
      <trkpt lat="48.08016" lon="7.14276">
        <ele>987.1</ele>
        <time>2021-06-23T11:45:30Z</time>
      </trkpt>
      <trkpt lat="48.07953" lon="7.14303">
        <ele>986.84</ele>
        <time>2021-06-23T11:45:32Z</time>
      </trkpt>
      <trkpt lat="48.0794" lon="7.14316">
        <ele>984.92</ele>
        <time>2021-06-23T11:45:35Z</time>
      </trkpt>
      <trkpt lat="48.07929" lon="7.14336">
        <ele>982.88</ele>
        <time>2021-06-23T11:45:37Z</time>
      </trkpt>
      <trkpt lat="48.07929" lon="7.14336">
        <ele>982.88</ele>
        <time>2021-06-23T11:45:37Z</time>
      </trkpt>
      <trkpt lat="48.07923" lon="7.14353">
        <ele>979.05</ele>
        <time>2021-06-23T11:45:39Z</time>
      </trkpt>
      <trkpt lat="48.07912" lon="7.14356">
        <ele>978.63</ele>
        <time>2021-06-23T11:45:41Z</time>
      </trkpt>
      <trkpt lat="48.07904" lon="7.14353">
        <ele>979.1</ele>
        <time>2021-06-23T11:45:43Z</time>
      </trkpt>
      <trkpt lat="48.07898" lon="7.14346">
        <ele>979.6</ele>
        <time>2021-06-23T11:45:45Z</time>
      </trkpt>
      <trkpt lat="48.07893" lon="7.14335">
        <ele>980.05</ele>
        <time>2021-06-23T11:45:47Z</time>
      </trkpt>
      <trkpt lat="48.07879" lon="7.14298">
        <ele>981.93</ele>
        <time>2021-06-23T11:45:50Z</time>
      </trkpt>
      <trkpt lat="48.07848" lon="7.14176">
        <ele>977.89</ele>
        <time>2021-06-23T11:45:52Z</time>
      </trkpt>
      <trkpt lat="48.07835" lon="7.14136">
        <ele>979.22</ele>
        <time>2021-06-23T11:45:54Z</time>
      </trkpt>
      <trkpt lat="48.07828" lon="7.14119">
        <ele>979.68</ele>
        <time>2021-06-23T11:45:56Z</time>
      </trkpt>
      <trkpt lat="48.07817" lon="7.141">
        <ele>978.85</ele>
        <time>2021-06-23T11:45:58Z</time>
      </trkpt>
      <trkpt lat="48.07806" lon="7.14086">
        <ele>976.93</ele>
        <time>2021-06-23T11:46:01Z</time>
      </trkpt>
      <trkpt lat="48.07739" lon="7.14019">
        <ele>966.81</ele>
        <time>2021-06-23T11:46:03Z</time>
      </trkpt>
      <trkpt lat="48.07731" lon="7.14008">
        <ele>965.83</ele>
        <time>2021-06-23T11:46:05Z</time>
      </trkpt>
      <trkpt lat="48.07724" lon="7.13993">
        <ele>965.7</ele>
        <time>2021-06-23T11:46:07Z</time>
      </trkpt>
      <trkpt lat="48.07713" lon="7.1396">
        <ele>965.86</ele>
        <time>2021-06-23T11:46:09Z</time>
      </trkpt>
      <trkpt lat="48.0771" lon="7.13941">
        <ele>965.6</ele>
        <time>2021-06-23T11:46:12Z</time>
      </trkpt>
      <trkpt lat="48.07709" lon="7.13921">
        <ele>964.47</ele>
        <time>2021-06-23T11:46:14Z</time>
      </trkpt>
      <trkpt lat="48.07722" lon="7.13811">
        <ele>958.42</ele>
        <time>2021-06-23T11:46:16Z</time>
      </trkpt>
      <trkpt lat="48.07724" lon="7.13776">
        <ele>957.59</ele>
        <time>2021-06-23T11:46:18Z</time>
      </trkpt>
      <trkpt lat="48.07721" lon="7.13759">
        <ele>957.26</ele>
        <time>2021-06-23T11:46:21Z</time>
      </trkpt>
      <trkpt lat="48.07713" lon="7.13724">
        <ele>954.46</ele>
        <time>2021-06-23T11:46:23Z</time>
      </trkpt>
      <trkpt lat="48.0769" lon="7.1365">
        <ele>949.55</ele>
        <time>2021-06-23T11:46:25Z</time>
      </trkpt>
      <trkpt lat="48.07681" lon="7.13626">
        <ele>950.07</ele>
        <time>2021-06-23T11:46:27Z</time>
      </trkpt>
      <trkpt lat="48.07668" lon="7.13602">
        <ele>949.97</ele>
        <time>2021-06-23T11:46:29Z</time>
      </trkpt>
      <trkpt lat="48.07617" lon="7.13532">
        <ele>946.72</ele>
        <time>2021-06-23T11:46:32Z</time>
      </trkpt>
      <trkpt lat="48.0758" lon="7.13489">
        <ele>947.96</ele>
        <time>2021-06-23T11:46:34Z</time>
      </trkpt>
      <trkpt lat="48.07569" lon="7.13481">
        <ele>949.05</ele>
        <time>2021-06-23T11:46:36Z</time>
      </trkpt>
      <trkpt lat="48.07558" lon="7.13476">
        <ele>949.57</ele>
        <time>2021-06-23T11:46:38Z</time>
      </trkpt>
      <trkpt lat="48.07535" lon="7.13476">
        <ele>945.32</ele>
        <time>2021-06-23T11:46:40Z</time>
      </trkpt>
      <trkpt lat="48.07523" lon="7.13479">
        <ele>942.46</ele>
        <time>2021-06-23T11:46:43Z</time>
      </trkpt>
      <trkpt lat="48.07512" lon="7.13485">
        <ele>939.77</ele>
        <time>2021-06-23T11:46:45Z</time>
      </trkpt>
      <trkpt lat="48.07475" lon="7.13513">
        <ele>926.9</ele>
        <time>2021-06-23T11:46:47Z</time>
      </trkpt>
      <trkpt lat="48.07466" lon="7.13516">
        <ele>924.82</ele>
        <time>2021-06-23T11:46:49Z</time>
      </trkpt>
      <trkpt lat="48.07457" lon="7.13515">
        <ele>923.38</ele>
        <time>2021-06-23T11:46:51Z</time>
      </trkpt>
      <trkpt lat="48.07449" lon="7.1351">
        <ele>923.42</ele>
        <time>2021-06-23T11:46:54Z</time>
      </trkpt>
      <trkpt lat="48.07438" lon="7.13491">
        <ele>924.48</ele>
        <time>2021-06-23T11:46:56Z</time>
      </trkpt>
      <trkpt lat="48.07409" lon="7.13402">
        <ele>930.9</ele>
        <time>2021-06-23T11:46:58Z</time>
      </trkpt>
      <trkpt lat="48.07398" lon="7.13377">
        <ele>931.79</ele>
        <time>2021-06-23T11:47:00Z</time>
      </trkpt>
      <trkpt lat="48.07375" lon="7.13333">
        <ele>933.47</ele>
        <time>2021-06-23T11:47:02Z</time>
      </trkpt>
      <trkpt lat="48.07354" lon="7.13305">
        <ele>931.34</ele>
        <time>2021-06-23T11:47:05Z</time>
      </trkpt>
      <trkpt lat="48.07327" lon="7.1328">
        <ele>925.96</ele>
        <time>2021-06-23T11:47:07Z</time>
      </trkpt>
      <trkpt lat="48.0727" lon="7.13247">
        <ele>921.47</ele>
        <time>2021-06-23T11:47:09Z</time>
      </trkpt>
      <trkpt lat="48.07257" lon="7.13243">
        <ele>920.25</ele>
        <time>2021-06-23T11:47:11Z</time>
      </trkpt>
      <trkpt lat="48.07227" lon="7.13239">
        <ele>917.56</ele>
        <time>2021-06-23T11:47:13Z</time>
      </trkpt>
      <trkpt lat="48.07159" lon="7.13243">
        <ele>911.56</ele>
        <time>2021-06-23T11:47:16Z</time>
      </trkpt>
      <trkpt lat="48.07071" lon="7.13255">
        <ele>900.86</ele>
        <time>2021-06-23T11:47:18Z</time>
      </trkpt>
      <trkpt lat="48.06946" lon="7.13279">
        <ele>883.71</ele>
        <time>2021-06-23T11:47:20Z</time>
      </trkpt>
      <trkpt lat="48.06889" lon="7.13283">
        <ele>877.83</ele>
        <time>2021-06-23T11:47:22Z</time>
      </trkpt>
      <trkpt lat="48.06877" lon="7.13286">
        <ele>876.28</ele>
        <time>2021-06-23T11:47:25Z</time>
      </trkpt>
      <trkpt lat="48.06853" lon="7.13298">
        <ele>871.71</ele>
        <time>2021-06-23T11:47:27Z</time>
      </trkpt>
      <trkpt lat="48.06811" lon="7.13329">
        <ele>863.32</ele>
        <time>2021-06-23T11:47:29Z</time>
      </trkpt>
      <trkpt lat="48.06788" lon="7.13342">
        <ele>860.46</ele>
        <time>2021-06-23T11:47:31Z</time>
      </trkpt>
      <trkpt lat="48.06782" lon="7.13343">
        <ele>860.05</ele>
        <time>2021-06-23T11:47:33Z</time>
      </trkpt>
      <trkpt lat="48.06756" lon="7.13342">
        <ele>857.46</ele>
        <time>2021-06-23T11:47:36Z</time>
      </trkpt>
      <trkpt lat="48.06741" lon="7.13333">
        <ele>855.23</ele>
        <time>2021-06-23T11:47:38Z</time>
      </trkpt>
      <trkpt lat="48.06734" lon="7.13324">
        <ele>854.47</ele>
        <time>2021-06-23T11:47:40Z</time>
      </trkpt>
      <trkpt lat="48.06727" lon="7.13312">
        <ele>853.84</ele>
        <time>2021-06-23T11:47:42Z</time>
      </trkpt>
      <trkpt lat="48.0672" lon="7.13295">
        <ele>853.58</ele>
        <time>2021-06-23T11:47:44Z</time>
      </trkpt>
      <trkpt lat="48.06713" lon="7.13265">
        <ele>852.68</ele>
        <time>2021-06-23T11:47:47Z</time>
      </trkpt>
      <trkpt lat="48.06702" lon="7.13008">
        <ele>840.39</ele>
        <time>2021-06-23T11:47:49Z</time>
      </trkpt>
      <trkpt lat="48.06703" lon="7.12984">
        <ele>838.49</ele>
        <time>2021-06-23T11:47:51Z</time>
      </trkpt>
      <trkpt lat="48.06706" lon="7.12954">
        <ele>836.32</ele>
        <time>2021-06-23T11:47:53Z</time>
      </trkpt>
      <trkpt lat="48.06718" lon="7.12894">
        <ele>833.27</ele>
        <time>2021-06-23T11:47:55Z</time>
      </trkpt>
      <trkpt lat="48.06742" lon="7.12797">
        <ele>827.19</ele>
        <time>2021-06-23T11:47:58Z</time>
      </trkpt>
      <trkpt lat="48.06747" lon="7.12752">
        <ele>824.3</ele>
        <time>2021-06-23T11:48:00Z</time>
      </trkpt>
      <trkpt lat="48.06747" lon="7.12734">
        <ele>823.65</ele>
        <time>2021-06-23T11:48:02Z</time>
      </trkpt>
      <trkpt lat="48.06745" lon="7.12708">
        <ele>822.75</ele>
        <time>2021-06-23T11:48:04Z</time>
      </trkpt>
      <trkpt lat="48.06741" lon="7.1268">
        <ele>821.07</ele>
        <time>2021-06-23T11:48:06Z</time>
      </trkpt>
      <trkpt lat="48.06686" lon="7.12485">
        <ele>811.72</ele>
        <time>2021-06-23T11:48:09Z</time>
      </trkpt>
      <trkpt lat="48.06675" lon="7.12461">
        <ele>810.05</ele>
        <time>2021-06-23T11:48:11Z</time>
      </trkpt>
      <trkpt lat="48.06668" lon="7.12449">
        <ele>808.68</ele>
        <time>2021-06-23T11:48:13Z</time>
      </trkpt>
      <trkpt lat="48.06658" lon="7.12438">
        <ele>807.03</ele>
        <time>2021-06-23T11:48:15Z</time>
      </trkpt>
      <trkpt lat="48.0665" lon="7.12433">
        <ele>806.14</ele>
        <time>2021-06-23T11:48:17Z</time>
      </trkpt>
      <trkpt lat="48.06631" lon="7.12426">
        <ele>804.44</ele>
        <time>2021-06-23T11:48:20Z</time>
      </trkpt>
      <trkpt lat="48.06613" lon="7.12429">
        <ele>803.93</ele>
        <time>2021-06-23T11:48:22Z</time>
      </trkpt>
      <trkpt lat="48.06595" lon="7.12438">
        <ele>802.35</ele>
        <time>2021-06-23T11:48:24Z</time>
      </trkpt>
      <trkpt lat="48.06577" lon="7.12463">
        <ele>799.57</ele>
        <time>2021-06-23T11:48:26Z</time>
      </trkpt>
      <trkpt lat="48.06571" lon="7.12477">
        <ele>797.51</ele>
        <time>2021-06-23T11:48:29Z</time>
      </trkpt>
      <trkpt lat="48.06567" lon="7.1249">
        <ele>795.62</ele>
        <time>2021-06-23T11:48:31Z</time>
      </trkpt>
      <trkpt lat="48.06564" lon="7.12515">
        <ele>793.89</ele>
        <time>2021-06-23T11:48:33Z</time>
      </trkpt>
      <trkpt lat="48.06565" lon="7.12531">
        <ele>793.63</ele>
        <time>2021-06-23T11:48:35Z</time>
      </trkpt>
      <trkpt lat="48.06573" lon="7.12568">
        <ele>794.21</ele>
        <time>2021-06-23T11:48:37Z</time>
      </trkpt>
      <trkpt lat="48.06589" lon="7.12619">
        <ele>793.56</ele>
        <time>2021-06-23T11:48:40Z</time>
      </trkpt>
      <trkpt lat="48.0661" lon="7.12673">
        <ele>794.67</ele>
        <time>2021-06-23T11:48:42Z</time>
      </trkpt>
      <trkpt lat="48.06654" lon="7.12751">
        <ele>797.35</ele>
        <time>2021-06-23T11:48:44Z</time>
      </trkpt>
      <trkpt lat="48.06655" lon="7.1276">
        <ele>797.58</ele>
        <time>2021-06-23T11:48:46Z</time>
      </trkpt>
      <trkpt lat="48.06654" lon="7.12771">
        <ele>796.99</ele>
        <time>2021-06-23T11:48:48Z</time>
      </trkpt>
      <trkpt lat="48.06638" lon="7.12826">
        <ele>793.31</ele>
        <time>2021-06-23T11:48:51Z</time>
      </trkpt>
      <trkpt lat="48.06634" lon="7.12835">
        <ele>792.49</ele>
        <time>2021-06-23T11:48:53Z</time>
      </trkpt>
      <trkpt lat="48.06571" lon="7.12906">
        <ele>782.43</ele>
        <time>2021-06-23T11:48:55Z</time>
      </trkpt>
      <trkpt lat="48.0655" lon="7.12932">
        <ele>779.89</ele>
        <time>2021-06-23T11:48:57Z</time>
      </trkpt>
      <trkpt lat="48.06539" lon="7.1295">
        <ele>779.51</ele>
        <time>2021-06-23T11:48:59Z</time>
      </trkpt>
      <trkpt lat="48.06533" lon="7.12964">
        <ele>779.81</ele>
        <time>2021-06-23T11:49:02Z</time>
      </trkpt>
      <trkpt lat="48.06523" lon="7.12994">
        <ele>781.45</ele>
        <time>2021-06-23T11:49:04Z</time>
      </trkpt>
      <trkpt lat="48.06491" lon="7.13168">
        <ele>771.61</ele>
        <time>2021-06-23T11:49:06Z</time>
      </trkpt>
      <trkpt lat="48.06488" lon="7.13197">
        <ele>769.86</ele>
        <time>2021-06-23T11:49:08Z</time>
      </trkpt>
      <trkpt lat="48.0649" lon="7.13226">
        <ele>767.56</ele>
        <time>2021-06-23T11:49:10Z</time>
      </trkpt>
      <trkpt lat="48.06497" lon="7.13258">
        <ele>767.68</ele>
        <time>2021-06-23T11:49:13Z</time>
      </trkpt>
      <trkpt lat="48.06517" lon="7.13308">
        <ele>769.54</ele>
        <time>2021-06-23T11:49:15Z</time>
      </trkpt>
      <trkpt lat="48.06521" lon="7.13323">
        <ele>768.19</ele>
        <time>2021-06-23T11:49:17Z</time>
      </trkpt>
      <trkpt lat="48.06528" lon="7.13399">
        <ele>757.93</ele>
        <time>2021-06-23T11:49:19Z</time>
      </trkpt>
      <trkpt lat="48.06528" lon="7.13423">
        <ele>756.62</ele>
        <time>2021-06-23T11:49:21Z</time>
      </trkpt>
      <trkpt lat="48.06525" lon="7.13457">
        <ele>757.29</ele>
        <time>2021-06-23T11:49:24Z</time>
      </trkpt>
      <trkpt lat="48.06518" lon="7.13479">
        <ele>755.45</ele>
        <time>2021-06-23T11:49:26Z</time>
      </trkpt>
      <trkpt lat="48.06486" lon="7.13558">
        <ele>748.71</ele>
        <time>2021-06-23T11:49:28Z</time>
      </trkpt>
      <trkpt lat="48.06476" lon="7.13623">
        <ele>747.52</ele>
        <time>2021-06-23T11:49:30Z</time>
      </trkpt>
      <trkpt lat="48.0647" lon="7.13648">
        <ele>746.9</ele>
        <time>2021-06-23T11:49:33Z</time>
      </trkpt>
      <trkpt lat="48.06463" lon="7.13663">
        <ele>745.88</ele>
        <time>2021-06-23T11:49:35Z</time>
      </trkpt>
      <trkpt lat="48.06454" lon="7.13676">
        <ele>744.49</ele>
        <time>2021-06-23T11:49:37Z</time>
      </trkpt>
      <trkpt lat="48.06441" lon="7.1369">
        <ele>743.05</ele>
        <time>2021-06-23T11:49:39Z</time>
      </trkpt>
      <trkpt lat="48.06427" lon="7.13703">
        <ele>741.92</ele>
        <time>2021-06-23T11:49:41Z</time>
      </trkpt>
      <trkpt lat="48.06395" lon="7.13722">
        <ele>739.33</ele>
        <time>2021-06-23T11:49:44Z</time>
      </trkpt>
      <trkpt lat="48.06368" lon="7.13736">
        <ele>739.11</ele>
        <time>2021-06-23T11:49:46Z</time>
      </trkpt>
      <trkpt lat="48.06357" lon="7.13739">
        <ele>738.37</ele>
        <time>2021-06-23T11:49:48Z</time>
      </trkpt>
      <trkpt lat="48.06313" lon="7.13744">
        <ele>735.63</ele>
        <time>2021-06-23T11:49:50Z</time>
      </trkpt>
      <trkpt lat="48.06271" lon="7.13754">
        <ele>733.07</ele>
        <time>2021-06-23T11:49:52Z</time>
      </trkpt>
      <trkpt lat="48.06231" lon="7.13768">
        <ele>729.53</ele>
        <time>2021-06-23T11:49:55Z</time>
      </trkpt>
      <trkpt lat="48.06208" lon="7.13779">
        <ele>727.06</ele>
        <time>2021-06-23T11:49:57Z</time>
      </trkpt>
      <trkpt lat="48.06178" lon="7.13803">
        <ele>725.99</ele>
        <time>2021-06-23T11:49:59Z</time>
      </trkpt>
      <trkpt lat="48.06164" lon="7.13819">
        <ele>725.24</ele>
        <time>2021-06-23T11:50:01Z</time>
      </trkpt>
      <trkpt lat="48.06151" lon="7.13837">
        <ele>722.66</ele>
        <time>2021-06-23T11:50:03Z</time>
      </trkpt>
      <trkpt lat="48.06143" lon="7.13859">
        <ele>721.2</ele>
        <time>2021-06-23T11:50:06Z</time>
      </trkpt>
      <trkpt lat="48.06142" lon="7.13885">
        <ele>722.69</ele>
        <time>2021-06-23T11:50:08Z</time>
      </trkpt>
      <trkpt lat="48.06151" lon="7.13935">
        <ele>726.35</ele>
        <time>2021-06-23T11:50:10Z</time>
      </trkpt>
      <trkpt lat="48.06149" lon="7.13944">
        <ele>725.41</ele>
        <time>2021-06-23T11:50:12Z</time>
      </trkpt>
      <trkpt lat="48.06147" lon="7.13947">
        <ele>724.21</ele>
        <time>2021-06-23T11:50:14Z</time>
      </trkpt>
      <trkpt lat="48.06143" lon="7.13948">
        <ele>722.45</ele>
        <time>2021-06-23T11:50:17Z</time>
      </trkpt>
      <trkpt lat="48.06138" lon="7.13945">
        <ele>720.64</ele>
        <time>2021-06-23T11:50:19Z</time>
      </trkpt>
      <trkpt lat="48.06137" lon="7.13942">
        <ele>720.11</ele>
        <time>2021-06-23T11:50:21Z</time>
      </trkpt>
      <trkpt lat="48.06133" lon="7.13893">
        <ele>719.01</ele>
        <time>2021-06-23T11:50:23Z</time>
      </trkpt>
      <trkpt lat="48.06093" lon="7.1375">
        <ele>708.38</ele>
        <time>2021-06-23T11:50:26Z</time>
      </trkpt>
      <trkpt lat="48.06069" lon="7.13682">
        <ele>704.38</ele>
        <time>2021-06-23T11:50:28Z</time>
      </trkpt>
      <trkpt lat="48.06058" lon="7.13664">
        <ele>701.6</ele>
        <time>2021-06-23T11:50:30Z</time>
      </trkpt>
      <trkpt lat="48.06046" lon="7.13654">
        <ele>699.08</ele>
        <time>2021-06-23T11:50:32Z</time>
      </trkpt>
      <trkpt lat="48.06018" lon="7.13643">
        <ele>695.4</ele>
        <time>2021-06-23T11:50:34Z</time>
      </trkpt>
      <trkpt lat="48.0601" lon="7.13632">
        <ele>694.58</ele>
        <time>2021-06-23T11:50:37Z</time>
      </trkpt>
      <trkpt lat="48.06003" lon="7.13613">
        <ele>694.41</ele>
        <time>2021-06-23T11:50:39Z</time>
      </trkpt>
      <trkpt lat="48.06002" lon="7.13595">
        <ele>695.38</ele>
        <time>2021-06-23T11:50:41Z</time>
      </trkpt>
      <trkpt lat="48.06005" lon="7.13581">
        <ele>696.12</ele>
        <time>2021-06-23T11:50:43Z</time>
      </trkpt>
      <trkpt lat="48.06011" lon="7.13572">
        <ele>695.56</ele>
        <time>2021-06-23T11:50:45Z</time>
      </trkpt>
      <trkpt lat="48.06034" lon="7.1356">
        <ele>694.75</ele>
        <time>2021-06-23T11:50:48Z</time>
      </trkpt>
      <trkpt lat="48.0604" lon="7.13554">
        <ele>693.43</ele>
        <time>2021-06-23T11:50:50Z</time>
      </trkpt>
      <trkpt lat="48.06043" lon="7.13543">
        <ele>690.52</ele>
        <time>2021-06-23T11:50:52Z</time>
      </trkpt>
      <trkpt lat="48.06041" lon="7.13531">
        <ele>688.31</ele>
        <time>2021-06-23T11:50:54Z</time>
      </trkpt>
      <trkpt lat="48.06035" lon="7.1352">
        <ele>686.08</ele>
        <time>2021-06-23T11:50:56Z</time>
      </trkpt>
      <trkpt lat="48.06029" lon="7.13515">
        <ele>685.07</ele>
        <time>2021-06-23T11:50:59Z</time>
      </trkpt>
      <trkpt lat="48.06017" lon="7.13509">
        <ele>684</ele>
        <time>2021-06-23T11:51:01Z</time>
      </trkpt>
      <trkpt lat="48.05992" lon="7.13504">
        <ele>683.98</ele>
        <time>2021-06-23T11:51:03Z</time>
      </trkpt>
      <trkpt lat="48.05976" lon="7.13507">
        <ele>684.26</ele>
        <time>2021-06-23T11:51:05Z</time>
      </trkpt>
      <trkpt lat="48.05968" lon="7.13513">
        <ele>683.44</ele>
        <time>2021-06-23T11:51:07Z</time>
      </trkpt>
      <trkpt lat="48.05963" lon="7.13521">
        <ele>682.45</ele>
        <time>2021-06-23T11:51:10Z</time>
      </trkpt>
      <trkpt lat="48.05959" lon="7.13535">
        <ele>681.45</ele>
        <time>2021-06-23T11:51:12Z</time>
      </trkpt>
      <trkpt lat="48.05958" lon="7.1355">
        <ele>681.12</ele>
        <time>2021-06-23T11:51:14Z</time>
      </trkpt>
      <trkpt lat="48.05968" lon="7.13606">
        <ele>678.98</ele>
        <time>2021-06-23T11:51:16Z</time>
      </trkpt>
      <trkpt lat="48.05974" lon="7.13627">
        <ele>679.48</ele>
        <time>2021-06-23T11:51:18Z</time>
      </trkpt>
      <trkpt lat="48.06007" lon="7.13712">
        <ele>679.84</ele>
        <time>2021-06-23T11:51:21Z</time>
      </trkpt>
      <trkpt lat="48.06011" lon="7.13732">
        <ele>679.16</ele>
        <time>2021-06-23T11:51:23Z</time>
      </trkpt>
      <trkpt lat="48.06013" lon="7.13773">
        <ele>677.22</ele>
        <time>2021-06-23T11:51:25Z</time>
      </trkpt>
      <trkpt lat="48.06011" lon="7.13785">
        <ele>676</ele>
        <time>2021-06-23T11:51:27Z</time>
      </trkpt>
      <trkpt lat="48.06006" lon="7.13794">
        <ele>673.15</ele>
        <time>2021-06-23T11:51:30Z</time>
      </trkpt>
      <trkpt lat="48.05998" lon="7.13794">
        <ele>670.04</ele>
        <time>2021-06-23T11:51:32Z</time>
      </trkpt>
      <trkpt lat="48.05992" lon="7.13787">
        <ele>668.87</ele>
        <time>2021-06-23T11:51:34Z</time>
      </trkpt>
      <trkpt lat="48.0599" lon="7.1377">
        <ele>669.18</ele>
        <time>2021-06-23T11:51:36Z</time>
      </trkpt>
      <trkpt lat="48.0599" lon="7.13734">
        <ele>672.03</ele>
        <time>2021-06-23T11:51:38Z</time>
      </trkpt>
      <trkpt lat="48.05986" lon="7.13721">
        <ele>672.2</ele>
        <time>2021-06-23T11:51:40Z</time>
      </trkpt>
      <trkpt lat="48.05934" lon="7.13607">
        <ele>663.94</ele>
        <time>2021-06-23T11:51:43Z</time>
      </trkpt>
      <trkpt lat="48.05925" lon="7.1359">
        <ele>662.93</ele>
        <time>2021-06-23T11:51:45Z</time>
      </trkpt>
      <trkpt lat="48.05896" lon="7.13555">
        <ele>658.61</ele>
        <time>2021-06-23T11:51:47Z</time>
      </trkpt>
      <trkpt lat="48.05881" lon="7.13532">
        <ele>656.86</ele>
        <time>2021-06-23T11:51:49Z</time>
      </trkpt>
      <trkpt lat="48.05868" lon="7.13507">
        <ele>655.46</ele>
        <time>2021-06-23T11:51:51Z</time>
      </trkpt>
      <trkpt lat="48.05865" lon="7.13482">
        <ele>655.9</ele>
        <time>2021-06-23T11:51:53Z</time>
      </trkpt>
      <trkpt lat="48.05867" lon="7.13394">
        <ele>652.48</ele>
        <time>2021-06-23T11:51:56Z</time>
      </trkpt>
      <trkpt lat="48.05871" lon="7.13375">
        <ele>650.6</ele>
        <time>2021-06-23T11:51:58Z</time>
      </trkpt>
      <trkpt lat="48.05875" lon="7.13365">
        <ele>649.74</ele>
        <time>2021-06-23T11:52:00Z</time>
      </trkpt>
      <trkpt lat="48.05886" lon="7.13353">
        <ele>648.5</ele>
        <time>2021-06-23T11:52:02Z</time>
      </trkpt>
      <trkpt lat="48.05899" lon="7.13347">
        <ele>646.48</ele>
        <time>2021-06-23T11:52:04Z</time>
      </trkpt>
      <trkpt lat="48.05937" lon="7.13341">
        <ele>640.87</ele>
        <time>2021-06-23T11:52:06Z</time>
      </trkpt>
      <trkpt lat="48.0597" lon="7.13345">
        <ele>639.82</ele>
        <time>2021-06-23T11:52:08Z</time>
      </trkpt>
      <trkpt lat="48.06018" lon="7.13359">
        <ele>638.16</ele>
        <time>2021-06-23T11:52:11Z</time>
      </trkpt>
      <trkpt lat="48.06101" lon="7.13389">
        <ele>640.15</ele>
        <time>2021-06-23T11:52:13Z</time>
      </trkpt>
      <trkpt lat="48.06106" lon="7.13386">
        <ele>638.92</ele>
        <time>2021-06-23T11:52:15Z</time>
      </trkpt>
      <trkpt lat="48.06108" lon="7.1338">
        <ele>637.26</ele>
        <time>2021-06-23T11:52:17Z</time>
      </trkpt>
      <trkpt lat="48.06108" lon="7.13373">
        <ele>635.73</ele>
        <time>2021-06-23T11:52:19Z</time>
      </trkpt>
      <trkpt lat="48.06103" lon="7.13367">
        <ele>634.4</ele>
        <time>2021-06-23T11:52:21Z</time>
      </trkpt>
      <trkpt lat="48.06073" lon="7.13358">
        <ele>632.85</ele>
        <time>2021-06-23T11:52:24Z</time>
      </trkpt>
      <trkpt lat="48.05975" lon="7.13294">
        <ele>623</ele>
        <time>2021-06-23T11:52:26Z</time>
      </trkpt>
      <trkpt lat="48.05924" lon="7.13265">
        <ele>614.39</ele>
        <time>2021-06-23T11:52:28Z</time>
      </trkpt>
      <trkpt lat="48.05809" lon="7.13217">
        <ele>602.99</ele>
        <time>2021-06-23T11:52:30Z</time>
      </trkpt>
      <trkpt lat="48.0579" lon="7.13207">
        <ele>600.83</ele>
        <time>2021-06-23T11:52:32Z</time>
      </trkpt>
      <trkpt lat="48.0569" lon="7.13146">
        <ele>589.7</ele>
        <time>2021-06-23T11:52:34Z</time>
      </trkpt>
      <trkpt lat="48.05679" lon="7.13141">
        <ele>589.11</ele>
        <time>2021-06-23T11:52:37Z</time>
      </trkpt>
      <trkpt lat="48.0567" lon="7.1314">
        <ele>589.18</ele>
        <time>2021-06-23T11:52:39Z</time>
      </trkpt>
      <trkpt lat="48.0557" lon="7.13151">
        <ele>584.59</ele>
        <time>2021-06-23T11:52:41Z</time>
      </trkpt>
      <trkpt lat="48.05557" lon="7.13154">
        <ele>583.22</ele>
        <time>2021-06-23T11:52:43Z</time>
      </trkpt>
      <trkpt lat="48.05546" lon="7.1316">
        <ele>582.51</ele>
        <time>2021-06-23T11:52:45Z</time>
      </trkpt>
      <trkpt lat="48.05536" lon="7.13177">
        <ele>582.2</ele>
        <time>2021-06-23T11:52:47Z</time>
      </trkpt>
      <trkpt lat="48.05533" lon="7.13198">
        <ele>582.51</ele>
        <time>2021-06-23T11:52:50Z</time>
      </trkpt>
      <trkpt lat="48.05534" lon="7.13212">
        <ele>582.7</ele>
        <time>2021-06-23T11:52:52Z</time>
      </trkpt>
      <trkpt lat="48.05543" lon="7.13237">
        <ele>583.63</ele>
        <time>2021-06-23T11:52:54Z</time>
      </trkpt>
      <trkpt lat="48.05542" lon="7.13249">
        <ele>583.62</ele>
        <time>2021-06-23T11:52:56Z</time>
      </trkpt>
      <trkpt lat="48.05541" lon="7.13254">
        <ele>583.16</ele>
        <time>2021-06-23T11:52:58Z</time>
      </trkpt>
      <trkpt lat="48.05536" lon="7.13258">
        <ele>582.18</ele>
        <time>2021-06-23T11:53:00Z</time>
      </trkpt>
      <trkpt lat="48.05528" lon="7.13256">
        <ele>580.86</ele>
        <time>2021-06-23T11:53:03Z</time>
      </trkpt>
      <trkpt lat="48.05523" lon="7.13249">
        <ele>579.75</ele>
        <time>2021-06-23T11:53:05Z</time>
      </trkpt>
      <trkpt lat="48.05498" lon="7.1319">
        <ele>575.29</ele>
        <time>2021-06-23T11:53:07Z</time>
      </trkpt>
      <trkpt lat="48.05492" lon="7.13169">
        <ele>574</ele>
        <time>2021-06-23T11:53:09Z</time>
      </trkpt>
      <trkpt lat="48.0549" lon="7.13143">
        <ele>572.89</ele>
        <time>2021-06-23T11:53:11Z</time>
      </trkpt>
      <trkpt lat="48.05492" lon="7.13117">
        <ele>571.98</ele>
        <time>2021-06-23T11:53:13Z</time>
      </trkpt>
      <trkpt lat="48.05502" lon="7.13089">
        <ele>571.52</ele>
        <time>2021-06-23T11:53:16Z</time>
      </trkpt>
      <trkpt lat="48.05508" lon="7.13077">
        <ele>570.62</ele>
        <time>2021-06-23T11:53:18Z</time>
      </trkpt>
      <trkpt lat="48.05519" lon="7.13063">
        <ele>569.33</ele>
        <time>2021-06-23T11:53:20Z</time>
      </trkpt>
      <trkpt lat="48.05529" lon="7.13053">
        <ele>568.43</ele>
        <time>2021-06-23T11:53:22Z</time>
      </trkpt>
      <trkpt lat="48.05536" lon="7.1305">
        <ele>567.07</ele>
        <time>2021-06-23T11:53:24Z</time>
      </trkpt>
      <trkpt lat="48.05559" lon="7.13045">
        <ele>564.09</ele>
        <time>2021-06-23T11:53:26Z</time>
      </trkpt>
      <trkpt lat="48.05735" lon="7.13028">
        <ele>553.13</ele>
        <time>2021-06-23T11:53:28Z</time>
      </trkpt>
      <trkpt lat="48.05756" lon="7.13033">
        <ele>553.14</ele>
        <time>2021-06-23T11:53:31Z</time>
      </trkpt>
      <trkpt lat="48.05787" lon="7.13044">
        <ele>554.43</ele>
        <time>2021-06-23T11:53:33Z</time>
      </trkpt>
      <trkpt lat="48.05796" lon="7.13044">
        <ele>554.59</ele>
        <time>2021-06-23T11:53:35Z</time>
      </trkpt>
      <trkpt lat="48.05801" lon="7.13041">
        <ele>554.34</ele>
        <time>2021-06-23T11:53:37Z</time>
      </trkpt>
      <trkpt lat="48.05804" lon="7.13033">
        <ele>553.51</ele>
        <time>2021-06-23T11:53:39Z</time>
      </trkpt>
      <trkpt lat="48.05804" lon="7.13025">
        <ele>552.82</ele>
        <time>2021-06-23T11:53:41Z</time>
      </trkpt>
      <trkpt lat="48.058" lon="7.13017">
        <ele>552.3</ele>
        <time>2021-06-23T11:53:44Z</time>
      </trkpt>
      <trkpt lat="48.05786" lon="7.13011">
        <ele>550.86</ele>
        <time>2021-06-23T11:53:46Z</time>
      </trkpt>
      <trkpt lat="48.05691" lon="7.12991">
        <ele>542.72</ele>
        <time>2021-06-23T11:53:48Z</time>
      </trkpt>
      <trkpt lat="48.05665" lon="7.12981">
        <ele>539.56</ele>
        <time>2021-06-23T11:53:50Z</time>
      </trkpt>
      <trkpt lat="48.05617" lon="7.12956">
        <ele>534.19</ele>
        <time>2021-06-23T11:53:52Z</time>
      </trkpt>
      <trkpt lat="48.05595" lon="7.12941">
        <ele>530.66</ele>
        <time>2021-06-23T11:53:54Z</time>
      </trkpt>
      <trkpt lat="48.05576" lon="7.12924">
        <ele>528.01</ele>
        <time>2021-06-23T11:53:57Z</time>
      </trkpt>
      <trkpt lat="48.05524" lon="7.12861">
        <ele>522.72</ele>
        <time>2021-06-23T11:53:59Z</time>
      </trkpt>
      <trkpt lat="48.05498" lon="7.12835">
        <ele>518.62</ele>
        <time>2021-06-23T11:54:01Z</time>
      </trkpt>
      <trkpt lat="48.05476" lon="7.12817">
        <ele>515.44</ele>
        <time>2021-06-23T11:54:03Z</time>
      </trkpt>
      <trkpt lat="48.0545" lon="7.12806">
        <ele>512.99</ele>
        <time>2021-06-23T11:54:05Z</time>
      </trkpt>
      <trkpt lat="48.05413" lon="7.12797">
        <ele>512.64</ele>
        <time>2021-06-23T11:54:07Z</time>
      </trkpt>
      <trkpt lat="48.05376" lon="7.12778">
        <ele>509.87</ele>
        <time>2021-06-23T11:54:10Z</time>
      </trkpt>
      <trkpt lat="48.0534" lon="7.12749">
        <ele>509.83</ele>
        <time>2021-06-23T11:54:12Z</time>
      </trkpt>
      <trkpt lat="48.05336" lon="7.12742">
        <ele>509.36</ele>
        <time>2021-06-23T11:54:14Z</time>
      </trkpt>
      <trkpt lat="48.05336" lon="7.12732">
        <ele>507.37</ele>
        <time>2021-06-23T11:54:16Z</time>
      </trkpt>
      <trkpt lat="48.0534" lon="7.12724">
        <ele>504.62</ele>
        <time>2021-06-23T11:54:18Z</time>
      </trkpt>
      <trkpt lat="48.05348" lon="7.12724">
        <ele>502.61</ele>
        <time>2021-06-23T11:54:20Z</time>
      </trkpt>
      <trkpt lat="48.05376" lon="7.12751">
        <ele>502.64</ele>
        <time>2021-06-23T11:54:23Z</time>
      </trkpt>
      <trkpt lat="48.05393" lon="7.12757">
        <ele>502.48</ele>
        <time>2021-06-23T11:54:25Z</time>
      </trkpt>
      <trkpt lat="48.05398" lon="7.12757">
        <ele>502.13</ele>
        <time>2021-06-23T11:54:27Z</time>
      </trkpt>
      <trkpt lat="48.05455" lon="7.12735">
        <ele>495.53</ele>
        <time>2021-06-23T11:54:29Z</time>
      </trkpt>
      <trkpt lat="48.05471" lon="7.12733">
        <ele>495.55</ele>
        <time>2021-06-23T11:54:31Z</time>
      </trkpt>
      <trkpt lat="48.0549" lon="7.12734">
        <ele>498.13</ele>
        <time>2021-06-23T11:54:33Z</time>
      </trkpt>
      <trkpt lat="48.05494" lon="7.12732">
        <ele>498.46</ele>
        <time>2021-06-23T11:54:36Z</time>
      </trkpt>
      <trkpt lat="48.05496" lon="7.12726">
        <ele>498.45</ele>
        <time>2021-06-23T11:54:38Z</time>
      </trkpt>
      <trkpt lat="48.05495" lon="7.12717">
        <ele>497.82</ele>
        <time>2021-06-23T11:54:40Z</time>
      </trkpt>
      <trkpt lat="48.05489" lon="7.12703">
        <ele>495.76</ele>
        <time>2021-06-23T11:54:42Z</time>
      </trkpt>
      <trkpt lat="48.05464" lon="7.12666">
        <ele>490.12</ele>
        <time>2021-06-23T11:54:44Z</time>
      </trkpt>
      <trkpt lat="48.05452" lon="7.1264">
        <ele>490.45</ele>
        <time>2021-06-23T11:54:46Z</time>
      </trkpt>
      <trkpt lat="48.05447" lon="7.12618">
        <ele>490.96</ele>
        <time>2021-06-23T11:54:48Z</time>
      </trkpt>
      <trkpt lat="48.05442" lon="7.12564">
        <ele>487.88</ele>
        <time>2021-06-23T11:54:51Z</time>
      </trkpt>
      <trkpt lat="48.05441" lon="7.12529">
        <ele>488.23</ele>
        <time>2021-06-23T11:54:53Z</time>
      </trkpt>
      <trkpt lat="48.05437" lon="7.12518">
        <ele>488.17</ele>
        <time>2021-06-23T11:54:55Z</time>
      </trkpt>
      <trkpt lat="48.05424" lon="7.12496">
        <ele>486.84</ele>
        <time>2021-06-23T11:54:57Z</time>
      </trkpt>
      <trkpt lat="48.05406" lon="7.1247">
        <ele>485.53</ele>
        <time>2021-06-23T11:54:59Z</time>
      </trkpt>
      <trkpt lat="48.05379" lon="7.1244">
        <ele>481.24</ele>
        <time>2021-06-23T11:55:01Z</time>
      </trkpt>
      <trkpt lat="48.05377" lon="7.12434">
        <ele>479.99</ele>
        <time>2021-06-23T11:55:04Z</time>
      </trkpt>
      <trkpt lat="48.05375" lon="7.12424">
        <ele>478.74</ele>
        <time>2021-06-23T11:55:06Z</time>
      </trkpt>
      <trkpt lat="48.05377" lon="7.12406">
        <ele>477.49</ele>
        <time>2021-06-23T11:55:08Z</time>
      </trkpt>
      <trkpt lat="48.05391" lon="7.12332">
        <ele>474.25</ele>
        <time>2021-06-23T11:55:10Z</time>
      </trkpt>
      <trkpt lat="48.05394" lon="7.12326">
        <ele>474</ele>
        <time>2021-06-23T11:55:12Z</time>
      </trkpt>
      <trkpt lat="48.05412" lon="7.12302">
        <ele>473.08</ele>
        <time>2021-06-23T11:55:14Z</time>
      </trkpt>
      <trkpt lat="48.05413" lon="7.12291">
        <ele>472.03</ele>
        <time>2021-06-23T11:55:17Z</time>
      </trkpt>
      <trkpt lat="48.05411" lon="7.12284">
        <ele>471.02</ele>
        <time>2021-06-23T11:55:19Z</time>
      </trkpt>
      <trkpt lat="48.05407" lon="7.12278">
        <ele>469.98</ele>
        <time>2021-06-23T11:55:21Z</time>
      </trkpt>
      <trkpt lat="48.05403" lon="7.12276">
        <ele>469.21</ele>
        <time>2021-06-23T11:55:23Z</time>
      </trkpt>
      <trkpt lat="48.05397" lon="7.12277">
        <ele>468.68</ele>
        <time>2021-06-23T11:55:25Z</time>
      </trkpt>
      <trkpt lat="48.05372" lon="7.12299">
        <ele>468.06</ele>
        <time>2021-06-23T11:55:27Z</time>
      </trkpt>
      <trkpt lat="48.05311" lon="7.12372">
        <ele>462.64</ele>
        <time>2021-06-23T11:55:30Z</time>
      </trkpt>
      <trkpt lat="48.05301" lon="7.12386">
        <ele>461.54</ele>
        <time>2021-06-23T11:55:32Z</time>
      </trkpt>
      <trkpt lat="48.05286" lon="7.12417">
        <ele>460.88</ele>
        <time>2021-06-23T11:55:34Z</time>
      </trkpt>
      <trkpt lat="48.05278" lon="7.12424">
        <ele>460.27</ele>
        <time>2021-06-23T11:55:36Z</time>
      </trkpt>
      <trkpt lat="48.05264" lon="7.12425">
        <ele>461.3</ele>
        <time>2021-06-23T11:55:38Z</time>
      </trkpt>
      <trkpt lat="48.05256" lon="7.1242">
        <ele>461.17</ele>
        <time>2021-06-23T11:55:40Z</time>
      </trkpt>
      <trkpt lat="48.05251" lon="7.12413">
        <ele>460.67</ele>
        <time>2021-06-23T11:55:43Z</time>
      </trkpt>
      <trkpt lat="48.05236" lon="7.12378">
        <ele>458.42</ele>
        <time>2021-06-23T11:55:45Z</time>
      </trkpt>
      <trkpt lat="48.05217" lon="7.12347">
        <ele>452.53</ele>
        <time>2021-06-23T11:55:47Z</time>
      </trkpt>
      <trkpt lat="48.05201" lon="7.12329">
        <ele>446.24</ele>
        <time>2021-06-23T11:55:49Z</time>
      </trkpt>
      <trkpt lat="48.05165" lon="7.12296">
        <ele>441.96</ele>
        <time>2021-06-23T11:55:51Z</time>
      </trkpt>
      <trkpt lat="48.05109" lon="7.12209">
        <ele>440.8</ele>
        <time>2021-06-23T11:55:53Z</time>
      </trkpt>
      <trkpt lat="48.05049" lon="7.121">
        <ele>432.17</ele>
        <time>2021-06-23T11:55:56Z</time>
      </trkpt>
      <trkpt lat="48.05028" lon="7.1207">
        <ele>429.09</ele>
        <time>2021-06-23T11:55:58Z</time>
      </trkpt>
      <trkpt lat="48.05007" lon="7.12045">
        <ele>427.96</ele>
        <time>2021-06-23T11:56:00Z</time>
      </trkpt>
      <trkpt lat="48.04977" lon="7.12018">
        <ele>425.51</ele>
        <time>2021-06-23T11:56:02Z</time>
      </trkpt>
      <trkpt lat="48.0491" lon="7.11978">
        <ele>419.44</ele>
        <time>2021-06-23T11:56:04Z</time>
      </trkpt>
      <trkpt lat="48.04834" lon="7.11938">
        <ele>409.3</ele>
        <time>2021-06-23T11:56:06Z</time>
      </trkpt>
      <trkpt lat="48.04815" lon="7.11925">
        <ele>410.37</ele>
        <time>2021-06-23T11:56:08Z</time>
      </trkpt>
      <trkpt lat="48.04799" lon="7.11901">
        <ele>411.46</ele>
        <time>2021-06-23T11:56:11Z</time>
      </trkpt>
      <trkpt lat="48.04799" lon="7.11901">
        <ele>411.46</ele>
        <time>2021-06-23T11:56:11Z</time>
      </trkpt>
      <trkpt lat="48.0479" lon="7.11888">
        <ele>412.56</ele>
        <time>2021-06-23T11:56:12Z</time>
      </trkpt>
      <trkpt lat="48.04732" lon="7.12066">
        <ele>410.36</ele>
        <time>2021-06-23T11:56:18Z</time>
      </trkpt>
      <trkpt lat="48.04722" lon="7.12092">
        <ele>409.65</ele>
        <time>2021-06-23T11:56:23Z</time>
      </trkpt>
      <trkpt lat="48.04675" lon="7.12172">
        <ele>408.39</ele>
        <time>2021-06-23T11:56:29Z</time>
      </trkpt>
      <trkpt lat="48.04544" lon="7.12388">
        <ele>406.16</ele>
        <time>2021-06-23T11:56:34Z</time>
      </trkpt>
      <trkpt lat="48.0452" lon="7.12429">
        <ele>405.41</ele>
        <time>2021-06-23T11:56:40Z</time>
      </trkpt>
      <trkpt lat="48.04498" lon="7.12497">
        <ele>403.19</ele>
        <time>2021-06-23T11:56:45Z</time>
      </trkpt>
      <trkpt lat="48.04482" lon="7.12537">
        <ele>402.83</ele>
        <time>2021-06-23T11:56:51Z</time>
      </trkpt>
      <trkpt lat="48.04451" lon="7.12614">
        <ele>399.88</ele>
        <time>2021-06-23T11:56:56Z</time>
      </trkpt>
      <trkpt lat="48.04434" lon="7.12651">
        <ele>399.22</ele>
        <time>2021-06-23T11:57:02Z</time>
      </trkpt>
      <trkpt lat="48.0441" lon="7.1269">
        <ele>399.04</ele>
        <time>2021-06-23T11:57:08Z</time>
      </trkpt>
      <trkpt lat="48.04305" lon="7.1284">
        <ele>394.76</ele>
        <time>2021-06-23T11:57:13Z</time>
      </trkpt>
      <trkpt lat="48.04294" lon="7.12859">
        <ele>394.49</ele>
        <time>2021-06-23T11:57:19Z</time>
      </trkpt>
      <trkpt lat="48.04284" lon="7.12881">
        <ele>394.78</ele>
        <time>2021-06-23T11:57:24Z</time>
      </trkpt>
      <trkpt lat="48.04221" lon="7.13068">
        <ele>390.58</ele>
        <time>2021-06-23T11:57:30Z</time>
      </trkpt>
      <trkpt lat="48.04177" lon="7.1319">
        <ele>390.41</ele>
        <time>2021-06-23T11:57:35Z</time>
      </trkpt>
      <trkpt lat="48.04164" lon="7.13217">
        <ele>390.2</ele>
        <time>2021-06-23T11:57:41Z</time>
      </trkpt>
      <trkpt lat="48.04158" lon="7.13225">
        <ele>389.89</ele>
        <time>2021-06-23T11:57:47Z</time>
      </trkpt>
      <trkpt lat="48.04146" lon="7.1324">
        <ele>389.38</ele>
        <time>2021-06-23T11:57:52Z</time>
      </trkpt>
      <trkpt lat="48.0412" lon="7.1325">
        <ele>387.62</ele>
        <time>2021-06-23T11:57:58Z</time>
      </trkpt>
      <trkpt lat="48.04103" lon="7.13243">
        <ele>387.34</ele>
        <time>2021-06-23T11:58:07Z</time>
      </trkpt>
      <trkpt lat="48.04093" lon="7.13243">
        <ele>387.18</ele>
        <time>2021-06-23T11:58:16Z</time>
      </trkpt>
      <trkpt lat="48.03984" lon="7.13254">
        <ele>384.56</ele>
        <time>2021-06-23T11:58:24Z</time>
      </trkpt>
      <trkpt lat="48.03678" lon="7.1328">
        <ele>382.64</ele>
        <time>2021-06-23T11:58:33Z</time>
      </trkpt>
      <trkpt lat="48.03666" lon="7.13278">
        <ele>381.93</ele>
        <time>2021-06-23T11:58:42Z</time>
      </trkpt>
      <trkpt lat="48.03627" lon="7.13263">
        <ele>381.02</ele>
        <time>2021-06-23T11:58:51Z</time>
      </trkpt>
      <trkpt lat="48.03618" lon="7.13262">
        <ele>381.03</ele>
        <time>2021-06-23T11:59:00Z</time>
      </trkpt>
      <trkpt lat="48.03589" lon="7.13263">
        <ele>381.78</ele>
        <time>2021-06-23T11:59:09Z</time>
      </trkpt>
      <trkpt lat="48.03569" lon="7.13271">
        <ele>383.88</ele>
        <time>2021-06-23T11:59:18Z</time>
      </trkpt>
      <trkpt lat="48.03561" lon="7.13276">
        <ele>385.19</ele>
        <time>2021-06-23T11:59:24Z</time>
      </trkpt>
      <trkpt lat="48.03556" lon="7.13277">
        <ele>385.77</ele>
        <time>2021-06-23T11:59:31Z</time>
      </trkpt>
      <trkpt lat="48.03546" lon="7.13272">
        <ele>386.71</ele>
        <time>2021-06-23T11:59:38Z</time>
      </trkpt>
      <trkpt lat="48.0353" lon="7.13258">
        <ele>388.26</ele>
        <time>2021-06-23T11:59:44Z</time>
      </trkpt>
      <trkpt lat="48.03511" lon="7.13206">
        <ele>391.29</ele>
        <time>2021-06-23T11:59:51Z</time>
      </trkpt>
      <trkpt lat="48.03498" lon="7.1315">
        <ele>392.51</ele>
        <time>2021-06-23T11:59:57Z</time>
      </trkpt>
      <trkpt lat="48.03487" lon="7.1313">
        <ele>395.02</ele>
        <time>2021-06-23T12:00:04Z</time>
      </trkpt>
      <trkpt lat="48.03465" lon="7.13099">
        <ele>398.92</ele>
        <time>2021-06-23T12:00:10Z</time>
      </trkpt>
      <trkpt lat="48.03447" lon="7.13068">
        <ele>400.2</ele>
        <time>2021-06-23T12:00:17Z</time>
      </trkpt>
      <trkpt lat="48.03359" lon="7.12872">
        <ele>400.78</ele>
        <time>2021-06-23T12:00:24Z</time>
      </trkpt>
      <trkpt lat="48.03336" lon="7.12829">
        <ele>402.26</ele>
        <time>2021-06-23T12:00:30Z</time>
      </trkpt>
      <trkpt lat="48.03344" lon="7.12795">
        <ele>398.28</ele>
        <time>2021-06-23T12:00:36Z</time>
      </trkpt>
      <trkpt lat="48.03348" lon="7.12788">
        <ele>396.99</ele>
        <time>2021-06-23T12:00:41Z</time>
      </trkpt>
      <trkpt lat="48.03348" lon="7.12778">
        <ele>396.27</ele>
        <time>2021-06-23T12:00:46Z</time>
      </trkpt>
      <trkpt lat="48.03342" lon="7.1273">
        <ele>396.15</ele>
        <time>2021-06-23T12:00:52Z</time>
      </trkpt>
      <trkpt lat="48.03342" lon="7.1273">
        <ele>396.15</ele>
        <time>2021-06-23T12:00:52Z</time>
      </trkpt>
      <trkpt lat="48.03341" lon="7.12717">
        <ele>396.03</ele>
        <time>2021-06-23T12:01:05Z</time>
      </trkpt>
      <trkpt lat="48.03253" lon="7.12354">
        <ele>398.93</ele>
        <time>2021-06-23T12:01:19Z</time>
      </trkpt>
      <trkpt lat="48.03245" lon="7.12295">
        <ele>399.72</ele>
        <time>2021-06-23T12:01:33Z</time>
      </trkpt>
      <trkpt lat="48.03233" lon="7.12184">
        <ele>399.44</ele>
        <time>2021-06-23T12:01:46Z</time>
      </trkpt>
      <trkpt lat="48.03226" lon="7.12105">
        <ele>400.7</ele>
        <time>2021-06-23T12:02:00Z</time>
      </trkpt>
      <trkpt lat="48.03226" lon="7.12073">
        <ele>401.1</ele>
        <time>2021-06-23T12:02:13Z</time>
      </trkpt>
      <trkpt lat="48.03234" lon="7.1201">
        <ele>398.17</ele>
        <time>2021-06-23T12:02:27Z</time>
      </trkpt>
      <trkpt lat="48.03237" lon="7.12">
        <ele>397.91</ele>
        <time>2021-06-23T12:02:41Z</time>
      </trkpt>
      <trkpt lat="48.03253" lon="7.11983">
        <ele>397.54</ele>
        <time>2021-06-23T12:02:54Z</time>
      </trkpt>
      <trkpt lat="48.03258" lon="7.11972">
        <ele>397.73</ele>
        <time>2021-06-23T12:03:08Z</time>
      </trkpt>
      <trkpt lat="48.03262" lon="7.1194">
        <ele>398</ele>
        <time>2021-06-23T12:03:21Z</time>
      </trkpt>
      <trkpt lat="48.03239" lon="7.11922">
        <ele>399.21</ele>
        <time>2021-06-23T12:03:26Z</time>
      </trkpt>
      <trkpt lat="48.03229" lon="7.11905">
        <ele>400.32</ele>
        <time>2021-06-23T12:03:31Z</time>
      </trkpt>
      <trkpt lat="48.0322" lon="7.11894">
        <ele>401.3</ele>
        <time>2021-06-23T12:03:36Z</time>
      </trkpt>
      <trkpt lat="48.03203" lon="7.1188">
        <ele>403.79</ele>
        <time>2021-06-23T12:03:40Z</time>
      </trkpt>
      <trkpt lat="48.03152" lon="7.11856">
        <ele>412.5</ele>
        <time>2021-06-23T12:03:45Z</time>
      </trkpt>
      <trkpt lat="48.03098" lon="7.11874">
        <ele>418.65</ele>
        <time>2021-06-23T12:03:50Z</time>
      </trkpt>
      <trkpt lat="48.03087" lon="7.11885">
        <ele>419.7</ele>
        <time>2021-06-23T12:03:55Z</time>
      </trkpt>
      <trkpt lat="48.03074" lon="7.11902">
        <ele>420.48</ele>
        <time>2021-06-23T12:03:59Z</time>
      </trkpt>
      <trkpt lat="48.03054" lon="7.11936">
        <ele>422.19</ele>
        <time>2021-06-23T12:04:04Z</time>
      </trkpt>
      <trkpt lat="48.03038" lon="7.11968">
        <ele>425.96</ele>
        <time>2021-06-23T12:04:09Z</time>
      </trkpt>
      <trkpt lat="48.03027" lon="7.11985">
        <ele>430.01</ele>
        <time>2021-06-23T12:04:14Z</time>
      </trkpt>
      <trkpt lat="48.0302" lon="7.11992">
        <ele>432.16</ele>
        <time>2021-06-23T12:04:18Z</time>
      </trkpt>
      <trkpt lat="48.03006" lon="7.11997">
        <ele>435.25</ele>
        <time>2021-06-23T12:04:23Z</time>
      </trkpt>
      <trkpt lat="48.02961" lon="7.12002">
        <ele>440.05</ele>
        <time>2021-06-23T12:04:28Z</time>
      </trkpt>
      <trkpt lat="48.02929" lon="7.12013">
        <ele>442.75</ele>
        <time>2021-06-23T12:04:32Z</time>
      </trkpt>
      <trkpt lat="48.02893" lon="7.12042">
        <ele>449.14</ele>
        <time>2021-06-23T12:04:37Z</time>
      </trkpt>
      <trkpt lat="48.0289" lon="7.12052">
        <ele>450.47</ele>
        <time>2021-06-23T12:04:42Z</time>
      </trkpt>
      <trkpt lat="48.02893" lon="7.1206">
        <ele>452.53</ele>
        <time>2021-06-23T12:04:46Z</time>
      </trkpt>
      <trkpt lat="48.02897" lon="7.12061">
        <ele>453.12</ele>
        <time>2021-06-23T12:04:50Z</time>
      </trkpt>
      <trkpt lat="48.02932" lon="7.12047">
        <ele>451.08</ele>
        <time>2021-06-23T12:04:54Z</time>
      </trkpt>
      <trkpt lat="48.02943" lon="7.12047">
        <ele>451.47</ele>
        <time>2021-06-23T12:04:58Z</time>
      </trkpt>
      <trkpt lat="48.02959" lon="7.12053">
        <ele>452.22</ele>
        <time>2021-06-23T12:05:02Z</time>
      </trkpt>
      <trkpt lat="48.02976" lon="7.12066">
        <ele>454.3</ele>
        <time>2021-06-23T12:05:06Z</time>
      </trkpt>
      <trkpt lat="48.03024" lon="7.12123">
        <ele>457.1</ele>
        <time>2021-06-23T12:05:10Z</time>
      </trkpt>
      <trkpt lat="48.03037" lon="7.12143">
        <ele>455.9</ele>
        <time>2021-06-23T12:05:14Z</time>
      </trkpt>
      <trkpt lat="48.03053" lon="7.12192">
        <ele>459.2</ele>
        <time>2021-06-23T12:05:17Z</time>
      </trkpt>
      <trkpt lat="48.03057" lon="7.12212">
        <ele>462.46</ele>
        <time>2021-06-23T12:05:21Z</time>
      </trkpt>
      <trkpt lat="48.03058" lon="7.12251">
        <ele>470.93</ele>
        <time>2021-06-23T12:05:24Z</time>
      </trkpt>
      <trkpt lat="48.03063" lon="7.12276">
        <ele>474.04</ele>
        <time>2021-06-23T12:05:27Z</time>
      </trkpt>
      <trkpt lat="48.03073" lon="7.12314">
        <ele>472.49</ele>
        <time>2021-06-23T12:05:30Z</time>
      </trkpt>
      <trkpt lat="48.03076" lon="7.12336">
        <ele>472.94</ele>
        <time>2021-06-23T12:05:34Z</time>
      </trkpt>
      <trkpt lat="48.03067" lon="7.12422">
        <ele>487.96</ele>
        <time>2021-06-23T12:05:37Z</time>
      </trkpt>
      <trkpt lat="48.03056" lon="7.1248">
        <ele>498.75</ele>
        <time>2021-06-23T12:05:40Z</time>
      </trkpt>
      <trkpt lat="48.03053" lon="7.12536">
        <ele>507.17</ele>
        <time>2021-06-23T12:05:43Z</time>
      </trkpt>
      <trkpt lat="48.03055" lon="7.12585">
        <ele>506.14</ele>
        <time>2021-06-23T12:05:47Z</time>
      </trkpt>
      <trkpt lat="48.03052" lon="7.12618">
        <ele>507.62</ele>
        <time>2021-06-23T12:05:50Z</time>
      </trkpt>
      <trkpt lat="48.03046" lon="7.12641">
        <ele>510.68</ele>
        <time>2021-06-23T12:05:53Z</time>
      </trkpt>
      <trkpt lat="48.0303" lon="7.12681">
        <ele>517.84</ele>
        <time>2021-06-23T12:05:56Z</time>
      </trkpt>
      <trkpt lat="48.02997" lon="7.12751">
        <ele>520.8</ele>
        <time>2021-06-23T12:06:00Z</time>
      </trkpt>
      <trkpt lat="48.0299" lon="7.12761">
        <ele>520.76</ele>
        <time>2021-06-23T12:06:03Z</time>
      </trkpt>
      <trkpt lat="48.0298" lon="7.12766">
        <ele>522.97</ele>
        <time>2021-06-23T12:06:06Z</time>
      </trkpt>
      <trkpt lat="48.02976" lon="7.12764">
        <ele>524.69</ele>
        <time>2021-06-23T12:06:09Z</time>
      </trkpt>
      <trkpt lat="48.02973" lon="7.1276">
        <ele>526.65</ele>
        <time>2021-06-23T12:06:13Z</time>
      </trkpt>
      <trkpt lat="48.02972" lon="7.12754">
        <ele>528.46</ele>
        <time>2021-06-23T12:06:16Z</time>
      </trkpt>
      <trkpt lat="48.02985" lon="7.12706">
        <ele>529.84</ele>
        <time>2021-06-23T12:06:19Z</time>
      </trkpt>
      <trkpt lat="48.02995" lon="7.12656">
        <ele>531.54</ele>
        <time>2021-06-23T12:06:22Z</time>
      </trkpt>
      <trkpt lat="48.02997" lon="7.12629">
        <ele>531.93</ele>
        <time>2021-06-23T12:06:26Z</time>
      </trkpt>
      <trkpt lat="48.02997" lon="7.12595">
        <ele>534.04</ele>
        <time>2021-06-23T12:06:29Z</time>
      </trkpt>
      <trkpt lat="48.02984" lon="7.12531">
        <ele>540.45</ele>
        <time>2021-06-23T12:06:32Z</time>
      </trkpt>
      <trkpt lat="48.02976" lon="7.12449">
        <ele>535.7</ele>
        <time>2021-06-23T12:06:35Z</time>
      </trkpt>
      <trkpt lat="48.02962" lon="7.12408">
        <ele>537.85</ele>
        <time>2021-06-23T12:06:38Z</time>
      </trkpt>
      <trkpt lat="48.02955" lon="7.12398">
        <ele>538.66</ele>
        <time>2021-06-23T12:06:42Z</time>
      </trkpt>
      <trkpt lat="48.0295" lon="7.12394">
        <ele>539.23</ele>
        <time>2021-06-23T12:06:45Z</time>
      </trkpt>
      <trkpt lat="48.02947" lon="7.12394">
        <ele>540.07</ele>
        <time>2021-06-23T12:06:48Z</time>
      </trkpt>
      <trkpt lat="48.02941" lon="7.12395">
        <ele>540.78</ele>
        <time>2021-06-23T12:06:51Z</time>
      </trkpt>
      <trkpt lat="48.02939" lon="7.12399">
        <ele>541.3</ele>
        <time>2021-06-23T12:06:55Z</time>
      </trkpt>
      <trkpt lat="48.02938" lon="7.12405">
        <ele>542.17</ele>
        <time>2021-06-23T12:06:58Z</time>
      </trkpt>
      <trkpt lat="48.0294" lon="7.12415">
        <ele>543.28</ele>
        <time>2021-06-23T12:07:01Z</time>
      </trkpt>
      <trkpt lat="48.02952" lon="7.1244">
        <ele>543.07</ele>
        <time>2021-06-23T12:07:04Z</time>
      </trkpt>
      <trkpt lat="48.02959" lon="7.12472">
        <ele>542.93</ele>
        <time>2021-06-23T12:07:08Z</time>
      </trkpt>
      <trkpt lat="48.02958" lon="7.12496">
        <ele>544.45</ele>
        <time>2021-06-23T12:07:11Z</time>
      </trkpt>
      <trkpt lat="48.02949" lon="7.12542">
        <ele>552.49</ele>
        <time>2021-06-23T12:07:14Z</time>
      </trkpt>
      <trkpt lat="48.02937" lon="7.12585">
        <ele>556.72</ele>
        <time>2021-06-23T12:07:17Z</time>
      </trkpt>
      <trkpt lat="48.02905" lon="7.12666">
        <ele>560.69</ele>
        <time>2021-06-23T12:07:21Z</time>
      </trkpt>
      <trkpt lat="48.02894" lon="7.12685">
        <ele>560.87</ele>
        <time>2021-06-23T12:07:24Z</time>
      </trkpt>
      <trkpt lat="48.02886" lon="7.12693">
        <ele>561.3</ele>
        <time>2021-06-23T12:07:27Z</time>
      </trkpt>
      <trkpt lat="48.02878" lon="7.12698">
        <ele>561.38</ele>
        <time>2021-06-23T12:07:30Z</time>
      </trkpt>
      <trkpt lat="48.02853" lon="7.12703">
        <ele>562.66</ele>
        <time>2021-06-23T12:07:34Z</time>
      </trkpt>
      <trkpt lat="48.02819" lon="7.12703">
        <ele>564.26</ele>
        <time>2021-06-23T12:07:37Z</time>
      </trkpt>
      <trkpt lat="48.02785" lon="7.12695">
        <ele>567.04</ele>
        <time>2021-06-23T12:07:40Z</time>
      </trkpt>
      <trkpt lat="48.02764" lon="7.12695">
        <ele>569.11</ele>
        <time>2021-06-23T12:07:43Z</time>
      </trkpt>
      <trkpt lat="48.02729" lon="7.12701">
        <ele>573.63</ele>
        <time>2021-06-23T12:07:47Z</time>
      </trkpt>
      <trkpt lat="48.02654" lon="7.1271">
        <ele>580.31</ele>
        <time>2021-06-23T12:07:50Z</time>
      </trkpt>
      <trkpt lat="48.02633" lon="7.12717">
        <ele>581.84</ele>
        <time>2021-06-23T12:07:53Z</time>
      </trkpt>
      <trkpt lat="48.02607" lon="7.12732">
        <ele>583.56</ele>
        <time>2021-06-23T12:07:56Z</time>
      </trkpt>
      <trkpt lat="48.02588" lon="7.12747">
        <ele>584.37</ele>
        <time>2021-06-23T12:08:00Z</time>
      </trkpt>
      <trkpt lat="48.02576" lon="7.12763">
        <ele>585.91</ele>
        <time>2021-06-23T12:08:03Z</time>
      </trkpt>
      <trkpt lat="48.02544" lon="7.1282">
        <ele>597.7</ele>
        <time>2021-06-23T12:08:06Z</time>
      </trkpt>
      <trkpt lat="48.02526" lon="7.12835">
        <ele>600.62</ele>
        <time>2021-06-23T12:08:09Z</time>
      </trkpt>
      <trkpt lat="48.02503" lon="7.12837">
        <ele>602.18</ele>
        <time>2021-06-23T12:08:13Z</time>
      </trkpt>
      <trkpt lat="48.02469" lon="7.1283">
        <ele>604.3</ele>
        <time>2021-06-23T12:08:16Z</time>
      </trkpt>
      <trkpt lat="48.02424" lon="7.12829">
        <ele>607.61</ele>
        <time>2021-06-23T12:08:19Z</time>
      </trkpt>
      <trkpt lat="48.0239" lon="7.12834">
        <ele>612.99</ele>
        <time>2021-06-23T12:08:22Z</time>
      </trkpt>
      <trkpt lat="48.02369" lon="7.12834">
        <ele>615.46</ele>
        <time>2021-06-23T12:08:26Z</time>
      </trkpt>
      <trkpt lat="48.02299" lon="7.12815">
        <ele>620.04</ele>
        <time>2021-06-23T12:08:29Z</time>
      </trkpt>
      <trkpt lat="48.02292" lon="7.12815">
        <ele>621.58</ele>
        <time>2021-06-23T12:08:32Z</time>
      </trkpt>
      <trkpt lat="48.02287" lon="7.12821">
        <ele>625.03</ele>
        <time>2021-06-23T12:08:35Z</time>
      </trkpt>
      <trkpt lat="48.02288" lon="7.12827">
        <ele>627.18</ele>
        <time>2021-06-23T12:08:39Z</time>
      </trkpt>
      <trkpt lat="48.02292" lon="7.12833">
        <ele>628.95</ele>
        <time>2021-06-23T12:08:42Z</time>
      </trkpt>
      <trkpt lat="48.02306" lon="7.12847">
        <ele>630.62</ele>
        <time>2021-06-23T12:08:45Z</time>
      </trkpt>
      <trkpt lat="48.02405" lon="7.12927">
        <ele>640.02</ele>
        <time>2021-06-23T12:08:48Z</time>
      </trkpt>
      <trkpt lat="48.02537" lon="7.13015">
        <ele>652.31</ele>
        <time>2021-06-23T12:08:52Z</time>
      </trkpt>
      <trkpt lat="48.02557" lon="7.13033">
        <ele>655.21</ele>
        <time>2021-06-23T12:08:55Z</time>
      </trkpt>
      <trkpt lat="48.0259" lon="7.13037">
        <ele>654.03</ele>
        <time>2021-06-23T12:08:58Z</time>
      </trkpt>
      <trkpt lat="48.02603" lon="7.13041">
        <ele>653.63</ele>
        <time>2021-06-23T12:09:01Z</time>
      </trkpt>
      <trkpt lat="48.02622" lon="7.13057">
        <ele>652.82</ele>
        <time>2021-06-23T12:09:05Z</time>
      </trkpt>
      <trkpt lat="48.02634" lon="7.13076">
        <ele>653.21</ele>
        <time>2021-06-23T12:09:08Z</time>
      </trkpt>
      <trkpt lat="48.02649" lon="7.13122">
        <ele>658.9</ele>
        <time>2021-06-23T12:09:11Z</time>
      </trkpt>
      <trkpt lat="48.0267" lon="7.13213">
        <ele>665.32</ele>
        <time>2021-06-23T12:09:14Z</time>
      </trkpt>
      <trkpt lat="48.02679" lon="7.13263">
        <ele>665.46</ele>
        <time>2021-06-23T12:09:18Z</time>
      </trkpt>
      <trkpt lat="48.02681" lon="7.13298">
        <ele>665.58</ele>
        <time>2021-06-23T12:09:21Z</time>
      </trkpt>
      <trkpt lat="48.02675" lon="7.13347">
        <ele>670.07</ele>
        <time>2021-06-23T12:09:24Z</time>
      </trkpt>
      <trkpt lat="48.02672" lon="7.13354">
        <ele>671.85</ele>
        <time>2021-06-23T12:09:27Z</time>
      </trkpt>
      <trkpt lat="48.02665" lon="7.13358">
        <ele>674.7</ele>
        <time>2021-06-23T12:09:31Z</time>
      </trkpt>
      <trkpt lat="48.02659" lon="7.13355">
        <ele>676.82</ele>
        <time>2021-06-23T12:09:34Z</time>
      </trkpt>
      <trkpt lat="48.02657" lon="7.1335">
        <ele>677.7</ele>
        <time>2021-06-23T12:09:38Z</time>
      </trkpt>
      <trkpt lat="48.02656" lon="7.13335">
        <ele>678.55</ele>
        <time>2021-06-23T12:09:43Z</time>
      </trkpt>
      <trkpt lat="48.02656" lon="7.13287">
        <ele>675.98</ele>
        <time>2021-06-23T12:09:47Z</time>
      </trkpt>
      <trkpt lat="48.02652" lon="7.13268">
        <ele>676.84</ele>
        <time>2021-06-23T12:09:51Z</time>
      </trkpt>
      <trkpt lat="48.02647" lon="7.13256">
        <ele>679.03</ele>
        <time>2021-06-23T12:09:55Z</time>
      </trkpt>
      <trkpt lat="48.02628" lon="7.13227">
        <ele>684.5</ele>
        <time>2021-06-23T12:10:00Z</time>
      </trkpt>
      <trkpt lat="48.02571" lon="7.13173">
        <ele>688.21</ele>
        <time>2021-06-23T12:10:04Z</time>
      </trkpt>
      <trkpt lat="48.02563" lon="7.13167">
        <ele>688.77</ele>
        <time>2021-06-23T12:10:08Z</time>
      </trkpt>
      <trkpt lat="48.02481" lon="7.13162">
        <ele>698.84</ele>
        <time>2021-06-23T12:10:13Z</time>
      </trkpt>
      <trkpt lat="48.02434" lon="7.13163">
        <ele>702.77</ele>
        <time>2021-06-23T12:10:17Z</time>
      </trkpt>
      <trkpt lat="48.02364" lon="7.13171">
        <ele>712.9</ele>
        <time>2021-06-23T12:10:21Z</time>
      </trkpt>
      <trkpt lat="48.02323" lon="7.13164">
        <ele>719.51</ele>
        <time>2021-06-23T12:10:26Z</time>
      </trkpt>
      <trkpt lat="48.02309" lon="7.13158">
        <ele>721.61</ele>
        <time>2021-06-23T12:10:30Z</time>
      </trkpt>
      <trkpt lat="48.02259" lon="7.13113">
        <ele>723.42</ele>
        <time>2021-06-23T12:10:34Z</time>
      </trkpt>
      <trkpt lat="48.02218" lon="7.13087">
        <ele>725.46</ele>
        <time>2021-06-23T12:10:38Z</time>
      </trkpt>
      <trkpt lat="48.022" lon="7.13083">
        <ele>726.38</ele>
        <time>2021-06-23T12:10:43Z</time>
      </trkpt>
      <trkpt lat="48.02187" lon="7.13083">
        <ele>726.53</ele>
        <time>2021-06-23T12:10:47Z</time>
      </trkpt>
      <trkpt lat="48.02153" lon="7.1309">
        <ele>729.12</ele>
        <time>2021-06-23T12:10:51Z</time>
      </trkpt>
      <trkpt lat="48.0212" lon="7.13102">
        <ele>734.05</ele>
        <time>2021-06-23T12:10:56Z</time>
      </trkpt>
      <trkpt lat="48.0209" lon="7.13119">
        <ele>738.36</ele>
        <time>2021-06-23T12:11:00Z</time>
      </trkpt>
      <trkpt lat="48.02047" lon="7.13148">
        <ele>745.48</ele>
        <time>2021-06-23T12:11:04Z</time>
      </trkpt>
      <trkpt lat="48.02033" lon="7.13154">
        <ele>747.1</ele>
        <time>2021-06-23T12:11:09Z</time>
      </trkpt>
      <trkpt lat="48.02016" lon="7.13155">
        <ele>748.39</ele>
        <time>2021-06-23T12:11:13Z</time>
      </trkpt>
      <trkpt lat="48.01938" lon="7.13147">
        <ele>754.01</ele>
        <time>2021-06-23T12:11:17Z</time>
      </trkpt>
      <trkpt lat="48.01917" lon="7.13152">
        <ele>757.33</ele>
        <time>2021-06-23T12:11:21Z</time>
      </trkpt>
      <trkpt lat="48.01862" lon="7.13181">
        <ele>767.09</ele>
        <time>2021-06-23T12:11:26Z</time>
      </trkpt>
      <trkpt lat="48.0183" lon="7.1319">
        <ele>769.17</ele>
        <time>2021-06-23T12:11:30Z</time>
      </trkpt>
      <trkpt lat="48.01812" lon="7.1319">
        <ele>770.49</ele>
        <time>2021-06-23T12:11:34Z</time>
      </trkpt>
      <trkpt lat="48.01753" lon="7.13178">
        <ele>777.91</ele>
        <time>2021-06-23T12:11:39Z</time>
      </trkpt>
      <trkpt lat="48.01653" lon="7.13169">
        <ele>787.21</ele>
        <time>2021-06-23T12:11:43Z</time>
      </trkpt>
      <trkpt lat="48.01633" lon="7.13171">
        <ele>787.78</ele>
        <time>2021-06-23T12:11:47Z</time>
      </trkpt>
      <trkpt lat="48.01616" lon="7.13178">
        <ele>789.08</ele>
        <time>2021-06-23T12:11:52Z</time>
      </trkpt>
      <trkpt lat="48.01569" lon="7.13216">
        <ele>799.23</ele>
        <time>2021-06-23T12:11:56Z</time>
      </trkpt>
      <trkpt lat="48.01551" lon="7.13222">
        <ele>801.25</ele>
        <time>2021-06-23T12:12:00Z</time>
      </trkpt>
      <trkpt lat="48.0151" lon="7.13229">
        <ele>803.59</ele>
        <time>2021-06-23T12:12:04Z</time>
      </trkpt>
      <trkpt lat="48.01463" lon="7.13253">
        <ele>806.94</ele>
        <time>2021-06-23T12:12:09Z</time>
      </trkpt>
      <trkpt lat="48.01433" lon="7.13275">
        <ele>809.59</ele>
        <time>2021-06-23T12:12:13Z</time>
      </trkpt>
      <trkpt lat="48.01417" lon="7.13295">
        <ele>812.33</ele>
        <time>2021-06-23T12:12:17Z</time>
      </trkpt>
      <trkpt lat="48.01396" lon="7.13342">
        <ele>814.58</ele>
        <time>2021-06-23T12:12:22Z</time>
      </trkpt>
      <trkpt lat="48.01313" lon="7.13474">
        <ele>825.08</ele>
        <time>2021-06-23T12:12:26Z</time>
      </trkpt>
      <trkpt lat="48.01279" lon="7.13513">
        <ele>827.68</ele>
        <time>2021-06-23T12:12:30Z</time>
      </trkpt>
      <trkpt lat="48.01236" lon="7.13557">
        <ele>830.33</ele>
        <time>2021-06-23T12:12:35Z</time>
      </trkpt>
      <trkpt lat="48.01208" lon="7.13594">
        <ele>833.97</ele>
        <time>2021-06-23T12:12:39Z</time>
      </trkpt>
      <trkpt lat="48.01196" lon="7.136">
        <ele>834.73</ele>
        <time>2021-06-23T12:12:43Z</time>
      </trkpt>
      <trkpt lat="48.01168" lon="7.13605">
        <ele>836.77</ele>
        <time>2021-06-23T12:12:47Z</time>
      </trkpt>
      <trkpt lat="48.01152" lon="7.13603">
        <ele>837.41</ele>
        <time>2021-06-23T12:12:52Z</time>
      </trkpt>
      <trkpt lat="48.01152" lon="7.13603">
        <ele>837.41</ele>
        <time>2021-06-23T12:12:52Z</time>
      </trkpt>
      <trkpt lat="48.01047" lon="7.13582">
        <ele>862.29</ele>
        <time>2021-06-23T12:12:56Z</time>
      </trkpt>
      <trkpt lat="48.01031" lon="7.13575">
        <ele>864.73</ele>
        <time>2021-06-23T12:13:01Z</time>
      </trkpt>
      <trkpt lat="48.01015" lon="7.13563">
        <ele>866.58</ele>
        <time>2021-06-23T12:13:05Z</time>
      </trkpt>
      <trkpt lat="48.01001" lon="7.13548">
        <ele>867.25</ele>
        <time>2021-06-23T12:13:09Z</time>
      </trkpt>
      <trkpt lat="48.0099" lon="7.13531">
        <ele>868.23</ele>
        <time>2021-06-23T12:13:14Z</time>
      </trkpt>
      <trkpt lat="48.00973" lon="7.13486">
        <ele>868.89</ele>
        <time>2021-06-23T12:13:18Z</time>
      </trkpt>
      <trkpt lat="48.00916" lon="7.13377">
        <ele>874.7</ele>
        <time>2021-06-23T12:13:23Z</time>
      </trkpt>
      <trkpt lat="48.00906" lon="7.13362">
        <ele>875.61</ele>
        <time>2021-06-23T12:13:27Z</time>
      </trkpt>
      <trkpt lat="48.00894" lon="7.13348">
        <ele>876.88</ele>
        <time>2021-06-23T12:13:31Z</time>
      </trkpt>
      <trkpt lat="48.00867" lon="7.13327">
        <ele>878.13</ele>
        <time>2021-06-23T12:13:36Z</time>
      </trkpt>
      <trkpt lat="48.00837" lon="7.13327">
        <ele>880.73</ele>
        <time>2021-06-23T12:13:40Z</time>
      </trkpt>
      <trkpt lat="48.00817" lon="7.13322">
        <ele>882.64</ele>
        <time>2021-06-23T12:13:44Z</time>
      </trkpt>
      <trkpt lat="48.00801" lon="7.13315">
        <ele>884.14</ele>
        <time>2021-06-23T12:13:49Z</time>
      </trkpt>
      <trkpt lat="48.0077" lon="7.13294">
        <ele>884.47</ele>
        <time>2021-06-23T12:13:53Z</time>
      </trkpt>
      <trkpt lat="48.00746" lon="7.13293">
        <ele>883.8</ele>
        <time>2021-06-23T12:13:58Z</time>
      </trkpt>
      <trkpt lat="48.00714" lon="7.13315">
        <ele>885.39</ele>
        <time>2021-06-23T12:14:02Z</time>
      </trkpt>
      <trkpt lat="48.00651" lon="7.13386">
        <ele>891.95</ele>
        <time>2021-06-23T12:14:06Z</time>
      </trkpt>
      <trkpt lat="48.006" lon="7.13452">
        <ele>893.9</ele>
        <time>2021-06-23T12:14:11Z</time>
      </trkpt>
      <trkpt lat="48.00578" lon="7.13474">
        <ele>891.96</ele>
        <time>2021-06-23T12:14:15Z</time>
      </trkpt>
      <trkpt lat="48.00563" lon="7.13482">
        <ele>889.09</ele>
        <time>2021-06-23T12:14:20Z</time>
      </trkpt>
      <trkpt lat="48.00536" lon="7.13486">
        <ele>886.8</ele>
        <time>2021-06-23T12:14:24Z</time>
      </trkpt>
      <trkpt lat="48.0052" lon="7.13485">
        <ele>887.57</ele>
        <time>2021-06-23T12:14:28Z</time>
      </trkpt>
      <trkpt lat="48.00489" lon="7.13476">
        <ele>891.23</ele>
        <time>2021-06-23T12:14:33Z</time>
      </trkpt>
      <trkpt lat="48.00449" lon="7.13456">
        <ele>893.35</ele>
        <time>2021-06-23T12:14:37Z</time>
      </trkpt>
      <trkpt lat="48.00425" lon="7.13439">
        <ele>893.34</ele>
        <time>2021-06-23T12:14:42Z</time>
      </trkpt>
      <trkpt lat="48.00416" lon="7.13436">
        <ele>893.45</ele>
        <time>2021-06-23T12:14:46Z</time>
      </trkpt>
      <trkpt lat="48.00406" lon="7.13438">
        <ele>893.95</ele>
        <time>2021-06-23T12:14:50Z</time>
      </trkpt>
      <trkpt lat="48.0037" lon="7.13419">
        <ele>894.54</ele>
        <time>2021-06-23T12:14:55Z</time>
      </trkpt>
      <trkpt lat="48.00338" lon="7.13396">
        <ele>896.91</ele>
        <time>2021-06-23T12:14:59Z</time>
      </trkpt>
      <trkpt lat="48.00322" lon="7.13381">
        <ele>898.56</ele>
        <time>2021-06-23T12:15:04Z</time>
      </trkpt>
      <trkpt lat="48.00288" lon="7.13344">
        <ele>901.43</ele>
        <time>2021-06-23T12:15:08Z</time>
      </trkpt>
      <trkpt lat="48.00271" lon="7.1333">
        <ele>905.39</ele>
        <time>2021-06-23T12:15:12Z</time>
      </trkpt>
      <trkpt lat="48.00226" lon="7.13306">
        <ele>917.13</ele>
        <time>2021-06-23T12:15:17Z</time>
      </trkpt>
      <trkpt lat="48.00172" lon="7.13263">
        <ele>919.88</ele>
        <time>2021-06-23T12:15:21Z</time>
      </trkpt>
      <trkpt lat="48.00115" lon="7.13209">
        <ele>922.93</ele>
        <time>2021-06-23T12:15:25Z</time>
      </trkpt>
      <trkpt lat="48.00009" lon="7.13103">
        <ele>934.97</ele>
        <time>2021-06-23T12:15:30Z</time>
      </trkpt>
      <trkpt lat="47.99983" lon="7.1308">
        <ele>937.9</ele>
        <time>2021-06-23T12:15:34Z</time>
      </trkpt>
      <trkpt lat="47.99948" lon="7.13054">
        <ele>941.15</ele>
        <time>2021-06-23T12:15:39Z</time>
      </trkpt>
      <trkpt lat="47.9991" lon="7.13031">
        <ele>945.86</ele>
        <time>2021-06-23T12:15:43Z</time>
      </trkpt>
      <trkpt lat="47.99842" lon="7.12974">
        <ele>950.47</ele>
        <time>2021-06-23T12:15:47Z</time>
      </trkpt>
      <trkpt lat="47.99797" lon="7.12944">
        <ele>954.8</ele>
        <time>2021-06-23T12:15:51Z</time>
      </trkpt>
      <trkpt lat="47.99779" lon="7.12935">
        <ele>955.53</ele>
        <time>2021-06-23T12:15:54Z</time>
      </trkpt>
      <trkpt lat="47.99758" lon="7.12931">
        <ele>955.78</ele>
        <time>2021-06-23T12:15:58Z</time>
      </trkpt>
      <trkpt lat="47.99741" lon="7.12933">
        <ele>956.71</ele>
        <time>2021-06-23T12:16:02Z</time>
      </trkpt>
      <trkpt lat="47.99729" lon="7.12939">
        <ele>958.35</ele>
        <time>2021-06-23T12:16:06Z</time>
      </trkpt>
      <trkpt lat="47.99688" lon="7.12965">
        <ele>966.48</ele>
        <time>2021-06-23T12:16:10Z</time>
      </trkpt>
      <trkpt lat="47.99673" lon="7.12971">
        <ele>968.45</ele>
        <time>2021-06-23T12:16:14Z</time>
      </trkpt>
      <trkpt lat="47.99644" lon="7.12977">
        <ele>973.15</ele>
        <time>2021-06-23T12:16:18Z</time>
      </trkpt>
      <trkpt lat="47.99632" lon="7.12977">
        <ele>974.99</ele>
        <time>2021-06-23T12:16:22Z</time>
      </trkpt>
      <trkpt lat="47.99618" lon="7.12976">
        <ele>976.73</ele>
        <time>2021-06-23T12:16:26Z</time>
      </trkpt>
      <trkpt lat="47.99566" lon="7.12964">
        <ele>978.38</ele>
        <time>2021-06-23T12:16:30Z</time>
      </trkpt>
      <trkpt lat="47.99514" lon="7.1296">
        <ele>984.61</ele>
        <time>2021-06-23T12:16:34Z</time>
      </trkpt>
      <trkpt lat="47.99459" lon="7.1295">
        <ele>993.16</ele>
        <time>2021-06-23T12:16:38Z</time>
      </trkpt>
      <trkpt lat="47.99421" lon="7.12934">
        <ele>995.06</ele>
        <time>2021-06-23T12:16:42Z</time>
      </trkpt>
      <trkpt lat="47.99403" lon="7.12924">
        <ele>995.39</ele>
        <time>2021-06-23T12:16:46Z</time>
      </trkpt>
      <trkpt lat="47.99384" lon="7.12917">
        <ele>996.59</ele>
        <time>2021-06-23T12:16:50Z</time>
      </trkpt>
      <trkpt lat="47.99349" lon="7.12914">
        <ele>999.32</ele>
        <time>2021-06-23T12:16:54Z</time>
      </trkpt>
      <trkpt lat="47.99306" lon="7.12921">
        <ele>1001.69</ele>
        <time>2021-06-23T12:16:58Z</time>
      </trkpt>
      <trkpt lat="47.99282" lon="7.1293">
        <ele>1003.38</ele>
        <time>2021-06-23T12:17:03Z</time>
      </trkpt>
      <trkpt lat="47.99266" lon="7.12939">
        <ele>1004.6</ele>
        <time>2021-06-23T12:17:07Z</time>
      </trkpt>
      <trkpt lat="47.99259" lon="7.12947">
        <ele>1005.71</ele>
        <time>2021-06-23T12:17:11Z</time>
      </trkpt>
      <trkpt lat="47.99255" lon="7.12954">
        <ele>1006.61</ele>
        <time>2021-06-23T12:17:15Z</time>
      </trkpt>
      <trkpt lat="47.99245" lon="7.13033">
        <ele>1012.81</ele>
        <time>2021-06-23T12:17:19Z</time>
      </trkpt>
      <trkpt lat="47.99243" lon="7.13044">
        <ele>1012.4</ele>
        <time>2021-06-23T12:17:23Z</time>
      </trkpt>
      <trkpt lat="47.99239" lon="7.1305">
        <ele>1012.22</ele>
        <time>2021-06-23T12:17:27Z</time>
      </trkpt>
      <trkpt lat="47.99234" lon="7.13051">
        <ele>1012.16</ele>
        <time>2021-06-23T12:17:31Z</time>
      </trkpt>
      <trkpt lat="47.99224" lon="7.13046">
        <ele>1012.35</ele>
        <time>2021-06-23T12:17:35Z</time>
      </trkpt>
      <trkpt lat="47.99207" lon="7.1302">
        <ele>1013.81</ele>
        <time>2021-06-23T12:17:39Z</time>
      </trkpt>
      <trkpt lat="47.99149" lon="7.12961">
        <ele>1013.79</ele>
        <time>2021-06-23T12:17:43Z</time>
      </trkpt>
      <trkpt lat="47.99117" lon="7.12921">
        <ele>1020.08</ele>
        <time>2021-06-23T12:17:47Z</time>
      </trkpt>
      <trkpt lat="47.9908" lon="7.12879">
        <ele>1027.07</ele>
        <time>2021-06-23T12:17:51Z</time>
      </trkpt>
      <trkpt lat="47.99015" lon="7.12814">
        <ele>1038.69</ele>
        <time>2021-06-23T12:17:55Z</time>
      </trkpt>
      <trkpt lat="47.9899" lon="7.12796">
        <ele>1044.2</ele>
        <time>2021-06-23T12:17:59Z</time>
      </trkpt>
      <trkpt lat="47.9895" lon="7.12758">
        <ele>1045.76</ele>
        <time>2021-06-23T12:18:03Z</time>
      </trkpt>
      <trkpt lat="47.9889" lon="7.12694">
        <ele>1049.84</ele>
        <time>2021-06-23T12:18:07Z</time>
      </trkpt>
      <trkpt lat="47.98866" lon="7.12678">
        <ele>1054.84</ele>
        <time>2021-06-23T12:18:11Z</time>
      </trkpt>
      <trkpt lat="47.9886" lon="7.12665">
        <ele>1054.99</ele>
        <time>2021-06-23T12:18:15Z</time>
      </trkpt>
      <trkpt lat="47.98859" lon="7.12655">
        <ele>1054.29</ele>
        <time>2021-06-23T12:18:20Z</time>
      </trkpt>
      <trkpt lat="47.98861" lon="7.12643">
        <ele>1053.3</ele>
        <time>2021-06-23T12:18:24Z</time>
      </trkpt>
      <trkpt lat="47.98875" lon="7.1259">
        <ele>1052.79</ele>
        <time>2021-06-23T12:18:28Z</time>
      </trkpt>
      <trkpt lat="47.9889" lon="7.12494">
        <ele>1067.87</ele>
        <time>2021-06-23T12:18:32Z</time>
      </trkpt>
      <trkpt lat="47.98902" lon="7.12466">
        <ele>1070.11</ele>
        <time>2021-06-23T12:18:36Z</time>
      </trkpt>
      <trkpt lat="47.98938" lon="7.12398">
        <ele>1071.6</ele>
        <time>2021-06-23T12:18:40Z</time>
      </trkpt>
      <trkpt lat="47.9895" lon="7.12371">
        <ele>1073.63</ele>
        <time>2021-06-23T12:18:44Z</time>
      </trkpt>
      <trkpt lat="47.98972" lon="7.12344">
        <ele>1075.85</ele>
        <time>2021-06-23T12:18:48Z</time>
      </trkpt>
      <trkpt lat="47.99006" lon="7.12323">
        <ele>1084.14</ele>
        <time>2021-06-23T12:18:52Z</time>
      </trkpt>
      <trkpt lat="47.99097" lon="7.12333">
        <ele>1092.03</ele>
        <time>2021-06-23T12:18:56Z</time>
      </trkpt>
      <trkpt lat="47.99116" lon="7.12331">
        <ele>1092.5</ele>
        <time>2021-06-23T12:19:00Z</time>
      </trkpt>
      <trkpt lat="47.99149" lon="7.12307">
        <ele>1096.95</ele>
        <time>2021-06-23T12:19:04Z</time>
      </trkpt>
      <trkpt lat="47.99202" lon="7.12257">
        <ele>1103.4</ele>
        <time>2021-06-23T12:19:08Z</time>
      </trkpt>
      <trkpt lat="47.99204" lon="7.12249">
        <ele>1104.41</ele>
        <time>2021-06-23T12:19:12Z</time>
      </trkpt>
      <trkpt lat="47.99203" lon="7.1224">
        <ele>1104.94</ele>
        <time>2021-06-23T12:19:16Z</time>
      </trkpt>
      <trkpt lat="47.99193" lon="7.12226">
        <ele>1106.86</ele>
        <time>2021-06-23T12:19:20Z</time>
      </trkpt>
      <trkpt lat="47.99177" lon="7.12212">
        <ele>1107.81</ele>
        <time>2021-06-23T12:19:24Z</time>
      </trkpt>
      <trkpt lat="47.99111" lon="7.12184">
        <ele>1112</ele>
        <time>2021-06-23T12:19:28Z</time>
      </trkpt>
      <trkpt lat="47.9903" lon="7.12126">
        <ele>1119.56</ele>
        <time>2021-06-23T12:19:32Z</time>
      </trkpt>
      <trkpt lat="47.99006" lon="7.12115">
        <ele>1121.3</ele>
        <time>2021-06-23T12:19:37Z</time>
      </trkpt>
      <trkpt lat="47.9897" lon="7.12109">
        <ele>1122.39</ele>
        <time>2021-06-23T12:19:41Z</time>
      </trkpt>
      <trkpt lat="47.98944" lon="7.12101">
        <ele>1124.53</ele>
        <time>2021-06-23T12:19:45Z</time>
      </trkpt>
      <trkpt lat="47.98909" lon="7.12075">
        <ele>1129.25</ele>
        <time>2021-06-23T12:19:49Z</time>
      </trkpt>
      <trkpt lat="47.98882" lon="7.12061">
        <ele>1131.21</ele>
        <time>2021-06-23T12:19:53Z</time>
      </trkpt>
      <trkpt lat="47.9883" lon="7.12042">
        <ele>1137.75</ele>
        <time>2021-06-23T12:19:57Z</time>
      </trkpt>
      <trkpt lat="47.98808" lon="7.12039">
        <ele>1139.8</ele>
        <time>2021-06-23T12:20:01Z</time>
      </trkpt>
      <trkpt lat="47.98736" lon="7.12061">
        <ele>1140.16</ele>
        <time>2021-06-23T12:20:05Z</time>
      </trkpt>
      <trkpt lat="47.98669" lon="7.12074">
        <ele>1145.3</ele>
        <time>2021-06-23T12:20:09Z</time>
      </trkpt>
      <trkpt lat="47.98536" lon="7.12095">
        <ele>1159.33</ele>
        <time>2021-06-23T12:20:13Z</time>
      </trkpt>
      <trkpt lat="47.98518" lon="7.121">
        <ele>1161.54</ele>
        <time>2021-06-23T12:20:17Z</time>
      </trkpt>
      <trkpt lat="47.98511" lon="7.12097">
        <ele>1162.28</ele>
        <time>2021-06-23T12:20:21Z</time>
      </trkpt>
      <trkpt lat="47.98505" lon="7.12083">
        <ele>1162.61</ele>
        <time>2021-06-23T12:20:24Z</time>
      </trkpt>
      <trkpt lat="47.98502" lon="7.12064">
        <ele>1160.83</ele>
        <time>2021-06-23T12:20:27Z</time>
      </trkpt>
      <trkpt lat="47.98499" lon="7.12054">
        <ele>1159.97</ele>
        <time>2021-06-23T12:20:30Z</time>
      </trkpt>
      <trkpt lat="47.98484" lon="7.12038">
        <ele>1159.54</ele>
        <time>2021-06-23T12:20:32Z</time>
      </trkpt>
      <trkpt lat="47.98473" lon="7.12032">
        <ele>1159.45</ele>
        <time>2021-06-23T12:20:35Z</time>
      </trkpt>
      <trkpt lat="47.98442" lon="7.12026">
        <ele>1157.4</ele>
        <time>2021-06-23T12:20:38Z</time>
      </trkpt>
      <trkpt lat="47.98423" lon="7.12027">
        <ele>1156.18</ele>
        <time>2021-06-23T12:20:41Z</time>
      </trkpt>
      <trkpt lat="47.98389" lon="7.12031">
        <ele>1153.63</ele>
        <time>2021-06-23T12:20:44Z</time>
      </trkpt>
      <trkpt lat="47.98342" lon="7.12042">
        <ele>1157.32</ele>
        <time>2021-06-23T12:20:47Z</time>
      </trkpt>
      <trkpt lat="47.98323" lon="7.12042">
        <ele>1157.25</ele>
        <time>2021-06-23T12:20:50Z</time>
      </trkpt>
      <trkpt lat="47.98289" lon="7.12034">
        <ele>1153.92</ele>
        <time>2021-06-23T12:20:52Z</time>
      </trkpt>
      <trkpt lat="47.98266" lon="7.12024">
        <ele>1151.01</ele>
        <time>2021-06-23T12:20:55Z</time>
      </trkpt>
      <trkpt lat="47.9823" lon="7.12004">
        <ele>1145.7</ele>
        <time>2021-06-23T12:20:58Z</time>
      </trkpt>
      <trkpt lat="47.98203" lon="7.11997">
        <ele>1144.89</ele>
        <time>2021-06-23T12:21:01Z</time>
      </trkpt>
      <trkpt lat="47.98168" lon="7.11991">
        <ele>1142.75</ele>
        <time>2021-06-23T12:21:04Z</time>
      </trkpt>
      <trkpt lat="47.98147" lon="7.1199">
        <ele>1141.52</ele>
        <time>2021-06-23T12:21:07Z</time>
      </trkpt>
      <trkpt lat="47.98117" lon="7.11975">
        <ele>1139.89</ele>
        <time>2021-06-23T12:21:09Z</time>
      </trkpt>
      <trkpt lat="47.98107" lon="7.11966">
        <ele>1141.06</ele>
        <time>2021-06-23T12:21:11Z</time>
      </trkpt>
      <trkpt lat="47.98097" lon="7.11951">
        <ele>1142.93</ele>
        <time>2021-06-23T12:21:14Z</time>
      </trkpt>
      <trkpt lat="47.98084" lon="7.11923">
        <ele>1141.29</ele>
        <time>2021-06-23T12:21:16Z</time>
      </trkpt>
      <trkpt lat="47.98084" lon="7.11923">
        <ele>1141.29</ele>
        <time>2021-06-23T12:21:16Z</time>
      </trkpt>
      <trkpt lat="47.98054" lon="7.11856">
        <ele>1139.65</ele>
        <time>2021-06-23T12:21:22Z</time>
      </trkpt>
      <trkpt lat="47.98043" lon="7.1184">
        <ele>1139.96</ele>
        <time>2021-06-23T12:21:26Z</time>
      </trkpt>
      <trkpt lat="47.98015" lon="7.11812">
        <ele>1141.63</ele>
        <time>2021-06-23T12:21:29Z</time>
      </trkpt>
      <trkpt lat="47.9801" lon="7.11802">
        <ele>1141.57</ele>
        <time>2021-06-23T12:21:33Z</time>
      </trkpt>
      <trkpt lat="47.98009" lon="7.1179">
        <ele>1140.1</ele>
        <time>2021-06-23T12:21:37Z</time>
      </trkpt>
      <trkpt lat="47.98012" lon="7.11774">
        <ele>1136.77</ele>
        <time>2021-06-23T12:21:41Z</time>
      </trkpt>
      <trkpt lat="47.98026" lon="7.11739">
        <ele>1130.39</ele>
        <time>2021-06-23T12:21:44Z</time>
      </trkpt>
      <trkpt lat="47.9803" lon="7.1172">
        <ele>1129.05</ele>
        <time>2021-06-23T12:21:48Z</time>
      </trkpt>
      <trkpt lat="47.98032" lon="7.11686">
        <ele>1126.73</ele>
        <time>2021-06-23T12:21:52Z</time>
      </trkpt>
      <trkpt lat="47.98031" lon="7.11615">
        <ele>1122.89</ele>
        <time>2021-06-23T12:21:56Z</time>
      </trkpt>
      <trkpt lat="47.98033" lon="7.11564">
        <ele>1123.81</ele>
        <time>2021-06-23T12:21:59Z</time>
      </trkpt>
      <trkpt lat="47.98039" lon="7.11484">
        <ele>1121.22</ele>
        <time>2021-06-23T12:22:03Z</time>
      </trkpt>
      <trkpt lat="47.98039" lon="7.11411">
        <ele>1114.82</ele>
        <time>2021-06-23T12:22:07Z</time>
      </trkpt>
      <trkpt lat="47.98032" lon="7.11328">
        <ele>1110.85</ele>
        <time>2021-06-23T12:22:10Z</time>
      </trkpt>
      <trkpt lat="47.98022" lon="7.11247">
        <ele>1108.71</ele>
        <time>2021-06-23T12:22:14Z</time>
      </trkpt>
      <trkpt lat="47.98016" lon="7.11166">
        <ele>1102.15</ele>
        <time>2021-06-23T12:22:18Z</time>
      </trkpt>
      <trkpt lat="47.98017" lon="7.11126">
        <ele>1100.52</ele>
        <time>2021-06-23T12:22:22Z</time>
      </trkpt>
      <trkpt lat="47.9802" lon="7.1108">
        <ele>1096.07</ele>
        <time>2021-06-23T12:22:25Z</time>
      </trkpt>
      <trkpt lat="47.98023" lon="7.11038">
        <ele>1093.64</ele>
        <time>2021-06-23T12:22:30Z</time>
      </trkpt>
      <trkpt lat="47.98032" lon="7.10961">
        <ele>1091.16</ele>
        <time>2021-06-23T12:22:35Z</time>
      </trkpt>
      <trkpt lat="47.98035" lon="7.10929">
        <ele>1089.75</ele>
        <time>2021-06-23T12:22:39Z</time>
      </trkpt>
      <trkpt lat="47.98035" lon="7.10854">
        <ele>1087.93</ele>
        <time>2021-06-23T12:22:44Z</time>
      </trkpt>
      <trkpt lat="47.9803" lon="7.10761">
        <ele>1085.07</ele>
        <time>2021-06-23T12:22:48Z</time>
      </trkpt>
      <trkpt lat="47.98025" lon="7.10618">
        <ele>1071.53</ele>
        <time>2021-06-23T12:22:53Z</time>
      </trkpt>
      <trkpt lat="47.97998" lon="7.10462">
        <ele>1065.1</ele>
        <time>2021-06-23T12:22:57Z</time>
      </trkpt>
      <trkpt lat="47.97981" lon="7.10349">
        <ele>1060.05</ele>
        <time>2021-06-23T12:23:02Z</time>
      </trkpt>
      <trkpt lat="47.97981" lon="7.10309">
        <ele>1051.97</ele>
        <time>2021-06-23T12:23:07Z</time>
      </trkpt>
      <trkpt lat="47.97986" lon="7.10256">
        <ele>1047.76</ele>
        <time>2021-06-23T12:23:11Z</time>
      </trkpt>
      <trkpt lat="47.97986" lon="7.10217">
        <ele>1045.57</ele>
        <time>2021-06-23T12:23:16Z</time>
      </trkpt>
      <trkpt lat="47.97985" lon="7.10184">
        <ele>1043.4</ele>
        <time>2021-06-23T12:23:20Z</time>
      </trkpt>
      <trkpt lat="47.97963" lon="7.10066">
        <ele>1035.89</ele>
        <time>2021-06-23T12:23:25Z</time>
      </trkpt>
      <trkpt lat="47.97958" lon="7.10048">
        <ele>1034.32</ele>
        <time>2021-06-23T12:23:29Z</time>
      </trkpt>
      <trkpt lat="47.97949" lon="7.10022">
        <ele>1030.85</ele>
        <time>2021-06-23T12:23:34Z</time>
      </trkpt>
      <trkpt lat="47.9794" lon="7.10003">
        <ele>1029.11</ele>
        <time>2021-06-23T12:23:39Z</time>
      </trkpt>
      <trkpt lat="47.97926" lon="7.09985">
        <ele>1027.6</ele>
        <time>2021-06-23T12:23:43Z</time>
      </trkpt>
      <trkpt lat="47.97901" lon="7.09969">
        <ele>1026.23</ele>
        <time>2021-06-23T12:23:48Z</time>
      </trkpt>
      <trkpt lat="47.97878" lon="7.09961">
        <ele>1025.38</ele>
        <time>2021-06-23T12:23:52Z</time>
      </trkpt>
      <trkpt lat="47.97831" lon="7.0995">
        <ele>1025.34</ele>
        <time>2021-06-23T12:23:57Z</time>
      </trkpt>
      <trkpt lat="47.97744" lon="7.09906">
        <ele>1017.43</ele>
        <time>2021-06-23T12:24:02Z</time>
      </trkpt>
      <trkpt lat="47.97687" lon="7.09869">
        <ele>1014.46</ele>
        <time>2021-06-23T12:24:06Z</time>
      </trkpt>
      <trkpt lat="47.97664" lon="7.09851">
        <ele>1011.27</ele>
        <time>2021-06-23T12:24:11Z</time>
      </trkpt>
      <trkpt lat="47.97566" lon="7.09746">
        <ele>1005.39</ele>
        <time>2021-06-23T12:24:15Z</time>
      </trkpt>
      <trkpt lat="47.9755" lon="7.09731">
        <ele>1006.76</ele>
        <time>2021-06-23T12:24:20Z</time>
      </trkpt>
      <trkpt lat="47.97545" lon="7.09723">
        <ele>1006.68</ele>
        <time>2021-06-23T12:24:24Z</time>
      </trkpt>
      <trkpt lat="47.97544" lon="7.09717">
        <ele>1006.08</ele>
        <time>2021-06-23T12:24:29Z</time>
      </trkpt>
      <trkpt lat="47.97547" lon="7.09712">
        <ele>1005.17</ele>
        <time>2021-06-23T12:24:34Z</time>
      </trkpt>
      <trkpt lat="47.97553" lon="7.09708">
        <ele>1003.93</ele>
        <time>2021-06-23T12:24:38Z</time>
      </trkpt>
      <trkpt lat="47.97558" lon="7.0971">
        <ele>1003.13</ele>
        <time>2021-06-23T12:24:43Z</time>
      </trkpt>
      <trkpt lat="47.97571" lon="7.09721">
        <ele>1001.56</ele>
        <time>2021-06-23T12:24:47Z</time>
      </trkpt>
      <trkpt lat="47.97602" lon="7.09741">
        <ele>997.56</ele>
        <time>2021-06-23T12:24:52Z</time>
      </trkpt>
      <trkpt lat="47.97724" lon="7.09763">
        <ele>986.49</ele>
        <time>2021-06-23T12:24:56Z</time>
      </trkpt>
      <trkpt lat="47.9778" lon="7.09765">
        <ele>980.1</ele>
        <time>2021-06-23T12:25:01Z</time>
      </trkpt>
      <trkpt lat="47.97825" lon="7.09781">
        <ele>978.73</ele>
        <time>2021-06-23T12:25:06Z</time>
      </trkpt>
      <trkpt lat="47.97832" lon="7.09777">
        <ele>976.91</ele>
        <time>2021-06-23T12:25:10Z</time>
      </trkpt>
      <trkpt lat="47.97835" lon="7.0977">
        <ele>975.08</ele>
        <time>2021-06-23T12:25:15Z</time>
      </trkpt>
      <trkpt lat="47.97835" lon="7.09764">
        <ele>973.91</ele>
        <time>2021-06-23T12:25:19Z</time>
      </trkpt>
      <trkpt lat="47.97833" lon="7.09759">
        <ele>973.08</ele>
        <time>2021-06-23T12:25:24Z</time>
      </trkpt>
      <trkpt lat="47.97824" lon="7.09751">
        <ele>972.37</ele>
        <time>2021-06-23T12:25:29Z</time>
      </trkpt>
      <trkpt lat="47.97767" lon="7.09728">
        <ele>973.01</ele>
        <time>2021-06-23T12:25:33Z</time>
      </trkpt>
      <trkpt lat="47.97685" lon="7.0968">
        <ele>976.45</ele>
        <time>2021-06-23T12:25:38Z</time>
      </trkpt>
      <trkpt lat="47.97638" lon="7.09642">
        <ele>970.16</ele>
        <time>2021-06-23T12:25:42Z</time>
      </trkpt>
      <trkpt lat="47.97583" lon="7.09586">
        <ele>962.41</ele>
        <time>2021-06-23T12:25:47Z</time>
      </trkpt>
      <trkpt lat="47.97557" lon="7.0955">
        <ele>958.27</ele>
        <time>2021-06-23T12:25:51Z</time>
      </trkpt>
      <trkpt lat="47.97545" lon="7.0954">
        <ele>957.21</ele>
        <time>2021-06-23T12:25:56Z</time>
      </trkpt>
      <trkpt lat="47.97514" lon="7.09527">
        <ele>958.93</ele>
        <time>2021-06-23T12:26:01Z</time>
      </trkpt>
      <trkpt lat="47.97481" lon="7.09506">
        <ele>959.55</ele>
        <time>2021-06-23T12:26:05Z</time>
      </trkpt>
      <trkpt lat="47.97453" lon="7.09483">
        <ele>959.96</ele>
        <time>2021-06-23T12:26:10Z</time>
      </trkpt>
      <trkpt lat="47.97435" lon="7.09459">
        <ele>958.98</ele>
        <time>2021-06-23T12:26:14Z</time>
      </trkpt>
      <trkpt lat="47.97417" lon="7.09425">
        <ele>958.1</ele>
        <time>2021-06-23T12:26:19Z</time>
      </trkpt>
      <trkpt lat="47.97404" lon="7.09392">
        <ele>954.58</ele>
        <time>2021-06-23T12:26:23Z</time>
      </trkpt>
      <trkpt lat="47.97381" lon="7.09322">
        <ele>947.16</ele>
        <time>2021-06-23T12:26:28Z</time>
      </trkpt>
      <trkpt lat="47.97364" lon="7.09261">
        <ele>942.31</ele>
        <time>2021-06-23T12:26:33Z</time>
      </trkpt>
      <trkpt lat="47.97353" lon="7.092">
        <ele>946.91</ele>
        <time>2021-06-23T12:26:37Z</time>
      </trkpt>
      <trkpt lat="47.9733" lon="7.09054">
        <ele>954</ele>
        <time>2021-06-23T12:26:42Z</time>
      </trkpt>
      <trkpt lat="47.97327" lon="7.09009">
        <ele>952.4</ele>
        <time>2021-06-23T12:26:46Z</time>
      </trkpt>
      <trkpt lat="47.97327" lon="7.08953">
        <ele>948.38</ele>
        <time>2021-06-23T12:26:51Z</time>
      </trkpt>
      <trkpt lat="47.97335" lon="7.0891">
        <ele>945.47</ele>
        <time>2021-06-23T12:26:55Z</time>
      </trkpt>
      <trkpt lat="47.97335" lon="7.0891">
        <ele>945.47</ele>
        <time>2021-06-23T12:26:55Z</time>
      </trkpt>
      <trkpt lat="47.97337" lon="7.08905">
        <ele>945.07</ele>
        <time>2021-06-23T12:27:00Z</time>
      </trkpt>
      <trkpt lat="47.97346" lon="7.08889">
        <ele>943.31</ele>
        <time>2021-06-23T12:27:04Z</time>
      </trkpt>
      <trkpt lat="47.97356" lon="7.08885">
        <ele>941.11</ele>
        <time>2021-06-23T12:27:08Z</time>
      </trkpt>
      <trkpt lat="47.97432" lon="7.08893">
        <ele>932.82</ele>
        <time>2021-06-23T12:27:12Z</time>
      </trkpt>
      <trkpt lat="47.97506" lon="7.08908">
        <ele>921.41</ele>
        <time>2021-06-23T12:27:16Z</time>
      </trkpt>
      <trkpt lat="47.97537" lon="7.08893">
        <ele>924.17</ele>
        <time>2021-06-23T12:27:20Z</time>
      </trkpt>
      <trkpt lat="47.97551" lon="7.08881">
        <ele>924.81</ele>
        <time>2021-06-23T12:27:24Z</time>
      </trkpt>
      <trkpt lat="47.97565" lon="7.08849">
        <ele>922.8</ele>
        <time>2021-06-23T12:27:28Z</time>
      </trkpt>
      <trkpt lat="47.97579" lon="7.08811">
        <ele>912.65</ele>
        <time>2021-06-23T12:27:32Z</time>
      </trkpt>
      <trkpt lat="47.97591" lon="7.0877">
        <ele>905.87</ele>
        <time>2021-06-23T12:27:36Z</time>
      </trkpt>
      <trkpt lat="47.97594" lon="7.08725">
        <ele>911.82</ele>
        <time>2021-06-23T12:27:40Z</time>
      </trkpt>
      <trkpt lat="47.97599" lon="7.08712">
        <ele>912.19</ele>
        <time>2021-06-23T12:27:44Z</time>
      </trkpt>
      <trkpt lat="47.97625" lon="7.0868">
        <ele>913.38</ele>
        <time>2021-06-23T12:27:48Z</time>
      </trkpt>
      <trkpt lat="47.97667" lon="7.08635">
        <ele>918.03</ele>
        <time>2021-06-23T12:27:52Z</time>
      </trkpt>
      <trkpt lat="47.97712" lon="7.08608">
        <ele>914.33</ele>
        <time>2021-06-23T12:27:56Z</time>
      </trkpt>
      <trkpt lat="47.9779" lon="7.08583">
        <ele>905.57</ele>
        <time>2021-06-23T12:28:00Z</time>
      </trkpt>
      <trkpt lat="47.9782" lon="7.08579">
        <ele>900.71</ele>
        <time>2021-06-23T12:28:04Z</time>
      </trkpt>
      <trkpt lat="47.97895" lon="7.0859">
        <ele>897.7</ele>
        <time>2021-06-23T12:28:08Z</time>
      </trkpt>
      <trkpt lat="47.97913" lon="7.08584">
        <ele>897.2</ele>
        <time>2021-06-23T12:28:13Z</time>
      </trkpt>
      <trkpt lat="47.97929" lon="7.08565">
        <ele>896.3</ele>
        <time>2021-06-23T12:28:17Z</time>
      </trkpt>
      <trkpt lat="47.97941" lon="7.08542">
        <ele>894.85</ele>
        <time>2021-06-23T12:28:21Z</time>
      </trkpt>
      <trkpt lat="47.97952" lon="7.08508">
        <ele>891.18</ele>
        <time>2021-06-23T12:28:25Z</time>
      </trkpt>
      <trkpt lat="47.97989" lon="7.08307">
        <ele>880.61</ele>
        <time>2021-06-23T12:28:29Z</time>
      </trkpt>
      <trkpt lat="47.98021" lon="7.08199">
        <ele>872.3</ele>
        <time>2021-06-23T12:28:33Z</time>
      </trkpt>
      <trkpt lat="47.98067" lon="7.0799">
        <ele>861.57</ele>
        <time>2021-06-23T12:28:37Z</time>
      </trkpt>
      <trkpt lat="47.98071" lon="7.07963">
        <ele>858.86</ele>
        <time>2021-06-23T12:28:41Z</time>
      </trkpt>
      <trkpt lat="47.9807" lon="7.07935">
        <ele>856.73</ele>
        <time>2021-06-23T12:28:45Z</time>
      </trkpt>
      <trkpt lat="47.98067" lon="7.07909">
        <ele>856.26</ele>
        <time>2021-06-23T12:28:49Z</time>
      </trkpt>
      <trkpt lat="47.9806" lon="7.07885">
        <ele>856.95</ele>
        <time>2021-06-23T12:28:53Z</time>
      </trkpt>
      <trkpt lat="47.98043" lon="7.07837">
        <ele>862.54</ele>
        <time>2021-06-23T12:28:57Z</time>
      </trkpt>
      <trkpt lat="47.98043" lon="7.07831">
        <ele>862.85</ele>
        <time>2021-06-23T12:29:01Z</time>
      </trkpt>
      <trkpt lat="47.98045" lon="7.07826">
        <ele>862.68</ele>
        <time>2021-06-23T12:29:05Z</time>
      </trkpt>
      <trkpt lat="47.9805" lon="7.07825">
        <ele>861.1</ele>
        <time>2021-06-23T12:29:09Z</time>
      </trkpt>
      <trkpt lat="47.98056" lon="7.07827">
        <ele>859.44</ele>
        <time>2021-06-23T12:29:13Z</time>
      </trkpt>
      <trkpt lat="47.98072" lon="7.07854">
        <ele>854.91</ele>
        <time>2021-06-23T12:29:17Z</time>
      </trkpt>
      <trkpt lat="47.98111" lon="7.079">
        <ele>849.04</ele>
        <time>2021-06-23T12:29:21Z</time>
      </trkpt>
      <trkpt lat="47.98119" lon="7.07917">
        <ele>847.54</ele>
        <time>2021-06-23T12:29:25Z</time>
      </trkpt>
      <trkpt lat="47.98144" lon="7.08046">
        <ele>846.58</ele>
        <time>2021-06-23T12:29:30Z</time>
      </trkpt>
      <trkpt lat="47.98147" lon="7.08075">
        <ele>845.73</ele>
        <time>2021-06-23T12:29:34Z</time>
      </trkpt>
      <trkpt lat="47.98151" lon="7.08089">
        <ele>844.51</ele>
        <time>2021-06-23T12:29:38Z</time>
      </trkpt>
      <trkpt lat="47.98156" lon="7.08098">
        <ele>843.09</ele>
        <time>2021-06-23T12:29:42Z</time>
      </trkpt>
      <trkpt lat="47.98162" lon="7.08098">
        <ele>841.58</ele>
        <time>2021-06-23T12:29:46Z</time>
      </trkpt>
      <trkpt lat="47.98166" lon="7.08092">
        <ele>840.38</ele>
        <time>2021-06-23T12:29:51Z</time>
      </trkpt>
      <trkpt lat="47.98166" lon="7.08076">
        <ele>839.85</ele>
        <time>2021-06-23T12:29:56Z</time>
      </trkpt>
      <trkpt lat="47.98158" lon="7.07978">
        <ele>838.76</ele>
        <time>2021-06-23T12:30:01Z</time>
      </trkpt>
      <trkpt lat="47.98149" lon="7.07816">
        <ele>836.38</ele>
        <time>2021-06-23T12:30:06Z</time>
      </trkpt>
      <trkpt lat="47.98143" lon="7.07785">
        <ele>835.4</ele>
        <time>2021-06-23T12:30:11Z</time>
      </trkpt>
      <trkpt lat="47.98136" lon="7.07756">
        <ele>834.87</ele>
        <time>2021-06-23T12:30:17Z</time>
      </trkpt>
      <trkpt lat="47.98128" lon="7.0774">
        <ele>835.78</ele>
        <time>2021-06-23T12:30:22Z</time>
      </trkpt>
      <trkpt lat="47.9812" lon="7.07726">
        <ele>836.39</ele>
        <time>2021-06-23T12:30:27Z</time>
      </trkpt>
      <trkpt lat="47.98076" lon="7.07669">
        <ele>834.77</ele>
        <time>2021-06-23T12:30:32Z</time>
      </trkpt>
      <trkpt lat="47.98063" lon="7.07643">
        <ele>835.02</ele>
        <time>2021-06-23T12:30:37Z</time>
      </trkpt>
      <trkpt lat="47.98058" lon="7.07617">
        <ele>834.39</ele>
        <time>2021-06-23T12:30:42Z</time>
      </trkpt>
      <trkpt lat="47.98057" lon="7.07585">
        <ele>831.66</ele>
        <time>2021-06-23T12:30:47Z</time>
      </trkpt>
      <trkpt lat="47.98061" lon="7.07522">
        <ele>823.11</ele>
        <time>2021-06-23T12:30:52Z</time>
      </trkpt>
      <trkpt lat="47.98041" lon="7.0741">
        <ele>817.72</ele>
        <time>2021-06-23T12:30:58Z</time>
      </trkpt>
      <trkpt lat="47.98031" lon="7.0738">
        <ele>816.05</ele>
        <time>2021-06-23T12:31:03Z</time>
      </trkpt>
      <trkpt lat="47.98033" lon="7.07369">
        <ele>813.39</ele>
        <time>2021-06-23T12:31:08Z</time>
      </trkpt>
      <trkpt lat="47.98039" lon="7.07362">
        <ele>811.22</ele>
        <time>2021-06-23T12:31:13Z</time>
      </trkpt>
      <trkpt lat="47.9805" lon="7.07365">
        <ele>809.36</ele>
        <time>2021-06-23T12:31:18Z</time>
      </trkpt>
      <trkpt lat="47.98062" lon="7.07378">
        <ele>807.62</ele>
        <time>2021-06-23T12:31:23Z</time>
      </trkpt>
      <trkpt lat="47.98068" lon="7.07404">
        <ele>807.92</ele>
        <time>2021-06-23T12:31:28Z</time>
      </trkpt>
      <trkpt lat="47.98073" lon="7.07449">
        <ele>809.78</ele>
        <time>2021-06-23T12:31:34Z</time>
      </trkpt>
      <trkpt lat="47.98103" lon="7.07542">
        <ele>808.68</ele>
        <time>2021-06-23T12:31:39Z</time>
      </trkpt>
      <trkpt lat="47.9811" lon="7.0756">
        <ele>808.59</ele>
        <time>2021-06-23T12:31:44Z</time>
      </trkpt>
      <trkpt lat="47.98124" lon="7.07575">
        <ele>806.77</ele>
        <time>2021-06-23T12:31:49Z</time>
      </trkpt>
      <trkpt lat="47.98137" lon="7.0758">
        <ele>804.73</ele>
        <time>2021-06-23T12:31:54Z</time>
      </trkpt>
      <trkpt lat="47.98152" lon="7.07577">
        <ele>803.02</ele>
        <time>2021-06-23T12:31:59Z</time>
      </trkpt>
      <trkpt lat="47.98175" lon="7.0756">
        <ele>799.78</ele>
        <time>2021-06-23T12:32:04Z</time>
      </trkpt>
      <trkpt lat="47.98188" lon="7.07545">
        <ele>796.79</ele>
        <time>2021-06-23T12:32:09Z</time>
      </trkpt>
      <trkpt lat="47.98216" lon="7.07483">
        <ele>786.41</ele>
        <time>2021-06-23T12:32:15Z</time>
      </trkpt>
      <trkpt lat="47.98227" lon="7.07468">
        <ele>784.32</ele>
        <time>2021-06-23T12:32:20Z</time>
      </trkpt>
      <trkpt lat="47.9824" lon="7.07456">
        <ele>782.53</ele>
        <time>2021-06-23T12:32:25Z</time>
      </trkpt>
      <trkpt lat="47.98295" lon="7.07419">
        <ele>777.72</ele>
        <time>2021-06-23T12:32:30Z</time>
      </trkpt>
      <trkpt lat="47.98312" lon="7.0741">
        <ele>775.31</ele>
        <time>2021-06-23T12:32:35Z</time>
      </trkpt>
      <trkpt lat="47.98331" lon="7.07405">
        <ele>774.47</ele>
        <time>2021-06-23T12:32:40Z</time>
      </trkpt>
      <trkpt lat="47.98348" lon="7.07405">
        <ele>771.92</ele>
        <time>2021-06-23T12:32:45Z</time>
      </trkpt>
      <trkpt lat="47.98367" lon="7.07413">
        <ele>770.91</ele>
        <time>2021-06-23T12:32:51Z</time>
      </trkpt>
      <trkpt lat="47.98425" lon="7.07458">
        <ele>774.03</ele>
        <time>2021-06-23T12:32:56Z</time>
      </trkpt>
      <trkpt lat="47.98447" lon="7.07469">
        <ele>774.65</ele>
        <time>2021-06-23T12:33:01Z</time>
      </trkpt>
      <trkpt lat="47.98511" lon="7.07484">
        <ele>764.99</ele>
        <time>2021-06-23T12:33:06Z</time>
      </trkpt>
      <trkpt lat="47.98541" lon="7.07501">
        <ele>761.71</ele>
        <time>2021-06-23T12:33:11Z</time>
      </trkpt>
      <trkpt lat="47.98585" lon="7.07546">
        <ele>757.73</ele>
        <time>2021-06-23T12:33:16Z</time>
      </trkpt>
      <trkpt lat="47.98635" lon="7.07583">
        <ele>752.44</ele>
        <time>2021-06-23T12:33:21Z</time>
      </trkpt>
      <trkpt lat="47.98724" lon="7.07639">
        <ele>745.44</ele>
        <time>2021-06-23T12:33:26Z</time>
      </trkpt>
      <trkpt lat="47.98769" lon="7.07671">
        <ele>737.27</ele>
        <time>2021-06-23T12:33:32Z</time>
      </trkpt>
      <trkpt lat="47.98818" lon="7.07724">
        <ele>733.48</ele>
        <time>2021-06-23T12:33:37Z</time>
      </trkpt>
      <trkpt lat="47.98842" lon="7.07738">
        <ele>733.74</ele>
        <time>2021-06-23T12:33:42Z</time>
      </trkpt>
      <trkpt lat="47.9893" lon="7.07772">
        <ele>728.04</ele>
        <time>2021-06-23T12:33:47Z</time>
      </trkpt>
      <trkpt lat="47.9904" lon="7.07791">
        <ele>718.28</ele>
        <time>2021-06-23T12:33:52Z</time>
      </trkpt>
      <trkpt lat="47.99064" lon="7.07793">
        <ele>713.62</ele>
        <time>2021-06-23T12:33:57Z</time>
      </trkpt>
      <trkpt lat="47.99089" lon="7.07792">
        <ele>710.67</ele>
        <time>2021-06-23T12:34:02Z</time>
      </trkpt>
      <trkpt lat="47.99113" lon="7.07784">
        <ele>709.69</ele>
        <time>2021-06-23T12:34:08Z</time>
      </trkpt>
      <trkpt lat="47.99154" lon="7.07765">
        <ele>707.6</ele>
        <time>2021-06-23T12:34:13Z</time>
      </trkpt>
      <trkpt lat="47.99186" lon="7.07741">
        <ele>706.53</ele>
        <time>2021-06-23T12:34:18Z</time>
      </trkpt>
      <trkpt lat="47.9924" lon="7.0769">
        <ele>699.05</ele>
        <time>2021-06-23T12:34:23Z</time>
      </trkpt>
      <trkpt lat="47.99246" lon="7.07679">
        <ele>697.66</ele>
        <time>2021-06-23T12:34:28Z</time>
      </trkpt>
      <trkpt lat="47.99248" lon="7.07668">
        <ele>697.37</ele>
        <time>2021-06-23T12:34:33Z</time>
      </trkpt>
      <trkpt lat="47.99245" lon="7.07655">
        <ele>697.86</ele>
        <time>2021-06-23T12:34:38Z</time>
      </trkpt>
      <trkpt lat="47.99236" lon="7.07646">
        <ele>698.27</ele>
        <time>2021-06-23T12:34:43Z</time>
      </trkpt>
      <trkpt lat="47.99193" lon="7.07638">
        <ele>698.37</ele>
        <time>2021-06-23T12:34:49Z</time>
      </trkpt>
      <trkpt lat="47.99175" lon="7.07638">
        <ele>695.19</ele>
        <time>2021-06-23T12:34:54Z</time>
      </trkpt>
      <trkpt lat="47.99099" lon="7.07657">
        <ele>691.02</ele>
        <time>2021-06-23T12:34:59Z</time>
      </trkpt>
      <trkpt lat="47.99065" lon="7.07656">
        <ele>693.11</ele>
        <time>2021-06-23T12:35:04Z</time>
      </trkpt>
      <trkpt lat="47.99" lon="7.07633">
        <ele>691.8</ele>
        <time>2021-06-23T12:35:09Z</time>
      </trkpt>
      <trkpt lat="47.98967" lon="7.07613">
        <ele>687.99</ele>
        <time>2021-06-23T12:35:14Z</time>
      </trkpt>
      <trkpt lat="47.98913" lon="7.07568">
        <ele>681.74</ele>
        <time>2021-06-23T12:35:19Z</time>
      </trkpt>
      <trkpt lat="47.9876" lon="7.07421">
        <ele>674.16</ele>
        <time>2021-06-23T12:35:25Z</time>
      </trkpt>
      <trkpt lat="47.98561" lon="7.07262">
        <ele>669.73</ele>
        <time>2021-06-23T12:35:30Z</time>
      </trkpt>
      <trkpt lat="47.98399" lon="7.07151">
        <ele>654.51</ele>
        <time>2021-06-23T12:35:35Z</time>
      </trkpt>
      <trkpt lat="47.9833" lon="7.07081">
        <ele>652.99</ele>
        <time>2021-06-23T12:35:40Z</time>
      </trkpt>
      <trkpt lat="47.98263" lon="7.07025">
        <ele>647.01</ele>
        <time>2021-06-23T12:35:45Z</time>
      </trkpt>
      <trkpt lat="47.9822" lon="7.06984">
        <ele>641.55</ele>
        <time>2021-06-23T12:35:50Z</time>
      </trkpt>
      <trkpt lat="47.98165" lon="7.06913">
        <ele>636.63</ele>
        <time>2021-06-23T12:35:55Z</time>
      </trkpt>
      <trkpt lat="47.98126" lon="7.06858">
        <ele>631.93</ele>
        <time>2021-06-23T12:36:00Z</time>
      </trkpt>
      <trkpt lat="47.9812" lon="7.06841">
        <ele>629.51</ele>
        <time>2021-06-23T12:36:06Z</time>
      </trkpt>
      <trkpt lat="47.98119" lon="7.06831">
        <ele>626.98</ele>
        <time>2021-06-23T12:36:11Z</time>
      </trkpt>
      <trkpt lat="47.98121" lon="7.06819">
        <ele>623.77</ele>
        <time>2021-06-23T12:36:16Z</time>
      </trkpt>
      <trkpt lat="47.98131" lon="7.06797">
        <ele>618.22</ele>
        <time>2021-06-23T12:36:21Z</time>
      </trkpt>
      <trkpt lat="47.98148" lon="7.06775">
        <ele>615.2</ele>
        <time>2021-06-23T12:36:26Z</time>
      </trkpt>
      <trkpt lat="47.98162" lon="7.06763">
        <ele>614.17</ele>
        <time>2021-06-23T12:36:31Z</time>
      </trkpt>
      <trkpt lat="47.98284" lon="7.06746">
        <ele>615.05</ele>
        <time>2021-06-23T12:36:36Z</time>
      </trkpt>
      <trkpt lat="47.98302" lon="7.06747">
        <ele>615.63</ele>
        <time>2021-06-23T12:36:42Z</time>
      </trkpt>
      <trkpt lat="47.98332" lon="7.06753">
        <ele>616.34</ele>
        <time>2021-06-23T12:36:47Z</time>
      </trkpt>
      <trkpt lat="47.98391" lon="7.0679">
        <ele>614.55</ele>
        <time>2021-06-23T12:36:52Z</time>
      </trkpt>
      <trkpt lat="47.9858" lon="7.06896">
        <ele>599.84</ele>
        <time>2021-06-23T12:36:57Z</time>
      </trkpt>
      <trkpt lat="47.98657" lon="7.06926">
        <ele>599.66</ele>
        <time>2021-06-23T12:37:02Z</time>
      </trkpt>
      <trkpt lat="47.98716" lon="7.06945">
        <ele>600.46</ele>
        <time>2021-06-23T12:37:07Z</time>
      </trkpt>
      <trkpt lat="47.98752" lon="7.06951">
        <ele>599.12</ele>
        <time>2021-06-23T12:37:12Z</time>
      </trkpt>
      <trkpt lat="47.98808" lon="7.06935">
        <ele>595.26</ele>
        <time>2021-06-23T12:37:17Z</time>
      </trkpt>
      <trkpt lat="47.9884" lon="7.06932">
        <ele>593.96</ele>
        <time>2021-06-23T12:37:23Z</time>
      </trkpt>
      <trkpt lat="47.98879" lon="7.0692">
        <ele>592.25</ele>
        <time>2021-06-23T12:37:28Z</time>
      </trkpt>
      <trkpt lat="47.98899" lon="7.06917">
        <ele>591.99</ele>
        <time>2021-06-23T12:37:33Z</time>
      </trkpt>
      <trkpt lat="47.98904" lon="7.06913">
        <ele>592.2</ele>
        <time>2021-06-23T12:37:38Z</time>
      </trkpt>
      <trkpt lat="47.98876" lon="7.06906">
        <ele>593.24</ele>
        <time>2021-06-23T12:37:40Z</time>
      </trkpt>
      <trkpt lat="47.98859" lon="7.06892">
        <ele>594.91</ele>
        <time>2021-06-23T12:37:42Z</time>
      </trkpt>
      <trkpt lat="47.9885" lon="7.06877">
        <ele>596.97</ele>
        <time>2021-06-23T12:37:43Z</time>
      </trkpt>
      <trkpt lat="47.98843" lon="7.06857">
        <ele>599.03</ele>
        <time>2021-06-23T12:37:45Z</time>
      </trkpt>
      <trkpt lat="47.9884" lon="7.06842">
        <ele>600.6</ele>
        <time>2021-06-23T12:37:47Z</time>
      </trkpt>
      <trkpt lat="47.98842" lon="7.06813">
        <ele>604.1</ele>
        <time>2021-06-23T12:37:49Z</time>
      </trkpt>
      <trkpt lat="47.98847" lon="7.06794">
        <ele>606.74</ele>
        <time>2021-06-23T12:37:51Z</time>
      </trkpt>
      <trkpt lat="47.98855" lon="7.06776">
        <ele>609.21</ele>
        <time>2021-06-23T12:37:52Z</time>
      </trkpt>
      <trkpt lat="47.98871" lon="7.06758">
        <ele>611.52</ele>
        <time>2021-06-23T12:37:54Z</time>
      </trkpt>
      <trkpt lat="47.98976" lon="7.06672">
        <ele>619.95</ele>
        <time>2021-06-23T12:37:56Z</time>
      </trkpt>
      <trkpt lat="47.98996" lon="7.06659">
        <ele>621.23</ele>
        <time>2021-06-23T12:37:58Z</time>
      </trkpt>
      <trkpt lat="47.99014" lon="7.06654">
        <ele>623.3</ele>
        <time>2021-06-23T12:38:00Z</time>
      </trkpt>
      <trkpt lat="47.99049" lon="7.06661">
        <ele>626.42</ele>
        <time>2021-06-23T12:38:01Z</time>
      </trkpt>
      <trkpt lat="47.991" lon="7.0668">
        <ele>626.86</ele>
        <time>2021-06-23T12:38:03Z</time>
      </trkpt>
      <trkpt lat="47.99117" lon="7.06683">
        <ele>628.16</ele>
        <time>2021-06-23T12:38:05Z</time>
      </trkpt>
      <trkpt lat="47.99135" lon="7.06681">
        <ele>630.93</ele>
        <time>2021-06-23T12:38:07Z</time>
      </trkpt>
      <trkpt lat="47.99175" lon="7.06665">
        <ele>640.51</ele>
        <time>2021-06-23T12:38:09Z</time>
      </trkpt>
      <trkpt lat="47.99198" lon="7.06662">
        <ele>646.76</ele>
        <time>2021-06-23T12:38:10Z</time>
      </trkpt>
      <trkpt lat="47.99237" lon="7.0667">
        <ele>650.45</ele>
        <time>2021-06-23T12:38:12Z</time>
      </trkpt>
      <trkpt lat="47.99295" lon="7.06688">
        <ele>658.65</ele>
        <time>2021-06-23T12:38:14Z</time>
      </trkpt>
      <trkpt lat="47.9934" lon="7.06694">
        <ele>662.4</ele>
        <time>2021-06-23T12:38:16Z</time>
      </trkpt>
      <trkpt lat="47.9937" lon="7.0669">
        <ele>661.36</ele>
        <time>2021-06-23T12:38:18Z</time>
      </trkpt>
      <trkpt lat="47.99401" lon="7.06674">
        <ele>665.13</ele>
        <time>2021-06-23T12:38:19Z</time>
      </trkpt>
      <trkpt lat="47.99422" lon="7.06651">
        <ele>671.06</ele>
        <time>2021-06-23T12:38:21Z</time>
      </trkpt>
      <trkpt lat="47.99437" lon="7.06629">
        <ele>672.58</ele>
        <time>2021-06-23T12:38:23Z</time>
      </trkpt>
      <trkpt lat="47.99452" lon="7.06594">
        <ele>674.2</ele>
        <time>2021-06-23T12:38:25Z</time>
      </trkpt>
      <trkpt lat="47.99465" lon="7.06553">
        <ele>676.77</ele>
        <time>2021-06-23T12:38:27Z</time>
      </trkpt>
      <trkpt lat="47.99489" lon="7.06439">
        <ele>687.97</ele>
        <time>2021-06-23T12:38:28Z</time>
      </trkpt>
      <trkpt lat="47.99493" lon="7.06431">
        <ele>687.29</ele>
        <time>2021-06-23T12:38:30Z</time>
      </trkpt>
      <trkpt lat="47.99506" lon="7.06428">
        <ele>684.65</ele>
        <time>2021-06-23T12:38:32Z</time>
      </trkpt>
      <trkpt lat="47.99513" lon="7.06432">
        <ele>683.08</ele>
        <time>2021-06-23T12:38:34Z</time>
      </trkpt>
      <trkpt lat="47.99519" lon="7.0644">
        <ele>680.62</ele>
        <time>2021-06-23T12:38:36Z</time>
      </trkpt>
      <trkpt lat="47.99547" lon="7.06497">
        <ele>671.61</ele>
        <time>2021-06-23T12:38:37Z</time>
      </trkpt>
      <trkpt lat="47.99563" lon="7.06526">
        <ele>668.99</ele>
        <time>2021-06-23T12:38:39Z</time>
      </trkpt>
      <trkpt lat="47.99568" lon="7.0653">
        <ele>669.31</ele>
        <time>2021-06-23T12:38:41Z</time>
      </trkpt>
      <trkpt lat="47.99573" lon="7.06531">
        <ele>670.24</ele>
        <time>2021-06-23T12:38:43Z</time>
      </trkpt>
      <trkpt lat="47.99578" lon="7.06529">
        <ele>671.65</ele>
        <time>2021-06-23T12:38:45Z</time>
      </trkpt>
      <trkpt lat="47.99583" lon="7.06511">
        <ele>675.85</ele>
        <time>2021-06-23T12:38:46Z</time>
      </trkpt>
      <trkpt lat="47.99576" lon="7.06488">
        <ele>678.57</ele>
        <time>2021-06-23T12:38:48Z</time>
      </trkpt>
      <trkpt lat="47.99555" lon="7.0645">
        <ele>683.56</ele>
        <time>2021-06-23T12:38:50Z</time>
      </trkpt>
      <trkpt lat="47.99513" lon="7.06358">
        <ele>699.49</ele>
        <time>2021-06-23T12:38:52Z</time>
      </trkpt>
      <trkpt lat="47.99502" lon="7.06338">
        <ele>702.15</ele>
        <time>2021-06-23T12:38:54Z</time>
      </trkpt>
      <trkpt lat="47.99502" lon="7.06338">
        <ele>702.15</ele>
        <time>2021-06-23T12:38:54Z</time>
      </trkpt>
      <trkpt lat="47.995" lon="7.06334">
        <ele>704.81</ele>
        <time>2021-06-23T12:38:56Z</time>
      </trkpt>
      <trkpt lat="47.9949" lon="7.0633">
        <ele>707.85</ele>
        <time>2021-06-23T12:38:58Z</time>
      </trkpt>
      <trkpt lat="47.99481" lon="7.06332">
        <ele>709.37</ele>
        <time>2021-06-23T12:39:00Z</time>
      </trkpt>
      <trkpt lat="47.99476" lon="7.06336">
        <ele>709.56</ele>
        <time>2021-06-23T12:39:02Z</time>
      </trkpt>
      <trkpt lat="47.99408" lon="7.06491">
        <ele>715.59</ele>
        <time>2021-06-23T12:39:04Z</time>
      </trkpt>
      <trkpt lat="47.99391" lon="7.06516">
        <ele>715.41</ele>
        <time>2021-06-23T12:39:06Z</time>
      </trkpt>
      <trkpt lat="47.99379" lon="7.06525">
        <ele>713.73</ele>
        <time>2021-06-23T12:39:08Z</time>
      </trkpt>
      <trkpt lat="47.99363" lon="7.06527">
        <ele>714.03</ele>
        <time>2021-06-23T12:39:10Z</time>
      </trkpt>
      <trkpt lat="47.99346" lon="7.06522">
        <ele>716.19</ele>
        <time>2021-06-23T12:39:13Z</time>
      </trkpt>
      <trkpt lat="47.99289" lon="7.06492">
        <ele>724.84</ele>
        <time>2021-06-23T12:39:15Z</time>
      </trkpt>
      <trkpt lat="47.99248" lon="7.06458">
        <ele>729.69</ele>
        <time>2021-06-23T12:39:17Z</time>
      </trkpt>
      <trkpt lat="47.99214" lon="7.06419">
        <ele>732.73</ele>
        <time>2021-06-23T12:39:19Z</time>
      </trkpt>
      <trkpt lat="47.9919" lon="7.06371">
        <ele>740.83</ele>
        <time>2021-06-23T12:39:21Z</time>
      </trkpt>
      <trkpt lat="47.99167" lon="7.06315">
        <ele>744.64</ele>
        <time>2021-06-23T12:39:23Z</time>
      </trkpt>
      <trkpt lat="47.99142" lon="7.06218">
        <ele>752.77</ele>
        <time>2021-06-23T12:39:25Z</time>
      </trkpt>
      <trkpt lat="47.99107" lon="7.06096">
        <ele>757.54</ele>
        <time>2021-06-23T12:39:27Z</time>
      </trkpt>
      <trkpt lat="47.99071" lon="7.05949">
        <ele>770.22</ele>
        <time>2021-06-23T12:39:30Z</time>
      </trkpt>
      <trkpt lat="47.99054" lon="7.0589">
        <ele>778.12</ele>
        <time>2021-06-23T12:39:32Z</time>
      </trkpt>
      <trkpt lat="47.99033" lon="7.05836">
        <ele>786.72</ele>
        <time>2021-06-23T12:39:34Z</time>
      </trkpt>
      <trkpt lat="47.99005" lon="7.05782">
        <ele>797.21</ele>
        <time>2021-06-23T12:39:36Z</time>
      </trkpt>
      <trkpt lat="47.98986" lon="7.05767">
        <ele>798.77</ele>
        <time>2021-06-23T12:39:38Z</time>
      </trkpt>
      <trkpt lat="47.98973" lon="7.05769">
        <ele>798.32</ele>
        <time>2021-06-23T12:39:40Z</time>
      </trkpt>
      <trkpt lat="47.98958" lon="7.0578">
        <ele>799.26</ele>
        <time>2021-06-23T12:39:42Z</time>
      </trkpt>
      <trkpt lat="47.98916" lon="7.05825">
        <ele>799.08</ele>
        <time>2021-06-23T12:39:44Z</time>
      </trkpt>
      <trkpt lat="47.98866" lon="7.05853">
        <ele>806.06</ele>
        <time>2021-06-23T12:39:46Z</time>
      </trkpt>
      <trkpt lat="47.98805" lon="7.059">
        <ele>816.83</ele>
        <time>2021-06-23T12:39:49Z</time>
      </trkpt>
      <trkpt lat="47.98711" lon="7.06001">
        <ele>818.09</ele>
        <time>2021-06-23T12:39:51Z</time>
      </trkpt>
      <trkpt lat="47.98694" lon="7.06006">
        <ele>819.2</ele>
        <time>2021-06-23T12:39:53Z</time>
      </trkpt>
      <trkpt lat="47.98666" lon="7.05992">
        <ele>822.59</ele>
        <time>2021-06-23T12:39:55Z</time>
      </trkpt>
      <trkpt lat="47.9864" lon="7.0597">
        <ele>825.78</ele>
        <time>2021-06-23T12:39:57Z</time>
      </trkpt>
      <trkpt lat="47.98614" lon="7.05944">
        <ele>827.21</ele>
        <time>2021-06-23T12:39:59Z</time>
      </trkpt>
      <trkpt lat="47.98561" lon="7.05861">
        <ele>834.79</ele>
        <time>2021-06-23T12:40:01Z</time>
      </trkpt>
      <trkpt lat="47.98446" lon="7.05748">
        <ele>851.74</ele>
        <time>2021-06-23T12:40:03Z</time>
      </trkpt>
      <trkpt lat="47.98428" lon="7.05736">
        <ele>850.76</ele>
        <time>2021-06-23T12:40:05Z</time>
      </trkpt>
      <trkpt lat="47.98424" lon="7.05726">
        <ele>852.72</ele>
        <time>2021-06-23T12:40:08Z</time>
      </trkpt>
      <trkpt lat="47.98424" lon="7.05711">
        <ele>857.19</ele>
        <time>2021-06-23T12:40:10Z</time>
      </trkpt>
      <trkpt lat="47.9843" lon="7.05704">
        <ele>860.89</ele>
        <time>2021-06-23T12:40:12Z</time>
      </trkpt>
      <trkpt lat="47.98441" lon="7.05707">
        <ele>862.4</ele>
        <time>2021-06-23T12:40:14Z</time>
      </trkpt>
      <trkpt lat="47.98468" lon="7.05728">
        <ele>861.61</ele>
        <time>2021-06-23T12:40:16Z</time>
      </trkpt>
      <trkpt lat="47.98561" lon="7.05777">
        <ele>863.36</ele>
        <time>2021-06-23T12:40:18Z</time>
      </trkpt>
      <trkpt lat="47.98609" lon="7.05794">
        <ele>863.07</ele>
        <time>2021-06-23T12:40:20Z</time>
      </trkpt>
      <trkpt lat="47.98638" lon="7.05797">
        <ele>864.56</ele>
        <time>2021-06-23T12:40:22Z</time>
      </trkpt>
      <trkpt lat="47.98658" lon="7.05794">
        <ele>865.55</ele>
        <time>2021-06-23T12:40:25Z</time>
      </trkpt>
      <trkpt lat="47.98673" lon="7.05784">
        <ele>867.24</ele>
        <time>2021-06-23T12:40:27Z</time>
      </trkpt>
      <trkpt lat="47.98685" lon="7.05763">
        <ele>870.98</ele>
        <time>2021-06-23T12:40:29Z</time>
      </trkpt>
      <trkpt lat="47.98719" lon="7.05685">
        <ele>878.8</ele>
        <time>2021-06-23T12:40:31Z</time>
      </trkpt>
      <trkpt lat="47.98747" lon="7.05628">
        <ele>879.17</ele>
        <time>2021-06-23T12:40:33Z</time>
      </trkpt>
      <trkpt lat="47.98774" lon="7.05584">
        <ele>878</ele>
        <time>2021-06-23T12:40:35Z</time>
      </trkpt>
      <trkpt lat="47.98786" lon="7.05557">
        <ele>878.48</ele>
        <time>2021-06-23T12:40:37Z</time>
      </trkpt>
      <trkpt lat="47.98787" lon="7.05546">
        <ele>879.24</ele>
        <time>2021-06-23T12:40:39Z</time>
      </trkpt>
      <trkpt lat="47.98785" lon="7.05535">
        <ele>881.12</ele>
        <time>2021-06-23T12:40:41Z</time>
      </trkpt>
      <trkpt lat="47.98776" lon="7.05532">
        <ele>884.1</ele>
        <time>2021-06-23T12:40:44Z</time>
      </trkpt>
      <trkpt lat="47.98766" lon="7.05535">
        <ele>887.49</ele>
        <time>2021-06-23T12:40:46Z</time>
      </trkpt>
      <trkpt lat="47.98735" lon="7.05583">
        <ele>888.84</ele>
        <time>2021-06-23T12:40:48Z</time>
      </trkpt>
      <trkpt lat="47.98689" lon="7.05625">
        <ele>895.61</ele>
        <time>2021-06-23T12:40:50Z</time>
      </trkpt>
      <trkpt lat="47.98635" lon="7.05647">
        <ele>900.51</ele>
        <time>2021-06-23T12:40:52Z</time>
      </trkpt>
      <trkpt lat="47.98587" lon="7.05626">
        <ele>904.23</ele>
        <time>2021-06-23T12:40:54Z</time>
      </trkpt>
      <trkpt lat="47.9852" lon="7.05565">
        <ele>914.79</ele>
        <time>2021-06-23T12:40:56Z</time>
      </trkpt>
      <trkpt lat="47.98461" lon="7.05496">
        <ele>920.18</ele>
        <time>2021-06-23T12:40:58Z</time>
      </trkpt>
      <trkpt lat="47.98422" lon="7.05469">
        <ele>927.07</ele>
        <time>2021-06-23T12:41:00Z</time>
      </trkpt>
      <trkpt lat="47.98333" lon="7.05469">
        <ele>932.77</ele>
        <time>2021-06-23T12:41:03Z</time>
      </trkpt>
      <trkpt lat="47.98303" lon="7.05461">
        <ele>939.6</ele>
        <time>2021-06-23T12:41:05Z</time>
      </trkpt>
      <trkpt lat="47.98184" lon="7.05395">
        <ele>947.33</ele>
        <time>2021-06-23T12:41:07Z</time>
      </trkpt>
      <trkpt lat="47.98134" lon="7.05335">
        <ele>957.82</ele>
        <time>2021-06-23T12:41:09Z</time>
      </trkpt>
      <trkpt lat="47.98119" lon="7.05323">
        <ele>961.34</ele>
        <time>2021-06-23T12:41:11Z</time>
      </trkpt>
      <trkpt lat="47.98106" lon="7.05318">
        <ele>962.69</ele>
        <time>2021-06-23T12:41:13Z</time>
      </trkpt>
      <trkpt lat="47.98052" lon="7.05327">
        <ele>964.14</ele>
        <time>2021-06-23T12:41:15Z</time>
      </trkpt>
      <trkpt lat="47.98001" lon="7.05345">
        <ele>979.05</ele>
        <time>2021-06-23T12:41:17Z</time>
      </trkpt>
      <trkpt lat="47.97981" lon="7.05364">
        <ele>984.68</ele>
        <time>2021-06-23T12:41:20Z</time>
      </trkpt>
      <trkpt lat="47.97908" lon="7.05508">
        <ele>991.73</ele>
        <time>2021-06-23T12:41:22Z</time>
      </trkpt>
      <trkpt lat="47.97867" lon="7.05554">
        <ele>991.87</ele>
        <time>2021-06-23T12:41:24Z</time>
      </trkpt>
      <trkpt lat="47.9785" lon="7.05557">
        <ele>992.05</ele>
        <time>2021-06-23T12:41:26Z</time>
      </trkpt>
      <trkpt lat="47.97846" lon="7.0555">
        <ele>994.53</ele>
        <time>2021-06-23T12:41:28Z</time>
      </trkpt>
      <trkpt lat="47.97845" lon="7.05541">
        <ele>997.51</ele>
        <time>2021-06-23T12:41:30Z</time>
      </trkpt>
      <trkpt lat="47.97849" lon="7.0553">
        <ele>1000.53</ele>
        <time>2021-06-23T12:41:32Z</time>
      </trkpt>
      <trkpt lat="47.97868" lon="7.05515">
        <ele>1002.7</ele>
        <time>2021-06-23T12:41:34Z</time>
      </trkpt>
      <trkpt lat="47.97891" lon="7.0548">
        <ele>1007.22</ele>
        <time>2021-06-23T12:41:36Z</time>
      </trkpt>
      <trkpt lat="47.97914" lon="7.05422">
        <ele>1010.56</ele>
        <time>2021-06-23T12:41:39Z</time>
      </trkpt>
      <trkpt lat="47.97952" lon="7.05274">
        <ele>1018.23</ele>
        <time>2021-06-23T12:41:41Z</time>
      </trkpt>
      <trkpt lat="47.9799" lon="7.05182">
        <ele>1020.97</ele>
        <time>2021-06-23T12:41:43Z</time>
      </trkpt>
      <trkpt lat="47.98014" lon="7.0514">
        <ele>1019.91</ele>
        <time>2021-06-23T12:41:45Z</time>
      </trkpt>
      <trkpt lat="47.98032" lon="7.05118">
        <ele>1019.6</ele>
        <time>2021-06-23T12:41:47Z</time>
      </trkpt>
      <trkpt lat="47.98056" lon="7.05099">
        <ele>1020.24</ele>
        <time>2021-06-23T12:41:49Z</time>
      </trkpt>
      <trkpt lat="47.9808" lon="7.05089">
        <ele>1021.18</ele>
        <time>2021-06-23T12:41:51Z</time>
      </trkpt>
      <trkpt lat="47.98133" lon="7.05087">
        <ele>1024.13</ele>
        <time>2021-06-23T12:41:53Z</time>
      </trkpt>
      <trkpt lat="47.98139" lon="7.05084">
        <ele>1024.88</ele>
        <time>2021-06-23T12:41:56Z</time>
      </trkpt>
      <trkpt lat="47.98147" lon="7.05073">
        <ele>1026.34</ele>
        <time>2021-06-23T12:41:58Z</time>
      </trkpt>
      <trkpt lat="47.98147" lon="7.05064">
        <ele>1027.69</ele>
        <time>2021-06-23T12:42:00Z</time>
      </trkpt>
      <trkpt lat="47.98143" lon="7.05055">
        <ele>1029.18</ele>
        <time>2021-06-23T12:42:02Z</time>
      </trkpt>
      <trkpt lat="47.98135" lon="7.05051">
        <ele>1030.06</ele>
        <time>2021-06-23T12:42:04Z</time>
      </trkpt>
      <trkpt lat="47.98109" lon="7.05062">
        <ele>1027.75</ele>
        <time>2021-06-23T12:42:06Z</time>
      </trkpt>
      <trkpt lat="47.98043" lon="7.0507">
        <ele>1026.64</ele>
        <time>2021-06-23T12:42:08Z</time>
      </trkpt>
      <trkpt lat="47.97986" lon="7.05101">
        <ele>1030.22</ele>
        <time>2021-06-23T12:42:10Z</time>
      </trkpt>
      <trkpt lat="47.97964" lon="7.0512">
        <ele>1035.66</ele>
        <time>2021-06-23T12:42:12Z</time>
      </trkpt>
      <trkpt lat="47.97914" lon="7.05245">
        <ele>1037.35</ele>
        <time>2021-06-23T12:42:15Z</time>
      </trkpt>
      <trkpt lat="47.97882" lon="7.05293">
        <ele>1042.5</ele>
        <time>2021-06-23T12:42:17Z</time>
      </trkpt>
      <trkpt lat="47.97856" lon="7.05318">
        <ele>1044.58</ele>
        <time>2021-06-23T12:42:19Z</time>
      </trkpt>
      <trkpt lat="47.97826" lon="7.05325">
        <ele>1048.92</ele>
        <time>2021-06-23T12:42:21Z</time>
      </trkpt>
      <trkpt lat="47.97788" lon="7.05312">
        <ele>1057.41</ele>
        <time>2021-06-23T12:42:23Z</time>
      </trkpt>
      <trkpt lat="47.97753" lon="7.05286">
        <ele>1061.21</ele>
        <time>2021-06-23T12:42:25Z</time>
      </trkpt>
      <trkpt lat="47.97705" lon="7.05225">
        <ele>1066.55</ele>
        <time>2021-06-23T12:42:27Z</time>
      </trkpt>
      <trkpt lat="47.97658" lon="7.05137">
        <ele>1072.35</ele>
        <time>2021-06-23T12:42:29Z</time>
      </trkpt>
      <trkpt lat="47.97639" lon="7.05062">
        <ele>1076.27</ele>
        <time>2021-06-23T12:42:31Z</time>
      </trkpt>
      <trkpt lat="47.97625" lon="7.04961">
        <ele>1085.63</ele>
        <time>2021-06-23T12:42:34Z</time>
      </trkpt>
      <trkpt lat="47.97609" lon="7.04876">
        <ele>1100.33</ele>
        <time>2021-06-23T12:42:36Z</time>
      </trkpt>
      <trkpt lat="47.9757" lon="7.048">
        <ele>1105.86</ele>
        <time>2021-06-23T12:42:38Z</time>
      </trkpt>
      <trkpt lat="47.97508" lon="7.04725">
        <ele>1109.96</ele>
        <time>2021-06-23T12:42:40Z</time>
      </trkpt>
      <trkpt lat="47.97428" lon="7.04667">
        <ele>1118.52</ele>
        <time>2021-06-23T12:42:42Z</time>
      </trkpt>
      <trkpt lat="47.97356" lon="7.04642">
        <ele>1128.47</ele>
        <time>2021-06-23T12:42:44Z</time>
      </trkpt>
      <trkpt lat="47.97305" lon="7.0461">
        <ele>1140.26</ele>
        <time>2021-06-23T12:42:46Z</time>
      </trkpt>
      <trkpt lat="47.97183" lon="7.04548">
        <ele>1151.55</ele>
        <time>2021-06-23T12:42:48Z</time>
      </trkpt>
      <trkpt lat="47.97089" lon="7.04483">
        <ele>1163.46</ele>
        <time>2021-06-23T12:42:51Z</time>
      </trkpt>
      <trkpt lat="47.97024" lon="7.04464">
        <ele>1170.71</ele>
        <time>2021-06-23T12:42:53Z</time>
      </trkpt>
      <trkpt lat="47.96994" lon="7.04445">
        <ele>1174.93</ele>
        <time>2021-06-23T12:42:55Z</time>
      </trkpt>
      <trkpt lat="47.96956" lon="7.04403">
        <ele>1178.95</ele>
        <time>2021-06-23T12:42:57Z</time>
      </trkpt>
      <trkpt lat="47.96944" lon="7.04388">
        <ele>1180.17</ele>
        <time>2021-06-23T12:42:59Z</time>
      </trkpt>
      <trkpt lat="47.96938" lon="7.0437">
        <ele>1182.92</ele>
        <time>2021-06-23T12:43:01Z</time>
      </trkpt>
      <trkpt lat="47.96936" lon="7.04352">
        <ele>1185.98</ele>
        <time>2021-06-23T12:43:03Z</time>
      </trkpt>
      <trkpt lat="47.96938" lon="7.04335">
        <ele>1188.3</ele>
        <time>2021-06-23T12:43:05Z</time>
      </trkpt>
      <trkpt lat="47.96959" lon="7.04244">
        <ele>1193.71</ele>
        <time>2021-06-23T12:43:07Z</time>
      </trkpt>
      <trkpt lat="47.96962" lon="7.04228">
        <ele>1192.92</ele>
        <time>2021-06-23T12:43:10Z</time>
      </trkpt>
      <trkpt lat="47.96961" lon="7.04215">
        <ele>1191.68</ele>
        <time>2021-06-23T12:43:12Z</time>
      </trkpt>
      <trkpt lat="47.96958" lon="7.04202">
        <ele>1189.89</ele>
        <time>2021-06-23T12:43:14Z</time>
      </trkpt>
      <trkpt lat="47.96945" lon="7.04173">
        <ele>1185.74</ele>
        <time>2021-06-23T12:43:16Z</time>
      </trkpt>
      <trkpt lat="47.96921" lon="7.04133">
        <ele>1183.59</ele>
        <time>2021-06-23T12:43:18Z</time>
      </trkpt>
      <trkpt lat="47.96883" lon="7.04079">
        <ele>1182.57</ele>
        <time>2021-06-23T12:43:20Z</time>
      </trkpt>
      <trkpt lat="47.96845" lon="7.0403">
        <ele>1176.82</ele>
        <time>2021-06-23T12:43:22Z</time>
      </trkpt>
      <trkpt lat="47.96825" lon="7.03978">
        <ele>1175.33</ele>
        <time>2021-06-23T12:43:24Z</time>
      </trkpt>
      <trkpt lat="47.9681" lon="7.0391">
        <ele>1176.84</ele>
        <time>2021-06-23T12:43:26Z</time>
      </trkpt>
      <trkpt lat="47.96804" lon="7.03874">
        <ele>1177.27</ele>
        <time>2021-06-23T12:43:29Z</time>
      </trkpt>
      <trkpt lat="47.96802" lon="7.03837">
        <ele>1178.37</ele>
        <time>2021-06-23T12:43:31Z</time>
      </trkpt>
      <trkpt lat="47.96811" lon="7.0374">
        <ele>1175.23</ele>
        <time>2021-06-23T12:43:33Z</time>
      </trkpt>
      <trkpt lat="47.96811" lon="7.03667">
        <ele>1170.47</ele>
        <time>2021-06-23T12:43:35Z</time>
      </trkpt>
      <trkpt lat="47.96807" lon="7.03627">
        <ele>1170.35</ele>
        <time>2021-06-23T12:43:37Z</time>
      </trkpt>
      <trkpt lat="47.968" lon="7.03588">
        <ele>1172.26</ele>
        <time>2021-06-23T12:43:39Z</time>
      </trkpt>
      <trkpt lat="47.96778" lon="7.03502">
        <ele>1177.97</ele>
        <time>2021-06-23T12:43:41Z</time>
      </trkpt>
      <trkpt lat="47.96763" lon="7.03454">
        <ele>1178.67</ele>
        <time>2021-06-23T12:43:43Z</time>
      </trkpt>
      <trkpt lat="47.9674" lon="7.0341">
        <ele>1182.9</ele>
        <time>2021-06-23T12:43:46Z</time>
      </trkpt>
      <trkpt lat="47.96716" lon="7.03389">
        <ele>1187.46</ele>
        <time>2021-06-23T12:43:48Z</time>
      </trkpt>
      <trkpt lat="47.9669" lon="7.03379">
        <ele>1188.9</ele>
        <time>2021-06-23T12:43:50Z</time>
      </trkpt>
      <trkpt lat="47.96653" lon="7.03377">
        <ele>1191.98</ele>
        <time>2021-06-23T12:43:52Z</time>
      </trkpt>
      <trkpt lat="47.96603" lon="7.03389">
        <ele>1197.03</ele>
        <time>2021-06-23T12:43:54Z</time>
      </trkpt>
      <trkpt lat="47.96542" lon="7.03414">
        <ele>1201.78</ele>
        <time>2021-06-23T12:43:56Z</time>
      </trkpt>
      <trkpt lat="47.96468" lon="7.03457">
        <ele>1211.41</ele>
        <time>2021-06-23T12:43:58Z</time>
      </trkpt>
      <trkpt lat="47.96438" lon="7.0349">
        <ele>1217.31</ele>
        <time>2021-06-23T12:44:00Z</time>
      </trkpt>
      <trkpt lat="47.96366" lon="7.03585">
        <ele>1228.89</ele>
        <time>2021-06-23T12:44:02Z</time>
      </trkpt>
      <trkpt lat="47.96348" lon="7.03614">
        <ele>1227.8</ele>
        <time>2021-06-23T12:44:05Z</time>
      </trkpt>
      <trkpt lat="47.96337" lon="7.0364">
        <ele>1227.78</ele>
        <time>2021-06-23T12:44:07Z</time>
      </trkpt>
      <trkpt lat="47.96323" lon="7.03692">
        <ele>1232.29</ele>
        <time>2021-06-23T12:44:09Z</time>
      </trkpt>
      <trkpt lat="47.96313" lon="7.03709">
        <ele>1234.38</ele>
        <time>2021-06-23T12:44:11Z</time>
      </trkpt>
      <trkpt lat="47.96301" lon="7.0372">
        <ele>1235.75</ele>
        <time>2021-06-23T12:44:13Z</time>
      </trkpt>
      <trkpt lat="47.96289" lon="7.03722">
        <ele>1236.62</ele>
        <time>2021-06-23T12:44:15Z</time>
      </trkpt>
      <trkpt lat="47.96242" lon="7.03718">
        <ele>1237.39</ele>
        <time>2021-06-23T12:44:17Z</time>
      </trkpt>
      <trkpt lat="47.9622" lon="7.03719">
        <ele>1239.77</ele>
        <time>2021-06-23T12:44:19Z</time>
      </trkpt>
      <trkpt lat="47.9617" lon="7.03728">
        <ele>1241.62</ele>
        <time>2021-06-23T12:44:22Z</time>
      </trkpt>
      <trkpt lat="47.96122" lon="7.03741">
        <ele>1242.59</ele>
        <time>2021-06-23T12:44:24Z</time>
      </trkpt>
      <trkpt lat="47.96075" lon="7.03746">
        <ele>1244.49</ele>
        <time>2021-06-23T12:44:26Z</time>
      </trkpt>
      <trkpt lat="47.96037" lon="7.03742">
        <ele>1246.17</ele>
        <time>2021-06-23T12:44:28Z</time>
      </trkpt>
      <trkpt lat="47.95876" lon="7.03699">
        <ele>1245.06</ele>
        <time>2021-06-23T12:44:30Z</time>
      </trkpt>
      <trkpt lat="47.95796" lon="7.03652">
        <ele>1246.04</ele>
        <time>2021-06-23T12:44:32Z</time>
      </trkpt>
      <trkpt lat="47.95721" lon="7.03594">
        <ele>1246.65</ele>
        <time>2021-06-23T12:44:34Z</time>
      </trkpt>
      <trkpt lat="47.95654" lon="7.03531">
        <ele>1246.29</ele>
        <time>2021-06-23T12:44:36Z</time>
      </trkpt>
      <trkpt lat="47.95626" lon="7.03489">
        <ele>1245.07</ele>
        <time>2021-06-23T12:44:38Z</time>
      </trkpt>
      <trkpt lat="47.95575" lon="7.0338">
        <ele>1244.47</ele>
        <time>2021-06-23T12:44:41Z</time>
      </trkpt>
      <trkpt lat="47.9556" lon="7.03357">
        <ele>1243.88</ele>
        <time>2021-06-23T12:44:43Z</time>
      </trkpt>
      <trkpt lat="47.95539" lon="7.03336">
        <ele>1243.52</ele>
        <time>2021-06-23T12:44:45Z</time>
      </trkpt>
      <trkpt lat="47.95523" lon="7.03325">
        <ele>1242.92</ele>
        <time>2021-06-23T12:44:47Z</time>
      </trkpt>
      <trkpt lat="47.95507" lon="7.03317">
        <ele>1242.33</ele>
        <time>2021-06-23T12:44:49Z</time>
      </trkpt>
      <trkpt lat="47.95491" lon="7.03314">
        <ele>1241.83</ele>
        <time>2021-06-23T12:44:51Z</time>
      </trkpt>
      <trkpt lat="47.9547" lon="7.03316">
        <ele>1241.17</ele>
        <time>2021-06-23T12:44:53Z</time>
      </trkpt>
      <trkpt lat="47.95263" lon="7.03377">
        <ele>1243.66</ele>
        <time>2021-06-23T12:44:55Z</time>
      </trkpt>
      <trkpt lat="47.95242" lon="7.03377">
        <ele>1244.65</ele>
        <time>2021-06-23T12:44:57Z</time>
      </trkpt>
      <trkpt lat="47.95216" lon="7.03366">
        <ele>1246.18</ele>
        <time>2021-06-23T12:45:00Z</time>
      </trkpt>
      <trkpt lat="47.95136" lon="7.03299">
        <ele>1254.54</ele>
        <time>2021-06-23T12:45:02Z</time>
      </trkpt>
      <trkpt lat="47.95077" lon="7.03241">
        <ele>1260.95</ele>
        <time>2021-06-23T12:45:04Z</time>
      </trkpt>
      <trkpt lat="47.95011" lon="7.03158">
        <ele>1266.72</ele>
        <time>2021-06-23T12:45:06Z</time>
      </trkpt>
      <trkpt lat="47.94958" lon="7.03082">
        <ele>1269.62</ele>
        <time>2021-06-23T12:45:08Z</time>
      </trkpt>
      <trkpt lat="47.94913" lon="7.03009">
        <ele>1275</ele>
        <time>2021-06-23T12:45:10Z</time>
      </trkpt>
      <trkpt lat="47.94883" lon="7.02951">
        <ele>1275.44</ele>
        <time>2021-06-23T12:45:12Z</time>
      </trkpt>
      <trkpt lat="47.94847" lon="7.02896">
        <ele>1277.99</ele>
        <time>2021-06-23T12:45:14Z</time>
      </trkpt>
      <trkpt lat="47.94832" lon="7.02876">
        <ele>1279</ele>
        <time>2021-06-23T12:45:17Z</time>
      </trkpt>
      <trkpt lat="47.947" lon="7.02731">
        <ele>1278.08</ele>
        <time>2021-06-23T12:45:19Z</time>
      </trkpt>
      <trkpt lat="47.94643" lon="7.02637">
        <ele>1273.42</ele>
        <time>2021-06-23T12:45:21Z</time>
      </trkpt>
      <trkpt lat="47.94619" lon="7.02583">
        <ele>1271.89</ele>
        <time>2021-06-23T12:45:23Z</time>
      </trkpt>
      <trkpt lat="47.94607" lon="7.02527">
        <ele>1270.49</ele>
        <time>2021-06-23T12:45:25Z</time>
      </trkpt>
      <trkpt lat="47.94565" lon="7.02316">
        <ele>1263</ele>
        <time>2021-06-23T12:45:27Z</time>
      </trkpt>
      <trkpt lat="47.94549" lon="7.02244">
        <ele>1258.6</ele>
        <time>2021-06-23T12:45:29Z</time>
      </trkpt>
      <trkpt lat="47.94528" lon="7.02193">
        <ele>1255.81</ele>
        <time>2021-06-23T12:45:31Z</time>
      </trkpt>
      <trkpt lat="47.94492" lon="7.02134">
        <ele>1248.01</ele>
        <time>2021-06-23T12:45:33Z</time>
      </trkpt>
      <trkpt lat="47.94461" lon="7.02066">
        <ele>1240.51</ele>
        <time>2021-06-23T12:45:36Z</time>
      </trkpt>
      <trkpt lat="47.94437" lon="7.02016">
        <ele>1238.63</ele>
        <time>2021-06-23T12:45:38Z</time>
      </trkpt>
      <trkpt lat="47.94412" lon="7.01998">
        <ele>1237.57</ele>
        <time>2021-06-23T12:45:40Z</time>
      </trkpt>
      <trkpt lat="47.94383" lon="7.01994">
        <ele>1235.57</ele>
        <time>2021-06-23T12:45:42Z</time>
      </trkpt>
      <trkpt lat="47.9435" lon="7.02005">
        <ele>1233.46</ele>
        <time>2021-06-23T12:45:44Z</time>
      </trkpt>
      <trkpt lat="47.94336" lon="7.02014">
        <ele>1231.65</ele>
        <time>2021-06-23T12:45:46Z</time>
      </trkpt>
      <trkpt lat="47.94336" lon="7.02014">
        <ele>1231.65</ele>
        <time>2021-06-23T12:45:46Z</time>
      </trkpt>
      <trkpt lat="47.94319" lon="7.02025">
        <ele>1229.83</ele>
        <time>2021-06-23T12:45:48Z</time>
      </trkpt>
      <trkpt lat="47.94274" lon="7.02091">
        <ele>1227.02</ele>
        <time>2021-06-23T12:45:49Z</time>
      </trkpt>
      <trkpt lat="47.94257" lon="7.02089">
        <ele>1222.67</ele>
        <time>2021-06-23T12:45:51Z</time>
      </trkpt>
      <trkpt lat="47.94218" lon="7.02196">
        <ele>1220.2</ele>
        <time>2021-06-23T12:45:53Z</time>
      </trkpt>
      <trkpt lat="47.94195" lon="7.02269">
        <ele>1217.06</ele>
        <time>2021-06-23T12:45:56Z</time>
      </trkpt>
      <trkpt lat="47.94189" lon="7.02282">
        <ele>1216.25</ele>
        <time>2021-06-23T12:45:59Z</time>
      </trkpt>
      <trkpt lat="47.94175" lon="7.023">
        <ele>1214.65</ele>
        <time>2021-06-23T12:46:01Z</time>
      </trkpt>
      <trkpt lat="47.94167" lon="7.02305">
        <ele>1214.03</ele>
        <time>2021-06-23T12:46:04Z</time>
      </trkpt>
      <trkpt lat="47.94158" lon="7.02309">
        <ele>1213.4</ele>
        <time>2021-06-23T12:46:06Z</time>
      </trkpt>
      <trkpt lat="47.94143" lon="7.02309">
        <ele>1212.39</ele>
        <time>2021-06-23T12:46:09Z</time>
      </trkpt>
      <trkpt lat="47.94132" lon="7.02305">
        <ele>1212.7</ele>
        <time>2021-06-23T12:46:11Z</time>
      </trkpt>
      <trkpt lat="47.94119" lon="7.02291">
        <ele>1213.55</ele>
        <time>2021-06-23T12:46:14Z</time>
      </trkpt>
      <trkpt lat="47.94114" lon="7.02283">
        <ele>1213.32</ele>
        <time>2021-06-23T12:46:17Z</time>
      </trkpt>
      <trkpt lat="47.94082" lon="7.02221">
        <ele>1208.97</ele>
        <time>2021-06-23T12:46:19Z</time>
      </trkpt>
      <trkpt lat="47.9407" lon="7.02204">
        <ele>1208.65</ele>
        <time>2021-06-23T12:46:22Z</time>
      </trkpt>
      <trkpt lat="47.94057" lon="7.02188">
        <ele>1210.09</ele>
        <time>2021-06-23T12:46:24Z</time>
      </trkpt>
      <trkpt lat="47.93985" lon="7.02121">
        <ele>1209.75</ele>
        <time>2021-06-23T12:46:27Z</time>
      </trkpt>
      <trkpt lat="47.93965" lon="7.02112">
        <ele>1209.61</ele>
        <time>2021-06-23T12:46:30Z</time>
      </trkpt>
      <trkpt lat="47.93946" lon="7.02111">
        <ele>1208.08</ele>
        <time>2021-06-23T12:46:32Z</time>
      </trkpt>
      <trkpt lat="47.9393" lon="7.02113">
        <ele>1206.28</ele>
        <time>2021-06-23T12:46:35Z</time>
      </trkpt>
      <trkpt lat="47.93911" lon="7.02123">
        <ele>1205.24</ele>
        <time>2021-06-23T12:46:37Z</time>
      </trkpt>
      <trkpt lat="47.93825" lon="7.02202">
        <ele>1205.89</ele>
        <time>2021-06-23T12:46:40Z</time>
      </trkpt>
      <trkpt lat="47.93811" lon="7.02211">
        <ele>1205.09</ele>
        <time>2021-06-23T12:46:43Z</time>
      </trkpt>
      <trkpt lat="47.93803" lon="7.02212">
        <ele>1204.52</ele>
        <time>2021-06-23T12:46:45Z</time>
      </trkpt>
      <trkpt lat="47.93794" lon="7.02211">
        <ele>1204.18</ele>
        <time>2021-06-23T12:46:48Z</time>
      </trkpt>
      <trkpt lat="47.93786" lon="7.02206">
        <ele>1203.71</ele>
        <time>2021-06-23T12:46:50Z</time>
      </trkpt>
      <trkpt lat="47.93777" lon="7.02196">
        <ele>1203.12</ele>
        <time>2021-06-23T12:46:53Z</time>
      </trkpt>
      <trkpt lat="47.93736" lon="7.02131">
        <ele>1206.14</ele>
        <time>2021-06-23T12:46:55Z</time>
      </trkpt>
      <trkpt lat="47.93711" lon="7.02102">
        <ele>1208.2</ele>
        <time>2021-06-23T12:46:58Z</time>
      </trkpt>
      <trkpt lat="47.93672" lon="7.02073">
        <ele>1206.71</ele>
        <time>2021-06-23T12:47:01Z</time>
      </trkpt>
      <trkpt lat="47.9342" lon="7.01911">
        <ele>1207</ele>
        <time>2021-06-23T12:47:03Z</time>
      </trkpt>
      <trkpt lat="47.93394" lon="7.01896">
        <ele>1207.06</ele>
        <time>2021-06-23T12:47:06Z</time>
      </trkpt>
      <trkpt lat="47.93376" lon="7.01891">
        <ele>1206.67</ele>
        <time>2021-06-23T12:47:08Z</time>
      </trkpt>
      <trkpt lat="47.9334" lon="7.01885">
        <ele>1204.99</ele>
        <time>2021-06-23T12:47:11Z</time>
      </trkpt>
      <trkpt lat="47.93298" lon="7.01889">
        <ele>1205.72</ele>
        <time>2021-06-23T12:47:14Z</time>
      </trkpt>
      <trkpt lat="47.93275" lon="7.01898">
        <ele>1205.31</ele>
        <time>2021-06-23T12:47:16Z</time>
      </trkpt>
      <trkpt lat="47.93262" lon="7.01906">
        <ele>1205.26</ele>
        <time>2021-06-23T12:47:19Z</time>
      </trkpt>
      <trkpt lat="47.93155" lon="7.01988">
        <ele>1208.32</ele>
        <time>2021-06-23T12:47:21Z</time>
      </trkpt>
      <trkpt lat="47.93133" lon="7.02002">
        <ele>1209.07</ele>
        <time>2021-06-23T12:47:24Z</time>
      </trkpt>
      <trkpt lat="47.9312" lon="7.02009">
        <ele>1209.1</ele>
        <time>2021-06-23T12:47:26Z</time>
      </trkpt>
      <trkpt lat="47.93102" lon="7.02014">
        <ele>1208.83</ele>
        <time>2021-06-23T12:47:29Z</time>
      </trkpt>
      <trkpt lat="47.93085" lon="7.02017">
        <ele>1208.42</ele>
        <time>2021-06-23T12:47:32Z</time>
      </trkpt>
      <trkpt lat="47.92976" lon="7.02016">
        <ele>1210.85</ele>
        <time>2021-06-23T12:47:34Z</time>
      </trkpt>
      <trkpt lat="47.92956" lon="7.02011">
        <ele>1212.91</ele>
        <time>2021-06-23T12:47:37Z</time>
      </trkpt>
      <trkpt lat="47.92852" lon="7.01969">
        <ele>1215.02</ele>
        <time>2021-06-23T12:47:39Z</time>
      </trkpt>
      <trkpt lat="47.92818" lon="7.01968">
        <ele>1216.21</ele>
        <time>2021-06-23T12:47:42Z</time>
      </trkpt>
      <trkpt lat="47.92811" lon="7.01971">
        <ele>1216.49</ele>
        <time>2021-06-23T12:47:45Z</time>
      </trkpt>
      <trkpt lat="47.92799" lon="7.01982">
        <ele>1218.77</ele>
        <time>2021-06-23T12:47:47Z</time>
      </trkpt>
      <trkpt lat="47.92794" lon="7.0199">
        <ele>1220.02</ele>
        <time>2021-06-23T12:47:50Z</time>
      </trkpt>
      <trkpt lat="47.9279" lon="7.02007">
        <ele>1220.03</ele>
        <time>2021-06-23T12:47:52Z</time>
      </trkpt>
      <trkpt lat="47.92791" lon="7.02017">
        <ele>1219.42</ele>
        <time>2021-06-23T12:47:55Z</time>
      </trkpt>
      <trkpt lat="47.92794" lon="7.02032">
        <ele>1217.71</ele>
        <time>2021-06-23T12:47:58Z</time>
      </trkpt>
      <trkpt lat="47.92838" lon="7.02179">
        <ele>1209.02</ele>
        <time>2021-06-23T12:48:00Z</time>
      </trkpt>
      <trkpt lat="47.92844" lon="7.02214">
        <ele>1208.49</ele>
        <time>2021-06-23T12:48:03Z</time>
      </trkpt>
      <trkpt lat="47.92846" lon="7.02251">
        <ele>1210.55</ele>
        <time>2021-06-23T12:48:05Z</time>
      </trkpt>
      <trkpt lat="47.92833" lon="7.02414">
        <ele>1213.33</ele>
        <time>2021-06-23T12:48:08Z</time>
      </trkpt>
      <trkpt lat="47.92822" lon="7.02471">
        <ele>1209.72</ele>
        <time>2021-06-23T12:48:10Z</time>
      </trkpt>
      <trkpt lat="47.92809" lon="7.02515">
        <ele>1211.8</ele>
        <time>2021-06-23T12:48:13Z</time>
      </trkpt>
      <trkpt lat="47.92798" lon="7.02543">
        <ele>1213.28</ele>
        <time>2021-06-23T12:48:16Z</time>
      </trkpt>
      <trkpt lat="47.92757" lon="7.02616">
        <ele>1214.08</ele>
        <time>2021-06-23T12:48:18Z</time>
      </trkpt>
      <trkpt lat="47.92749" lon="7.02635">
        <ele>1212.93</ele>
        <time>2021-06-23T12:48:21Z</time>
      </trkpt>
      <trkpt lat="47.92746" lon="7.02662">
        <ele>1209.73</ele>
        <time>2021-06-23T12:48:23Z</time>
      </trkpt>
      <trkpt lat="47.92744" lon="7.02764">
        <ele>1206.01</ele>
        <time>2021-06-23T12:48:26Z</time>
      </trkpt>
      <trkpt lat="47.92741" lon="7.02845">
        <ele>1207.23</ele>
        <time>2021-06-23T12:48:29Z</time>
      </trkpt>
      <trkpt lat="47.92734" lon="7.02872">
        <ele>1205.74</ele>
        <time>2021-06-23T12:48:31Z</time>
      </trkpt>
      <trkpt lat="47.92719" lon="7.02904">
        <ele>1202.72</ele>
        <time>2021-06-23T12:48:34Z</time>
      </trkpt>
      <trkpt lat="47.92695" lon="7.02926">
        <ele>1198.65</ele>
        <time>2021-06-23T12:48:36Z</time>
      </trkpt>
      <trkpt lat="47.9267" lon="7.02937">
        <ele>1196.15</ele>
        <time>2021-06-23T12:48:39Z</time>
      </trkpt>
      <trkpt lat="47.9245" lon="7.02998">
        <ele>1190.94</ele>
        <time>2021-06-23T12:48:41Z</time>
      </trkpt>
      <trkpt lat="47.92432" lon="7.0301">
        <ele>1190.01</ele>
        <time>2021-06-23T12:48:44Z</time>
      </trkpt>
      <trkpt lat="47.92384" lon="7.03057">
        <ele>1185.9</ele>
        <time>2021-06-23T12:48:47Z</time>
      </trkpt>
      <trkpt lat="47.92345" lon="7.03104">
        <ele>1183.99</ele>
        <time>2021-06-23T12:48:49Z</time>
      </trkpt>
      <trkpt lat="47.92331" lon="7.0313">
        <ele>1183.49</ele>
        <time>2021-06-23T12:48:52Z</time>
      </trkpt>
      <trkpt lat="47.92316" lon="7.03173">
        <ele>1182.14</ele>
        <time>2021-06-23T12:48:54Z</time>
      </trkpt>
      <trkpt lat="47.92312" lon="7.0319">
        <ele>1182.24</ele>
        <time>2021-06-23T12:48:57Z</time>
      </trkpt>
      <trkpt lat="47.92312" lon="7.0319">
        <ele>1182.24</ele>
        <time>2021-06-23T12:48:57Z</time>
      </trkpt>
      <trkpt lat="47.92307" lon="7.03208">
        <ele>1182.34</ele>
        <time>2021-06-23T12:48:58Z</time>
      </trkpt>
      <trkpt lat="47.9229" lon="7.0319">
        <ele>1183.56</ele>
        <time>2021-06-23T12:49:00Z</time>
      </trkpt>
      <trkpt lat="47.92281" lon="7.03177">
        <ele>1183.87</ele>
        <time>2021-06-23T12:49:03Z</time>
      </trkpt>
      <trkpt lat="47.92276" lon="7.03166">
        <ele>1184.07</ele>
        <time>2021-06-23T12:49:05Z</time>
      </trkpt>
      <trkpt lat="47.92276" lon="7.03149">
        <ele>1185.26</ele>
        <time>2021-06-23T12:49:08Z</time>
      </trkpt>
      <trkpt lat="47.92278" lon="7.03131">
        <ele>1186.28</ele>
        <time>2021-06-23T12:49:10Z</time>
      </trkpt>
      <trkpt lat="47.92332" lon="7.02961">
        <ele>1189.98</ele>
        <time>2021-06-23T12:49:13Z</time>
      </trkpt>
      <trkpt lat="47.92363" lon="7.02873">
        <ele>1192.24</ele>
        <time>2021-06-23T12:49:15Z</time>
      </trkpt>
      <trkpt lat="47.92369" lon="7.02847">
        <ele>1193.59</ele>
        <time>2021-06-23T12:49:18Z</time>
      </trkpt>
      <trkpt lat="47.9237" lon="7.02831">
        <ele>1194.39</ele>
        <time>2021-06-23T12:49:20Z</time>
      </trkpt>
      <trkpt lat="47.92372" lon="7.02785">
        <ele>1196.08</ele>
        <time>2021-06-23T12:49:23Z</time>
      </trkpt>
      <trkpt lat="47.92371" lon="7.02731">
        <ele>1195.74</ele>
        <time>2021-06-23T12:49:25Z</time>
      </trkpt>
      <trkpt lat="47.92367" lon="7.02682">
        <ele>1193.59</ele>
        <time>2021-06-23T12:49:28Z</time>
      </trkpt>
      <trkpt lat="47.92362" lon="7.02645">
        <ele>1190.41</ele>
        <time>2021-06-23T12:49:30Z</time>
      </trkpt>
      <trkpt lat="47.92349" lon="7.02584">
        <ele>1187.24</ele>
        <time>2021-06-23T12:49:33Z</time>
      </trkpt>
      <trkpt lat="47.92347" lon="7.02563">
        <ele>1188.73</ele>
        <time>2021-06-23T12:49:35Z</time>
      </trkpt>
      <trkpt lat="47.92348" lon="7.02492">
        <ele>1196.57</ele>
        <time>2021-06-23T12:49:38Z</time>
      </trkpt>
      <trkpt lat="47.92347" lon="7.02473">
        <ele>1197.85</ele>
        <time>2021-06-23T12:49:40Z</time>
      </trkpt>
      <trkpt lat="47.92342" lon="7.02437">
        <ele>1199.13</ele>
        <time>2021-06-23T12:49:43Z</time>
      </trkpt>
      <trkpt lat="47.92341" lon="7.02406">
        <ele>1200.9</ele>
        <time>2021-06-23T12:49:45Z</time>
      </trkpt>
      <trkpt lat="47.92345" lon="7.02366">
        <ele>1200.93</ele>
        <time>2021-06-23T12:49:48Z</time>
      </trkpt>
      <trkpt lat="47.92355" lon="7.02325">
        <ele>1196.29</ele>
        <time>2021-06-23T12:49:50Z</time>
      </trkpt>
      <trkpt lat="47.92364" lon="7.02296">
        <ele>1196.64</ele>
        <time>2021-06-23T12:49:53Z</time>
      </trkpt>
      <trkpt lat="47.92375" lon="7.02274">
        <ele>1197.37</ele>
        <time>2021-06-23T12:49:55Z</time>
      </trkpt>
      <trkpt lat="47.92457" lon="7.02161">
        <ele>1193.68</ele>
        <time>2021-06-23T12:49:58Z</time>
      </trkpt>
      <trkpt lat="47.92474" lon="7.02125">
        <ele>1194.81</ele>
        <time>2021-06-23T12:50:00Z</time>
      </trkpt>
      <trkpt lat="47.92486" lon="7.02089">
        <ele>1195.01</ele>
        <time>2021-06-23T12:50:03Z</time>
      </trkpt>
      <trkpt lat="47.92492" lon="7.02053">
        <ele>1195.49</ele>
        <time>2021-06-23T12:50:05Z</time>
      </trkpt>
      <trkpt lat="47.92492" lon="7.02023">
        <ele>1195.44</ele>
        <time>2021-06-23T12:50:08Z</time>
      </trkpt>
      <trkpt lat="47.92489" lon="7.02003">
        <ele>1196.33</ele>
        <time>2021-06-23T12:50:10Z</time>
      </trkpt>
      <trkpt lat="47.92466" lon="7.01941">
        <ele>1196.81</ele>
        <time>2021-06-23T12:50:13Z</time>
      </trkpt>
      <trkpt lat="47.92461" lon="7.01919">
        <ele>1196.46</ele>
        <time>2021-06-23T12:50:16Z</time>
      </trkpt>
      <trkpt lat="47.9246" lon="7.01868">
        <ele>1198.87</ele>
        <time>2021-06-23T12:50:18Z</time>
      </trkpt>
      <trkpt lat="47.92472" lon="7.01755">
        <ele>1202.58</ele>
        <time>2021-06-23T12:50:21Z</time>
      </trkpt>
      <trkpt lat="47.92495" lon="7.01587">
        <ele>1198.79</ele>
        <time>2021-06-23T12:50:23Z</time>
      </trkpt>
      <trkpt lat="47.92508" lon="7.01507">
        <ele>1201.12</ele>
        <time>2021-06-23T12:50:26Z</time>
      </trkpt>
      <trkpt lat="47.92507" lon="7.01486">
        <ele>1200.03</ele>
        <time>2021-06-23T12:50:28Z</time>
      </trkpt>
      <trkpt lat="47.92502" lon="7.01459">
        <ele>1198.5</ele>
        <time>2021-06-23T12:50:31Z</time>
      </trkpt>
      <trkpt lat="47.92493" lon="7.01427">
        <ele>1199.19</ele>
        <time>2021-06-23T12:50:33Z</time>
      </trkpt>
      <trkpt lat="47.92484" lon="7.01409">
        <ele>1198.41</ele>
        <time>2021-06-23T12:50:36Z</time>
      </trkpt>
      <trkpt lat="47.92435" lon="7.01349">
        <ele>1194.51</ele>
        <time>2021-06-23T12:50:38Z</time>
      </trkpt>
      <trkpt lat="47.92426" lon="7.01333">
        <ele>1193.65</ele>
        <time>2021-06-23T12:50:41Z</time>
      </trkpt>
      <trkpt lat="47.9242" lon="7.01315">
        <ele>1190.72</ele>
        <time>2021-06-23T12:50:43Z</time>
      </trkpt>
      <trkpt lat="47.92408" lon="7.0125">
        <ele>1186.69</ele>
        <time>2021-06-23T12:50:46Z</time>
      </trkpt>
      <trkpt lat="47.92405" lon="7.01215">
        <ele>1187.18</ele>
        <time>2021-06-23T12:50:48Z</time>
      </trkpt>
      <trkpt lat="47.92403" lon="7.01164">
        <ele>1181.53</ele>
        <time>2021-06-23T12:50:51Z</time>
      </trkpt>
      <trkpt lat="47.92405" lon="7.01115">
        <ele>1175.27</ele>
        <time>2021-06-23T12:50:53Z</time>
      </trkpt>
      <trkpt lat="47.92416" lon="7.01062">
        <ele>1171.34</ele>
        <time>2021-06-23T12:50:56Z</time>
      </trkpt>
      <trkpt lat="47.92425" lon="7.01034">
        <ele>1170.48</ele>
        <time>2021-06-23T12:50:58Z</time>
      </trkpt>
      <trkpt lat="47.92436" lon="7.01008">
        <ele>1170.36</ele>
        <time>2021-06-23T12:51:01Z</time>
      </trkpt>
      <trkpt lat="47.92447" lon="7.00991">
        <ele>1170.34</ele>
        <time>2021-06-23T12:51:03Z</time>
      </trkpt>
      <trkpt lat="47.92467" lon="7.00967">
        <ele>1169.5</ele>
        <time>2021-06-23T12:51:06Z</time>
      </trkpt>
      <trkpt lat="47.92509" lon="7.00931">
        <ele>1163.91</ele>
        <time>2021-06-23T12:51:08Z</time>
      </trkpt>
      <trkpt lat="47.92533" lon="7.00906">
        <ele>1157.84</ele>
        <time>2021-06-23T12:51:11Z</time>
      </trkpt>
      <trkpt lat="47.92553" lon="7.00878">
        <ele>1157.19</ele>
        <time>2021-06-23T12:51:13Z</time>
      </trkpt>
      <trkpt lat="47.92565" lon="7.00849">
        <ele>1157.21</ele>
        <time>2021-06-23T12:51:16Z</time>
      </trkpt>
      <trkpt lat="47.92578" lon="7.00807">
        <ele>1158.17</ele>
        <time>2021-06-23T12:51:18Z</time>
      </trkpt>
      <trkpt lat="47.92594" lon="7.00748">
        <ele>1155.6</ele>
        <time>2021-06-23T12:51:21Z</time>
      </trkpt>
      <trkpt lat="47.92594" lon="7.00748">
        <ele>1155.6</ele>
        <time>2021-06-23T12:51:21Z</time>
      </trkpt>
      <trkpt lat="47.92605" lon="7.0072">
        <ele>1150.78</ele>
        <time>2021-06-23T12:51:23Z</time>
      </trkpt>
      <trkpt lat="47.92617" lon="7.00704">
        <ele>1148.98</ele>
        <time>2021-06-23T12:51:26Z</time>
      </trkpt>
      <trkpt lat="47.92631" lon="7.0069">
        <ele>1144.81</ele>
        <time>2021-06-23T12:51:29Z</time>
      </trkpt>
      <trkpt lat="47.92646" lon="7.00682">
        <ele>1142.13</ele>
        <time>2021-06-23T12:51:31Z</time>
      </trkpt>
      <trkpt lat="47.92719" lon="7.00667">
        <ele>1142.96</ele>
        <time>2021-06-23T12:51:34Z</time>
      </trkpt>
      <trkpt lat="47.92749" lon="7.00664">
        <ele>1142.71</ele>
        <time>2021-06-23T12:51:36Z</time>
      </trkpt>
      <trkpt lat="47.92767" lon="7.0067">
        <ele>1142.49</ele>
        <time>2021-06-23T12:51:39Z</time>
      </trkpt>
      <trkpt lat="47.92787" lon="7.00688">
        <ele>1140.71</ele>
        <time>2021-06-23T12:51:41Z</time>
      </trkpt>
      <trkpt lat="47.92801" lon="7.0071">
        <ele>1138.22</ele>
        <time>2021-06-23T12:51:44Z</time>
      </trkpt>
      <trkpt lat="47.92844" lon="7.00819">
        <ele>1127.9</ele>
        <time>2021-06-23T12:51:46Z</time>
      </trkpt>
      <trkpt lat="47.92872" lon="7.00882">
        <ele>1129.9</ele>
        <time>2021-06-23T12:51:49Z</time>
      </trkpt>
      <trkpt lat="47.92885" lon="7.009">
        <ele>1132.38</ele>
        <time>2021-06-23T12:51:51Z</time>
      </trkpt>
      <trkpt lat="47.92895" lon="7.00908">
        <ele>1132.54</ele>
        <time>2021-06-23T12:51:54Z</time>
      </trkpt>
      <trkpt lat="47.92911" lon="7.00916">
        <ele>1131.56</ele>
        <time>2021-06-23T12:51:57Z</time>
      </trkpt>
      <trkpt lat="47.92965" lon="7.00928">
        <ele>1120.49</ele>
        <time>2021-06-23T12:51:59Z</time>
      </trkpt>
      <trkpt lat="47.92978" lon="7.00936">
        <ele>1118.72</ele>
        <time>2021-06-23T12:52:02Z</time>
      </trkpt>
      <trkpt lat="47.92997" lon="7.00951">
        <ele>1119.47</ele>
        <time>2021-06-23T12:52:04Z</time>
      </trkpt>
      <trkpt lat="47.93015" lon="7.00976">
        <ele>1122.42</ele>
        <time>2021-06-23T12:52:07Z</time>
      </trkpt>
      <trkpt lat="47.93101" lon="7.01145">
        <ele>1112.97</ele>
        <time>2021-06-23T12:52:09Z</time>
      </trkpt>
      <trkpt lat="47.93107" lon="7.01154">
        <ele>1111.15</ele>
        <time>2021-06-23T12:52:12Z</time>
      </trkpt>
      <trkpt lat="47.9312" lon="7.01169">
        <ele>1110.16</ele>
        <time>2021-06-23T12:52:14Z</time>
      </trkpt>
      <trkpt lat="47.93134" lon="7.01176">
        <ele>1110.91</ele>
        <time>2021-06-23T12:52:17Z</time>
      </trkpt>
      <trkpt lat="47.93142" lon="7.01177">
        <ele>1110.7</ele>
        <time>2021-06-23T12:52:19Z</time>
      </trkpt>
      <trkpt lat="47.93155" lon="7.0117">
        <ele>1109.47</ele>
        <time>2021-06-23T12:52:22Z</time>
      </trkpt>
      <trkpt lat="47.93245" lon="7.01069">
        <ele>1094.05</ele>
        <time>2021-06-23T12:52:25Z</time>
      </trkpt>
      <trkpt lat="47.93257" lon="7.01059">
        <ele>1091.89</ele>
        <time>2021-06-23T12:52:27Z</time>
      </trkpt>
      <trkpt lat="47.93272" lon="7.01053">
        <ele>1090.37</ele>
        <time>2021-06-23T12:52:30Z</time>
      </trkpt>
      <trkpt lat="47.93286" lon="7.01051">
        <ele>1089.32</ele>
        <time>2021-06-23T12:52:32Z</time>
      </trkpt>
      <trkpt lat="47.93295" lon="7.01059">
        <ele>1089.54</ele>
        <time>2021-06-23T12:52:35Z</time>
      </trkpt>
      <trkpt lat="47.93306" lon="7.01075">
        <ele>1089.35</ele>
        <time>2021-06-23T12:52:37Z</time>
      </trkpt>
      <trkpt lat="47.93311" lon="7.01096">
        <ele>1088.78</ele>
        <time>2021-06-23T12:52:40Z</time>
      </trkpt>
      <trkpt lat="47.93319" lon="7.013">
        <ele>1092.25</ele>
        <time>2021-06-23T12:52:42Z</time>
      </trkpt>
      <trkpt lat="47.93322" lon="7.01331">
        <ele>1092.46</ele>
        <time>2021-06-23T12:52:45Z</time>
      </trkpt>
      <trkpt lat="47.93324" lon="7.01348">
        <ele>1090.95</ele>
        <time>2021-06-23T12:52:47Z</time>
      </trkpt>
      <trkpt lat="47.93328" lon="7.01358">
        <ele>1089.21</ele>
        <time>2021-06-23T12:52:50Z</time>
      </trkpt>
      <trkpt lat="47.93331" lon="7.01366">
        <ele>1087.91</ele>
        <time>2021-06-23T12:52:53Z</time>
      </trkpt>
      <trkpt lat="47.93342" lon="7.01379">
        <ele>1088.48</ele>
        <time>2021-06-23T12:52:55Z</time>
      </trkpt>
      <trkpt lat="47.93359" lon="7.01384">
        <ele>1088.72</ele>
        <time>2021-06-23T12:52:58Z</time>
      </trkpt>
      <trkpt lat="47.9337" lon="7.01382">
        <ele>1088.19</ele>
        <time>2021-06-23T12:53:00Z</time>
      </trkpt>
      <trkpt lat="47.93478" lon="7.01315">
        <ele>1071.94</ele>
        <time>2021-06-23T12:53:03Z</time>
      </trkpt>
      <trkpt lat="47.93503" lon="7.01303">
        <ele>1071.24</ele>
        <time>2021-06-23T12:53:05Z</time>
      </trkpt>
      <trkpt lat="47.93531" lon="7.01297">
        <ele>1069.39</ele>
        <time>2021-06-23T12:53:08Z</time>
      </trkpt>
      <trkpt lat="47.93549" lon="7.01297">
        <ele>1068.94</ele>
        <time>2021-06-23T12:53:10Z</time>
      </trkpt>
      <trkpt lat="47.93577" lon="7.01305">
        <ele>1070.84</ele>
        <time>2021-06-23T12:53:13Z</time>
      </trkpt>
      <trkpt lat="47.93588" lon="7.0131">
        <ele>1071.77</ele>
        <time>2021-06-23T12:53:15Z</time>
      </trkpt>
      <trkpt lat="47.93613" lon="7.01328">
        <ele>1072.05</ele>
        <time>2021-06-23T12:53:18Z</time>
      </trkpt>
      <trkpt lat="47.9368" lon="7.01411">
        <ele>1063.52</ele>
        <time>2021-06-23T12:53:20Z</time>
      </trkpt>
      <trkpt lat="47.93692" lon="7.01422">
        <ele>1063.85</ele>
        <time>2021-06-23T12:53:23Z</time>
      </trkpt>
      <trkpt lat="47.93819" lon="7.01478">
        <ele>1056.64</ele>
        <time>2021-06-23T12:53:26Z</time>
      </trkpt>
      <trkpt lat="47.93846" lon="7.015">
        <ele>1055.45</ele>
        <time>2021-06-23T12:53:28Z</time>
      </trkpt>
      <trkpt lat="47.939" lon="7.01561">
        <ele>1060.32</ele>
        <time>2021-06-23T12:53:31Z</time>
      </trkpt>
      <trkpt lat="47.93911" lon="7.01565">
        <ele>1057.44</ele>
        <time>2021-06-23T12:53:33Z</time>
      </trkpt>
      <trkpt lat="47.93925" lon="7.01563">
        <ele>1054.67</ele>
        <time>2021-06-23T12:53:36Z</time>
      </trkpt>
      <trkpt lat="47.93949" lon="7.01551">
        <ele>1051.22</ele>
        <time>2021-06-23T12:53:38Z</time>
      </trkpt>
      <trkpt lat="47.93973" lon="7.01544">
        <ele>1050.72</ele>
        <time>2021-06-23T12:53:41Z</time>
      </trkpt>
      <trkpt lat="47.9399" lon="7.01544">
        <ele>1050.44</ele>
        <time>2021-06-23T12:53:43Z</time>
      </trkpt>
      <trkpt lat="47.94033" lon="7.01554">
        <ele>1051.74</ele>
        <time>2021-06-23T12:53:46Z</time>
      </trkpt>
      <trkpt lat="47.94033" lon="7.01554">
        <ele>1051.74</ele>
        <time>2021-06-23T12:53:46Z</time>
      </trkpt>
      <trkpt lat="47.94046" lon="7.01557">
        <ele>1053.04</ele>
        <time>2021-06-23T12:53:49Z</time>
      </trkpt>
      <trkpt lat="47.94055" lon="7.01553">
        <ele>1052.41</ele>
        <time>2021-06-23T12:53:52Z</time>
      </trkpt>
      <trkpt lat="47.94064" lon="7.01544">
        <ele>1052.55</ele>
        <time>2021-06-23T12:53:55Z</time>
      </trkpt>
      <trkpt lat="47.94078" lon="7.01491">
        <ele>1046.73</ele>
        <time>2021-06-23T12:53:58Z</time>
      </trkpt>
      <trkpt lat="47.94087" lon="7.01448">
        <ele>1043.58</ele>
        <time>2021-06-23T12:54:01Z</time>
      </trkpt>
      <trkpt lat="47.94089" lon="7.01433">
        <ele>1042.41</ele>
        <time>2021-06-23T12:54:04Z</time>
      </trkpt>
      <trkpt lat="47.94088" lon="7.01416">
        <ele>1040.03</ele>
        <time>2021-06-23T12:54:07Z</time>
      </trkpt>
      <trkpt lat="47.94075" lon="7.01337">
        <ele>1037.65</ele>
        <time>2021-06-23T12:54:10Z</time>
      </trkpt>
      <trkpt lat="47.94022" lon="7.01143">
        <ele>1026.52</ele>
        <time>2021-06-23T12:54:13Z</time>
      </trkpt>
      <trkpt lat="47.94016" lon="7.01107">
        <ele>1026.71</ele>
        <time>2021-06-23T12:54:16Z</time>
      </trkpt>
      <trkpt lat="47.94005" lon="7.00928">
        <ele>1018.34</ele>
        <time>2021-06-23T12:54:19Z</time>
      </trkpt>
      <trkpt lat="47.94007" lon="7.00775">
        <ele>1013.75</ele>
        <time>2021-06-23T12:54:22Z</time>
      </trkpt>
      <trkpt lat="47.94012" lon="7.00731">
        <ele>1013.28</ele>
        <time>2021-06-23T12:54:25Z</time>
      </trkpt>
      <trkpt lat="47.94023" lon="7.00689">
        <ele>1015.04</ele>
        <time>2021-06-23T12:54:28Z</time>
      </trkpt>
      <trkpt lat="47.94032" lon="7.00667">
        <ele>1014.8</ele>
        <time>2021-06-23T12:54:31Z</time>
      </trkpt>
      <trkpt lat="47.94044" lon="7.00648">
        <ele>1014.88</ele>
        <time>2021-06-23T12:54:34Z</time>
      </trkpt>
      <trkpt lat="47.94056" lon="7.00637">
        <ele>1015.89</ele>
        <time>2021-06-23T12:54:37Z</time>
      </trkpt>
      <trkpt lat="47.94068" lon="7.00631">
        <ele>1016.62</ele>
        <time>2021-06-23T12:54:40Z</time>
      </trkpt>
      <trkpt lat="47.94093" lon="7.00628">
        <ele>1018.27</ele>
        <time>2021-06-23T12:54:44Z</time>
      </trkpt>
      <trkpt lat="47.94121" lon="7.00633">
        <ele>1017.41</ele>
        <time>2021-06-23T12:54:47Z</time>
      </trkpt>
      <trkpt lat="47.94147" lon="7.00649">
        <ele>1015.46</ele>
        <time>2021-06-23T12:54:50Z</time>
      </trkpt>
      <trkpt lat="47.94289" lon="7.00788">
        <ele>1009.55</ele>
        <time>2021-06-23T12:54:53Z</time>
      </trkpt>
      <trkpt lat="47.94364" lon="7.00855">
        <ele>1005.23</ele>
        <time>2021-06-23T12:54:56Z</time>
      </trkpt>
      <trkpt lat="47.94409" lon="7.00883">
        <ele>1004.37</ele>
        <time>2021-06-23T12:54:59Z</time>
      </trkpt>
      <trkpt lat="47.94526" lon="7.00911">
        <ele>994.85</ele>
        <time>2021-06-23T12:55:02Z</time>
      </trkpt>
      <trkpt lat="47.94556" lon="7.00924">
        <ele>993.62</ele>
        <time>2021-06-23T12:55:05Z</time>
      </trkpt>
      <trkpt lat="47.94585" lon="7.0094">
        <ele>991.13</ele>
        <time>2021-06-23T12:55:08Z</time>
      </trkpt>
      <trkpt lat="47.94596" lon="7.00951">
        <ele>991.11</ele>
        <time>2021-06-23T12:55:11Z</time>
      </trkpt>
      <trkpt lat="47.94605" lon="7.00965">
        <ele>991.98</ele>
        <time>2021-06-23T12:55:14Z</time>
      </trkpt>
      <trkpt lat="47.94615" lon="7.00983">
        <ele>992.79</ele>
        <time>2021-06-23T12:55:17Z</time>
      </trkpt>
      <trkpt lat="47.94619" lon="7.01003">
        <ele>994</ele>
        <time>2021-06-23T12:55:20Z</time>
      </trkpt>
      <trkpt lat="47.94629" lon="7.01094">
        <ele>994.56</ele>
        <time>2021-06-23T12:55:23Z</time>
      </trkpt>
      <trkpt lat="47.94635" lon="7.01136">
        <ele>995.03</ele>
        <time>2021-06-23T12:55:26Z</time>
      </trkpt>
      <trkpt lat="47.9464" lon="7.01156">
        <ele>994.48</ele>
        <time>2021-06-23T12:55:29Z</time>
      </trkpt>
      <trkpt lat="47.94661" lon="7.01191">
        <ele>992.06</ele>
        <time>2021-06-23T12:55:32Z</time>
      </trkpt>
      <trkpt lat="47.94674" lon="7.01198">
        <ele>991.29</ele>
        <time>2021-06-23T12:55:35Z</time>
      </trkpt>
      <trkpt lat="47.94691" lon="7.01196">
        <ele>990.52</ele>
        <time>2021-06-23T12:55:38Z</time>
      </trkpt>
      <trkpt lat="47.94707" lon="7.01187">
        <ele>989.65</ele>
        <time>2021-06-23T12:55:41Z</time>
      </trkpt>
      <trkpt lat="47.94746" lon="7.01157">
        <ele>988.63</ele>
        <time>2021-06-23T12:55:44Z</time>
      </trkpt>
      <trkpt lat="47.94773" lon="7.01149">
        <ele>989.56</ele>
        <time>2021-06-23T12:55:47Z</time>
      </trkpt>
      <trkpt lat="47.94815" lon="7.01144">
        <ele>992.38</ele>
        <time>2021-06-23T12:55:50Z</time>
      </trkpt>
      <trkpt lat="47.94822" lon="7.01139">
        <ele>992.63</ele>
        <time>2021-06-23T12:55:53Z</time>
      </trkpt>
      <trkpt lat="47.94833" lon="7.01119">
        <ele>992.94</ele>
        <time>2021-06-23T12:55:56Z</time>
      </trkpt>
      <trkpt lat="47.94851" lon="7.01043">
        <ele>988.16</ele>
        <time>2021-06-23T12:55:59Z</time>
      </trkpt>
      <trkpt lat="47.94866" lon="7.00994">
        <ele>980.2</ele>
        <time>2021-06-23T12:56:02Z</time>
      </trkpt>
      <trkpt lat="47.94883" lon="7.00956">
        <ele>975.46</ele>
        <time>2021-06-23T12:56:05Z</time>
      </trkpt>
      <trkpt lat="47.94938" lon="7.00868">
        <ele>975.97</ele>
        <time>2021-06-23T12:56:08Z</time>
      </trkpt>
      <trkpt lat="47.94963" lon="7.00848">
        <ele>977.1</ele>
        <time>2021-06-23T12:56:11Z</time>
      </trkpt>
      <trkpt lat="47.9498" lon="7.00844">
        <ele>979.22</ele>
        <time>2021-06-23T12:56:14Z</time>
      </trkpt>
      <trkpt lat="47.94996" lon="7.00844">
        <ele>982.23</ele>
        <time>2021-06-23T12:56:17Z</time>
      </trkpt>
      <trkpt lat="47.95054" lon="7.00853">
        <ele>983.34</ele>
        <time>2021-06-23T12:56:20Z</time>
      </trkpt>
      <trkpt lat="47.9508" lon="7.00851">
        <ele>978.86</ele>
        <time>2021-06-23T12:56:23Z</time>
      </trkpt>
      <trkpt lat="47.95093" lon="7.00841">
        <ele>977.97</ele>
        <time>2021-06-23T12:56:26Z</time>
      </trkpt>
      <trkpt lat="47.95103" lon="7.00827">
        <ele>977.95</ele>
        <time>2021-06-23T12:56:29Z</time>
      </trkpt>
      <trkpt lat="47.95109" lon="7.00806">
        <ele>976.48</ele>
        <time>2021-06-23T12:56:33Z</time>
      </trkpt>
      <trkpt lat="47.9511" lon="7.0078">
        <ele>976.68</ele>
        <time>2021-06-23T12:56:36Z</time>
      </trkpt>
      <trkpt lat="47.95102" lon="7.0071">
        <ele>971.97</ele>
        <time>2021-06-23T12:56:39Z</time>
      </trkpt>
      <trkpt lat="47.95098" lon="7.00651">
        <ele>969.73</ele>
        <time>2021-06-23T12:56:42Z</time>
      </trkpt>
      <trkpt lat="47.95092" lon="7.00464">
        <ele>959.53</ele>
        <time>2021-06-23T12:56:45Z</time>
      </trkpt>
      <trkpt lat="47.95065" lon="7.00322">
        <ele>957.88</ele>
        <time>2021-06-23T12:56:48Z</time>
      </trkpt>
      <trkpt lat="47.9504" lon="7.00152">
        <ele>964.27</ele>
        <time>2021-06-23T12:56:51Z</time>
      </trkpt>
      <trkpt lat="47.95029" lon="7.00128">
        <ele>965.03</ele>
        <time>2021-06-23T12:56:54Z</time>
      </trkpt>
      <trkpt lat="47.94981" lon="7.00082">
        <ele>961.79</ele>
        <time>2021-06-23T12:56:57Z</time>
      </trkpt>
      <trkpt lat="47.94969" lon="7.00061">
        <ele>961.26</ele>
        <time>2021-06-23T12:57:00Z</time>
      </trkpt>
      <trkpt lat="47.94962" lon="7.00034">
        <ele>961.01</ele>
        <time>2021-06-23T12:57:03Z</time>
      </trkpt>
      <trkpt lat="47.94952" lon="6.99934">
        <ele>958.94</ele>
        <time>2021-06-23T12:57:06Z</time>
      </trkpt>
      <trkpt lat="47.9495" lon="6.99868">
        <ele>960.84</ele>
        <time>2021-06-23T12:57:09Z</time>
      </trkpt>
      <trkpt lat="47.94945" lon="6.99847">
        <ele>960.49</ele>
        <time>2021-06-23T12:57:12Z</time>
      </trkpt>
      <trkpt lat="47.9494" lon="6.99831">
        <ele>959.77</ele>
        <time>2021-06-23T12:57:15Z</time>
      </trkpt>
      <trkpt lat="47.94925" lon="6.9981">
        <ele>958.87</ele>
        <time>2021-06-23T12:57:18Z</time>
      </trkpt>
      <trkpt lat="47.94901" lon="6.99789">
        <ele>955.92</ele>
        <time>2021-06-23T12:57:21Z</time>
      </trkpt>
      <trkpt lat="47.94813" lon="6.99748">
        <ele>948.31</ele>
        <time>2021-06-23T12:57:24Z</time>
      </trkpt>
      <trkpt lat="47.948" lon="6.99739">
        <ele>946.61</ele>
        <time>2021-06-23T12:57:27Z</time>
      </trkpt>
      <trkpt lat="47.94788" lon="6.99724">
        <ele>945.14</ele>
        <time>2021-06-23T12:57:30Z</time>
      </trkpt>
      <trkpt lat="47.94777" lon="6.99704">
        <ele>945.72</ele>
        <time>2021-06-23T12:57:33Z</time>
      </trkpt>
      <trkpt lat="47.94767" lon="6.99678">
        <ele>946.4</ele>
        <time>2021-06-23T12:57:36Z</time>
      </trkpt>
      <trkpt lat="47.94758" lon="6.99643">
        <ele>947.5</ele>
        <time>2021-06-23T12:57:39Z</time>
      </trkpt>
      <trkpt lat="47.94757" lon="6.99612">
        <ele>947.49</ele>
        <time>2021-06-23T12:57:42Z</time>
      </trkpt>
      <trkpt lat="47.94763" lon="6.99585">
        <ele>943.79</ele>
        <time>2021-06-23T12:57:45Z</time>
      </trkpt>
      <trkpt lat="47.94774" lon="6.99566">
        <ele>939.92</ele>
        <time>2021-06-23T12:57:48Z</time>
      </trkpt>
      <trkpt lat="47.94785" lon="6.99556">
        <ele>938.57</ele>
        <time>2021-06-23T12:57:51Z</time>
      </trkpt>
      <trkpt lat="47.94807" lon="6.99548">
        <ele>938.58</ele>
        <time>2021-06-23T12:57:54Z</time>
      </trkpt>
      <trkpt lat="47.94887" lon="6.99543">
        <ele>936.05</ele>
        <time>2021-06-23T12:57:57Z</time>
      </trkpt>
      <trkpt lat="47.94914" lon="6.99539">
        <ele>934.88</ele>
        <time>2021-06-23T12:58:00Z</time>
      </trkpt>
      <trkpt lat="47.94953" lon="6.99529">
        <ele>936.48</ele>
        <time>2021-06-23T12:58:03Z</time>
      </trkpt>
      <trkpt lat="47.94985" lon="6.99527">
        <ele>937.81</ele>
        <time>2021-06-23T12:58:06Z</time>
      </trkpt>
      <trkpt lat="47.95059" lon="6.99541">
        <ele>938.02</ele>
        <time>2021-06-23T12:58:09Z</time>
      </trkpt>
      <trkpt lat="47.95227" lon="6.99612">
        <ele>931.7</ele>
        <time>2021-06-23T12:58:12Z</time>
      </trkpt>
      <trkpt lat="47.95336" lon="6.9967">
        <ele>926.97</ele>
        <time>2021-06-23T12:58:15Z</time>
      </trkpt>
      <trkpt lat="47.95391" lon="6.99706">
        <ele>926.42</ele>
        <time>2021-06-23T12:58:19Z</time>
      </trkpt>
      <trkpt lat="47.95431" lon="6.99743">
        <ele>926.35</ele>
        <time>2021-06-23T12:58:22Z</time>
      </trkpt>
      <trkpt lat="47.95479" lon="6.99797">
        <ele>923.71</ele>
        <time>2021-06-23T12:58:25Z</time>
      </trkpt>
      <trkpt lat="47.95488" lon="6.99801">
        <ele>923.54</ele>
        <time>2021-06-23T12:58:28Z</time>
      </trkpt>
      <trkpt lat="47.95497" lon="6.99803">
        <ele>922.66</ele>
        <time>2021-06-23T12:58:31Z</time>
      </trkpt>
      <trkpt lat="47.95506" lon="6.998">
        <ele>921.93</ele>
        <time>2021-06-23T12:58:34Z</time>
      </trkpt>
      <trkpt lat="47.9552" lon="6.99785">
        <ele>919.77</ele>
        <time>2021-06-23T12:58:37Z</time>
      </trkpt>
      <trkpt lat="47.95551" lon="6.99712">
        <ele>910.98</ele>
        <time>2021-06-23T12:58:40Z</time>
      </trkpt>
      <trkpt lat="47.95569" lon="6.99682">
        <ele>907.38</ele>
        <time>2021-06-23T12:58:43Z</time>
      </trkpt>
      <trkpt lat="47.95576" lon="6.99673">
        <ele>906.82</ele>
        <time>2021-06-23T12:58:46Z</time>
      </trkpt>
      <trkpt lat="47.95599" lon="6.99654">
        <ele>907.28</ele>
        <time>2021-06-23T12:58:49Z</time>
      </trkpt>
      <trkpt lat="47.95647" lon="6.99622">
        <ele>908.97</ele>
        <time>2021-06-23T12:58:52Z</time>
      </trkpt>
      <trkpt lat="47.95647" lon="6.99622">
        <ele>908.97</ele>
        <time>2021-06-23T12:58:52Z</time>
      </trkpt>
      <trkpt lat="47.95661" lon="6.99604">
        <ele>911.86</ele>
        <time>2021-06-23T12:58:55Z</time>
      </trkpt>
      <trkpt lat="47.95666" lon="6.9958">
        <ele>910.76</ele>
        <time>2021-06-23T12:58:58Z</time>
      </trkpt>
      <trkpt lat="47.95666" lon="6.99555">
        <ele>909.45</ele>
        <time>2021-06-23T12:59:01Z</time>
      </trkpt>
      <trkpt lat="47.95662" lon="6.9952">
        <ele>908.25</ele>
        <time>2021-06-23T12:59:04Z</time>
      </trkpt>
      <trkpt lat="47.9566" lon="6.99487">
        <ele>908.92</ele>
        <time>2021-06-23T12:59:07Z</time>
      </trkpt>
      <trkpt lat="47.95662" lon="6.99423">
        <ele>910.32</ele>
        <time>2021-06-23T12:59:10Z</time>
      </trkpt>
      <trkpt lat="47.95659" lon="6.99404">
        <ele>912</ele>
        <time>2021-06-23T12:59:13Z</time>
      </trkpt>
      <trkpt lat="47.95623" lon="6.99317">
        <ele>904.42</ele>
        <time>2021-06-23T12:59:16Z</time>
      </trkpt>
      <trkpt lat="47.95618" lon="6.99294">
        <ele>904.46</ele>
        <time>2021-06-23T12:59:20Z</time>
      </trkpt>
      <trkpt lat="47.95615" lon="6.9923">
        <ele>903.89</ele>
        <time>2021-06-23T12:59:23Z</time>
      </trkpt>
      <trkpt lat="47.95617" lon="6.99192">
        <ele>897.95</ele>
        <time>2021-06-23T12:59:26Z</time>
      </trkpt>
      <trkpt lat="47.95621" lon="6.99162">
        <ele>895.55</ele>
        <time>2021-06-23T12:59:29Z</time>
      </trkpt>
      <trkpt lat="47.95637" lon="6.99107">
        <ele>900.95</ele>
        <time>2021-06-23T12:59:32Z</time>
      </trkpt>
      <trkpt lat="47.95639" lon="6.99093">
        <ele>902</ele>
        <time>2021-06-23T12:59:35Z</time>
      </trkpt>
      <trkpt lat="47.95637" lon="6.99077">
        <ele>902.45</ele>
        <time>2021-06-23T12:59:38Z</time>
      </trkpt>
      <trkpt lat="47.95634" lon="6.99064">
        <ele>903.06</ele>
        <time>2021-06-23T12:59:41Z</time>
      </trkpt>
      <trkpt lat="47.95627" lon="6.99051">
        <ele>903.24</ele>
        <time>2021-06-23T12:59:44Z</time>
      </trkpt>
      <trkpt lat="47.95618" lon="6.9904">
        <ele>903.45</ele>
        <time>2021-06-23T12:59:47Z</time>
      </trkpt>
      <trkpt lat="47.95552" lon="6.98995">
        <ele>894.56</ele>
        <time>2021-06-23T12:59:50Z</time>
      </trkpt>
      <trkpt lat="47.95538" lon="6.9898">
        <ele>895.13</ele>
        <time>2021-06-23T12:59:53Z</time>
      </trkpt>
      <trkpt lat="47.95528" lon="6.98962">
        <ele>894.47</ele>
        <time>2021-06-23T12:59:56Z</time>
      </trkpt>
      <trkpt lat="47.95521" lon="6.98939">
        <ele>891.35</ele>
        <time>2021-06-23T12:59:59Z</time>
      </trkpt>
      <trkpt lat="47.9552" lon="6.98917">
        <ele>889.24</ele>
        <time>2021-06-23T13:00:03Z</time>
      </trkpt>
      <trkpt lat="47.95524" lon="6.98895">
        <ele>886.25</ele>
        <time>2021-06-23T13:00:06Z</time>
      </trkpt>
      <trkpt lat="47.9553" lon="6.98878">
        <ele>884.26</ele>
        <time>2021-06-23T13:00:09Z</time>
      </trkpt>
      <trkpt lat="47.95539" lon="6.98864">
        <ele>884.04</ele>
        <time>2021-06-23T13:00:12Z</time>
      </trkpt>
      <trkpt lat="47.95655" lon="6.98747">
        <ele>886.16</ele>
        <time>2021-06-23T13:00:15Z</time>
      </trkpt>
      <trkpt lat="47.95703" lon="6.98675">
        <ele>878.11</ele>
        <time>2021-06-23T13:00:18Z</time>
      </trkpt>
      <trkpt lat="47.95729" lon="6.98645">
        <ele>875.54</ele>
        <time>2021-06-23T13:00:21Z</time>
      </trkpt>
      <trkpt lat="47.95766" lon="6.98612">
        <ele>874.49</ele>
        <time>2021-06-23T13:00:24Z</time>
      </trkpt>
      <trkpt lat="47.95793" lon="6.98593">
        <ele>871.1</ele>
        <time>2021-06-23T13:00:27Z</time>
      </trkpt>
      <trkpt lat="47.95847" lon="6.98563">
        <ele>865.78</ele>
        <time>2021-06-23T13:00:30Z</time>
      </trkpt>
      <trkpt lat="47.95916" lon="6.98541">
        <ele>866.79</ele>
        <time>2021-06-23T13:00:33Z</time>
      </trkpt>
      <trkpt lat="47.95925" lon="6.98535">
        <ele>866.39</ele>
        <time>2021-06-23T13:00:36Z</time>
      </trkpt>
      <trkpt lat="47.95935" lon="6.98521">
        <ele>866.36</ele>
        <time>2021-06-23T13:00:39Z</time>
      </trkpt>
      <trkpt lat="47.95938" lon="6.98495">
        <ele>866.08</ele>
        <time>2021-06-23T13:00:42Z</time>
      </trkpt>
      <trkpt lat="47.95934" lon="6.9848">
        <ele>865.22</ele>
        <time>2021-06-23T13:00:46Z</time>
      </trkpt>
      <trkpt lat="47.95928" lon="6.98467">
        <ele>863.1</ele>
        <time>2021-06-23T13:00:49Z</time>
      </trkpt>
      <trkpt lat="47.95912" lon="6.98443">
        <ele>859.24</ele>
        <time>2021-06-23T13:00:52Z</time>
      </trkpt>
      <trkpt lat="47.95845" lon="6.98358">
        <ele>862.23</ele>
        <time>2021-06-23T13:00:55Z</time>
      </trkpt>
      <trkpt lat="47.95814" lon="6.983">
        <ele>866.17</ele>
        <time>2021-06-23T13:00:58Z</time>
      </trkpt>
      <trkpt lat="47.95797" lon="6.98282">
        <ele>866.67</ele>
        <time>2021-06-23T13:01:01Z</time>
      </trkpt>
      <trkpt lat="47.9578" lon="6.98271">
        <ele>866.62</ele>
        <time>2021-06-23T13:01:04Z</time>
      </trkpt>
      <trkpt lat="47.95753" lon="6.98267">
        <ele>860.56</ele>
        <time>2021-06-23T13:01:07Z</time>
      </trkpt>
      <trkpt lat="47.95674" lon="6.98266">
        <ele>855.45</ele>
        <time>2021-06-23T13:01:10Z</time>
      </trkpt>
      <trkpt lat="47.95535" lon="6.9829">
        <ele>840.66</ele>
        <time>2021-06-23T13:01:13Z</time>
      </trkpt>
      <trkpt lat="47.95507" lon="6.98288">
        <ele>835.37</ele>
        <time>2021-06-23T13:01:16Z</time>
      </trkpt>
      <trkpt lat="47.95455" lon="6.98268">
        <ele>834.84</ele>
        <time>2021-06-23T13:01:19Z</time>
      </trkpt>
      <trkpt lat="47.95435" lon="6.98269">
        <ele>835.72</ele>
        <time>2021-06-23T13:01:22Z</time>
      </trkpt>
      <trkpt lat="47.95419" lon="6.98281">
        <ele>833.63</ele>
        <time>2021-06-23T13:01:25Z</time>
      </trkpt>
      <trkpt lat="47.95292" lon="6.98411">
        <ele>825.62</ele>
        <time>2021-06-23T13:01:29Z</time>
      </trkpt>
      <trkpt lat="47.95265" lon="6.98441">
        <ele>813.71</ele>
        <time>2021-06-23T13:01:32Z</time>
      </trkpt>
      <trkpt lat="47.95246" lon="6.98458">
        <ele>808.58</ele>
        <time>2021-06-23T13:01:35Z</time>
      </trkpt>
      <trkpt lat="47.95222" lon="6.9847">
        <ele>808.97</ele>
        <time>2021-06-23T13:01:38Z</time>
      </trkpt>
      <trkpt lat="47.95172" lon="6.98484">
        <ele>808.17</ele>
        <time>2021-06-23T13:01:41Z</time>
      </trkpt>
      <trkpt lat="47.95123" lon="6.98484">
        <ele>809.46</ele>
        <time>2021-06-23T13:01:44Z</time>
      </trkpt>
      <trkpt lat="47.95078" lon="6.9848">
        <ele>803.5</ele>
        <time>2021-06-23T13:01:47Z</time>
      </trkpt>
      <trkpt lat="47.95044" lon="6.98472">
        <ele>799.31</ele>
        <time>2021-06-23T13:01:50Z</time>
      </trkpt>
      <trkpt lat="47.95009" lon="6.98458">
        <ele>799.99</ele>
        <time>2021-06-23T13:01:53Z</time>
      </trkpt>
      <trkpt lat="47.94915" lon="6.98387">
        <ele>795.7</ele>
        <time>2021-06-23T13:01:56Z</time>
      </trkpt>
      <trkpt lat="47.94879" lon="6.98369">
        <ele>796.29</ele>
        <time>2021-06-23T13:01:59Z</time>
      </trkpt>
      <trkpt lat="47.94794" lon="6.98367">
        <ele>787.51</ele>
        <time>2021-06-23T13:02:02Z</time>
      </trkpt>
      <trkpt lat="47.94766" lon="6.98357">
        <ele>785.75</ele>
        <time>2021-06-23T13:02:05Z</time>
      </trkpt>
      <trkpt lat="47.94742" lon="6.98334">
        <ele>789.59</ele>
        <time>2021-06-23T13:02:08Z</time>
      </trkpt>
      <trkpt lat="47.94621" lon="6.98163">
        <ele>778.08</ele>
        <time>2021-06-23T13:02:11Z</time>
      </trkpt>
      <trkpt lat="47.946" lon="6.98143">
        <ele>776.62</ele>
        <time>2021-06-23T13:02:15Z</time>
      </trkpt>
      <trkpt lat="47.94503" lon="6.98103">
        <ele>770.24</ele>
        <time>2021-06-23T13:02:18Z</time>
      </trkpt>
      <trkpt lat="47.94413" lon="6.98059">
        <ele>770.64</ele>
        <time>2021-06-23T13:02:21Z</time>
      </trkpt>
      <trkpt lat="47.94372" lon="6.9803">
        <ele>767.86</ele>
        <time>2021-06-23T13:02:24Z</time>
      </trkpt>
      <trkpt lat="47.94349" lon="6.9801">
        <ele>764.92</ele>
        <time>2021-06-23T13:02:27Z</time>
      </trkpt>
      <trkpt lat="47.94331" lon="6.97983">
        <ele>761.57</ele>
        <time>2021-06-23T13:02:30Z</time>
      </trkpt>
      <trkpt lat="47.94299" lon="6.979">
        <ele>760.74</ele>
        <time>2021-06-23T13:02:33Z</time>
      </trkpt>
      <trkpt lat="47.94287" lon="6.97884">
        <ele>760.64</ele>
        <time>2021-06-23T13:02:36Z</time>
      </trkpt>
      <trkpt lat="47.94228" lon="6.97869">
        <ele>749.63</ele>
        <time>2021-06-23T13:02:39Z</time>
      </trkpt>
      <trkpt lat="47.94201" lon="6.97848">
        <ele>748.2</ele>
        <time>2021-06-23T13:02:42Z</time>
      </trkpt>
      <trkpt lat="47.94187" lon="6.9783">
        <ele>746.83</ele>
        <time>2021-06-23T13:02:45Z</time>
      </trkpt>
      <trkpt lat="47.94172" lon="6.97799">
        <ele>743.71</ele>
        <time>2021-06-23T13:02:48Z</time>
      </trkpt>
      <trkpt lat="47.9417" lon="6.97791">
        <ele>742.26</ele>
        <time>2021-06-23T13:02:51Z</time>
      </trkpt>
      <trkpt lat="47.9417" lon="6.97791">
        <ele>742.26</ele>
        <time>2021-06-23T13:02:51Z</time>
      </trkpt>
      <trkpt lat="47.94163" lon="6.97763">
        <ele>740.81</ele>
        <time>2021-06-23T13:02:55Z</time>
      </trkpt>
      <trkpt lat="47.94157" lon="6.97706">
        <ele>738.13</ele>
        <time>2021-06-23T13:02:58Z</time>
      </trkpt>
      <trkpt lat="47.94164" lon="6.97503">
        <ele>731.88</ele>
        <time>2021-06-23T13:03:01Z</time>
      </trkpt>
      <trkpt lat="47.9417" lon="6.97434">
        <ele>731.88</ele>
        <time>2021-06-23T13:03:04Z</time>
      </trkpt>
      <trkpt lat="47.94178" lon="6.97386">
        <ele>727.97</ele>
        <time>2021-06-23T13:03:07Z</time>
      </trkpt>
      <trkpt lat="47.94189" lon="6.97338">
        <ele>724.38</ele>
        <time>2021-06-23T13:03:10Z</time>
      </trkpt>
      <trkpt lat="47.94217" lon="6.97226">
        <ele>722.49</ele>
        <time>2021-06-23T13:03:13Z</time>
      </trkpt>
      <trkpt lat="47.94238" lon="6.97109">
        <ele>721.49</ele>
        <time>2021-06-23T13:03:16Z</time>
      </trkpt>
      <trkpt lat="47.94239" lon="6.97083">
        <ele>720.27</ele>
        <time>2021-06-23T13:03:19Z</time>
      </trkpt>
      <trkpt lat="47.94237" lon="6.97056">
        <ele>718.68</ele>
        <time>2021-06-23T13:03:23Z</time>
      </trkpt>
      <trkpt lat="47.94198" lon="6.96951">
        <ele>711.66</ele>
        <time>2021-06-23T13:03:26Z</time>
      </trkpt>
      <trkpt lat="47.9419" lon="6.96921">
        <ele>708.04</ele>
        <time>2021-06-23T13:03:29Z</time>
      </trkpt>
      <trkpt lat="47.94185" lon="6.96882">
        <ele>705.04</ele>
        <time>2021-06-23T13:03:32Z</time>
      </trkpt>
      <trkpt lat="47.94186" lon="6.96862">
        <ele>704.58</ele>
        <time>2021-06-23T13:03:35Z</time>
      </trkpt>
      <trkpt lat="47.9419" lon="6.96849">
        <ele>704.34</ele>
        <time>2021-06-23T13:03:38Z</time>
      </trkpt>
      <trkpt lat="47.94197" lon="6.96836">
        <ele>704.39</ele>
        <time>2021-06-23T13:03:41Z</time>
      </trkpt>
      <trkpt lat="47.94209" lon="6.96822">
        <ele>704.34</ele>
        <time>2021-06-23T13:03:44Z</time>
      </trkpt>
      <trkpt lat="47.94238" lon="6.96797">
        <ele>703.98</ele>
        <time>2021-06-23T13:03:47Z</time>
      </trkpt>
      <trkpt lat="47.94272" lon="6.96765">
        <ele>702.59</ele>
        <time>2021-06-23T13:03:50Z</time>
      </trkpt>
      <trkpt lat="47.94295" lon="6.96752">
        <ele>702</ele>
        <time>2021-06-23T13:03:54Z</time>
      </trkpt>
      <trkpt lat="47.94346" lon="6.96728">
        <ele>696.25</ele>
        <time>2021-06-23T13:03:57Z</time>
      </trkpt>
      <trkpt lat="47.9445" lon="6.96703">
        <ele>687.13</ele>
        <time>2021-06-23T13:04:00Z</time>
      </trkpt>
      <trkpt lat="47.94487" lon="6.96692">
        <ele>685.52</ele>
        <time>2021-06-23T13:04:03Z</time>
      </trkpt>
      <trkpt lat="47.94693" lon="6.96656">
        <ele>661.68</ele>
        <time>2021-06-23T13:04:06Z</time>
      </trkpt>
      <trkpt lat="47.94707" lon="6.96658">
        <ele>661.66</ele>
        <time>2021-06-23T13:04:09Z</time>
      </trkpt>
      <trkpt lat="47.94724" lon="6.96669">
        <ele>663.64</ele>
        <time>2021-06-23T13:04:12Z</time>
      </trkpt>
      <trkpt lat="47.94749" lon="6.96689">
        <ele>665.55</ele>
        <time>2021-06-23T13:04:15Z</time>
      </trkpt>
      <trkpt lat="47.94757" lon="6.9669">
        <ele>666.03</ele>
        <time>2021-06-23T13:04:18Z</time>
      </trkpt>
      <trkpt lat="47.94765" lon="6.96688">
        <ele>666.01</ele>
        <time>2021-06-23T13:04:22Z</time>
      </trkpt>
      <trkpt lat="47.94773" lon="6.96679">
        <ele>664.26</ele>
        <time>2021-06-23T13:04:25Z</time>
      </trkpt>
      <trkpt lat="47.94779" lon="6.9666">
        <ele>661.73</ele>
        <time>2021-06-23T13:04:28Z</time>
      </trkpt>
      <trkpt lat="47.9479" lon="6.96616">
        <ele>658.67</ele>
        <time>2021-06-23T13:04:31Z</time>
      </trkpt>
      <trkpt lat="47.94802" lon="6.96549">
        <ele>657.02</ele>
        <time>2021-06-23T13:04:34Z</time>
      </trkpt>
      <trkpt lat="47.94802" lon="6.96528">
        <ele>656.84</ele>
        <time>2021-06-23T13:04:37Z</time>
      </trkpt>
      <trkpt lat="47.948" lon="6.96503">
        <ele>653.14</ele>
        <time>2021-06-23T13:04:40Z</time>
      </trkpt>
      <trkpt lat="47.9479" lon="6.96462">
        <ele>642.77</ele>
        <time>2021-06-23T13:04:43Z</time>
      </trkpt>
      <trkpt lat="47.94788" lon="6.96441">
        <ele>639.47</ele>
        <time>2021-06-23T13:04:46Z</time>
      </trkpt>
      <trkpt lat="47.9479" lon="6.96416">
        <ele>636.27</ele>
        <time>2021-06-23T13:04:49Z</time>
      </trkpt>
      <trkpt lat="47.94795" lon="6.96391">
        <ele>628.46</ele>
        <time>2021-06-23T13:04:53Z</time>
      </trkpt>
      <trkpt lat="47.94802" lon="6.96374">
        <ele>623.05</ele>
        <time>2021-06-23T13:04:56Z</time>
      </trkpt>
      <trkpt lat="47.94809" lon="6.96364">
        <ele>620.02</ele>
        <time>2021-06-23T13:04:59Z</time>
      </trkpt>
      <trkpt lat="47.94819" lon="6.96355">
        <ele>619.28</ele>
        <time>2021-06-23T13:05:02Z</time>
      </trkpt>
      <trkpt lat="47.94898" lon="6.96314">
        <ele>628.19</ele>
        <time>2021-06-23T13:05:05Z</time>
      </trkpt>
      <trkpt lat="47.95003" lon="6.96264">
        <ele>609.03</ele>
        <time>2021-06-23T13:05:08Z</time>
      </trkpt>
      <trkpt lat="47.95059" lon="6.96232">
        <ele>596.78</ele>
        <time>2021-06-23T13:05:11Z</time>
      </trkpt>
      <trkpt lat="47.95081" lon="6.96224">
        <ele>598.4</ele>
        <time>2021-06-23T13:05:14Z</time>
      </trkpt>
      <trkpt lat="47.95139" lon="6.96216">
        <ele>600.17</ele>
        <time>2021-06-23T13:05:17Z</time>
      </trkpt>
      <trkpt lat="47.95211" lon="6.9621">
        <ele>599.53</ele>
        <time>2021-06-23T13:05:21Z</time>
      </trkpt>
      <trkpt lat="47.95241" lon="6.962">
        <ele>593.66</ele>
        <time>2021-06-23T13:05:24Z</time>
      </trkpt>
      <trkpt lat="47.95288" lon="6.96166">
        <ele>584.76</ele>
        <time>2021-06-23T13:05:27Z</time>
      </trkpt>
      <trkpt lat="47.9531" lon="6.96158">
        <ele>585.22</ele>
        <time>2021-06-23T13:05:30Z</time>
      </trkpt>
      <trkpt lat="47.95336" lon="6.96156">
        <ele>582.8</ele>
        <time>2021-06-23T13:05:33Z</time>
      </trkpt>
      <trkpt lat="47.95428" lon="6.96166">
        <ele>567.2</ele>
        <time>2021-06-23T13:05:36Z</time>
      </trkpt>
      <trkpt lat="47.9555" lon="6.96209">
        <ele>563.3</ele>
        <time>2021-06-23T13:05:39Z</time>
      </trkpt>
      <trkpt lat="47.95558" lon="6.96206">
        <ele>562.54</ele>
        <time>2021-06-23T13:05:42Z</time>
      </trkpt>
      <trkpt lat="47.95565" lon="6.96193">
        <ele>559.26</ele>
        <time>2021-06-23T13:05:45Z</time>
      </trkpt>
      <trkpt lat="47.95568" lon="6.96181">
        <ele>555.97</ele>
        <time>2021-06-23T13:05:49Z</time>
      </trkpt>
      <trkpt lat="47.95571" lon="6.96181">
        <ele>557.07</ele>
        <time>2021-06-23T13:05:49Z</time>
      </trkpt>
      <trkpt lat="47.95571" lon="6.96181">
        <ele>557.07</ele>
        <time>2021-06-23T13:05:49Z</time>
      </trkpt>
      <trkpt lat="47.9555" lon="6.96177">
        <ele>553.9</ele>
        <time>2021-06-23T13:05:53Z</time>
      </trkpt>
      <trkpt lat="47.95512" lon="6.96161">
        <ele>552.63</ele>
        <time>2021-06-23T13:05:58Z</time>
      </trkpt>
      <trkpt lat="47.95464" lon="6.96134">
        <ele>552.9</ele>
        <time>2021-06-23T13:06:02Z</time>
      </trkpt>
      <trkpt lat="47.95413" lon="6.96115">
        <ele>554.29</ele>
        <time>2021-06-23T13:06:06Z</time>
      </trkpt>
      <trkpt lat="47.95388" lon="6.9611">
        <ele>555.77</ele>
        <time>2021-06-23T13:06:11Z</time>
      </trkpt>
      <trkpt lat="47.95346" lon="6.96106">
        <ele>561.32</ele>
        <time>2021-06-23T13:06:15Z</time>
      </trkpt>
      <trkpt lat="47.95159" lon="6.96104">
        <ele>544.17</ele>
        <time>2021-06-23T13:06:20Z</time>
      </trkpt>
      <trkpt lat="47.95047" lon="6.96099">
        <ele>543.99</ele>
        <time>2021-06-23T13:06:24Z</time>
      </trkpt>
      <trkpt lat="47.95008" lon="6.96106">
        <ele>540.38</ele>
        <time>2021-06-23T13:06:28Z</time>
      </trkpt>
      <trkpt lat="47.94923" lon="6.96139">
        <ele>551.35</ele>
        <time>2021-06-23T13:06:33Z</time>
      </trkpt>
      <trkpt lat="47.94886" lon="6.96147">
        <ele>556.75</ele>
        <time>2021-06-23T13:06:37Z</time>
      </trkpt>
      <trkpt lat="47.94829" lon="6.96148">
        <ele>547.97</ele>
        <time>2021-06-23T13:06:42Z</time>
      </trkpt>
      <trkpt lat="47.94701" lon="6.96122">
        <ele>538.77</ele>
        <time>2021-06-23T13:06:46Z</time>
      </trkpt>
      <trkpt lat="47.94644" lon="6.96113">
        <ele>534.78</ele>
        <time>2021-06-23T13:06:50Z</time>
      </trkpt>
      <trkpt lat="47.94469" lon="6.96121">
        <ele>527.33</ele>
        <time>2021-06-23T13:06:55Z</time>
      </trkpt>
      <trkpt lat="47.94443" lon="6.96128">
        <ele>525.67</ele>
        <time>2021-06-23T13:06:59Z</time>
      </trkpt>
      <trkpt lat="47.94306" lon="6.96181">
        <ele>508.99</ele>
        <time>2021-06-23T13:07:04Z</time>
      </trkpt>
      <trkpt lat="47.94272" lon="6.9619">
        <ele>506.26</ele>
        <time>2021-06-23T13:07:08Z</time>
      </trkpt>
      <trkpt lat="47.94239" lon="6.96194">
        <ele>504.61</ele>
        <time>2021-06-23T13:07:13Z</time>
      </trkpt>
      <trkpt lat="47.942" lon="6.96192">
        <ele>503.03</ele>
        <time>2021-06-23T13:07:17Z</time>
      </trkpt>
      <trkpt lat="47.941" lon="6.96158">
        <ele>502.97</ele>
        <time>2021-06-23T13:07:21Z</time>
      </trkpt>
      <trkpt lat="47.94052" lon="6.9615">
        <ele>501.31</ele>
        <time>2021-06-23T13:07:26Z</time>
      </trkpt>
      <trkpt lat="47.94017" lon="6.96152">
        <ele>500.32</ele>
        <time>2021-06-23T13:07:30Z</time>
      </trkpt>
      <trkpt lat="47.93958" lon="6.96164">
        <ele>496.11</ele>
        <time>2021-06-23T13:07:35Z</time>
      </trkpt>
      <trkpt lat="47.93874" lon="6.96198">
        <ele>497</ele>
        <time>2021-06-23T13:07:39Z</time>
      </trkpt>
      <trkpt lat="47.93845" lon="6.96208">
        <ele>497.58</ele>
        <time>2021-06-23T13:07:43Z</time>
      </trkpt>
      <trkpt lat="47.93774" lon="6.96211">
        <ele>499.35</ele>
        <time>2021-06-23T13:07:48Z</time>
      </trkpt>
      <trkpt lat="47.93573" lon="6.96275">
        <ele>496.96</ele>
        <time>2021-06-23T13:07:52Z</time>
      </trkpt>
      <trkpt lat="47.93506" lon="6.96293">
        <ele>498.53</ele>
        <time>2021-06-23T13:07:57Z</time>
      </trkpt>
      <trkpt lat="47.93444" lon="6.96357">
        <ele>498.98</ele>
        <time>2021-06-23T13:08:01Z</time>
      </trkpt>
      <trkpt lat="47.9339" lon="6.96403">
        <ele>498.51</ele>
        <time>2021-06-23T13:08:06Z</time>
      </trkpt>
      <trkpt lat="47.93376" lon="6.96417">
        <ele>498.54</ele>
        <time>2021-06-23T13:08:10Z</time>
      </trkpt>
      <trkpt lat="47.9336" lon="6.96439">
        <ele>498</ele>
        <time>2021-06-23T13:08:14Z</time>
      </trkpt>
      <trkpt lat="47.93309" lon="6.96533">
        <ele>498.9</ele>
        <time>2021-06-23T13:08:19Z</time>
      </trkpt>
      <trkpt lat="47.93298" lon="6.96544">
        <ele>499</ele>
        <time>2021-06-23T13:08:23Z</time>
      </trkpt>
      <trkpt lat="47.93263" lon="6.96569">
        <ele>498.48</ele>
        <time>2021-06-23T13:08:28Z</time>
      </trkpt>
      <trkpt lat="47.93243" lon="6.96581">
        <ele>497.49</ele>
        <time>2021-06-23T13:08:32Z</time>
      </trkpt>
      <trkpt lat="47.9323" lon="6.96583">
        <ele>496.57</ele>
        <time>2021-06-23T13:08:36Z</time>
      </trkpt>
      <trkpt lat="47.93224" lon="6.96581">
        <ele>496.14</ele>
        <time>2021-06-23T13:08:41Z</time>
      </trkpt>
      <trkpt lat="47.93208" lon="6.96568">
        <ele>495.77</ele>
        <time>2021-06-23T13:08:45Z</time>
      </trkpt>
      <trkpt lat="47.93161" lon="6.96522">
        <ele>496</ele>
        <time>2021-06-23T13:08:50Z</time>
      </trkpt>
      <trkpt lat="47.93143" lon="6.96514">
        <ele>496</ele>
        <time>2021-06-23T13:08:54Z</time>
      </trkpt>
      <trkpt lat="47.93082" lon="6.965">
        <ele>493.93</ele>
        <time>2021-06-23T13:08:59Z</time>
      </trkpt>
      <trkpt lat="47.93022" lon="6.965">
        <ele>490.79</ele>
        <time>2021-06-23T13:09:03Z</time>
      </trkpt>
      <trkpt lat="47.92966" lon="6.96503">
        <ele>488.92</ele>
        <time>2021-06-23T13:09:07Z</time>
      </trkpt>
      <trkpt lat="47.92949" lon="6.9651">
        <ele>488.85</ele>
        <time>2021-06-23T13:09:12Z</time>
      </trkpt>
      <trkpt lat="47.92933" lon="6.9653">
        <ele>489.19</ele>
        <time>2021-06-23T13:09:16Z</time>
      </trkpt>
      <trkpt lat="47.92925" lon="6.96547">
        <ele>488.59</ele>
        <time>2021-06-23T13:09:21Z</time>
      </trkpt>
      <trkpt lat="47.92921" lon="6.96559">
        <ele>488.21</ele>
        <time>2021-06-23T13:09:25Z</time>
      </trkpt>
      <trkpt lat="47.92916" lon="6.96596">
        <ele>486.49</ele>
        <time>2021-06-23T13:09:29Z</time>
      </trkpt>
      <trkpt lat="47.92907" lon="6.96672">
        <ele>486.94</ele>
        <time>2021-06-23T13:09:34Z</time>
      </trkpt>
      <trkpt lat="47.92901" lon="6.96696">
        <ele>487.96</ele>
        <time>2021-06-23T13:09:38Z</time>
      </trkpt>
      <trkpt lat="47.9289" lon="6.96712">
        <ele>488.89</ele>
        <time>2021-06-23T13:09:43Z</time>
      </trkpt>
      <trkpt lat="47.92835" lon="6.96778">
        <ele>493.17</ele>
        <time>2021-06-23T13:09:47Z</time>
      </trkpt>
      <trkpt lat="47.92814" lon="6.96798">
        <ele>493.15</ele>
        <time>2021-06-23T13:09:51Z</time>
      </trkpt>
      <trkpt lat="47.92771" lon="6.96816">
        <ele>487.45</ele>
        <time>2021-06-23T13:09:56Z</time>
      </trkpt>
      <trkpt lat="47.92742" lon="6.9682">
        <ele>484.06</ele>
        <time>2021-06-23T13:10:00Z</time>
      </trkpt>
      <trkpt lat="47.9264" lon="6.96811">
        <ele>485.56</ele>
        <time>2021-06-23T13:10:05Z</time>
      </trkpt>
      <trkpt lat="47.92567" lon="6.96833">
        <ele>482.8</ele>
        <time>2021-06-23T13:10:09Z</time>
      </trkpt>
      <trkpt lat="47.92506" lon="6.96843">
        <ele>481.36</ele>
        <time>2021-06-23T13:10:14Z</time>
      </trkpt>
      <trkpt lat="47.92497" lon="6.96848">
        <ele>481.49</ele>
        <time>2021-06-23T13:10:18Z</time>
      </trkpt>
      <trkpt lat="47.92489" lon="6.96858">
        <ele>481.82</ele>
        <time>2021-06-23T13:10:22Z</time>
      </trkpt>
      <trkpt lat="47.92459" lon="6.96904">
        <ele>482.58</ele>
        <time>2021-06-23T13:10:27Z</time>
      </trkpt>
      <trkpt lat="47.92449" lon="6.96916">
        <ele>480.91</ele>
        <time>2021-06-23T13:10:31Z</time>
      </trkpt>
      <trkpt lat="47.92429" lon="6.96935">
        <ele>481.04</ele>
        <time>2021-06-23T13:10:36Z</time>
      </trkpt>
      <trkpt lat="47.92413" lon="6.96944">
        <ele>480.83</ele>
        <time>2021-06-23T13:10:40Z</time>
      </trkpt>
      <trkpt lat="47.92209" lon="6.9701">
        <ele>477.21</ele>
        <time>2021-06-23T13:10:44Z</time>
      </trkpt>
      <trkpt lat="47.91995" lon="6.97071">
        <ele>471.67</ele>
        <time>2021-06-23T13:10:49Z</time>
      </trkpt>
      <trkpt lat="47.91957" lon="6.97085">
        <ele>471.95</ele>
        <time>2021-06-23T13:10:53Z</time>
      </trkpt>
      <trkpt lat="47.91942" lon="6.97092">
        <ele>471.06</ele>
        <time>2021-06-23T13:10:58Z</time>
      </trkpt>
      <trkpt lat="47.91911" lon="6.9711">
        <ele>468.99</ele>
        <time>2021-06-23T13:11:02Z</time>
      </trkpt>
      <trkpt lat="47.91789" lon="6.97209">
        <ele>469.27</ele>
        <time>2021-06-23T13:11:07Z</time>
      </trkpt>
      <trkpt lat="47.91743" lon="6.97255">
        <ele>466.44</ele>
        <time>2021-06-23T13:11:11Z</time>
      </trkpt>
      <trkpt lat="47.9171" lon="6.97294">
        <ele>468.33</ele>
        <time>2021-06-23T13:11:15Z</time>
      </trkpt>
      <trkpt lat="47.91684" lon="6.97318">
        <ele>468.27</ele>
        <time>2021-06-23T13:11:20Z</time>
      </trkpt>
      <trkpt lat="47.91674" lon="6.97326">
        <ele>468.18</ele>
        <time>2021-06-23T13:11:24Z</time>
      </trkpt>
      <trkpt lat="47.91655" lon="6.97337">
        <ele>467.56</ele>
        <time>2021-06-23T13:11:29Z</time>
      </trkpt>
      <trkpt lat="47.91614" lon="6.97355">
        <ele>465.92</ele>
        <time>2021-06-23T13:11:33Z</time>
      </trkpt>
      <trkpt lat="47.91582" lon="6.97374">
        <ele>467.89</ele>
        <time>2021-06-23T13:11:37Z</time>
      </trkpt>
      <trkpt lat="47.91551" lon="6.97393">
        <ele>468.71</ele>
        <time>2021-06-23T13:11:42Z</time>
      </trkpt>
      <trkpt lat="47.91524" lon="6.97405">
        <ele>466.07</ele>
        <time>2021-06-23T13:11:46Z</time>
      </trkpt>
      <trkpt lat="47.91402" lon="6.97421">
        <ele>465.14</ele>
        <time>2021-06-23T13:11:51Z</time>
      </trkpt>
      <trkpt lat="47.91317" lon="6.97436">
        <ele>466.42</ele>
        <time>2021-06-23T13:11:55Z</time>
      </trkpt>
      <trkpt lat="47.91263" lon="6.97451">
        <ele>466.23</ele>
        <time>2021-06-23T13:12:00Z</time>
      </trkpt>
      <trkpt lat="47.91139" lon="6.97493">
        <ele>467.73</ele>
        <time>2021-06-23T13:12:04Z</time>
      </trkpt>
      <trkpt lat="47.91079" lon="6.975">
        <ele>466.85</ele>
        <time>2021-06-23T13:12:08Z</time>
      </trkpt>
      <trkpt lat="47.91053" lon="6.97506">
        <ele>465.62</ele>
        <time>2021-06-23T13:12:13Z</time>
      </trkpt>
      <trkpt lat="47.9096" lon="6.97544">
        <ele>461.57</ele>
        <time>2021-06-23T13:12:17Z</time>
      </trkpt>
      <trkpt lat="47.90949" lon="6.97551">
        <ele>461.17</ele>
        <time>2021-06-23T13:12:22Z</time>
      </trkpt>
      <trkpt lat="47.90911" lon="6.97588">
        <ele>461.2</ele>
        <time>2021-06-23T13:12:26Z</time>
      </trkpt>
      <trkpt lat="47.90879" lon="6.97602">
        <ele>462.57</ele>
        <time>2021-06-23T13:12:30Z</time>
      </trkpt>
      <trkpt lat="47.90869" lon="6.97604">
        <ele>463.02</ele>
        <time>2021-06-23T13:12:35Z</time>
      </trkpt>
      <trkpt lat="47.90837" lon="6.97608">
        <ele>465.2</ele>
        <time>2021-06-23T13:12:39Z</time>
      </trkpt>
      <trkpt lat="47.90817" lon="6.97602">
        <ele>464.83</ele>
        <time>2021-06-23T13:12:44Z</time>
      </trkpt>
      <trkpt lat="47.90785" lon="6.97589">
        <ele>463.36</ele>
        <time>2021-06-23T13:12:48Z</time>
      </trkpt>
      <trkpt lat="47.90717" lon="6.97552">
        <ele>459.05</ele>
        <time>2021-06-23T13:12:53Z</time>
      </trkpt>
      <trkpt lat="47.90602" lon="6.97466">
        <ele>453.18</ele>
        <time>2021-06-23T13:12:57Z</time>
      </trkpt>
      <trkpt lat="47.90591" lon="6.97461">
        <ele>453.62</ele>
        <time>2021-06-23T13:13:01Z</time>
      </trkpt>
      <trkpt lat="47.90501" lon="6.97473">
        <ele>453.26</ele>
        <time>2021-06-23T13:13:06Z</time>
      </trkpt>
      <trkpt lat="47.90486" lon="6.97478">
        <ele>452.37</ele>
        <time>2021-06-23T13:13:10Z</time>
      </trkpt>
      <trkpt lat="47.90486" lon="6.97478">
        <ele>452.37</ele>
        <time>2021-06-23T13:13:10Z</time>
      </trkpt>
      <trkpt lat="47.90469" lon="6.97484">
        <ele>451.49</ele>
        <time>2021-06-23T13:13:17Z</time>
      </trkpt>
      <trkpt lat="47.90446" lon="6.97499">
        <ele>451.03</ele>
        <time>2021-06-23T13:13:24Z</time>
      </trkpt>
      <trkpt lat="47.90417" lon="6.97522">
        <ele>450.8</ele>
        <time>2021-06-23T13:13:31Z</time>
      </trkpt>
      <trkpt lat="47.90392" lon="6.97546">
        <ele>450.81</ele>
        <time>2021-06-23T13:13:38Z</time>
      </trkpt>
      <trkpt lat="47.90351" lon="6.97592">
        <ele>452.16</ele>
        <time>2021-06-23T13:13:45Z</time>
      </trkpt>
      <trkpt lat="47.90241" lon="6.97691">
        <ele>447.72</ele>
        <time>2021-06-23T13:13:52Z</time>
      </trkpt>
      <trkpt lat="47.90224" lon="6.97701">
        <ele>447.13</ele>
        <time>2021-06-23T13:13:59Z</time>
      </trkpt>
      <trkpt lat="47.90185" lon="6.97714">
        <ele>445.96</ele>
        <time>2021-06-23T13:14:06Z</time>
      </trkpt>
      <trkpt lat="47.90158" lon="6.97727">
        <ele>444.88</ele>
        <time>2021-06-23T13:14:13Z</time>
      </trkpt>
      <trkpt lat="47.90138" lon="6.97739">
        <ele>443.75</ele>
        <time>2021-06-23T13:14:20Z</time>
      </trkpt>
      <trkpt lat="47.90112" lon="6.97762">
        <ele>442.46</ele>
        <time>2021-06-23T13:14:27Z</time>
      </trkpt>
      <trkpt lat="47.90098" lon="6.97779">
        <ele>443.04</ele>
        <time>2021-06-23T13:14:34Z</time>
      </trkpt>
      <trkpt lat="47.90023" lon="6.9789">
        <ele>446.02</ele>
        <time>2021-06-23T13:14:40Z</time>
      </trkpt>
      <trkpt lat="47.89949" lon="6.97986">
        <ele>443.17</ele>
        <time>2021-06-23T13:14:47Z</time>
      </trkpt>
      <trkpt lat="47.8993" lon="6.98011">
        <ele>443</ele>
        <time>2021-06-23T13:14:54Z</time>
      </trkpt>
      <trkpt lat="47.8989" lon="6.98074">
        <ele>442.98</ele>
        <time>2021-06-23T13:15:01Z</time>
      </trkpt>
      <trkpt lat="47.89879" lon="6.98087">
        <ele>442.56</ele>
        <time>2021-06-23T13:15:08Z</time>
      </trkpt>
      <trkpt lat="47.89777" lon="6.98244">
        <ele>441.05</ele>
        <time>2021-06-23T13:15:15Z</time>
      </trkpt>
      <trkpt lat="47.89769" lon="6.98261">
        <ele>441.89</ele>
        <time>2021-06-23T13:15:22Z</time>
      </trkpt>
      <trkpt lat="47.89735" lon="6.98406">
        <ele>442.47</ele>
        <time>2021-06-23T13:15:29Z</time>
      </trkpt>
      <trkpt lat="47.89686" lon="6.9852">
        <ele>440.3</ele>
        <time>2021-06-23T13:15:36Z</time>
      </trkpt>
      <trkpt lat="47.89675" lon="6.98539">
        <ele>440.42</ele>
        <time>2021-06-23T13:15:43Z</time>
      </trkpt>
      <trkpt lat="47.89628" lon="6.98606">
        <ele>440.89</ele>
        <time>2021-06-23T13:15:50Z</time>
      </trkpt>
      <trkpt lat="47.8957" lon="6.98672">
        <ele>440</ele>
        <time>2021-06-23T13:15:57Z</time>
      </trkpt>
      <trkpt lat="47.89558" lon="6.98682">
        <ele>440</ele>
        <time>2021-06-23T13:16:04Z</time>
      </trkpt>
      <trkpt lat="47.8953" lon="6.98699">
        <ele>438.89</ele>
        <time>2021-06-23T13:16:11Z</time>
      </trkpt>
      <trkpt lat="47.89515" lon="6.98712">
        <ele>437.77</ele>
        <time>2021-06-23T13:16:18Z</time>
      </trkpt>
      <trkpt lat="47.89469" lon="6.98773">
        <ele>437.75</ele>
        <time>2021-06-23T13:16:25Z</time>
      </trkpt>
      <trkpt lat="47.89379" lon="6.98877">
        <ele>437</ele>
        <time>2021-06-23T13:16:32Z</time>
      </trkpt>
      <trkpt lat="47.89355" lon="6.98909">
        <ele>437.58</ele>
        <time>2021-06-23T13:16:39Z</time>
      </trkpt>
      <trkpt lat="47.89319" lon="6.99006">
        <ele>436.58</ele>
        <time>2021-06-23T13:16:45Z</time>
      </trkpt>
      <trkpt lat="47.89303" lon="6.99055">
        <ele>437.74</ele>
        <time>2021-06-23T13:16:52Z</time>
      </trkpt>
      <trkpt lat="47.89255" lon="6.99148">
        <ele>436</ele>
        <time>2021-06-23T13:16:59Z</time>
      </trkpt>
      <trkpt lat="47.89244" lon="6.99176">
        <ele>435.8</ele>
        <time>2021-06-23T13:17:06Z</time>
      </trkpt>
      <trkpt lat="47.89211" lon="6.99287">
        <ele>434.25</ele>
        <time>2021-06-23T13:17:13Z</time>
      </trkpt>
      <trkpt lat="47.89198" lon="6.99327">
        <ele>433.12</ele>
        <time>2021-06-23T13:17:20Z</time>
      </trkpt>
      <trkpt lat="47.8914" lon="6.99481">
        <ele>435.65</ele>
        <time>2021-06-23T13:17:27Z</time>
      </trkpt>
      <trkpt lat="47.89132" lon="6.99499">
        <ele>436.64</ele>
        <time>2021-06-23T13:17:34Z</time>
      </trkpt>
      <trkpt lat="47.8909" lon="6.99564">
        <ele>435.71</ele>
        <time>2021-06-23T13:17:41Z</time>
      </trkpt>
      <trkpt lat="47.88954" lon="6.99755">
        <ele>439.54</ele>
        <time>2021-06-23T13:17:48Z</time>
      </trkpt>
      <trkpt lat="47.88858" lon="6.9987">
        <ele>438</ele>
        <time>2021-06-23T13:17:55Z</time>
      </trkpt>
      <trkpt lat="47.88814" lon="6.99914">
        <ele>437.29</ele>
        <time>2021-06-23T13:18:02Z</time>
      </trkpt>
      <trkpt lat="47.88806" lon="6.99915">
        <ele>437.01</ele>
        <time>2021-06-23T13:18:09Z</time>
      </trkpt>
      <trkpt lat="47.88792" lon="6.99911">
        <ele>437</ele>
        <time>2021-06-23T13:18:16Z</time>
      </trkpt>
      <trkpt lat="47.88791" lon="6.99904">
        <ele>437</ele>
        <time>2021-06-23T13:18:23Z</time>
      </trkpt>
      <trkpt lat="47.88787" lon="6.99896">
        <ele>437</ele>
        <time>2021-06-23T13:18:31Z</time>
      </trkpt>
      <trkpt lat="47.88783" lon="6.9989">
        <ele>437</ele>
        <time>2021-06-23T13:18:38Z</time>
      </trkpt>
      <trkpt lat="47.88776" lon="6.99887">
        <ele>437.06</ele>
        <time>2021-06-23T13:18:46Z</time>
      </trkpt>
      <trkpt lat="47.88769" lon="6.99888">
        <ele>437.29</ele>
        <time>2021-06-23T13:18:53Z</time>
      </trkpt>
      <trkpt lat="47.88763" lon="6.99892">
        <ele>437.61</ele>
        <time>2021-06-23T13:19:01Z</time>
      </trkpt>
      <trkpt lat="47.88758" lon="6.999">
        <ele>438.01</ele>
        <time>2021-06-23T13:19:08Z</time>
      </trkpt>
      <trkpt lat="47.88756" lon="6.99908">
        <ele>438.36</ele>
        <time>2021-06-23T13:19:16Z</time>
      </trkpt>
      <trkpt lat="47.88756" lon="6.99924">
        <ele>438.8</ele>
        <time>2021-06-23T13:19:23Z</time>
      </trkpt>
      <trkpt lat="47.88754" lon="6.99948">
        <ele>439.86</ele>
        <time>2021-06-23T13:19:31Z</time>
      </trkpt>
      <trkpt lat="47.88743" lon="6.99969">
        <ele>441.92</ele>
        <time>2021-06-23T13:19:38Z</time>
      </trkpt>
      <trkpt lat="47.88738" lon="6.99984">
        <ele>442.8</ele>
        <time>2021-06-23T13:19:46Z</time>
      </trkpt>
      <trkpt lat="47.88729" lon="6.99993">
        <ele>443.65</ele>
        <time>2021-06-23T13:19:54Z</time>
      </trkpt>
      <trkpt lat="47.88706" lon="7.00011">
        <ele>443.37</ele>
        <time>2021-06-23T13:20:01Z</time>
      </trkpt>
      <trkpt lat="47.88417" lon="7.00281">
        <ele>436.49</ele>
        <time>2021-06-23T13:20:09Z</time>
      </trkpt>
      <trkpt lat="47.88372" lon="7.00328">
        <ele>436.88</ele>
        <time>2021-06-23T13:20:16Z</time>
      </trkpt>
      <trkpt lat="47.88359" lon="7.00347">
        <ele>434.27</ele>
        <time>2021-06-23T13:20:24Z</time>
      </trkpt>
      <trkpt lat="47.88339" lon="7.00387">
        <ele>431.45</ele>
        <time>2021-06-23T13:20:31Z</time>
      </trkpt>
      <trkpt lat="47.88197" lon="7.00795">
        <ele>431</ele>
        <time>2021-06-23T13:20:39Z</time>
      </trkpt>
      <trkpt lat="47.88068" lon="7.01152">
        <ele>421.24</ele>
        <time>2021-06-23T13:20:46Z</time>
      </trkpt>
      <trkpt lat="47.88021" lon="7.01292">
        <ele>422</ele>
        <time>2021-06-23T13:20:54Z</time>
      </trkpt>
      <trkpt lat="47.87961" lon="7.01454">
        <ele>420.46</ele>
        <time>2021-06-23T13:21:01Z</time>
      </trkpt>
      <trkpt lat="47.87853" lon="7.01764">
        <ele>413.28</ele>
        <time>2021-06-23T13:21:09Z</time>
      </trkpt>
      <trkpt lat="47.87834" lon="7.01816">
        <ele>411.04</ele>
        <time>2021-06-23T13:21:16Z</time>
      </trkpt>
      <trkpt lat="47.87827" lon="7.01829">
        <ele>410.58</ele>
        <time>2021-06-23T13:21:24Z</time>
      </trkpt>
      <trkpt lat="47.87813" lon="7.01835">
        <ele>409.57</ele>
        <time>2021-06-23T13:21:26Z</time>
      </trkpt>
      <trkpt lat="47.87768" lon="7.01816">
        <ele>407.04</ele>
        <time>2021-06-23T13:21:28Z</time>
      </trkpt>
      <trkpt lat="47.87755" lon="7.01815">
        <ele>406.27</ele>
        <time>2021-06-23T13:21:30Z</time>
      </trkpt>
      <trkpt lat="47.87735" lon="7.01817">
        <ele>406.54</ele>
        <time>2021-06-23T13:21:33Z</time>
      </trkpt>
      <trkpt lat="47.87716" lon="7.01824">
        <ele>407.16</ele>
        <time>2021-06-23T13:21:35Z</time>
      </trkpt>
      <trkpt lat="47.87695" lon="7.01839">
        <ele>407.96</ele>
        <time>2021-06-23T13:21:37Z</time>
      </trkpt>
      <trkpt lat="47.87694" lon="7.01852">
        <ele>408.02</ele>
        <time>2021-06-23T13:21:40Z</time>
      </trkpt>
      <trkpt lat="47.87685" lon="7.01867">
        <ele>408.19</ele>
        <time>2021-06-23T13:21:43Z</time>
      </trkpt>
      <trkpt lat="47.87654" lon="7.01911">
        <ele>408.56</ele>
        <time>2021-06-23T13:21:46Z</time>
      </trkpt>
      <trkpt lat="47.8765" lon="7.0192">
        <ele>408.47</ele>
        <time>2021-06-23T13:21:50Z</time>
      </trkpt>
      <trkpt lat="47.87648" lon="7.0193">
        <ele>408.19</ele>
        <time>2021-06-23T13:21:53Z</time>
      </trkpt>
      <trkpt lat="47.87649" lon="7.0194">
        <ele>407.79</ele>
        <time>2021-06-23T13:21:56Z</time>
      </trkpt>
      <trkpt lat="47.87654" lon="7.01948">
        <ele>407.41</ele>
        <time>2021-06-23T13:21:59Z</time>
      </trkpt>
      <trkpt lat="47.87667" lon="7.0196">
        <ele>407</ele>
        <time>2021-06-23T13:22:02Z</time>
      </trkpt>
      <trkpt lat="47.87672" lon="7.01944">
        <ele>407.14</ele>
        <time>2021-06-23T13:22:05Z</time>
      </trkpt>
      <trkpt lat="47.87672" lon="7.01944">
        <ele>407.14</ele>
        <time>2021-06-23T13:22:05Z</time>
      </trkpt>
      <trkpt lat="47.87667" lon="7.0196">
        <ele>407</ele>
        <time>2021-06-23T13:22:07Z</time>
      </trkpt>
      <trkpt lat="47.87654" lon="7.01948">
        <ele>407.41</ele>
        <time>2021-06-23T13:22:11Z</time>
      </trkpt>
      <trkpt lat="47.87649" lon="7.0194">
        <ele>407.79</ele>
        <time>2021-06-23T13:22:14Z</time>
      </trkpt>
      <trkpt lat="47.87648" lon="7.0193">
        <ele>408.19</ele>
        <time>2021-06-23T13:22:17Z</time>
      </trkpt>
      <trkpt lat="47.8765" lon="7.0192">
        <ele>408.47</ele>
        <time>2021-06-23T13:22:20Z</time>
      </trkpt>
      <trkpt lat="47.87654" lon="7.01911">
        <ele>408.56</ele>
        <time>2021-06-23T13:22:23Z</time>
      </trkpt>
      <trkpt lat="47.87685" lon="7.01867">
        <ele>408.19</ele>
        <time>2021-06-23T13:22:26Z</time>
      </trkpt>
      <trkpt lat="47.87694" lon="7.01852">
        <ele>408.02</ele>
        <time>2021-06-23T13:22:29Z</time>
      </trkpt>
      <trkpt lat="47.87695" lon="7.01839">
        <ele>407.96</ele>
        <time>2021-06-23T13:22:32Z</time>
      </trkpt>
      <trkpt lat="47.87716" lon="7.01824">
        <ele>407.16</ele>
        <time>2021-06-23T13:22:34Z</time>
      </trkpt>
      <trkpt lat="47.87735" lon="7.01817">
        <ele>406.54</ele>
        <time>2021-06-23T13:22:36Z</time>
      </trkpt>
      <trkpt lat="47.87755" lon="7.01815">
        <ele>406.27</ele>
        <time>2021-06-23T13:22:38Z</time>
      </trkpt>
      <trkpt lat="47.87768" lon="7.01816">
        <ele>407.04</ele>
        <time>2021-06-23T13:22:40Z</time>
      </trkpt>
      <trkpt lat="47.87789" lon="7.01826">
        <ele>408.05</ele>
        <time>2021-06-23T13:22:42Z</time>
      </trkpt>
      <trkpt lat="47.87799" lon="7.01857">
        <ele>409.14</ele>
        <time>2021-06-23T13:22:45Z</time>
      </trkpt>
      <trkpt lat="47.87797" lon="7.01872">
        <ele>409.57</ele>
        <time>2021-06-23T13:22:51Z</time>
      </trkpt>
      <trkpt lat="47.87798" lon="7.01891">
        <ele>410.62</ele>
        <time>2021-06-23T13:22:58Z</time>
      </trkpt>
      <trkpt lat="47.87803" lon="7.01904">
        <ele>411.88</ele>
        <time>2021-06-23T13:23:05Z</time>
      </trkpt>
      <trkpt lat="47.87811" lon="7.01914">
        <ele>413.02</ele>
        <time>2021-06-23T13:23:11Z</time>
      </trkpt>
      <trkpt lat="47.87819" lon="7.01919">
        <ele>413.45</ele>
        <time>2021-06-23T13:23:18Z</time>
      </trkpt>
      <trkpt lat="47.87834" lon="7.01921">
        <ele>413.89</ele>
        <time>2021-06-23T13:23:25Z</time>
      </trkpt>
      <trkpt lat="47.87844" lon="7.01915">
        <ele>414.73</ele>
        <time>2021-06-23T13:23:31Z</time>
      </trkpt>
      <trkpt lat="47.87852" lon="7.01903">
        <ele>415.23</ele>
        <time>2021-06-23T13:23:38Z</time>
      </trkpt>
      <trkpt lat="47.87857" lon="7.0189">
        <ele>415.6</ele>
        <time>2021-06-23T13:23:45Z</time>
      </trkpt>
      <trkpt lat="47.87859" lon="7.01873">
        <ele>415.71</ele>
        <time>2021-06-23T13:23:51Z</time>
      </trkpt>
      <trkpt lat="47.87856" lon="7.01857">
        <ele>414.99</ele>
        <time>2021-06-23T13:23:58Z</time>
      </trkpt>
      <trkpt lat="47.8785" lon="7.01843">
        <ele>413.29</ele>
        <time>2021-06-23T13:24:05Z</time>
      </trkpt>
      <trkpt lat="47.87848" lon="7.01823">
        <ele>412.42</ele>
        <time>2021-06-23T13:24:11Z</time>
      </trkpt>
      <trkpt lat="47.87853" lon="7.01764">
        <ele>413.28</ele>
        <time>2021-06-23T13:24:18Z</time>
      </trkpt>
      <trkpt lat="47.87961" lon="7.01454">
        <ele>420.46</ele>
        <time>2021-06-23T13:24:25Z</time>
      </trkpt>
      <trkpt lat="47.88021" lon="7.01292">
        <ele>422</ele>
        <time>2021-06-23T13:24:31Z</time>
      </trkpt>
      <trkpt lat="47.88068" lon="7.01152">
        <ele>421.24</ele>
        <time>2021-06-23T13:24:38Z</time>
      </trkpt>
      <trkpt lat="47.88197" lon="7.00795">
        <ele>431</ele>
        <time>2021-06-23T13:24:45Z</time>
      </trkpt>
      <trkpt lat="47.88339" lon="7.00387">
        <ele>431.45</ele>
        <time>2021-06-23T13:24:51Z</time>
      </trkpt>
      <trkpt lat="47.88359" lon="7.00347">
        <ele>434.27</ele>
        <time>2021-06-23T13:24:58Z</time>
      </trkpt>
      <trkpt lat="47.88372" lon="7.00328">
        <ele>436.88</ele>
        <time>2021-06-23T13:25:05Z</time>
      </trkpt>
      <trkpt lat="47.88417" lon="7.00281">
        <ele>436.49</ele>
        <time>2021-06-23T13:25:11Z</time>
      </trkpt>
      <trkpt lat="47.88706" lon="7.00011">
        <ele>443.37</ele>
        <time>2021-06-23T13:25:18Z</time>
      </trkpt>
      <trkpt lat="47.88729" lon="6.99993">
        <ele>443.65</ele>
        <time>2021-06-23T13:25:25Z</time>
      </trkpt>
      <trkpt lat="47.88738" lon="6.99984">
        <ele>442.8</ele>
        <time>2021-06-23T13:25:31Z</time>
      </trkpt>
      <trkpt lat="47.88746" lon="6.99976">
        <ele>441.65</ele>
        <time>2021-06-23T13:25:38Z</time>
      </trkpt>
      <trkpt lat="47.88758" lon="6.99955">
        <ele>439.78</ele>
        <time>2021-06-23T13:25:45Z</time>
      </trkpt>
      <trkpt lat="47.88769" lon="6.99941">
        <ele>438.51</ele>
        <time>2021-06-23T13:25:51Z</time>
      </trkpt>
      <trkpt lat="47.8878" lon="6.9994">
        <ele>437.76</ele>
        <time>2021-06-23T13:25:58Z</time>
      </trkpt>
      <trkpt lat="47.88789" lon="6.99929">
        <ele>437.27</ele>
        <time>2021-06-23T13:26:05Z</time>
      </trkpt>
      <trkpt lat="47.88807" lon="6.99921">
        <ele>437.06</ele>
        <time>2021-06-23T13:26:12Z</time>
      </trkpt>
      <trkpt lat="47.88858" lon="6.9987">
        <ele>438</ele>
        <time>2021-06-23T13:26:19Z</time>
      </trkpt>
      <trkpt lat="47.88954" lon="6.99755">
        <ele>439.54</ele>
        <time>2021-06-23T13:26:25Z</time>
      </trkpt>
      <trkpt lat="47.8909" lon="6.99564">
        <ele>435.71</ele>
        <time>2021-06-23T13:26:32Z</time>
      </trkpt>
      <trkpt lat="47.89132" lon="6.99499">
        <ele>436.64</ele>
        <time>2021-06-23T13:26:39Z</time>
      </trkpt>
      <trkpt lat="47.8914" lon="6.99481">
        <ele>435.65</ele>
        <time>2021-06-23T13:26:46Z</time>
      </trkpt>
      <trkpt lat="47.89198" lon="6.99327">
        <ele>433.12</ele>
        <time>2021-06-23T13:26:53Z</time>
      </trkpt>
      <trkpt lat="47.89211" lon="6.99287">
        <ele>434.25</ele>
        <time>2021-06-23T13:27:00Z</time>
      </trkpt>
      <trkpt lat="47.89244" lon="6.99176">
        <ele>435.8</ele>
        <time>2021-06-23T13:27:07Z</time>
      </trkpt>
      <trkpt lat="47.89255" lon="6.99148">
        <ele>436</ele>
        <time>2021-06-23T13:27:13Z</time>
      </trkpt>
      <trkpt lat="47.89303" lon="6.99055">
        <ele>437.74</ele>
        <time>2021-06-23T13:27:20Z</time>
      </trkpt>
      <trkpt lat="47.89319" lon="6.99006">
        <ele>436.58</ele>
        <time>2021-06-23T13:27:27Z</time>
      </trkpt>
      <trkpt lat="47.89355" lon="6.98909">
        <ele>437.58</ele>
        <time>2021-06-23T13:27:34Z</time>
      </trkpt>
      <trkpt lat="47.89379" lon="6.98877">
        <ele>437</ele>
        <time>2021-06-23T13:27:41Z</time>
      </trkpt>
      <trkpt lat="47.89469" lon="6.98773">
        <ele>437.75</ele>
        <time>2021-06-23T13:27:48Z</time>
      </trkpt>
      <trkpt lat="47.89515" lon="6.98712">
        <ele>437.77</ele>
        <time>2021-06-23T13:27:55Z</time>
      </trkpt>
      <trkpt lat="47.8953" lon="6.98699">
        <ele>438.89</ele>
        <time>2021-06-23T13:28:01Z</time>
      </trkpt>
      <trkpt lat="47.89558" lon="6.98682">
        <ele>440</ele>
        <time>2021-06-23T13:28:08Z</time>
      </trkpt>
      <trkpt lat="47.8957" lon="6.98672">
        <ele>440</ele>
        <time>2021-06-23T13:28:15Z</time>
      </trkpt>
      <trkpt lat="47.89628" lon="6.98606">
        <ele>440.89</ele>
        <time>2021-06-23T13:28:22Z</time>
      </trkpt>
      <trkpt lat="47.89675" lon="6.98539">
        <ele>440.42</ele>
        <time>2021-06-23T13:28:29Z</time>
      </trkpt>
      <trkpt lat="47.89686" lon="6.9852">
        <ele>440.3</ele>
        <time>2021-06-23T13:28:36Z</time>
      </trkpt>
      <trkpt lat="47.89735" lon="6.98406">
        <ele>442.47</ele>
        <time>2021-06-23T13:28:43Z</time>
      </trkpt>
      <trkpt lat="47.89769" lon="6.98261">
        <ele>441.89</ele>
        <time>2021-06-23T13:28:49Z</time>
      </trkpt>
      <trkpt lat="47.89777" lon="6.98244">
        <ele>441.05</ele>
        <time>2021-06-23T13:28:56Z</time>
      </trkpt>
      <trkpt lat="47.89879" lon="6.98087">
        <ele>442.56</ele>
        <time>2021-06-23T13:29:03Z</time>
      </trkpt>
      <trkpt lat="47.8989" lon="6.98074">
        <ele>442.98</ele>
        <time>2021-06-23T13:29:10Z</time>
      </trkpt>
      <trkpt lat="47.8993" lon="6.98011">
        <ele>443</ele>
        <time>2021-06-23T13:29:17Z</time>
      </trkpt>
      <trkpt lat="47.89949" lon="6.97986">
        <ele>443.17</ele>
        <time>2021-06-23T13:29:24Z</time>
      </trkpt>
      <trkpt lat="47.90023" lon="6.9789">
        <ele>446.02</ele>
        <time>2021-06-23T13:29:30Z</time>
      </trkpt>
      <trkpt lat="47.90098" lon="6.97779">
        <ele>443.04</ele>
        <time>2021-06-23T13:29:37Z</time>
      </trkpt>
      <trkpt lat="47.90112" lon="6.97762">
        <ele>442.46</ele>
        <time>2021-06-23T13:29:44Z</time>
      </trkpt>
      <trkpt lat="47.90138" lon="6.97739">
        <ele>443.75</ele>
        <time>2021-06-23T13:29:51Z</time>
      </trkpt>
      <trkpt lat="47.90158" lon="6.97727">
        <ele>444.88</ele>
        <time>2021-06-23T13:29:58Z</time>
      </trkpt>
      <trkpt lat="47.90185" lon="6.97714">
        <ele>445.96</ele>
        <time>2021-06-23T13:30:05Z</time>
      </trkpt>
      <trkpt lat="47.90224" lon="6.97701">
        <ele>447.13</ele>
        <time>2021-06-23T13:30:12Z</time>
      </trkpt>
      <trkpt lat="47.90241" lon="6.97691">
        <ele>447.72</ele>
        <time>2021-06-23T13:30:18Z</time>
      </trkpt>
      <trkpt lat="47.90351" lon="6.97592">
        <ele>452.16</ele>
        <time>2021-06-23T13:30:25Z</time>
      </trkpt>
      <trkpt lat="47.90392" lon="6.97546">
        <ele>450.81</ele>
        <time>2021-06-23T13:30:32Z</time>
      </trkpt>
      <trkpt lat="47.90417" lon="6.97522">
        <ele>450.8</ele>
        <time>2021-06-23T13:30:39Z</time>
      </trkpt>
      <trkpt lat="47.90446" lon="6.97499">
        <ele>451.03</ele>
        <time>2021-06-23T13:30:46Z</time>
      </trkpt>
      <trkpt lat="47.90469" lon="6.97484">
        <ele>451.49</ele>
        <time>2021-06-23T13:30:53Z</time>
      </trkpt>
      <trkpt lat="47.90501" lon="6.97473">
        <ele>453.26</ele>
        <time>2021-06-23T13:31:00Z</time>
      </trkpt>
      <trkpt lat="47.90531" lon="6.97468">
        <ele>453.73</ele>
        <time>2021-06-23T13:31:06Z</time>
      </trkpt>
      <trkpt lat="47.90531" lon="6.97468">
        <ele>453.73</ele>
        <time>2021-06-23T13:31:06Z</time>
      </trkpt>
      <trkpt lat="47.90591" lon="6.97461">
        <ele>453.62</ele>
        <time>2021-06-23T13:31:11Z</time>
      </trkpt>
      <trkpt lat="47.90602" lon="6.97466">
        <ele>453.18</ele>
        <time>2021-06-23T13:31:15Z</time>
      </trkpt>
      <trkpt lat="47.90717" lon="6.97552">
        <ele>459.05</ele>
        <time>2021-06-23T13:31:19Z</time>
      </trkpt>
      <trkpt lat="47.90785" lon="6.97589">
        <ele>463.36</ele>
        <time>2021-06-23T13:31:23Z</time>
      </trkpt>
      <trkpt lat="47.90817" lon="6.97602">
        <ele>464.83</ele>
        <time>2021-06-23T13:31:27Z</time>
      </trkpt>
      <trkpt lat="47.90837" lon="6.97608">
        <ele>465.2</ele>
        <time>2021-06-23T13:31:31Z</time>
      </trkpt>
      <trkpt lat="47.90869" lon="6.97604">
        <ele>463.02</ele>
        <time>2021-06-23T13:31:35Z</time>
      </trkpt>
      <trkpt lat="47.90879" lon="6.97602">
        <ele>462.57</ele>
        <time>2021-06-23T13:31:40Z</time>
      </trkpt>
      <trkpt lat="47.90911" lon="6.97588">
        <ele>461.2</ele>
        <time>2021-06-23T13:31:44Z</time>
      </trkpt>
      <trkpt lat="47.90949" lon="6.97551">
        <ele>461.17</ele>
        <time>2021-06-23T13:31:48Z</time>
      </trkpt>
      <trkpt lat="47.9096" lon="6.97544">
        <ele>461.57</ele>
        <time>2021-06-23T13:31:52Z</time>
      </trkpt>
      <trkpt lat="47.91053" lon="6.97506">
        <ele>465.62</ele>
        <time>2021-06-23T13:31:56Z</time>
      </trkpt>
      <trkpt lat="47.91079" lon="6.975">
        <ele>466.85</ele>
        <time>2021-06-23T13:32:00Z</time>
      </trkpt>
      <trkpt lat="47.91139" lon="6.97493">
        <ele>467.73</ele>
        <time>2021-06-23T13:32:05Z</time>
      </trkpt>
      <trkpt lat="47.91263" lon="6.97451">
        <ele>466.23</ele>
        <time>2021-06-23T13:32:09Z</time>
      </trkpt>
      <trkpt lat="47.91317" lon="6.97436">
        <ele>466.42</ele>
        <time>2021-06-23T13:32:13Z</time>
      </trkpt>
      <trkpt lat="47.91402" lon="6.97421">
        <ele>465.14</ele>
        <time>2021-06-23T13:32:17Z</time>
      </trkpt>
      <trkpt lat="47.91524" lon="6.97405">
        <ele>466.07</ele>
        <time>2021-06-23T13:32:21Z</time>
      </trkpt>
      <trkpt lat="47.91551" lon="6.97393">
        <ele>468.71</ele>
        <time>2021-06-23T13:32:25Z</time>
      </trkpt>
      <trkpt lat="47.91582" lon="6.97374">
        <ele>467.89</ele>
        <time>2021-06-23T13:32:29Z</time>
      </trkpt>
      <trkpt lat="47.91614" lon="6.97355">
        <ele>465.92</ele>
        <time>2021-06-23T13:32:34Z</time>
      </trkpt>
      <trkpt lat="47.91655" lon="6.97337">
        <ele>467.56</ele>
        <time>2021-06-23T13:32:38Z</time>
      </trkpt>
      <trkpt lat="47.91674" lon="6.97326">
        <ele>468.18</ele>
        <time>2021-06-23T13:32:42Z</time>
      </trkpt>
      <trkpt lat="47.91684" lon="6.97318">
        <ele>468.27</ele>
        <time>2021-06-23T13:32:46Z</time>
      </trkpt>
      <trkpt lat="47.9171" lon="6.97294">
        <ele>468.33</ele>
        <time>2021-06-23T13:32:50Z</time>
      </trkpt>
      <trkpt lat="47.91743" lon="6.97255">
        <ele>466.44</ele>
        <time>2021-06-23T13:32:54Z</time>
      </trkpt>
      <trkpt lat="47.91789" lon="6.97209">
        <ele>469.27</ele>
        <time>2021-06-23T13:32:58Z</time>
      </trkpt>
      <trkpt lat="47.91911" lon="6.9711">
        <ele>468.99</ele>
        <time>2021-06-23T13:33:03Z</time>
      </trkpt>
      <trkpt lat="47.91942" lon="6.97092">
        <ele>471.06</ele>
        <time>2021-06-23T13:33:07Z</time>
      </trkpt>
      <trkpt lat="47.91957" lon="6.97085">
        <ele>471.95</ele>
        <time>2021-06-23T13:33:11Z</time>
      </trkpt>
      <trkpt lat="47.91995" lon="6.97071">
        <ele>471.67</ele>
        <time>2021-06-23T13:33:15Z</time>
      </trkpt>
      <trkpt lat="47.92209" lon="6.9701">
        <ele>477.21</ele>
        <time>2021-06-23T13:33:19Z</time>
      </trkpt>
      <trkpt lat="47.92413" lon="6.96944">
        <ele>480.83</ele>
        <time>2021-06-23T13:33:23Z</time>
      </trkpt>
      <trkpt lat="47.92429" lon="6.96935">
        <ele>481.04</ele>
        <time>2021-06-23T13:33:27Z</time>
      </trkpt>
      <trkpt lat="47.92449" lon="6.96916">
        <ele>480.91</ele>
        <time>2021-06-23T13:33:32Z</time>
      </trkpt>
      <trkpt lat="47.92459" lon="6.96904">
        <ele>482.58</ele>
        <time>2021-06-23T13:33:36Z</time>
      </trkpt>
      <trkpt lat="47.92489" lon="6.96858">
        <ele>481.82</ele>
        <time>2021-06-23T13:33:40Z</time>
      </trkpt>
      <trkpt lat="47.92497" lon="6.96848">
        <ele>481.49</ele>
        <time>2021-06-23T13:33:44Z</time>
      </trkpt>
      <trkpt lat="47.92506" lon="6.96843">
        <ele>481.36</ele>
        <time>2021-06-23T13:33:48Z</time>
      </trkpt>
      <trkpt lat="47.92567" lon="6.96833">
        <ele>482.8</ele>
        <time>2021-06-23T13:33:52Z</time>
      </trkpt>
      <trkpt lat="47.9264" lon="6.96811">
        <ele>485.56</ele>
        <time>2021-06-23T13:33:57Z</time>
      </trkpt>
      <trkpt lat="47.92742" lon="6.9682">
        <ele>484.06</ele>
        <time>2021-06-23T13:34:01Z</time>
      </trkpt>
      <trkpt lat="47.92771" lon="6.96816">
        <ele>487.45</ele>
        <time>2021-06-23T13:34:05Z</time>
      </trkpt>
      <trkpt lat="47.92805" lon="6.96803">
        <ele>492.38</ele>
        <time>2021-06-23T13:34:09Z</time>
      </trkpt>
      <trkpt lat="47.92814" lon="6.96798">
        <ele>493.15</ele>
        <time>2021-06-23T13:34:13Z</time>
      </trkpt>
      <trkpt lat="47.92835" lon="6.96778">
        <ele>493.17</ele>
        <time>2021-06-23T13:34:17Z</time>
      </trkpt>
      <trkpt lat="47.9289" lon="6.96712">
        <ele>488.89</ele>
        <time>2021-06-23T13:34:21Z</time>
      </trkpt>
      <trkpt lat="47.92901" lon="6.96696">
        <ele>487.96</ele>
        <time>2021-06-23T13:34:26Z</time>
      </trkpt>
      <trkpt lat="47.92907" lon="6.96672">
        <ele>486.94</ele>
        <time>2021-06-23T13:34:30Z</time>
      </trkpt>
      <trkpt lat="47.92916" lon="6.96596">
        <ele>486.49</ele>
        <time>2021-06-23T13:34:34Z</time>
      </trkpt>
      <trkpt lat="47.92921" lon="6.96559">
        <ele>488.21</ele>
        <time>2021-06-23T13:34:38Z</time>
      </trkpt>
      <trkpt lat="47.92925" lon="6.96547">
        <ele>488.59</ele>
        <time>2021-06-23T13:34:42Z</time>
      </trkpt>
      <trkpt lat="47.92933" lon="6.9653">
        <ele>489.19</ele>
        <time>2021-06-23T13:34:46Z</time>
      </trkpt>
      <trkpt lat="47.92949" lon="6.9651">
        <ele>488.85</ele>
        <time>2021-06-23T13:34:50Z</time>
      </trkpt>
      <trkpt lat="47.92966" lon="6.96503">
        <ele>488.92</ele>
        <time>2021-06-23T13:34:55Z</time>
      </trkpt>
      <trkpt lat="47.93022" lon="6.965">
        <ele>490.79</ele>
        <time>2021-06-23T13:34:59Z</time>
      </trkpt>
      <trkpt lat="47.93082" lon="6.965">
        <ele>493.93</ele>
        <time>2021-06-23T13:35:03Z</time>
      </trkpt>
      <trkpt lat="47.93143" lon="6.96514">
        <ele>496</ele>
        <time>2021-06-23T13:35:07Z</time>
      </trkpt>
      <trkpt lat="47.93161" lon="6.96522">
        <ele>496</ele>
        <time>2021-06-23T13:35:11Z</time>
      </trkpt>
      <trkpt lat="47.93208" lon="6.96568">
        <ele>495.77</ele>
        <time>2021-06-23T13:35:15Z</time>
      </trkpt>
      <trkpt lat="47.93224" lon="6.96581">
        <ele>496.14</ele>
        <time>2021-06-23T13:35:20Z</time>
      </trkpt>
      <trkpt lat="47.9323" lon="6.96583">
        <ele>496.57</ele>
        <time>2021-06-23T13:35:24Z</time>
      </trkpt>
      <trkpt lat="47.93243" lon="6.96581">
        <ele>497.49</ele>
        <time>2021-06-23T13:35:28Z</time>
      </trkpt>
      <trkpt lat="47.93263" lon="6.96569">
        <ele>498.48</ele>
        <time>2021-06-23T13:35:32Z</time>
      </trkpt>
      <trkpt lat="47.93298" lon="6.96544">
        <ele>499</ele>
        <time>2021-06-23T13:35:36Z</time>
      </trkpt>
      <trkpt lat="47.93309" lon="6.96533">
        <ele>498.9</ele>
        <time>2021-06-23T13:35:40Z</time>
      </trkpt>
      <trkpt lat="47.9336" lon="6.96439">
        <ele>498</ele>
        <time>2021-06-23T13:35:44Z</time>
      </trkpt>
      <trkpt lat="47.93376" lon="6.96417">
        <ele>498.54</ele>
        <time>2021-06-23T13:35:49Z</time>
      </trkpt>
      <trkpt lat="47.9339" lon="6.96403">
        <ele>498.51</ele>
        <time>2021-06-23T13:35:53Z</time>
      </trkpt>
      <trkpt lat="47.93444" lon="6.96357">
        <ele>498.98</ele>
        <time>2021-06-23T13:35:57Z</time>
      </trkpt>
      <trkpt lat="47.93506" lon="6.96293">
        <ele>498.53</ele>
        <time>2021-06-23T13:36:01Z</time>
      </trkpt>
      <trkpt lat="47.93573" lon="6.96275">
        <ele>496.96</ele>
        <time>2021-06-23T13:36:05Z</time>
      </trkpt>
      <trkpt lat="47.93774" lon="6.96211">
        <ele>499.35</ele>
        <time>2021-06-23T13:36:09Z</time>
      </trkpt>
      <trkpt lat="47.93845" lon="6.96208">
        <ele>497.58</ele>
        <time>2021-06-23T13:36:13Z</time>
      </trkpt>
      <trkpt lat="47.93874" lon="6.96198">
        <ele>497</ele>
        <time>2021-06-23T13:36:18Z</time>
      </trkpt>
      <trkpt lat="47.93958" lon="6.96164">
        <ele>496.11</ele>
        <time>2021-06-23T13:36:22Z</time>
      </trkpt>
      <trkpt lat="47.94017" lon="6.96152">
        <ele>500.32</ele>
        <time>2021-06-23T13:36:26Z</time>
      </trkpt>
      <trkpt lat="47.94052" lon="6.9615">
        <ele>501.31</ele>
        <time>2021-06-23T13:36:30Z</time>
      </trkpt>
      <trkpt lat="47.941" lon="6.96158">
        <ele>502.97</ele>
        <time>2021-06-23T13:36:34Z</time>
      </trkpt>
      <trkpt lat="47.942" lon="6.96192">
        <ele>503.03</ele>
        <time>2021-06-23T13:36:38Z</time>
      </trkpt>
      <trkpt lat="47.94239" lon="6.96194">
        <ele>504.61</ele>
        <time>2021-06-23T13:36:42Z</time>
      </trkpt>
      <trkpt lat="47.94272" lon="6.9619">
        <ele>506.26</ele>
        <time>2021-06-23T13:36:47Z</time>
      </trkpt>
      <trkpt lat="47.94306" lon="6.96181">
        <ele>508.99</ele>
        <time>2021-06-23T13:36:51Z</time>
      </trkpt>
      <trkpt lat="47.94443" lon="6.96128">
        <ele>525.67</ele>
        <time>2021-06-23T13:36:55Z</time>
      </trkpt>
      <trkpt lat="47.94469" lon="6.96121">
        <ele>527.33</ele>
        <time>2021-06-23T13:36:59Z</time>
      </trkpt>
      <trkpt lat="47.94644" lon="6.96113">
        <ele>534.78</ele>
        <time>2021-06-23T13:37:03Z</time>
      </trkpt>
      <trkpt lat="47.94701" lon="6.96122">
        <ele>538.77</ele>
        <time>2021-06-23T13:37:07Z</time>
      </trkpt>
      <trkpt lat="47.94829" lon="6.96148">
        <ele>547.97</ele>
        <time>2021-06-23T13:37:12Z</time>
      </trkpt>
      <trkpt lat="47.94886" lon="6.96147">
        <ele>556.75</ele>
        <time>2021-06-23T13:37:16Z</time>
      </trkpt>
      <trkpt lat="47.94923" lon="6.96139">
        <ele>551.35</ele>
        <time>2021-06-23T13:37:20Z</time>
      </trkpt>
      <trkpt lat="47.95008" lon="6.96106">
        <ele>540.38</ele>
        <time>2021-06-23T13:37:24Z</time>
      </trkpt>
      <trkpt lat="47.95047" lon="6.96099">
        <ele>543.99</ele>
        <time>2021-06-23T13:37:28Z</time>
      </trkpt>
      <trkpt lat="47.95159" lon="6.96104">
        <ele>544.17</ele>
        <time>2021-06-23T13:37:32Z</time>
      </trkpt>
      <trkpt lat="47.95346" lon="6.96106">
        <ele>561.32</ele>
        <time>2021-06-23T13:37:36Z</time>
      </trkpt>
      <trkpt lat="47.95388" lon="6.9611">
        <ele>555.77</ele>
        <time>2021-06-23T13:37:41Z</time>
      </trkpt>
      <trkpt lat="47.95413" lon="6.96115">
        <ele>554.29</ele>
        <time>2021-06-23T13:37:45Z</time>
      </trkpt>
      <trkpt lat="47.95464" lon="6.96134">
        <ele>552.9</ele>
        <time>2021-06-23T13:37:49Z</time>
      </trkpt>
      <trkpt lat="47.95512" lon="6.96161">
        <ele>552.63</ele>
        <time>2021-06-23T13:37:53Z</time>
      </trkpt>
      <trkpt lat="47.9555" lon="6.96177">
        <ele>553.9</ele>
        <time>2021-06-23T13:37:57Z</time>
      </trkpt>
      <trkpt lat="47.95596" lon="6.96185">
        <ele>558.18</ele>
        <time>2021-06-23T13:38:01Z</time>
      </trkpt>
      <trkpt lat="47.95711" lon="6.96186">
        <ele>561.44</ele>
        <time>2021-06-23T13:38:05Z</time>
      </trkpt>
      <trkpt lat="47.95851" lon="6.9617">
        <ele>554.96</ele>
        <time>2021-06-23T13:38:10Z</time>
      </trkpt>
      <trkpt lat="47.95976" lon="6.96167">
        <ele>558.99</ele>
        <time>2021-06-23T13:38:14Z</time>
      </trkpt>
      <trkpt lat="47.96064" lon="6.96151">
        <ele>556.59</ele>
        <time>2021-06-23T13:38:18Z</time>
      </trkpt>
      <trkpt lat="47.96112" lon="6.96145">
        <ele>555.91</ele>
        <time>2021-06-23T13:38:22Z</time>
      </trkpt>
      <trkpt lat="47.96226" lon="6.96138">
        <ele>556.13</ele>
        <time>2021-06-23T13:38:26Z</time>
      </trkpt>
      <trkpt lat="47.96247" lon="6.96132">
        <ele>556.32</ele>
        <time>2021-06-23T13:38:30Z</time>
      </trkpt>
      <trkpt lat="47.96266" lon="6.96122">
        <ele>558.99</ele>
        <time>2021-06-23T13:38:35Z</time>
      </trkpt>
      <trkpt lat="47.96285" lon="6.96108">
        <ele>560.8</ele>
        <time>2021-06-23T13:38:39Z</time>
      </trkpt>
      <trkpt lat="47.96309" lon="6.96082">
        <ele>562.91</ele>
        <time>2021-06-23T13:38:43Z</time>
      </trkpt>
      <trkpt lat="47.96339" lon="6.9604">
        <ele>562.71</ele>
        <time>2021-06-23T13:38:47Z</time>
      </trkpt>
      <trkpt lat="47.96389" lon="6.95983">
        <ele>556.24</ele>
        <time>2021-06-23T13:38:51Z</time>
      </trkpt>
      <trkpt lat="47.96409" lon="6.95966">
        <ele>555.38</ele>
        <time>2021-06-23T13:38:55Z</time>
      </trkpt>
      <trkpt lat="47.96434" lon="6.95948">
        <ele>552.96</ele>
        <time>2021-06-23T13:38:59Z</time>
      </trkpt>
      <trkpt lat="47.96502" lon="6.95918">
        <ele>552.87</ele>
        <time>2021-06-23T13:39:04Z</time>
      </trkpt>
      <trkpt lat="47.96573" lon="6.95894">
        <ele>563.17</ele>
        <time>2021-06-23T13:39:08Z</time>
      </trkpt>
      <trkpt lat="47.96607" lon="6.95889">
        <ele>563.74</ele>
        <time>2021-06-23T13:39:12Z</time>
      </trkpt>
      <trkpt lat="47.96607" lon="6.95889">
        <ele>563.74</ele>
        <time>2021-06-23T13:39:12Z</time>
      </trkpt>
      <trkpt lat="47.96684" lon="6.95878">
        <ele>564.32</ele>
        <time>2021-06-23T13:39:15Z</time>
      </trkpt>
      <trkpt lat="47.96778" lon="6.95883">
        <ele>563.96</ele>
        <time>2021-06-23T13:39:18Z</time>
      </trkpt>
      <trkpt lat="47.96833" lon="6.95898">
        <ele>570.47</ele>
        <time>2021-06-23T13:39:22Z</time>
      </trkpt>
      <trkpt lat="47.97003" lon="6.95955">
        <ele>561.76</ele>
        <time>2021-06-23T13:39:25Z</time>
      </trkpt>
      <trkpt lat="47.97021" lon="6.95959">
        <ele>561.04</ele>
        <time>2021-06-23T13:39:28Z</time>
      </trkpt>
      <trkpt lat="47.97093" lon="6.95952">
        <ele>561.65</ele>
        <time>2021-06-23T13:39:32Z</time>
      </trkpt>
      <trkpt lat="47.97179" lon="6.95965">
        <ele>559.46</ele>
        <time>2021-06-23T13:39:35Z</time>
      </trkpt>
      <trkpt lat="47.97191" lon="6.9597">
        <ele>559.87</ele>
        <time>2021-06-23T13:39:38Z</time>
      </trkpt>
      <trkpt lat="47.97236" lon="6.96001">
        <ele>562.04</ele>
        <time>2021-06-23T13:39:42Z</time>
      </trkpt>
      <trkpt lat="47.97321" lon="6.96018">
        <ele>567.35</ele>
        <time>2021-06-23T13:39:45Z</time>
      </trkpt>
      <trkpt lat="47.97446" lon="6.96076">
        <ele>574.1</ele>
        <time>2021-06-23T13:39:48Z</time>
      </trkpt>
      <trkpt lat="47.97463" lon="6.9608">
        <ele>571.94</ele>
        <time>2021-06-23T13:39:51Z</time>
      </trkpt>
      <trkpt lat="47.97502" lon="6.96078">
        <ele>565.51</ele>
        <time>2021-06-23T13:39:55Z</time>
      </trkpt>
      <trkpt lat="47.97531" lon="6.96074">
        <ele>564.18</ele>
        <time>2021-06-23T13:39:58Z</time>
      </trkpt>
      <trkpt lat="47.97545" lon="6.96075">
        <ele>565.18</ele>
        <time>2021-06-23T13:40:01Z</time>
      </trkpt>
      <trkpt lat="47.97597" lon="6.96089">
        <ele>570.49</ele>
        <time>2021-06-23T13:40:05Z</time>
      </trkpt>
      <trkpt lat="47.97675" lon="6.96106">
        <ele>569.15</ele>
        <time>2021-06-23T13:40:08Z</time>
      </trkpt>
      <trkpt lat="47.97779" lon="6.96138">
        <ele>570.05</ele>
        <time>2021-06-23T13:40:11Z</time>
      </trkpt>
      <trkpt lat="47.9779" lon="6.96136">
        <ele>570.81</ele>
        <time>2021-06-23T13:40:14Z</time>
      </trkpt>
      <trkpt lat="47.97829" lon="6.96119">
        <ele>574.3</ele>
        <time>2021-06-23T13:40:18Z</time>
      </trkpt>
      <trkpt lat="47.97893" lon="6.96133">
        <ele>578.56</ele>
        <time>2021-06-23T13:40:21Z</time>
      </trkpt>
      <trkpt lat="47.97912" lon="6.9614">
        <ele>577.39</ele>
        <time>2021-06-23T13:40:24Z</time>
      </trkpt>
      <trkpt lat="47.97943" lon="6.96173">
        <ele>583.18</ele>
        <time>2021-06-23T13:40:28Z</time>
      </trkpt>
      <trkpt lat="47.97982" lon="6.96224">
        <ele>594.34</ele>
        <time>2021-06-23T13:40:31Z</time>
      </trkpt>
      <trkpt lat="47.97994" lon="6.96237">
        <ele>598.08</ele>
        <time>2021-06-23T13:40:34Z</time>
      </trkpt>
      <trkpt lat="47.98008" lon="6.96247">
        <ele>599.07</ele>
        <time>2021-06-23T13:40:37Z</time>
      </trkpt>
      <trkpt lat="47.981" lon="6.96286">
        <ele>594.25</ele>
        <time>2021-06-23T13:40:41Z</time>
      </trkpt>
      <trkpt lat="47.98235" lon="6.9635">
        <ele>610.59</ele>
        <time>2021-06-23T13:40:44Z</time>
      </trkpt>
      <trkpt lat="47.98256" lon="6.96369">
        <ele>612.68</ele>
        <time>2021-06-23T13:40:47Z</time>
      </trkpt>
      <trkpt lat="47.98273" lon="6.96391">
        <ele>613.1</ele>
        <time>2021-06-23T13:40:51Z</time>
      </trkpt>
      <trkpt lat="47.9829" lon="6.96417">
        <ele>612</ele>
        <time>2021-06-23T13:40:54Z</time>
      </trkpt>
      <trkpt lat="47.98323" lon="6.9645">
        <ele>622.23</ele>
        <time>2021-06-23T13:40:57Z</time>
      </trkpt>
      <trkpt lat="47.98368" lon="6.9648">
        <ele>625.62</ele>
        <time>2021-06-23T13:41:01Z</time>
      </trkpt>
      <trkpt lat="47.98446" lon="6.96511">
        <ele>623.64</ele>
        <time>2021-06-23T13:41:04Z</time>
      </trkpt>
      <trkpt lat="47.98489" lon="6.96522">
        <ele>627.11</ele>
        <time>2021-06-23T13:41:07Z</time>
      </trkpt>
      <trkpt lat="47.98564" lon="6.96543">
        <ele>633.34</ele>
        <time>2021-06-23T13:41:10Z</time>
      </trkpt>
      <trkpt lat="47.98697" lon="6.96566">
        <ele>644.74</ele>
        <time>2021-06-23T13:41:14Z</time>
      </trkpt>
      <trkpt lat="47.98709" lon="6.96572">
        <ele>648.47</ele>
        <time>2021-06-23T13:41:17Z</time>
      </trkpt>
      <trkpt lat="47.98717" lon="6.9658">
        <ele>651.87</ele>
        <time>2021-06-23T13:41:20Z</time>
      </trkpt>
      <trkpt lat="47.98718" lon="6.96587">
        <ele>653.94</ele>
        <time>2021-06-23T13:41:24Z</time>
      </trkpt>
      <trkpt lat="47.98717" lon="6.96594">
        <ele>655.76</ele>
        <time>2021-06-23T13:41:27Z</time>
      </trkpt>
      <trkpt lat="47.98714" lon="6.96599">
        <ele>656.89</ele>
        <time>2021-06-23T13:41:30Z</time>
      </trkpt>
      <trkpt lat="47.98707" lon="6.96605">
        <ele>657.72</ele>
        <time>2021-06-23T13:41:33Z</time>
      </trkpt>
      <trkpt lat="47.98695" lon="6.96606">
        <ele>657.05</ele>
        <time>2021-06-23T13:41:37Z</time>
      </trkpt>
      <trkpt lat="47.98563" lon="6.96594">
        <ele>648.22</ele>
        <time>2021-06-23T13:41:40Z</time>
      </trkpt>
      <trkpt lat="47.98514" lon="6.96604">
        <ele>647.62</ele>
        <time>2021-06-23T13:41:43Z</time>
      </trkpt>
      <trkpt lat="47.9847" lon="6.9661">
        <ele>647.87</ele>
        <time>2021-06-23T13:41:47Z</time>
      </trkpt>
      <trkpt lat="47.98387" lon="6.96597">
        <ele>656.09</ele>
        <time>2021-06-23T13:41:50Z</time>
      </trkpt>
      <trkpt lat="47.9834" lon="6.96587">
        <ele>657.38</ele>
        <time>2021-06-23T13:41:53Z</time>
      </trkpt>
      <trkpt lat="47.98293" lon="6.96569">
        <ele>657.87</ele>
        <time>2021-06-23T13:41:56Z</time>
      </trkpt>
      <trkpt lat="47.9828" lon="6.96571">
        <ele>660.21</ele>
        <time>2021-06-23T13:42:00Z</time>
      </trkpt>
      <trkpt lat="47.98278" lon="6.96579">
        <ele>663.36</ele>
        <time>2021-06-23T13:42:03Z</time>
      </trkpt>
      <trkpt lat="47.98279" lon="6.96584">
        <ele>665.24</ele>
        <time>2021-06-23T13:42:06Z</time>
      </trkpt>
      <trkpt lat="47.98284" lon="6.96591">
        <ele>667.17</ele>
        <time>2021-06-23T13:42:10Z</time>
      </trkpt>
      <trkpt lat="47.9832" lon="6.966">
        <ele>664.02</ele>
        <time>2021-06-23T13:42:13Z</time>
      </trkpt>
      <trkpt lat="47.98486" lon="6.96657">
        <ele>667.8</ele>
        <time>2021-06-23T13:42:16Z</time>
      </trkpt>
      <trkpt lat="47.98531" lon="6.96664">
        <ele>677.45</ele>
        <time>2021-06-23T13:42:20Z</time>
      </trkpt>
      <trkpt lat="47.98574" lon="6.96666">
        <ele>681.01</ele>
        <time>2021-06-23T13:42:23Z</time>
      </trkpt>
      <trkpt lat="47.98717" lon="6.96693">
        <ele>681.13</ele>
        <time>2021-06-23T13:42:26Z</time>
      </trkpt>
      <trkpt lat="47.98779" lon="6.96692">
        <ele>688.79</ele>
        <time>2021-06-23T13:42:29Z</time>
      </trkpt>
      <trkpt lat="47.98833" lon="6.96689">
        <ele>696.01</ele>
        <time>2021-06-23T13:42:33Z</time>
      </trkpt>
      <trkpt lat="47.98879" lon="6.96684">
        <ele>694.97</ele>
        <time>2021-06-23T13:42:36Z</time>
      </trkpt>
      <trkpt lat="47.99042" lon="6.96674">
        <ele>706.78</ele>
        <time>2021-06-23T13:42:39Z</time>
      </trkpt>
      <trkpt lat="47.99074" lon="6.96666">
        <ele>711.39</ele>
        <time>2021-06-23T13:42:43Z</time>
      </trkpt>
      <trkpt lat="47.99074" lon="6.96666">
        <ele>711.39</ele>
        <time>2021-06-23T13:42:43Z</time>
      </trkpt>
      <trkpt lat="47.99142" lon="6.96649">
        <ele>715.99</ele>
        <time>2021-06-23T13:42:44Z</time>
      </trkpt>
      <trkpt lat="47.99151" lon="6.96645">
        <ele>717.29</ele>
        <time>2021-06-23T13:42:45Z</time>
      </trkpt>
      <trkpt lat="47.99167" lon="6.9663">
        <ele>718.43</ele>
        <time>2021-06-23T13:42:46Z</time>
      </trkpt>
      <trkpt lat="47.99179" lon="6.96604">
        <ele>719.5</ele>
        <time>2021-06-23T13:42:47Z</time>
      </trkpt>
      <trkpt lat="47.99183" lon="6.96592">
        <ele>719.29</ele>
        <time>2021-06-23T13:42:48Z</time>
      </trkpt>
      <trkpt lat="47.99184" lon="6.96583">
        <ele>718.36</ele>
        <time>2021-06-23T13:42:49Z</time>
      </trkpt>
      <trkpt lat="47.99182" lon="6.96566">
        <ele>717.46</ele>
        <time>2021-06-23T13:42:50Z</time>
      </trkpt>
      <trkpt lat="47.9915" lon="6.96494">
        <ele>712.66</ele>
        <time>2021-06-23T13:42:51Z</time>
      </trkpt>
      <trkpt lat="47.99144" lon="6.96478">
        <ele>712.02</ele>
        <time>2021-06-23T13:42:52Z</time>
      </trkpt>
      <trkpt lat="47.99136" lon="6.96445">
        <ele>714.42</ele>
        <time>2021-06-23T13:42:53Z</time>
      </trkpt>
      <trkpt lat="47.99124" lon="6.96384">
        <ele>719.75</ele>
        <time>2021-06-23T13:42:54Z</time>
      </trkpt>
      <trkpt lat="47.99123" lon="6.96371">
        <ele>720.29</ele>
        <time>2021-06-23T13:42:55Z</time>
      </trkpt>
      <trkpt lat="47.99124" lon="6.96355">
        <ele>721.82</ele>
        <time>2021-06-23T13:42:57Z</time>
      </trkpt>
      <trkpt lat="47.99129" lon="6.96341">
        <ele>723.8</ele>
        <time>2021-06-23T13:42:58Z</time>
      </trkpt>
      <trkpt lat="47.99157" lon="6.96275">
        <ele>729.68</ele>
        <time>2021-06-23T13:42:59Z</time>
      </trkpt>
      <trkpt lat="47.99182" lon="6.96234">
        <ele>733.13</ele>
        <time>2021-06-23T13:43:00Z</time>
      </trkpt>
      <trkpt lat="47.99241" lon="6.96153">
        <ele>734.84</ele>
        <time>2021-06-23T13:43:01Z</time>
      </trkpt>
      <trkpt lat="47.9925" lon="6.96131">
        <ele>734.67</ele>
        <time>2021-06-23T13:43:02Z</time>
      </trkpt>
      <trkpt lat="47.99252" lon="6.96107">
        <ele>734.49</ele>
        <time>2021-06-23T13:43:03Z</time>
      </trkpt>
      <trkpt lat="47.99249" lon="6.96086">
        <ele>734.79</ele>
        <time>2021-06-23T13:43:04Z</time>
      </trkpt>
      <trkpt lat="47.99234" lon="6.96036">
        <ele>741.47</ele>
        <time>2021-06-23T13:43:05Z</time>
      </trkpt>
      <trkpt lat="47.99235" lon="6.96024">
        <ele>743.82</ele>
        <time>2021-06-23T13:43:06Z</time>
      </trkpt>
      <trkpt lat="47.99238" lon="6.9602">
        <ele>744.83</ele>
        <time>2021-06-23T13:43:07Z</time>
      </trkpt>
      <trkpt lat="47.99242" lon="6.96016">
        <ele>746.01</ele>
        <time>2021-06-23T13:43:08Z</time>
      </trkpt>
      <trkpt lat="47.99246" lon="6.96016">
        <ele>746.63</ele>
        <time>2021-06-23T13:43:09Z</time>
      </trkpt>
      <trkpt lat="47.99249" lon="6.96018">
        <ele>746.92</ele>
        <time>2021-06-23T13:43:11Z</time>
      </trkpt>
      <trkpt lat="47.99253" lon="6.96023">
        <ele>747.05</ele>
        <time>2021-06-23T13:43:12Z</time>
      </trkpt>
      <trkpt lat="47.99257" lon="6.96034">
        <ele>745.92</ele>
        <time>2021-06-23T13:43:13Z</time>
      </trkpt>
      <trkpt lat="47.99274" lon="6.96094">
        <ele>740.31</ele>
        <time>2021-06-23T13:43:14Z</time>
      </trkpt>
      <trkpt lat="47.9928" lon="6.96132">
        <ele>743.28</ele>
        <time>2021-06-23T13:43:15Z</time>
      </trkpt>
      <trkpt lat="47.9928" lon="6.96145">
        <ele>744.76</ele>
        <time>2021-06-23T13:43:16Z</time>
      </trkpt>
      <trkpt lat="47.99275" lon="6.96169">
        <ele>745.71</ele>
        <time>2021-06-23T13:43:17Z</time>
      </trkpt>
      <trkpt lat="47.99256" lon="6.96207">
        <ele>746.91</ele>
        <time>2021-06-23T13:43:18Z</time>
      </trkpt>
      <trkpt lat="47.99254" lon="6.96217">
        <ele>749.01</ele>
        <time>2021-06-23T13:43:19Z</time>
      </trkpt>
      <trkpt lat="47.99254" lon="6.96223">
        <ele>750.93</ele>
        <time>2021-06-23T13:43:20Z</time>
      </trkpt>
      <trkpt lat="47.99258" lon="6.96227">
        <ele>753.45</ele>
        <time>2021-06-23T13:43:21Z</time>
      </trkpt>
      <trkpt lat="47.99266" lon="6.96231">
        <ele>757.74</ele>
        <time>2021-06-23T13:43:22Z</time>
      </trkpt>
      <trkpt lat="47.9927" lon="6.96229">
        <ele>758.71</ele>
        <time>2021-06-23T13:43:23Z</time>
      </trkpt>
      <trkpt lat="47.99274" lon="6.96223">
        <ele>758.09</ele>
        <time>2021-06-23T13:43:24Z</time>
      </trkpt>
      <trkpt lat="47.99293" lon="6.96179">
        <ele>756.97</ele>
        <time>2021-06-23T13:43:26Z</time>
      </trkpt>
      <trkpt lat="47.99299" lon="6.96155">
        <ele>756.11</ele>
        <time>2021-06-23T13:43:27Z</time>
      </trkpt>
      <trkpt lat="47.99303" lon="6.96094">
        <ele>755.18</ele>
        <time>2021-06-23T13:43:28Z</time>
      </trkpt>
      <trkpt lat="47.99302" lon="6.96068">
        <ele>757.41</ele>
        <time>2021-06-23T13:43:29Z</time>
      </trkpt>
      <trkpt lat="47.99291" lon="6.95988">
        <ele>759.33</ele>
        <time>2021-06-23T13:43:30Z</time>
      </trkpt>
      <trkpt lat="47.99293" lon="6.95969">
        <ele>759.69</ele>
        <time>2021-06-23T13:43:31Z</time>
      </trkpt>
      <trkpt lat="47.99296" lon="6.95959">
        <ele>760.13</ele>
        <time>2021-06-23T13:43:32Z</time>
      </trkpt>
      <trkpt lat="47.99305" lon="6.95945">
        <ele>761.9</ele>
        <time>2021-06-23T13:43:33Z</time>
      </trkpt>
      <trkpt lat="47.99339" lon="6.95911">
        <ele>769.44</ele>
        <time>2021-06-23T13:43:34Z</time>
      </trkpt>
      <trkpt lat="47.99347" lon="6.95897">
        <ele>771.57</ele>
        <time>2021-06-23T13:43:35Z</time>
      </trkpt>
      <trkpt lat="47.9938" lon="6.95813">
        <ele>776.12</ele>
        <time>2021-06-23T13:43:36Z</time>
      </trkpt>
      <trkpt lat="47.99386" lon="6.95784">
        <ele>775.8</ele>
        <time>2021-06-23T13:43:37Z</time>
      </trkpt>
      <trkpt lat="47.9939" lon="6.95748">
        <ele>777.54</ele>
        <time>2021-06-23T13:43:38Z</time>
      </trkpt>
      <trkpt lat="47.99393" lon="6.95743">
        <ele>778.98</ele>
        <time>2021-06-23T13:43:40Z</time>
      </trkpt>
      <trkpt lat="47.99398" lon="6.95743">
        <ele>780.24</ele>
        <time>2021-06-23T13:43:41Z</time>
      </trkpt>
      <trkpt lat="47.99402" lon="6.95746">
        <ele>780.81</ele>
        <time>2021-06-23T13:43:42Z</time>
      </trkpt>
      <trkpt lat="47.99405" lon="6.9575">
        <ele>781</ele>
        <time>2021-06-23T13:43:43Z</time>
      </trkpt>
      <trkpt lat="47.99405" lon="6.95756">
        <ele>780.97</ele>
        <time>2021-06-23T13:43:44Z</time>
      </trkpt>
      <trkpt lat="47.994" lon="6.95813">
        <ele>781.56</ele>
        <time>2021-06-23T13:43:45Z</time>
      </trkpt>
      <trkpt lat="47.99392" lon="6.95855">
        <ele>783.49</ele>
        <time>2021-06-23T13:43:46Z</time>
      </trkpt>
      <trkpt lat="47.99375" lon="6.95902">
        <ele>783.37</ele>
        <time>2021-06-23T13:43:47Z</time>
      </trkpt>
      <trkpt lat="47.99374" lon="6.95911">
        <ele>784.07</ele>
        <time>2021-06-23T13:43:48Z</time>
      </trkpt>
      <trkpt lat="47.99374" lon="6.95917">
        <ele>785.26</ele>
        <time>2021-06-23T13:43:49Z</time>
      </trkpt>
      <trkpt lat="47.99378" lon="6.95922">
        <ele>787.88</ele>
        <time>2021-06-23T13:43:50Z</time>
      </trkpt>
      <trkpt lat="47.99384" lon="6.95924">
        <ele>791.02</ele>
        <time>2021-06-23T13:43:51Z</time>
      </trkpt>
      <trkpt lat="47.99389" lon="6.95918">
        <ele>792.72</ele>
        <time>2021-06-23T13:43:52Z</time>
      </trkpt>
      <trkpt lat="47.99396" lon="6.95892">
        <ele>792.23</ele>
        <time>2021-06-23T13:43:53Z</time>
      </trkpt>
      <trkpt lat="47.99421" lon="6.9583">
        <ele>790.71</ele>
        <time>2021-06-23T13:43:55Z</time>
      </trkpt>
      <trkpt lat="47.99438" lon="6.95763">
        <ele>794.29</ele>
        <time>2021-06-23T13:43:56Z</time>
      </trkpt>
      <trkpt lat="47.99461" lon="6.95709">
        <ele>803.88</ele>
        <time>2021-06-23T13:43:57Z</time>
      </trkpt>
      <trkpt lat="47.99465" lon="6.95694">
        <ele>805.69</ele>
        <time>2021-06-23T13:43:58Z</time>
      </trkpt>
      <trkpt lat="47.99474" lon="6.95645">
        <ele>803.52</ele>
        <time>2021-06-23T13:43:59Z</time>
      </trkpt>
      <trkpt lat="47.9948" lon="6.95628">
        <ele>803.21</ele>
        <time>2021-06-23T13:44:00Z</time>
      </trkpt>
      <trkpt lat="47.99543" lon="6.95481">
        <ele>812.83</ele>
        <time>2021-06-23T13:44:01Z</time>
      </trkpt>
      <trkpt lat="47.99543" lon="6.95469">
        <ele>813.43</ele>
        <time>2021-06-23T13:44:02Z</time>
      </trkpt>
      <trkpt lat="47.99542" lon="6.95465">
        <ele>813.71</ele>
        <time>2021-06-23T13:44:03Z</time>
      </trkpt>
      <trkpt lat="47.99539" lon="6.9546">
        <ele>814.02</ele>
        <time>2021-06-23T13:44:04Z</time>
      </trkpt>
      <trkpt lat="47.99531" lon="6.95455">
        <ele>814</ele>
        <time>2021-06-23T13:44:05Z</time>
      </trkpt>
      <trkpt lat="47.99519" lon="6.95456">
        <ele>814.45</ele>
        <time>2021-06-23T13:44:06Z</time>
      </trkpt>
      <trkpt lat="47.99497" lon="6.95477">
        <ele>812.01</ele>
        <time>2021-06-23T13:44:07Z</time>
      </trkpt>
      <trkpt lat="47.99486" lon="6.95483">
        <ele>811.54</ele>
        <time>2021-06-23T13:44:09Z</time>
      </trkpt>
      <trkpt lat="47.99482" lon="6.95483">
        <ele>811.8</ele>
        <time>2021-06-23T13:44:10Z</time>
      </trkpt>
      <trkpt lat="47.99477" lon="6.95474">
        <ele>813.59</ele>
        <time>2021-06-23T13:44:11Z</time>
      </trkpt>
      <trkpt lat="47.99479" lon="6.95462">
        <ele>816.23</ele>
        <time>2021-06-23T13:44:12Z</time>
      </trkpt>
      <trkpt lat="47.99485" lon="6.95453">
        <ele>817.7</ele>
        <time>2021-06-23T13:44:13Z</time>
      </trkpt>
      <trkpt lat="47.9952" lon="6.95422">
        <ele>819.61</ele>
        <time>2021-06-23T13:44:14Z</time>
      </trkpt>
      <trkpt lat="47.99564" lon="6.95376">
        <ele>821.18</ele>
        <time>2021-06-23T13:44:15Z</time>
      </trkpt>
      <trkpt lat="47.99588" lon="6.95356">
        <ele>823.03</ele>
        <time>2021-06-23T13:44:16Z</time>
      </trkpt>
      <trkpt lat="47.996" lon="6.95352">
        <ele>823.47</ele>
        <time>2021-06-23T13:44:17Z</time>
      </trkpt>
      <trkpt lat="47.99605" lon="6.95355">
        <ele>823.17</ele>
        <time>2021-06-23T13:44:18Z</time>
      </trkpt>
      <trkpt lat="47.99611" lon="6.95367">
        <ele>822.76</ele>
        <time>2021-06-23T13:44:19Z</time>
      </trkpt>
      <trkpt lat="47.99614" lon="6.95389">
        <ele>823.1</ele>
        <time>2021-06-23T13:44:20Z</time>
      </trkpt>
      <trkpt lat="47.99616" lon="6.95438">
        <ele>827.61</ele>
        <time>2021-06-23T13:44:21Z</time>
      </trkpt>
      <trkpt lat="47.99616" lon="6.95507">
        <ele>829</ele>
        <time>2021-06-23T13:44:22Z</time>
      </trkpt>
      <trkpt lat="47.99613" lon="6.9553">
        <ele>827.64</ele>
        <time>2021-06-23T13:44:24Z</time>
      </trkpt>
      <trkpt lat="47.99605" lon="6.95549">
        <ele>826.68</ele>
        <time>2021-06-23T13:44:25Z</time>
      </trkpt>
      <trkpt lat="47.99575" lon="6.95593">
        <ele>826.15</ele>
        <time>2021-06-23T13:44:26Z</time>
      </trkpt>
      <trkpt lat="47.9957" lon="6.95604">
        <ele>826.84</ele>
        <time>2021-06-23T13:44:27Z</time>
      </trkpt>
      <trkpt lat="47.99568" lon="6.95622">
        <ele>829.58</ele>
        <time>2021-06-23T13:44:28Z</time>
      </trkpt>
      <trkpt lat="47.99572" lon="6.95627">
        <ele>831.84</ele>
        <time>2021-06-23T13:44:29Z</time>
      </trkpt>
      <trkpt lat="47.99579" lon="6.95627">
        <ele>834.51</ele>
        <time>2021-06-23T13:44:30Z</time>
      </trkpt>
      <trkpt lat="47.99584" lon="6.9562">
        <ele>834.95</ele>
        <time>2021-06-23T13:44:31Z</time>
      </trkpt>
      <trkpt lat="47.99622" lon="6.95563">
        <ele>835.66</ele>
        <time>2021-06-23T13:44:32Z</time>
      </trkpt>
      <trkpt lat="47.99634" lon="6.95539">
        <ele>836.99</ele>
        <time>2021-06-23T13:44:33Z</time>
      </trkpt>
      <trkpt lat="47.99678" lon="6.95392">
        <ele>846.54</ele>
        <time>2021-06-23T13:44:34Z</time>
      </trkpt>
      <trkpt lat="47.99688" lon="6.95351">
        <ele>847.16</ele>
        <time>2021-06-23T13:44:35Z</time>
      </trkpt>
      <trkpt lat="47.99693" lon="6.95311">
        <ele>846.7</ele>
        <time>2021-06-23T13:44:36Z</time>
      </trkpt>
      <trkpt lat="47.99695" lon="6.95279">
        <ele>850.79</ele>
        <time>2021-06-23T13:44:37Z</time>
      </trkpt>
      <trkpt lat="47.99693" lon="6.95248">
        <ele>855.41</ele>
        <time>2021-06-23T13:44:39Z</time>
      </trkpt>
      <trkpt lat="47.9969" lon="6.95233">
        <ele>855.96</ele>
        <time>2021-06-23T13:44:40Z</time>
      </trkpt>
      <trkpt lat="47.99674" lon="6.95191">
        <ele>857.44</ele>
        <time>2021-06-23T13:44:41Z</time>
      </trkpt>
      <trkpt lat="47.99673" lon="6.95184">
        <ele>858.38</ele>
        <time>2021-06-23T13:44:42Z</time>
      </trkpt>
      <trkpt lat="47.99673" lon="6.95178">
        <ele>859.34</ele>
        <time>2021-06-23T13:44:43Z</time>
      </trkpt>
      <trkpt lat="47.9968" lon="6.95168">
        <ele>862.11</ele>
        <time>2021-06-23T13:44:44Z</time>
      </trkpt>
      <trkpt lat="47.99689" lon="6.95169">
        <ele>863.64</ele>
        <time>2021-06-23T13:44:45Z</time>
      </trkpt>
      <trkpt lat="47.99692" lon="6.95174">
        <ele>863.71</ele>
        <time>2021-06-23T13:44:46Z</time>
      </trkpt>
      <trkpt lat="47.99697" lon="6.95188">
        <ele>863.54</ele>
        <time>2021-06-23T13:44:47Z</time>
      </trkpt>
      <trkpt lat="47.99706" lon="6.95227">
        <ele>863.13</ele>
        <time>2021-06-23T13:44:48Z</time>
      </trkpt>
      <trkpt lat="47.99714" lon="6.95278">
        <ele>860.69</ele>
        <time>2021-06-23T13:44:49Z</time>
      </trkpt>
      <trkpt lat="47.99718" lon="6.95331">
        <ele>859.6</ele>
        <time>2021-06-23T13:44:50Z</time>
      </trkpt>
      <trkpt lat="47.99707" lon="6.95413">
        <ele>858.9</ele>
        <time>2021-06-23T13:44:51Z</time>
      </trkpt>
      <trkpt lat="47.99708" lon="6.9542">
        <ele>859.4</ele>
        <time>2021-06-23T13:44:53Z</time>
      </trkpt>
      <trkpt lat="47.9971" lon="6.95425">
        <ele>860.6</ele>
        <time>2021-06-23T13:44:54Z</time>
      </trkpt>
      <trkpt lat="47.99714" lon="6.95428">
        <ele>862.33</ele>
        <time>2021-06-23T13:44:55Z</time>
      </trkpt>
      <trkpt lat="47.99718" lon="6.95428">
        <ele>864.65</ele>
        <time>2021-06-23T13:44:56Z</time>
      </trkpt>
      <trkpt lat="47.99722" lon="6.95423">
        <ele>866.73</ele>
        <time>2021-06-23T13:44:57Z</time>
      </trkpt>
      <trkpt lat="47.99724" lon="6.95414">
        <ele>867.6</ele>
        <time>2021-06-23T13:44:58Z</time>
      </trkpt>
      <trkpt lat="47.99725" lon="6.95377">
        <ele>865.48</ele>
        <time>2021-06-23T13:44:59Z</time>
      </trkpt>
      <trkpt lat="47.99731" lon="6.95337">
        <ele>867.41</ele>
        <time>2021-06-23T13:45:00Z</time>
      </trkpt>
      <trkpt lat="47.99732" lon="6.95318">
        <ele>868.13</ele>
        <time>2021-06-23T13:45:01Z</time>
      </trkpt>
      <trkpt lat="47.99731" lon="6.95275">
        <ele>869.45</ele>
        <time>2021-06-23T13:45:02Z</time>
      </trkpt>
      <trkpt lat="47.99737" lon="6.95204">
        <ele>877.3</ele>
        <time>2021-06-23T13:45:03Z</time>
      </trkpt>
      <trkpt lat="47.99736" lon="6.95173">
        <ele>878.82</ele>
        <time>2021-06-23T13:45:04Z</time>
      </trkpt>
      <trkpt lat="47.99731" lon="6.95144">
        <ele>879.43</ele>
        <time>2021-06-23T13:45:05Z</time>
      </trkpt>
      <trkpt lat="47.99718" lon="6.95103">
        <ele>876.68</ele>
        <time>2021-06-23T13:45:06Z</time>
      </trkpt>
      <trkpt lat="47.99715" lon="6.95086">
        <ele>876.76</ele>
        <time>2021-06-23T13:45:08Z</time>
      </trkpt>
      <trkpt lat="47.99717" lon="6.95057">
        <ele>878.59</ele>
        <time>2021-06-23T13:45:09Z</time>
      </trkpt>
      <trkpt lat="47.99723" lon="6.95012">
        <ele>879.07</ele>
        <time>2021-06-23T13:45:10Z</time>
      </trkpt>
      <trkpt lat="47.99733" lon="6.9498">
        <ele>882.53</ele>
        <time>2021-06-23T13:45:11Z</time>
      </trkpt>
      <trkpt lat="47.99759" lon="6.94925">
        <ele>893.12</ele>
        <time>2021-06-23T13:45:12Z</time>
      </trkpt>
      <trkpt lat="47.99767" lon="6.94901">
        <ele>896.85</ele>
        <time>2021-06-23T13:45:13Z</time>
      </trkpt>
      <trkpt lat="47.99776" lon="6.94865">
        <ele>900.53</ele>
        <time>2021-06-23T13:45:14Z</time>
      </trkpt>
      <trkpt lat="47.99781" lon="6.9481">
        <ele>907.61</ele>
        <time>2021-06-23T13:45:15Z</time>
      </trkpt>
      <trkpt lat="47.99784" lon="6.94798">
        <ele>909.48</ele>
        <time>2021-06-23T13:45:16Z</time>
      </trkpt>
      <trkpt lat="47.99789" lon="6.94793">
        <ele>910.65</ele>
        <time>2021-06-23T13:45:17Z</time>
      </trkpt>
      <trkpt lat="47.99795" lon="6.94792">
        <ele>911.13</ele>
        <time>2021-06-23T13:45:18Z</time>
      </trkpt>
      <trkpt lat="47.99799" lon="6.94795">
        <ele>910.98</ele>
        <time>2021-06-23T13:45:19Z</time>
      </trkpt>
      <trkpt lat="47.99802" lon="6.94802">
        <ele>910.2</ele>
        <time>2021-06-23T13:45:20Z</time>
      </trkpt>
      <trkpt lat="47.99802" lon="6.94811">
        <ele>909.5</ele>
        <time>2021-06-23T13:45:22Z</time>
      </trkpt>
      <trkpt lat="47.99795" lon="6.94851">
        <ele>906.1</ele>
        <time>2021-06-23T13:45:23Z</time>
      </trkpt>
      <trkpt lat="47.99788" lon="6.94911">
        <ele>902.89</ele>
        <time>2021-06-23T13:45:24Z</time>
      </trkpt>
      <trkpt lat="47.9977" lon="6.94985">
        <ele>902.59</ele>
        <time>2021-06-23T13:45:25Z</time>
      </trkpt>
      <trkpt lat="47.99763" lon="6.95061">
        <ele>904.19</ele>
        <time>2021-06-23T13:45:26Z</time>
      </trkpt>
      <trkpt lat="47.99763" lon="6.95092">
        <ele>902.28</ele>
        <time>2021-06-23T13:45:27Z</time>
      </trkpt>
      <trkpt lat="47.99765" lon="6.95108">
        <ele>902.43</ele>
        <time>2021-06-23T13:45:28Z</time>
      </trkpt>
      <trkpt lat="47.9978" lon="6.95147">
        <ele>906.52</ele>
        <time>2021-06-23T13:45:29Z</time>
      </trkpt>
      <trkpt lat="47.99784" lon="6.9517">
        <ele>906.47</ele>
        <time>2021-06-23T13:45:30Z</time>
      </trkpt>
      <trkpt lat="47.99784" lon="6.95214">
        <ele>904.03</ele>
        <time>2021-06-23T13:45:31Z</time>
      </trkpt>
      <trkpt lat="47.9979" lon="6.95272">
        <ele>906.41</ele>
        <time>2021-06-23T13:45:32Z</time>
      </trkpt>
      <trkpt lat="47.998" lon="6.95354">
        <ele>915.83</ele>
        <time>2021-06-23T13:45:33Z</time>
      </trkpt>
      <trkpt lat="47.99793" lon="6.95424">
        <ele>912.88</ele>
        <time>2021-06-23T13:45:34Z</time>
      </trkpt>
      <trkpt lat="47.99795" lon="6.9544">
        <ele>916.56</ele>
        <time>2021-06-23T13:45:35Z</time>
      </trkpt>
      <trkpt lat="47.998" lon="6.95446">
        <ele>921.97</ele>
        <time>2021-06-23T13:45:37Z</time>
      </trkpt>
      <trkpt lat="47.99806" lon="6.95444">
        <ele>927.16</ele>
        <time>2021-06-23T13:45:38Z</time>
      </trkpt>
      <trkpt lat="47.9981" lon="6.95429">
        <ele>926.93</ele>
        <time>2021-06-23T13:45:39Z</time>
      </trkpt>
      <trkpt lat="47.9981" lon="6.95403">
        <ele>922.8</ele>
        <time>2021-06-23T13:45:40Z</time>
      </trkpt>
      <trkpt lat="47.99814" lon="6.95347">
        <ele>924.99</ele>
        <time>2021-06-23T13:45:41Z</time>
      </trkpt>
      <trkpt lat="47.9981" lon="6.95283">
        <ele>923.74</ele>
        <time>2021-06-23T13:45:42Z</time>
      </trkpt>
      <trkpt lat="47.99811" lon="6.95254">
        <ele>925.63</ele>
        <time>2021-06-23T13:45:43Z</time>
      </trkpt>
      <trkpt lat="47.9982" lon="6.9516">
        <ele>929.6</ele>
        <time>2021-06-23T13:45:44Z</time>
      </trkpt>
      <trkpt lat="47.99818" lon="6.95046">
        <ele>935.92</ele>
        <time>2021-06-23T13:45:45Z</time>
      </trkpt>
      <trkpt lat="47.99819" lon="6.95014">
        <ele>936.76</ele>
        <time>2021-06-23T13:45:46Z</time>
      </trkpt>
      <trkpt lat="47.99829" lon="6.94974">
        <ele>940.07</ele>
        <time>2021-06-23T13:45:47Z</time>
      </trkpt>
      <trkpt lat="47.99839" lon="6.94952">
        <ele>940.27</ele>
        <time>2021-06-23T13:45:48Z</time>
      </trkpt>
      <trkpt lat="47.99869" lon="6.94915">
        <ele>946.02</ele>
        <time>2021-06-23T13:45:49Z</time>
      </trkpt>
      <trkpt lat="47.99913" lon="6.94837">
        <ele>950.15</ele>
        <time>2021-06-23T13:45:51Z</time>
      </trkpt>
      <trkpt lat="47.99923" lon="6.94812">
        <ele>951.56</ele>
        <time>2021-06-23T13:45:52Z</time>
      </trkpt>
      <trkpt lat="47.99938" lon="6.94759">
        <ele>956.14</ele>
        <time>2021-06-23T13:45:53Z</time>
      </trkpt>
      <trkpt lat="47.99947" lon="6.94714">
        <ele>962.88</ele>
        <time>2021-06-23T13:45:54Z</time>
      </trkpt>
      <trkpt lat="47.99961" lon="6.94622">
        <ele>961.67</ele>
        <time>2021-06-23T13:45:55Z</time>
      </trkpt>
      <trkpt lat="47.99974" lon="6.946">
        <ele>965.47</ele>
        <time>2021-06-23T13:45:56Z</time>
      </trkpt>
      <trkpt lat="48.00031" lon="6.94552">
        <ele>969.93</ele>
        <time>2021-06-23T13:45:57Z</time>
      </trkpt>
      <trkpt lat="48.0005" lon="6.9454">
        <ele>967.93</ele>
        <time>2021-06-23T13:45:58Z</time>
      </trkpt>
      <trkpt lat="48.00072" lon="6.94535">
        <ele>964.83</ele>
        <time>2021-06-23T13:45:59Z</time>
      </trkpt>
      <trkpt lat="48.00086" lon="6.94535">
        <ele>961.63</ele>
        <time>2021-06-23T13:46:00Z</time>
      </trkpt>
      <trkpt lat="48.00086" lon="6.94535">
        <ele>961.63</ele>
        <time>2021-06-23T13:46:00Z</time>
      </trkpt>
      <trkpt lat="48.00137" lon="6.9454">
        <ele>959.5</ele>
        <time>2021-06-23T13:46:03Z</time>
      </trkpt>
      <trkpt lat="48.00224" lon="6.9454">
        <ele>955.24</ele>
        <time>2021-06-23T13:46:05Z</time>
      </trkpt>
      <trkpt lat="48.0024" lon="6.94535">
        <ele>955.87</ele>
        <time>2021-06-23T13:46:08Z</time>
      </trkpt>
      <trkpt lat="48.0026" lon="6.94522">
        <ele>952.66</ele>
        <time>2021-06-23T13:46:10Z</time>
      </trkpt>
      <trkpt lat="48.0029" lon="6.94507">
        <ele>946.48</ele>
        <time>2021-06-23T13:46:13Z</time>
      </trkpt>
      <trkpt lat="48.00306" lon="6.94502">
        <ele>943.52</ele>
        <time>2021-06-23T13:46:15Z</time>
      </trkpt>
      <trkpt lat="48.00324" lon="6.945">
        <ele>941.69</ele>
        <time>2021-06-23T13:46:18Z</time>
      </trkpt>
      <trkpt lat="48.00386" lon="6.94522">
        <ele>936.03</ele>
        <time>2021-06-23T13:46:20Z</time>
      </trkpt>
      <trkpt lat="48.00415" lon="6.94525">
        <ele>935.01</ele>
        <time>2021-06-23T13:46:23Z</time>
      </trkpt>
      <trkpt lat="48.00444" lon="6.94521">
        <ele>925.41</ele>
        <time>2021-06-23T13:46:25Z</time>
      </trkpt>
      <trkpt lat="48.00549" lon="6.9452">
        <ele>918.41</ele>
        <time>2021-06-23T13:46:28Z</time>
      </trkpt>
      <trkpt lat="48.00564" lon="6.94527">
        <ele>919.19</ele>
        <time>2021-06-23T13:46:30Z</time>
      </trkpt>
      <trkpt lat="48.00577" lon="6.94541">
        <ele>925.04</ele>
        <time>2021-06-23T13:46:33Z</time>
      </trkpt>
      <trkpt lat="48.00599" lon="6.94548">
        <ele>924</ele>
        <time>2021-06-23T13:46:35Z</time>
      </trkpt>
      <trkpt lat="48.00729" lon="6.94549">
        <ele>898.74</ele>
        <time>2021-06-23T13:46:38Z</time>
      </trkpt>
      <trkpt lat="48.00746" lon="6.94547">
        <ele>896.06</ele>
        <time>2021-06-23T13:46:40Z</time>
      </trkpt>
      <trkpt lat="48.00776" lon="6.94552">
        <ele>893.91</ele>
        <time>2021-06-23T13:46:43Z</time>
      </trkpt>
      <trkpt lat="48.00835" lon="6.94569">
        <ele>891.24</ele>
        <time>2021-06-23T13:46:45Z</time>
      </trkpt>
      <trkpt lat="48.00939" lon="6.94593">
        <ele>877.56</ele>
        <time>2021-06-23T13:46:47Z</time>
      </trkpt>
      <trkpt lat="48.0099" lon="6.94609">
        <ele>871.79</ele>
        <time>2021-06-23T13:46:50Z</time>
      </trkpt>
      <trkpt lat="48.01094" lon="6.9465">
        <ele>863.13</ele>
        <time>2021-06-23T13:46:52Z</time>
      </trkpt>
      <trkpt lat="48.01178" lon="6.94665">
        <ele>852.64</ele>
        <time>2021-06-23T13:46:55Z</time>
      </trkpt>
      <trkpt lat="48.01196" lon="6.94673">
        <ele>851.02</ele>
        <time>2021-06-23T13:46:57Z</time>
      </trkpt>
      <trkpt lat="48.01222" lon="6.94691">
        <ele>850.01</ele>
        <time>2021-06-23T13:47:00Z</time>
      </trkpt>
      <trkpt lat="48.01302" lon="6.94756">
        <ele>842.99</ele>
        <time>2021-06-23T13:47:02Z</time>
      </trkpt>
      <trkpt lat="48.01308" lon="6.94758">
        <ele>841.56</ele>
        <time>2021-06-23T13:47:05Z</time>
      </trkpt>
      <trkpt lat="48.01312" lon="6.94756">
        <ele>840.2</ele>
        <time>2021-06-23T13:47:07Z</time>
      </trkpt>
      <trkpt lat="48.01314" lon="6.94753">
        <ele>839.42</ele>
        <time>2021-06-23T13:47:10Z</time>
      </trkpt>
      <trkpt lat="48.01315" lon="6.94747">
        <ele>838.18</ele>
        <time>2021-06-23T13:47:12Z</time>
      </trkpt>
      <trkpt lat="48.01312" lon="6.94737">
        <ele>835.79</ele>
        <time>2021-06-23T13:47:15Z</time>
      </trkpt>
      <trkpt lat="48.01277" lon="6.94699">
        <ele>832.19</ele>
        <time>2021-06-23T13:47:17Z</time>
      </trkpt>
      <trkpt lat="48.01229" lon="6.94638">
        <ele>827.4</ele>
        <time>2021-06-23T13:47:20Z</time>
      </trkpt>
      <trkpt lat="48.01197" lon="6.94604">
        <ele>824.27</ele>
        <time>2021-06-23T13:47:22Z</time>
      </trkpt>
      <trkpt lat="48.01146" lon="6.94559">
        <ele>823.68</ele>
        <time>2021-06-23T13:47:25Z</time>
      </trkpt>
      <trkpt lat="48.00997" lon="6.94434">
        <ele>813.09</ele>
        <time>2021-06-23T13:47:27Z</time>
      </trkpt>
      <trkpt lat="48.00924" lon="6.94396">
        <ele>811</ele>
        <time>2021-06-23T13:47:30Z</time>
      </trkpt>
      <trkpt lat="48.00844" lon="6.94321">
        <ele>793.42</ele>
        <time>2021-06-23T13:47:32Z</time>
      </trkpt>
      <trkpt lat="48.00808" lon="6.94295">
        <ele>795.1</ele>
        <time>2021-06-23T13:47:35Z</time>
      </trkpt>
      <trkpt lat="48.0076" lon="6.9427">
        <ele>795.17</ele>
        <time>2021-06-23T13:47:37Z</time>
      </trkpt>
      <trkpt lat="48.00741" lon="6.94256">
        <ele>792.69</ele>
        <time>2021-06-23T13:47:40Z</time>
      </trkpt>
      <trkpt lat="48.00698" lon="6.94206">
        <ele>780.95</ele>
        <time>2021-06-23T13:47:42Z</time>
      </trkpt>
      <trkpt lat="48.00659" lon="6.94183">
        <ele>779.45</ele>
        <time>2021-06-23T13:47:45Z</time>
      </trkpt>
      <trkpt lat="48.00638" lon="6.94159">
        <ele>778.02</ele>
        <time>2021-06-23T13:47:47Z</time>
      </trkpt>
      <trkpt lat="48.00617" lon="6.94121">
        <ele>775.07</ele>
        <time>2021-06-23T13:47:50Z</time>
      </trkpt>
      <trkpt lat="48.00548" lon="6.93968">
        <ele>768.91</ele>
        <time>2021-06-23T13:47:52Z</time>
      </trkpt>
      <trkpt lat="48.00512" lon="6.93894">
        <ele>768.03</ele>
        <time>2021-06-23T13:47:55Z</time>
      </trkpt>
      <trkpt lat="48.00493" lon="6.93864">
        <ele>765.34</ele>
        <time>2021-06-23T13:47:57Z</time>
      </trkpt>
      <trkpt lat="48.00477" lon="6.9385">
        <ele>765.45</ele>
        <time>2021-06-23T13:48:00Z</time>
      </trkpt>
      <trkpt lat="48.00436" lon="6.93829">
        <ele>767.86</ele>
        <time>2021-06-23T13:48:02Z</time>
      </trkpt>
      <trkpt lat="48.00417" lon="6.93816">
        <ele>766.45</ele>
        <time>2021-06-23T13:48:05Z</time>
      </trkpt>
      <trkpt lat="48.00402" lon="6.93798">
        <ele>764.99</ele>
        <time>2021-06-23T13:48:07Z</time>
      </trkpt>
      <trkpt lat="48.0039" lon="6.93782">
        <ele>763.69</ele>
        <time>2021-06-23T13:48:10Z</time>
      </trkpt>
      <trkpt lat="48.00375" lon="6.93743">
        <ele>765.44</ele>
        <time>2021-06-23T13:48:12Z</time>
      </trkpt>
      <trkpt lat="48.0037" lon="6.93703">
        <ele>759.71</ele>
        <time>2021-06-23T13:48:15Z</time>
      </trkpt>
      <trkpt lat="48.0037" lon="6.93703">
        <ele>759.71</ele>
        <time>2021-06-23T13:48:15Z</time>
      </trkpt>
      <trkpt lat="48.00366" lon="6.93675">
        <ele>753.97</ele>
        <time>2021-06-23T13:48:18Z</time>
      </trkpt>
      <trkpt lat="48.00357" lon="6.93637">
        <ele>755.07</ele>
        <time>2021-06-23T13:48:22Z</time>
      </trkpt>
      <trkpt lat="48.00325" lon="6.9355">
        <ele>753.2</ele>
        <time>2021-06-23T13:48:25Z</time>
      </trkpt>
      <trkpt lat="48.00312" lon="6.93501">
        <ele>747.91</ele>
        <time>2021-06-23T13:48:29Z</time>
      </trkpt>
      <trkpt lat="48.00291" lon="6.93407">
        <ele>744.61</ele>
        <time>2021-06-23T13:48:32Z</time>
      </trkpt>
      <trkpt lat="48.00283" lon="6.93361">
        <ele>742.23</ele>
        <time>2021-06-23T13:48:36Z</time>
      </trkpt>
      <trkpt lat="48.00278" lon="6.93274">
        <ele>744.32</ele>
        <time>2021-06-23T13:48:40Z</time>
      </trkpt>
      <trkpt lat="48.00276" lon="6.9316">
        <ele>737.79</ele>
        <time>2021-06-23T13:48:43Z</time>
      </trkpt>
      <trkpt lat="48.00278" lon="6.93118">
        <ele>738.06</ele>
        <time>2021-06-23T13:48:47Z</time>
      </trkpt>
      <trkpt lat="48.00284" lon="6.93082">
        <ele>734.04</ele>
        <time>2021-06-23T13:48:50Z</time>
      </trkpt>
      <trkpt lat="48.0029" lon="6.93057">
        <ele>729.16</ele>
        <time>2021-06-23T13:48:54Z</time>
      </trkpt>
      <trkpt lat="48.00303" lon="6.93022">
        <ele>726.61</ele>
        <time>2021-06-23T13:48:57Z</time>
      </trkpt>
      <trkpt lat="48.00321" lon="6.92986">
        <ele>726.77</ele>
        <time>2021-06-23T13:49:01Z</time>
      </trkpt>
      <trkpt lat="48.00355" lon="6.92931">
        <ele>729.26</ele>
        <time>2021-06-23T13:49:05Z</time>
      </trkpt>
      <trkpt lat="48.00364" lon="6.92917">
        <ele>730.28</ele>
        <time>2021-06-23T13:49:08Z</time>
      </trkpt>
      <trkpt lat="48.00372" lon="6.92909">
        <ele>731.69</ele>
        <time>2021-06-23T13:49:12Z</time>
      </trkpt>
      <trkpt lat="48.00381" lon="6.92903">
        <ele>733.4</ele>
        <time>2021-06-23T13:49:15Z</time>
      </trkpt>
      <trkpt lat="48.0041" lon="6.92996">
        <ele>736.95</ele>
        <time>2021-06-23T13:49:22Z</time>
      </trkpt>
      <trkpt lat="48.00434" lon="6.93052">
        <ele>738.4</ele>
        <time>2021-06-23T13:49:29Z</time>
      </trkpt>
      <trkpt lat="48.00545" lon="6.9328">
        <ele>740.52</ele>
        <time>2021-06-23T13:49:36Z</time>
      </trkpt>
      <trkpt lat="48.00558" lon="6.9332">
        <ele>739.8</ele>
        <time>2021-06-23T13:49:43Z</time>
      </trkpt>
      <trkpt lat="48.00587" lon="6.93429">
        <ele>738.63</ele>
        <time>2021-06-23T13:49:49Z</time>
      </trkpt>
      <trkpt lat="48.00601" lon="6.9347">
        <ele>740.03</ele>
        <time>2021-06-23T13:49:56Z</time>
      </trkpt>
      <trkpt lat="48.0065" lon="6.93563">
        <ele>735.76</ele>
        <time>2021-06-23T13:50:03Z</time>
      </trkpt>
      <trkpt lat="48.00685" lon="6.9362">
        <ele>737.9</ele>
        <time>2021-06-23T13:50:10Z</time>
      </trkpt>
      <trkpt lat="48.00721" lon="6.9366">
        <ele>738.2</ele>
        <time>2021-06-23T13:50:17Z</time>
      </trkpt>
      <trkpt lat="48.00831" lon="6.9377">
        <ele>742.87</ele>
        <time>2021-06-23T13:50:23Z</time>
      </trkpt>
      <trkpt lat="48.00896" lon="6.93818">
        <ele>743.04</ele>
        <time>2021-06-23T13:50:30Z</time>
      </trkpt>
      <trkpt lat="48.00958" lon="6.93855">
        <ele>752.55</ele>
        <time>2021-06-23T13:50:37Z</time>
      </trkpt>
      <trkpt lat="48.01012" lon="6.93894">
        <ele>751.95</ele>
        <time>2021-06-23T13:50:44Z</time>
      </trkpt>
      <trkpt lat="48.01056" lon="6.93937">
        <ele>755.05</ele>
        <time>2021-06-23T13:50:51Z</time>
      </trkpt>
      <trkpt lat="48.01111" lon="6.93995">
        <ele>754.64</ele>
        <time>2021-06-23T13:50:57Z</time>
      </trkpt>
      <trkpt lat="48.01147" lon="6.9403">
        <ele>752.9</ele>
        <time>2021-06-23T13:51:04Z</time>
      </trkpt>
      <trkpt lat="48.01309" lon="6.94136">
        <ele>758.03</ele>
        <time>2021-06-23T13:51:11Z</time>
      </trkpt>
      <trkpt lat="48.01346" lon="6.94171">
        <ele>762.29</ele>
        <time>2021-06-23T13:51:18Z</time>
      </trkpt>
      <trkpt lat="48.0151" lon="6.94343">
        <ele>768.57</ele>
        <time>2021-06-23T13:51:25Z</time>
      </trkpt>
      <trkpt lat="48.0151" lon="6.94343">
        <ele>768.57</ele>
        <time>2021-06-23T13:51:25Z</time>
      </trkpt>
      <trkpt lat="48.01897" lon="6.94747">
        <ele>783.18</ele>
        <time>2021-06-23T13:51:29Z</time>
      </trkpt>
      <trkpt lat="48.0192" lon="6.94776">
        <ele>782.99</ele>
        <time>2021-06-23T13:51:34Z</time>
      </trkpt>
      <trkpt lat="48.01942" lon="6.94811">
        <ele>783.09</ele>
        <time>2021-06-23T13:51:38Z</time>
      </trkpt>
      <trkpt lat="48.01987" lon="6.94898">
        <ele>789.19</ele>
        <time>2021-06-23T13:51:43Z</time>
      </trkpt>
      <trkpt lat="48.02012" lon="6.94941">
        <ele>790.56</ele>
        <time>2021-06-23T13:51:47Z</time>
      </trkpt>
      <trkpt lat="48.02027" lon="6.94963">
        <ele>790.68</ele>
        <time>2021-06-23T13:51:52Z</time>
      </trkpt>
      <trkpt lat="48.02094" lon="6.95039">
        <ele>796.47</ele>
        <time>2021-06-23T13:51:56Z</time>
      </trkpt>
      <trkpt lat="48.02105" lon="6.95055">
        <ele>796.33</ele>
        <time>2021-06-23T13:52:01Z</time>
      </trkpt>
      <trkpt lat="48.02117" lon="6.95082">
        <ele>794.36</ele>
        <time>2021-06-23T13:52:05Z</time>
      </trkpt>
      <trkpt lat="48.02127" lon="6.95107">
        <ele>795.06</ele>
        <time>2021-06-23T13:52:10Z</time>
      </trkpt>
      <trkpt lat="48.02153" lon="6.95208">
        <ele>800.27</ele>
        <time>2021-06-23T13:52:14Z</time>
      </trkpt>
      <trkpt lat="48.02169" lon="6.95248">
        <ele>798.3</ele>
        <time>2021-06-23T13:52:18Z</time>
      </trkpt>
      <trkpt lat="48.0218" lon="6.9527">
        <ele>797.92</ele>
        <time>2021-06-23T13:52:23Z</time>
      </trkpt>
      <trkpt lat="48.02195" lon="6.95291">
        <ele>798.51</ele>
        <time>2021-06-23T13:52:27Z</time>
      </trkpt>
      <trkpt lat="48.02254" lon="6.95355">
        <ele>808.43</ele>
        <time>2021-06-23T13:52:32Z</time>
      </trkpt>
      <trkpt lat="48.02278" lon="6.95398">
        <ele>813.31</ele>
        <time>2021-06-23T13:52:36Z</time>
      </trkpt>
      <trkpt lat="48.02291" lon="6.95435">
        <ele>814.17</ele>
        <time>2021-06-23T13:52:41Z</time>
      </trkpt>
      <trkpt lat="48.02324" lon="6.95573">
        <ele>819.83</ele>
        <time>2021-06-23T13:52:45Z</time>
      </trkpt>
      <trkpt lat="48.0234" lon="6.95617">
        <ele>822.07</ele>
        <time>2021-06-23T13:52:50Z</time>
      </trkpt>
      <trkpt lat="48.02392" lon="6.95745">
        <ele>831.88</ele>
        <time>2021-06-23T13:52:54Z</time>
      </trkpt>
      <trkpt lat="48.0242" lon="6.95827">
        <ele>831.35</ele>
        <time>2021-06-23T13:52:59Z</time>
      </trkpt>
      <trkpt lat="48.02439" lon="6.95863">
        <ele>831.32</ele>
        <time>2021-06-23T13:53:03Z</time>
      </trkpt>
      <trkpt lat="48.02471" lon="6.95912">
        <ele>838.55</ele>
        <time>2021-06-23T13:53:08Z</time>
      </trkpt>
      <trkpt lat="48.02496" lon="6.95938">
        <ele>839.67</ele>
        <time>2021-06-23T13:53:12Z</time>
      </trkpt>
      <trkpt lat="48.02521" lon="6.95957">
        <ele>841.84</ele>
        <time>2021-06-23T13:53:17Z</time>
      </trkpt>
      <trkpt lat="48.02599" lon="6.95983">
        <ele>848.49</ele>
        <time>2021-06-23T13:53:21Z</time>
      </trkpt>
      <trkpt lat="48.02646" lon="6.96008">
        <ele>849.05</ele>
        <time>2021-06-23T13:53:26Z</time>
      </trkpt>
      <trkpt lat="48.02693" lon="6.96048">
        <ele>855.54</ele>
        <time>2021-06-23T13:53:30Z</time>
      </trkpt>
      <trkpt lat="48.02715" lon="6.96064">
        <ele>859.56</ele>
        <time>2021-06-23T13:53:35Z</time>
      </trkpt>
      <trkpt lat="48.02772" lon="6.96098">
        <ele>862.78</ele>
        <time>2021-06-23T13:53:39Z</time>
      </trkpt>
      <trkpt lat="48.02819" lon="6.96137">
        <ele>870.36</ele>
        <time>2021-06-23T13:53:44Z</time>
      </trkpt>
      <trkpt lat="48.02846" lon="6.96149">
        <ele>870.73</ele>
        <time>2021-06-23T13:53:48Z</time>
      </trkpt>
      <trkpt lat="48.02917" lon="6.96173">
        <ele>873.88</ele>
        <time>2021-06-23T13:53:53Z</time>
      </trkpt>
      <trkpt lat="48.03051" lon="6.96212">
        <ele>883.79</ele>
        <time>2021-06-23T13:53:57Z</time>
      </trkpt>
      <trkpt lat="48.03101" lon="6.96243">
        <ele>888.2</ele>
        <time>2021-06-23T13:54:02Z</time>
      </trkpt>
      <trkpt lat="48.03239" lon="6.96321">
        <ele>888.38</ele>
        <time>2021-06-23T13:54:06Z</time>
      </trkpt>
      <trkpt lat="48.03307" lon="6.96371">
        <ele>888.81</ele>
        <time>2021-06-23T13:54:11Z</time>
      </trkpt>
      <trkpt lat="48.03386" lon="6.96449">
        <ele>883.95</ele>
        <time>2021-06-23T13:54:15Z</time>
      </trkpt>
      <trkpt lat="48.03438" lon="6.96493">
        <ele>887.76</ele>
        <time>2021-06-23T13:54:20Z</time>
      </trkpt>
      <trkpt lat="48.03468" lon="6.96527">
        <ele>886.5</ele>
        <time>2021-06-23T13:54:24Z</time>
      </trkpt>
      <trkpt lat="48.03529" lon="6.96618">
        <ele>890.32</ele>
        <time>2021-06-23T13:54:29Z</time>
      </trkpt>
      <trkpt lat="48.03563" lon="6.9669">
        <ele>889.15</ele>
        <time>2021-06-23T13:54:33Z</time>
      </trkpt>
      <trkpt lat="48.03612" lon="6.968">
        <ele>890.79</ele>
        <time>2021-06-23T13:54:37Z</time>
      </trkpt>
      <trkpt lat="48.03627" lon="6.9683">
        <ele>891.25</ele>
        <time>2021-06-23T13:54:42Z</time>
      </trkpt>
      <trkpt lat="48.03644" lon="6.9687">
        <ele>891.94</ele>
        <time>2021-06-23T13:54:46Z</time>
      </trkpt>
      <trkpt lat="48.03648" lon="6.96887">
        <ele>892.9</ele>
        <time>2021-06-23T13:54:51Z</time>
      </trkpt>
      <trkpt lat="48.03645" lon="6.96892">
        <ele>893.66</ele>
        <time>2021-06-23T13:54:52Z</time>
      </trkpt>
      <trkpt lat="48.03643" lon="6.96902">
        <ele>895.3</ele>
        <time>2021-06-23T13:54:53Z</time>
      </trkpt>
      <trkpt lat="48.03645" lon="6.96912">
        <ele>896.33</ele>
        <time>2021-06-23T13:54:54Z</time>
      </trkpt>
      <trkpt lat="48.03654" lon="6.96922">
        <ele>895.81</ele>
        <time>2021-06-23T13:54:56Z</time>
      </trkpt>
      <trkpt lat="48.03661" lon="6.96923">
        <ele>894.36</ele>
        <time>2021-06-23T13:54:57Z</time>
      </trkpt>
      <trkpt lat="48.03669" lon="6.9692">
        <ele>893.13</ele>
        <time>2021-06-23T13:54:58Z</time>
      </trkpt>
      <trkpt lat="48.03678" lon="6.96923">
        <ele>893.22</ele>
        <time>2021-06-23T13:54:59Z</time>
      </trkpt>
      <trkpt lat="48.037" lon="6.96936">
        <ele>895.03</ele>
        <time>2021-06-23T13:55:00Z</time>
      </trkpt>
      <trkpt lat="48.03724" lon="6.9697">
        <ele>898.65</ele>
        <time>2021-06-23T13:55:01Z</time>
      </trkpt>
      <trkpt lat="48.03758" lon="6.97025">
        <ele>904.19</ele>
        <time>2021-06-23T13:55:02Z</time>
      </trkpt>
      <trkpt lat="48.03782" lon="6.97074">
        <ele>907.28</ele>
        <time>2021-06-23T13:55:04Z</time>
      </trkpt>
      <trkpt lat="48.03814" lon="6.97127">
        <ele>910.59</ele>
        <time>2021-06-23T13:55:05Z</time>
      </trkpt>
      <trkpt lat="48.03835" lon="6.97151">
        <ele>914.24</ele>
        <time>2021-06-23T13:55:06Z</time>
      </trkpt>
      <trkpt lat="48.03913" lon="6.97216">
        <ele>918.53</ele>
        <time>2021-06-23T13:55:07Z</time>
      </trkpt>
      <trkpt lat="48.03933" lon="6.97243">
        <ele>918.97</ele>
        <time>2021-06-23T13:55:08Z</time>
      </trkpt>
      <trkpt lat="48.03942" lon="6.9726">
        <ele>919.62</ele>
        <time>2021-06-23T13:55:09Z</time>
      </trkpt>
      <trkpt lat="48.03949" lon="6.9728">
        <ele>920.67</ele>
        <time>2021-06-23T13:55:10Z</time>
      </trkpt>
      <trkpt lat="48.03953" lon="6.97305">
        <ele>923.25</ele>
        <time>2021-06-23T13:55:11Z</time>
      </trkpt>
      <trkpt lat="48.03952" lon="6.9735">
        <ele>926.48</ele>
        <time>2021-06-23T13:55:13Z</time>
      </trkpt>
      <trkpt lat="48.03948" lon="6.97357">
        <ele>926.26</ele>
        <time>2021-06-23T13:55:14Z</time>
      </trkpt>
      <trkpt lat="48.03947" lon="6.97365">
        <ele>926.22</ele>
        <time>2021-06-23T13:55:16Z</time>
      </trkpt>
      <trkpt lat="48.03949" lon="6.97378">
        <ele>926.3</ele>
        <time>2021-06-23T13:55:18Z</time>
      </trkpt>
      <trkpt lat="48.03952" lon="6.97384">
        <ele>926.4</ele>
        <time>2021-06-23T13:55:19Z</time>
      </trkpt>
      <trkpt lat="48.03971" lon="6.97398">
        <ele>926.68</ele>
        <time>2021-06-23T13:55:21Z</time>
      </trkpt>
      <trkpt lat="48.03987" lon="6.97423">
        <ele>926.79</ele>
        <time>2021-06-23T13:55:23Z</time>
      </trkpt>
      <trkpt lat="48.04004" lon="6.97455">
        <ele>929.21</ele>
        <time>2021-06-23T13:55:25Z</time>
      </trkpt>
      <trkpt lat="48.04024" lon="6.9748">
        <ele>934.62</ele>
        <time>2021-06-23T13:55:26Z</time>
      </trkpt>
      <trkpt lat="48.04051" lon="6.97504">
        <ele>940.78</ele>
        <time>2021-06-23T13:55:28Z</time>
      </trkpt>
      <trkpt lat="48.04075" lon="6.9752">
        <ele>944.36</ele>
        <time>2021-06-23T13:55:30Z</time>
      </trkpt>
      <trkpt lat="48.04111" lon="6.97534">
        <ele>941.42</ele>
        <time>2021-06-23T13:55:31Z</time>
      </trkpt>
      <trkpt lat="48.04146" lon="6.97545">
        <ele>940.42</ele>
        <time>2021-06-23T13:55:33Z</time>
      </trkpt>
      <trkpt lat="48.04229" lon="6.97581">
        <ele>947.41</ele>
        <time>2021-06-23T13:55:35Z</time>
      </trkpt>
      <trkpt lat="48.0429" lon="6.97613">
        <ele>957.93</ele>
        <time>2021-06-23T13:55:37Z</time>
      </trkpt>
      <trkpt lat="48.04311" lon="6.97617">
        <ele>954.7</ele>
        <time>2021-06-23T13:55:38Z</time>
      </trkpt>
      <trkpt lat="48.04334" lon="6.97618">
        <ele>954.65</ele>
        <time>2021-06-23T13:55:40Z</time>
      </trkpt>
      <trkpt lat="48.04446" lon="6.97613">
        <ele>949.05</ele>
        <time>2021-06-23T13:55:42Z</time>
      </trkpt>
      <trkpt lat="48.04531" lon="6.97611">
        <ele>954.23</ele>
        <time>2021-06-23T13:55:43Z</time>
      </trkpt>
      <trkpt lat="48.04633" lon="6.97588">
        <ele>954.76</ele>
        <time>2021-06-23T13:55:45Z</time>
      </trkpt>
      <trkpt lat="48.04698" lon="6.97565">
        <ele>953.96</ele>
        <time>2021-06-23T13:55:47Z</time>
      </trkpt>
      <trkpt lat="48.04711" lon="6.97564">
        <ele>954.52</ele>
        <time>2021-06-23T13:55:49Z</time>
      </trkpt>
      <trkpt lat="48.04736" lon="6.97569">
        <ele>955.87</ele>
        <time>2021-06-23T13:55:50Z</time>
      </trkpt>
      <trkpt lat="48.04761" lon="6.9758">
        <ele>957.5</ele>
        <time>2021-06-23T13:55:52Z</time>
      </trkpt>
      <trkpt lat="48.04777" lon="6.97591">
        <ele>960.11</ele>
        <time>2021-06-23T13:55:54Z</time>
      </trkpt>
      <trkpt lat="48.04788" lon="6.97604">
        <ele>964.23</ele>
        <time>2021-06-23T13:55:55Z</time>
      </trkpt>
      <trkpt lat="48.04788" lon="6.97604">
        <ele>964.23</ele>
        <time>2021-06-23T13:55:55Z</time>
      </trkpt>
      <trkpt lat="48.04813" lon="6.97638">
        <ele>966.35</ele>
        <time>2021-06-23T13:55:58Z</time>
      </trkpt>
      <trkpt lat="48.04838" lon="6.97677">
        <ele>959.04</ele>
        <time>2021-06-23T13:56:00Z</time>
      </trkpt>
      <trkpt lat="48.04851" lon="6.97703">
        <ele>954.43</ele>
        <time>2021-06-23T13:56:02Z</time>
      </trkpt>
      <trkpt lat="48.04874" lon="6.97798">
        <ele>957.53</ele>
        <time>2021-06-23T13:56:04Z</time>
      </trkpt>
      <trkpt lat="48.04926" lon="6.97888">
        <ele>946.71</ele>
        <time>2021-06-23T13:56:06Z</time>
      </trkpt>
      <trkpt lat="48.04946" lon="6.97934">
        <ele>944.42</ele>
        <time>2021-06-23T13:56:08Z</time>
      </trkpt>
      <trkpt lat="48.04983" lon="6.98058">
        <ele>941.65</ele>
        <time>2021-06-23T13:56:10Z</time>
      </trkpt>
      <trkpt lat="48.04989" lon="6.98085">
        <ele>941.12</ele>
        <time>2021-06-23T13:56:12Z</time>
      </trkpt>
      <trkpt lat="48.04992" lon="6.98107">
        <ele>941.76</ele>
        <time>2021-06-23T13:56:14Z</time>
      </trkpt>
      <trkpt lat="48.04996" lon="6.98154">
        <ele>942.18</ele>
        <time>2021-06-23T13:56:16Z</time>
      </trkpt>
      <trkpt lat="48.05022" lon="6.98264">
        <ele>928.18</ele>
        <time>2021-06-23T13:56:19Z</time>
      </trkpt>
      <trkpt lat="48.05027" lon="6.98299">
        <ele>925.51</ele>
        <time>2021-06-23T13:56:21Z</time>
      </trkpt>
      <trkpt lat="48.05026" lon="6.98327">
        <ele>926.85</ele>
        <time>2021-06-23T13:56:23Z</time>
      </trkpt>
      <trkpt lat="48.05022" lon="6.98349">
        <ele>929.3</ele>
        <time>2021-06-23T13:56:25Z</time>
      </trkpt>
      <trkpt lat="48.05012" lon="6.98385">
        <ele>937.27</ele>
        <time>2021-06-23T13:56:27Z</time>
      </trkpt>
      <trkpt lat="48.05007" lon="6.9842">
        <ele>940.9</ele>
        <time>2021-06-23T13:56:29Z</time>
      </trkpt>
      <trkpt lat="48.05007" lon="6.98442">
        <ele>937.31</ele>
        <time>2021-06-23T13:56:31Z</time>
      </trkpt>
      <trkpt lat="48.05012" lon="6.98485">
        <ele>926.31</ele>
        <time>2021-06-23T13:56:33Z</time>
      </trkpt>
      <trkpt lat="48.05012" lon="6.98503">
        <ele>925.12</ele>
        <time>2021-06-23T13:56:35Z</time>
      </trkpt>
      <trkpt lat="48.05004" lon="6.98552">
        <ele>929.08</ele>
        <time>2021-06-23T13:56:38Z</time>
      </trkpt>
      <trkpt lat="48.04995" lon="6.98689">
        <ele>923.49</ele>
        <time>2021-06-23T13:56:40Z</time>
      </trkpt>
      <trkpt lat="48.04991" lon="6.98716">
        <ele>921.07</ele>
        <time>2021-06-23T13:56:42Z</time>
      </trkpt>
      <trkpt lat="48.0498" lon="6.98743">
        <ele>921.17</ele>
        <time>2021-06-23T13:56:44Z</time>
      </trkpt>
      <trkpt lat="48.04903" lon="6.98833">
        <ele>939.98</ele>
        <time>2021-06-23T13:56:46Z</time>
      </trkpt>
      <trkpt lat="48.04888" lon="6.98864">
        <ele>940.16</ele>
        <time>2021-06-23T13:56:48Z</time>
      </trkpt>
      <trkpt lat="48.04885" lon="6.98883">
        <ele>940.02</ele>
        <time>2021-06-23T13:56:50Z</time>
      </trkpt>
      <trkpt lat="48.04885" lon="6.98902">
        <ele>939.36</ele>
        <time>2021-06-23T13:56:52Z</time>
      </trkpt>
      <trkpt lat="48.0489" lon="6.98919">
        <ele>937.58</ele>
        <time>2021-06-23T13:56:54Z</time>
      </trkpt>
      <trkpt lat="48.04893" lon="6.9897">
        <ele>939.3</ele>
        <time>2021-06-23T13:56:57Z</time>
      </trkpt>
      <trkpt lat="48.04892" lon="6.98984">
        <ele>940.38</ele>
        <time>2021-06-23T13:56:59Z</time>
      </trkpt>
      <trkpt lat="48.04888" lon="6.98997">
        <ele>942.11</ele>
        <time>2021-06-23T13:57:01Z</time>
      </trkpt>
      <trkpt lat="48.04856" lon="6.99055">
        <ele>947.16</ele>
        <time>2021-06-23T13:57:03Z</time>
      </trkpt>
      <trkpt lat="48.04853" lon="6.99068">
        <ele>948.11</ele>
        <time>2021-06-23T13:57:05Z</time>
      </trkpt>
      <trkpt lat="48.04853" lon="6.99081">
        <ele>948.66</ele>
        <time>2021-06-23T13:57:07Z</time>
      </trkpt>
      <trkpt lat="48.04858" lon="6.99132">
        <ele>950</ele>
        <time>2021-06-23T13:57:09Z</time>
      </trkpt>
      <trkpt lat="48.04856" lon="6.99177">
        <ele>950.66</ele>
        <time>2021-06-23T13:57:11Z</time>
      </trkpt>
      <trkpt lat="48.04849" lon="6.99215">
        <ele>950.88</ele>
        <time>2021-06-23T13:57:13Z</time>
      </trkpt>
      <trkpt lat="48.04826" lon="6.99274">
        <ele>956.2</ele>
        <time>2021-06-23T13:57:15Z</time>
      </trkpt>
      <trkpt lat="48.04826" lon="6.99289">
        <ele>957.37</ele>
        <time>2021-06-23T13:57:18Z</time>
      </trkpt>
      <trkpt lat="48.04832" lon="6.99373">
        <ele>962.68</ele>
        <time>2021-06-23T13:57:20Z</time>
      </trkpt>
      <trkpt lat="48.04827" lon="6.9941">
        <ele>964.8</ele>
        <time>2021-06-23T13:57:22Z</time>
      </trkpt>
      <trkpt lat="48.04814" lon="6.99427">
        <ele>966.85</ele>
        <time>2021-06-23T13:57:24Z</time>
      </trkpt>
      <trkpt lat="48.04775" lon="6.99451">
        <ele>972.78</ele>
        <time>2021-06-23T13:57:26Z</time>
      </trkpt>
      <trkpt lat="48.04762" lon="6.99463">
        <ele>973.91</ele>
        <time>2021-06-23T13:57:28Z</time>
      </trkpt>
      <trkpt lat="48.0476" lon="6.99467">
        <ele>981.82</ele>
        <time>2021-06-23T13:57:30Z</time>
      </trkpt>
      <trkpt lat="48.0476" lon="6.99467">
        <ele>981.82</ele>
        <time>2021-06-23T13:57:30Z</time>
      </trkpt>
      <trkpt lat="48.04762" lon="6.99463">
        <ele>973.91</ele>
        <time>2021-06-23T13:57:32Z</time>
      </trkpt>
      <trkpt lat="48.04775" lon="6.99451">
        <ele>972.78</ele>
        <time>2021-06-23T13:57:34Z</time>
      </trkpt>
      <trkpt lat="48.04814" lon="6.99427">
        <ele>966.85</ele>
        <time>2021-06-23T13:57:36Z</time>
      </trkpt>
      <trkpt lat="48.04827" lon="6.9941">
        <ele>964.8</ele>
        <time>2021-06-23T13:57:37Z</time>
      </trkpt>
      <trkpt lat="48.04832" lon="6.99373">
        <ele>962.68</ele>
        <time>2021-06-23T13:57:39Z</time>
      </trkpt>
      <trkpt lat="48.04826" lon="6.99289">
        <ele>957.37</ele>
        <time>2021-06-23T13:57:41Z</time>
      </trkpt>
      <trkpt lat="48.04826" lon="6.99274">
        <ele>956.2</ele>
        <time>2021-06-23T13:57:43Z</time>
      </trkpt>
      <trkpt lat="48.04849" lon="6.99215">
        <ele>950.88</ele>
        <time>2021-06-23T13:57:44Z</time>
      </trkpt>
      <trkpt lat="48.04856" lon="6.99177">
        <ele>950.66</ele>
        <time>2021-06-23T13:57:46Z</time>
      </trkpt>
      <trkpt lat="48.04858" lon="6.99132">
        <ele>950</ele>
        <time>2021-06-23T13:57:48Z</time>
      </trkpt>
      <trkpt lat="48.04853" lon="6.99081">
        <ele>948.66</ele>
        <time>2021-06-23T13:57:50Z</time>
      </trkpt>
      <trkpt lat="48.04853" lon="6.99068">
        <ele>948.11</ele>
        <time>2021-06-23T13:57:51Z</time>
      </trkpt>
      <trkpt lat="48.04856" lon="6.99055">
        <ele>947.16</ele>
        <time>2021-06-23T13:57:53Z</time>
      </trkpt>
      <trkpt lat="48.04888" lon="6.98997">
        <ele>942.11</ele>
        <time>2021-06-23T13:57:55Z</time>
      </trkpt>
      <trkpt lat="48.04892" lon="6.98984">
        <ele>940.38</ele>
        <time>2021-06-23T13:57:57Z</time>
      </trkpt>
      <trkpt lat="48.04893" lon="6.9897">
        <ele>939.3</ele>
        <time>2021-06-23T13:57:58Z</time>
      </trkpt>
      <trkpt lat="48.0489" lon="6.98919">
        <ele>937.58</ele>
        <time>2021-06-23T13:58:00Z</time>
      </trkpt>
      <trkpt lat="48.04885" lon="6.98902">
        <ele>939.36</ele>
        <time>2021-06-23T13:58:02Z</time>
      </trkpt>
      <trkpt lat="48.04885" lon="6.98883">
        <ele>940.02</ele>
        <time>2021-06-23T13:58:04Z</time>
      </trkpt>
      <trkpt lat="48.04888" lon="6.98864">
        <ele>940.16</ele>
        <time>2021-06-23T13:58:05Z</time>
      </trkpt>
      <trkpt lat="48.04903" lon="6.98833">
        <ele>939.98</ele>
        <time>2021-06-23T13:58:07Z</time>
      </trkpt>
      <trkpt lat="48.0498" lon="6.98743">
        <ele>921.17</ele>
        <time>2021-06-23T13:58:09Z</time>
      </trkpt>
      <trkpt lat="48.04991" lon="6.98716">
        <ele>921.07</ele>
        <time>2021-06-23T13:58:11Z</time>
      </trkpt>
      <trkpt lat="48.04995" lon="6.98719">
        <ele>917.57</ele>
        <time>2021-06-23T13:58:13Z</time>
      </trkpt>
      <trkpt lat="48.05002" lon="6.98719">
        <ele>913.92</ele>
        <time>2021-06-23T13:58:16Z</time>
      </trkpt>
      <trkpt lat="48.05006" lon="6.98716">
        <ele>912.84</ele>
        <time>2021-06-23T13:58:18Z</time>
      </trkpt>
      <trkpt lat="48.05011" lon="6.9871">
        <ele>912.28</ele>
        <time>2021-06-23T13:58:21Z</time>
      </trkpt>
      <trkpt lat="48.05014" lon="6.98699">
        <ele>912.52</ele>
        <time>2021-06-23T13:58:23Z</time>
      </trkpt>
      <trkpt lat="48.05014" lon="6.98688">
        <ele>913.43</ele>
        <time>2021-06-23T13:58:26Z</time>
      </trkpt>
      <trkpt lat="48.05012" lon="6.98665">
        <ele>916.62</ele>
        <time>2021-06-23T13:58:29Z</time>
      </trkpt>
      <trkpt lat="48.05012" lon="6.98646">
        <ele>918.17</ele>
        <time>2021-06-23T13:58:31Z</time>
      </trkpt>
      <trkpt lat="48.05017" lon="6.98617">
        <ele>917.06</ele>
        <time>2021-06-23T13:58:34Z</time>
      </trkpt>
      <trkpt lat="48.05022" lon="6.98562">
        <ele>914.55</ele>
        <time>2021-06-23T13:58:36Z</time>
      </trkpt>
      <trkpt lat="48.05026" lon="6.9854">
        <ele>911.91</ele>
        <time>2021-06-23T13:58:39Z</time>
      </trkpt>
      <trkpt lat="48.05037" lon="6.98514">
        <ele>906.83</ele>
        <time>2021-06-23T13:58:41Z</time>
      </trkpt>
      <trkpt lat="48.05041" lon="6.98497">
        <ele>905.96</ele>
        <time>2021-06-23T13:58:44Z</time>
      </trkpt>
      <trkpt lat="48.05042" lon="6.98484">
        <ele>906.93</ele>
        <time>2021-06-23T13:58:46Z</time>
      </trkpt>
      <trkpt lat="48.0504" lon="6.98444">
        <ele>913.54</ele>
        <time>2021-06-23T13:58:49Z</time>
      </trkpt>
      <trkpt lat="48.05042" lon="6.98427">
        <ele>912.66</ele>
        <time>2021-06-23T13:58:51Z</time>
      </trkpt>
      <trkpt lat="48.05047" lon="6.98405">
        <ele>910.06</ele>
        <time>2021-06-23T13:58:54Z</time>
      </trkpt>
      <trkpt lat="48.05054" lon="6.98383">
        <ele>905.08</ele>
        <time>2021-06-23T13:58:56Z</time>
      </trkpt>
      <trkpt lat="48.05074" lon="6.98343">
        <ele>893.27</ele>
        <time>2021-06-23T13:58:59Z</time>
      </trkpt>
      <trkpt lat="48.05083" lon="6.98314">
        <ele>888.11</ele>
        <time>2021-06-23T13:59:02Z</time>
      </trkpt>
      <trkpt lat="48.05086" lon="6.98287">
        <ele>888.59</ele>
        <time>2021-06-23T13:59:04Z</time>
      </trkpt>
      <trkpt lat="48.05086" lon="6.9821">
        <ele>891.83</ele>
        <time>2021-06-23T13:59:07Z</time>
      </trkpt>
      <trkpt lat="48.05091" lon="6.98169">
        <ele>890.76</ele>
        <time>2021-06-23T13:59:09Z</time>
      </trkpt>
      <trkpt lat="48.05129" lon="6.98018">
        <ele>874.18</ele>
        <time>2021-06-23T13:59:12Z</time>
      </trkpt>
      <trkpt lat="48.0517" lon="6.97908">
        <ele>869.71</ele>
        <time>2021-06-23T13:59:14Z</time>
      </trkpt>
      <trkpt lat="48.05175" lon="6.97898">
        <ele>872.59</ele>
        <time>2021-06-23T13:59:17Z</time>
      </trkpt>
      <trkpt lat="48.05181" lon="6.97893">
        <ele>873.72</ele>
        <time>2021-06-23T13:59:19Z</time>
      </trkpt>
      <trkpt lat="48.05194" lon="6.97892">
        <ele>872.16</ele>
        <time>2021-06-23T13:59:22Z</time>
      </trkpt>
      <trkpt lat="48.05198" lon="6.97897">
        <ele>870.59</ele>
        <time>2021-06-23T13:59:24Z</time>
      </trkpt>
      <trkpt lat="48.052" lon="6.97902">
        <ele>869.22</ele>
        <time>2021-06-23T13:59:27Z</time>
      </trkpt>
      <trkpt lat="48.05202" lon="6.97913">
        <ele>866.18</ele>
        <time>2021-06-23T13:59:29Z</time>
      </trkpt>
      <trkpt lat="48.05202" lon="6.97924">
        <ele>863.93</ele>
        <time>2021-06-23T13:59:32Z</time>
      </trkpt>
      <trkpt lat="48.05186" lon="6.97974">
        <ele>860.31</ele>
        <time>2021-06-23T13:59:35Z</time>
      </trkpt>
      <trkpt lat="48.0518" lon="6.98011">
        <ele>857.24</ele>
        <time>2021-06-23T13:59:37Z</time>
      </trkpt>
      <trkpt lat="48.05181" lon="6.98032">
        <ele>855.5</ele>
        <time>2021-06-23T13:59:40Z</time>
      </trkpt>
      <trkpt lat="48.05193" lon="6.98112">
        <ele>855.25</ele>
        <time>2021-06-23T13:59:42Z</time>
      </trkpt>
      <trkpt lat="48.05192" lon="6.98141">
        <ele>855.26</ele>
        <time>2021-06-23T13:59:45Z</time>
      </trkpt>
      <trkpt lat="48.05182" lon="6.98229">
        <ele>853.65</ele>
        <time>2021-06-23T13:59:47Z</time>
      </trkpt>
      <trkpt lat="48.05179" lon="6.98335">
        <ele>852.08</ele>
        <time>2021-06-23T13:59:50Z</time>
      </trkpt>
      <trkpt lat="48.05176" lon="6.98362">
        <ele>850.34</ele>
        <time>2021-06-23T13:59:52Z</time>
      </trkpt>
      <trkpt lat="48.05172" lon="6.9838">
        <ele>850.77</ele>
        <time>2021-06-23T13:59:55Z</time>
      </trkpt>
      <trkpt lat="48.05163" lon="6.9841">
        <ele>851.06</ele>
        <time>2021-06-23T13:59:57Z</time>
      </trkpt>
      <trkpt lat="48.0516" lon="6.98428">
        <ele>851.42</ele>
        <time>2021-06-23T14:00:00Z</time>
      </trkpt>
      <trkpt lat="48.05159" lon="6.98508">
        <ele>850.84</ele>
        <time>2021-06-23T14:00:02Z</time>
      </trkpt>
      <trkpt lat="48.05165" lon="6.98587">
        <ele>839.06</ele>
        <time>2021-06-23T14:00:05Z</time>
      </trkpt>
      <trkpt lat="48.05173" lon="6.98642">
        <ele>837.28</ele>
        <time>2021-06-23T14:00:08Z</time>
      </trkpt>
      <trkpt lat="48.05186" lon="6.98697">
        <ele>831.27</ele>
        <time>2021-06-23T14:00:10Z</time>
      </trkpt>
      <trkpt lat="48.05189" lon="6.98717">
        <ele>830.29</ele>
        <time>2021-06-23T14:00:13Z</time>
      </trkpt>
      <trkpt lat="48.05189" lon="6.98768">
        <ele>830.34</ele>
        <time>2021-06-23T14:00:15Z</time>
      </trkpt>
      <trkpt lat="48.05191" lon="6.98793">
        <ele>828.85</ele>
        <time>2021-06-23T14:00:18Z</time>
      </trkpt>
      <trkpt lat="48.05197" lon="6.98815">
        <ele>826.46</ele>
        <time>2021-06-23T14:00:20Z</time>
      </trkpt>
      <trkpt lat="48.05205" lon="6.98835">
        <ele>824.39</ele>
        <time>2021-06-23T14:00:23Z</time>
      </trkpt>
      <trkpt lat="48.05246" lon="6.98884">
        <ele>822.05</ele>
        <time>2021-06-23T14:00:25Z</time>
      </trkpt>
      <trkpt lat="48.05256" lon="6.98893">
        <ele>821.9</ele>
        <time>2021-06-23T14:00:28Z</time>
      </trkpt>
      <trkpt lat="48.05269" lon="6.98899">
        <ele>821.6</ele>
        <time>2021-06-23T14:00:30Z</time>
      </trkpt>
      <trkpt lat="48.0535" lon="6.98899">
        <ele>815.42</ele>
        <time>2021-06-23T14:00:33Z</time>
      </trkpt>
      <trkpt lat="48.05378" lon="6.98894">
        <ele>813.17</ele>
        <time>2021-06-23T14:00:35Z</time>
      </trkpt>
      <trkpt lat="48.05392" lon="6.98887">
        <ele>811.84</ele>
        <time>2021-06-23T14:00:38Z</time>
      </trkpt>
      <trkpt lat="48.05408" lon="6.98877">
        <ele>810.99</ele>
        <time>2021-06-23T14:00:41Z</time>
      </trkpt>
      <trkpt lat="48.05425" lon="6.98861">
        <ele>810.15</ele>
        <time>2021-06-23T14:00:43Z</time>
      </trkpt>
      <trkpt lat="48.05474" lon="6.98796">
        <ele>800.24</ele>
        <time>2021-06-23T14:00:46Z</time>
      </trkpt>
      <trkpt lat="48.05493" lon="6.98776">
        <ele>795.49</ele>
        <time>2021-06-23T14:00:48Z</time>
      </trkpt>
      <trkpt lat="48.05505" lon="6.98766">
        <ele>794.76</ele>
        <time>2021-06-23T14:00:51Z</time>
      </trkpt>
      <trkpt lat="48.05518" lon="6.98761">
        <ele>795.07</ele>
        <time>2021-06-23T14:00:53Z</time>
      </trkpt>
      <trkpt lat="48.05538" lon="6.98758">
        <ele>795.9</ele>
        <time>2021-06-23T14:00:56Z</time>
      </trkpt>
      <trkpt lat="48.05582" lon="6.98757">
        <ele>797.57</ele>
        <time>2021-06-23T14:00:58Z</time>
      </trkpt>
      <trkpt lat="48.05606" lon="6.98747">
        <ele>797.73</ele>
        <time>2021-06-23T14:01:01Z</time>
      </trkpt>
      <trkpt lat="48.05649" lon="6.98704">
        <ele>791.68</ele>
        <time>2021-06-23T14:01:03Z</time>
      </trkpt>
      <trkpt lat="48.05695" lon="6.98663">
        <ele>784.46</ele>
        <time>2021-06-23T14:01:06Z</time>
      </trkpt>
      <trkpt lat="48.05731" lon="6.98624">
        <ele>783.68</ele>
        <time>2021-06-23T14:01:08Z</time>
      </trkpt>
      <trkpt lat="48.05775" lon="6.9858">
        <ele>782.42</ele>
        <time>2021-06-23T14:01:11Z</time>
      </trkpt>
      <trkpt lat="48.05825" lon="6.98536">
        <ele>786.16</ele>
        <time>2021-06-23T14:01:14Z</time>
      </trkpt>
      <trkpt lat="48.05846" lon="6.98514">
        <ele>787.01</ele>
        <time>2021-06-23T14:01:16Z</time>
      </trkpt>
      <trkpt lat="48.05864" lon="6.98493">
        <ele>789.93</ele>
        <time>2021-06-23T14:01:19Z</time>
      </trkpt>
      <trkpt lat="48.05898" lon="6.98446">
        <ele>795.08</ele>
        <time>2021-06-23T14:01:21Z</time>
      </trkpt>
      <trkpt lat="48.05905" lon="6.98428">
        <ele>794.7</ele>
        <time>2021-06-23T14:01:24Z</time>
      </trkpt>
      <trkpt lat="48.05909" lon="6.98411">
        <ele>794.01</ele>
        <time>2021-06-23T14:01:26Z</time>
      </trkpt>
      <trkpt lat="48.05913" lon="6.9839">
        <ele>793.22</ele>
        <time>2021-06-23T14:01:29Z</time>
      </trkpt>
      <trkpt lat="48.05915" lon="6.98366">
        <ele>793.53</ele>
        <time>2021-06-23T14:01:31Z</time>
      </trkpt>
      <trkpt lat="48.05914" lon="6.98352">
        <ele>793.74</ele>
        <time>2021-06-23T14:01:34Z</time>
      </trkpt>
      <trkpt lat="48.05912" lon="6.9834">
        <ele>793.86</ele>
        <time>2021-06-23T14:01:36Z</time>
      </trkpt>
      <trkpt lat="48.05907" lon="6.98327">
        <ele>793.34</ele>
        <time>2021-06-23T14:01:39Z</time>
      </trkpt>
      <trkpt lat="48.0588" lon="6.9829">
        <ele>791</ele>
        <time>2021-06-23T14:01:41Z</time>
      </trkpt>
      <trkpt lat="48.05878" lon="6.98282">
        <ele>790.68</ele>
        <time>2021-06-23T14:01:44Z</time>
      </trkpt>
      <trkpt lat="48.05877" lon="6.98272">
        <ele>790.26</ele>
        <time>2021-06-23T14:01:47Z</time>
      </trkpt>
      <trkpt lat="48.05882" lon="6.98255">
        <ele>789.33</ele>
        <time>2021-06-23T14:01:49Z</time>
      </trkpt>
      <trkpt lat="48.05892" lon="6.98242">
        <ele>788.96</ele>
        <time>2021-06-23T14:01:52Z</time>
      </trkpt>
      <trkpt lat="48.05928" lon="6.98219">
        <ele>794.65</ele>
        <time>2021-06-23T14:01:54Z</time>
      </trkpt>
      <trkpt lat="48.05944" lon="6.98202">
        <ele>794.37</ele>
        <time>2021-06-23T14:01:57Z</time>
      </trkpt>
      <trkpt lat="48.05968" lon="6.98161">
        <ele>789.64</ele>
        <time>2021-06-23T14:01:59Z</time>
      </trkpt>
      <trkpt lat="48.0598" lon="6.98132">
        <ele>786.02</ele>
        <time>2021-06-23T14:02:02Z</time>
      </trkpt>
      <trkpt lat="48.05991" lon="6.9811">
        <ele>783.19</ele>
        <time>2021-06-23T14:02:04Z</time>
      </trkpt>
      <trkpt lat="48.06034" lon="6.98073">
        <ele>784.13</ele>
        <time>2021-06-23T14:02:07Z</time>
      </trkpt>
      <trkpt lat="48.06043" lon="6.98061">
        <ele>784.41</ele>
        <time>2021-06-23T14:02:09Z</time>
      </trkpt>
      <trkpt lat="48.06052" lon="6.98045">
        <ele>783.54</ele>
        <time>2021-06-23T14:02:12Z</time>
      </trkpt>
      <trkpt lat="48.0606" lon="6.9801">
        <ele>779.84</ele>
        <time>2021-06-23T14:02:14Z</time>
      </trkpt>
      <trkpt lat="48.06078" lon="6.97913">
        <ele>771.74</ele>
        <time>2021-06-23T14:02:17Z</time>
      </trkpt>
      <trkpt lat="48.061" lon="6.97844">
        <ele>771.07</ele>
        <time>2021-06-23T14:02:20Z</time>
      </trkpt>
      <trkpt lat="48.06106" lon="6.97813">
        <ele>770.85</ele>
        <time>2021-06-23T14:02:22Z</time>
      </trkpt>
      <trkpt lat="48.0611" lon="6.97782">
        <ele>769.07</ele>
        <time>2021-06-23T14:02:25Z</time>
      </trkpt>
      <trkpt lat="48.06113" lon="6.97732">
        <ele>768.81</ele>
        <time>2021-06-23T14:02:27Z</time>
      </trkpt>
      <trkpt lat="48.06113" lon="6.97682">
        <ele>770.9</ele>
        <time>2021-06-23T14:02:30Z</time>
      </trkpt>
      <trkpt lat="48.06116" lon="6.97647">
        <ele>772.04</ele>
        <time>2021-06-23T14:02:32Z</time>
      </trkpt>
      <trkpt lat="48.06122" lon="6.97614">
        <ele>772.58</ele>
        <time>2021-06-23T14:02:35Z</time>
      </trkpt>
      <trkpt lat="48.06145" lon="6.9754">
        <ele>772.36</ele>
        <time>2021-06-23T14:02:37Z</time>
      </trkpt>
      <trkpt lat="48.06151" lon="6.97517">
        <ele>773.89</ele>
        <time>2021-06-23T14:02:40Z</time>
      </trkpt>
      <trkpt lat="48.06154" lon="6.97493">
        <ele>775.03</ele>
        <time>2021-06-23T14:02:42Z</time>
      </trkpt>
      <trkpt lat="48.06155" lon="6.97428">
        <ele>774.84</ele>
        <time>2021-06-23T14:02:45Z</time>
      </trkpt>
      <trkpt lat="48.06152" lon="6.97363">
        <ele>775.43</ele>
        <time>2021-06-23T14:02:47Z</time>
      </trkpt>
      <trkpt lat="48.06159" lon="6.97283">
        <ele>768.1</ele>
        <time>2021-06-23T14:02:50Z</time>
      </trkpt>
      <trkpt lat="48.06166" lon="6.97185">
        <ele>764.75</ele>
        <time>2021-06-23T14:02:53Z</time>
      </trkpt>
      <trkpt lat="48.06171" lon="6.97144">
        <ele>764.89</ele>
        <time>2021-06-23T14:02:55Z</time>
      </trkpt>
      <trkpt lat="48.06178" lon="6.97116">
        <ele>763.91</ele>
        <time>2021-06-23T14:02:58Z</time>
      </trkpt>
      <trkpt lat="48.062" lon="6.97049">
        <ele>762.13</ele>
        <time>2021-06-23T14:03:00Z</time>
      </trkpt>
      <trkpt lat="48.06243" lon="6.96937">
        <ele>757.12</ele>
        <time>2021-06-23T14:03:03Z</time>
      </trkpt>
      <trkpt lat="48.06272" lon="6.96855">
        <ele>756.97</ele>
        <time>2021-06-23T14:03:05Z</time>
      </trkpt>
      <trkpt lat="48.0628" lon="6.96825">
        <ele>756.78</ele>
        <time>2021-06-23T14:03:08Z</time>
      </trkpt>
      <trkpt lat="48.06284" lon="6.96799">
        <ele>756.12</ele>
        <time>2021-06-23T14:03:10Z</time>
      </trkpt>
      <trkpt lat="48.06295" lon="6.96707">
        <ele>757.6</ele>
        <time>2021-06-23T14:03:13Z</time>
      </trkpt>
      <trkpt lat="48.06295" lon="6.96681">
        <ele>756.09</ele>
        <time>2021-06-23T14:03:15Z</time>
      </trkpt>
      <trkpt lat="48.06292" lon="6.96639">
        <ele>753.55</ele>
        <time>2021-06-23T14:03:18Z</time>
      </trkpt>
      <trkpt lat="48.06292" lon="6.96578">
        <ele>753.3</ele>
        <time>2021-06-23T14:03:20Z</time>
      </trkpt>
      <trkpt lat="48.06295" lon="6.96548">
        <ele>752.42</ele>
        <time>2021-06-23T14:03:23Z</time>
      </trkpt>
      <trkpt lat="48.06306" lon="6.9649">
        <ele>752.67</ele>
        <time>2021-06-23T14:03:26Z</time>
      </trkpt>
      <trkpt lat="48.06315" lon="6.96456">
        <ele>752.21</ele>
        <time>2021-06-23T14:03:28Z</time>
      </trkpt>
      <trkpt lat="48.0634" lon="6.96388">
        <ele>749.63</ele>
        <time>2021-06-23T14:03:31Z</time>
      </trkpt>
      <trkpt lat="48.06367" lon="6.96339">
        <ele>747.04</ele>
        <time>2021-06-23T14:03:33Z</time>
      </trkpt>
      <trkpt lat="48.06417" lon="6.96252">
        <ele>745.23</ele>
        <time>2021-06-23T14:03:36Z</time>
      </trkpt>
      <trkpt lat="48.06461" lon="6.96183">
        <ele>744.48</ele>
        <time>2021-06-23T14:03:38Z</time>
      </trkpt>
      <trkpt lat="48.06526" lon="6.96102">
        <ele>747.38</ele>
        <time>2021-06-23T14:03:41Z</time>
      </trkpt>
      <trkpt lat="48.06551" lon="6.96063">
        <ele>749.28</ele>
        <time>2021-06-23T14:03:43Z</time>
      </trkpt>
      <trkpt lat="48.06577" lon="6.9603">
        <ele>752.65</ele>
        <time>2021-06-23T14:03:46Z</time>
      </trkpt>
      <trkpt lat="48.06602" lon="6.96001">
        <ele>751.13</ele>
        <time>2021-06-23T14:03:48Z</time>
      </trkpt>
      <trkpt lat="48.06656" lon="6.95956">
        <ele>749.92</ele>
        <time>2021-06-23T14:03:51Z</time>
      </trkpt>
      <trkpt lat="48.06668" lon="6.95942">
        <ele>748.97</ele>
        <time>2021-06-23T14:03:53Z</time>
      </trkpt>
      <trkpt lat="48.06743" lon="6.95817">
        <ele>750.13</ele>
        <time>2021-06-23T14:03:56Z</time>
      </trkpt>
      <trkpt lat="48.06786" lon="6.95756">
        <ele>749.17</ele>
        <time>2021-06-23T14:03:58Z</time>
      </trkpt>
      <trkpt lat="48.06839" lon="6.95696">
        <ele>748.33</ele>
        <time>2021-06-23T14:04:01Z</time>
      </trkpt>
      <trkpt lat="48.06858" lon="6.95665">
        <ele>747.5</ele>
        <time>2021-06-23T14:04:04Z</time>
      </trkpt>
      <trkpt lat="48.06876" lon="6.95642">
        <ele>750.86</ele>
        <time>2021-06-23T14:04:06Z</time>
      </trkpt>
      <trkpt lat="48.06928" lon="6.956">
        <ele>752.45</ele>
        <time>2021-06-23T14:04:09Z</time>
      </trkpt>
      <trkpt lat="48.06989" lon="6.95537">
        <ele>754.38</ele>
        <time>2021-06-23T14:04:11Z</time>
      </trkpt>
      <trkpt lat="48.0707" lon="6.95435">
        <ele>756.71</ele>
        <time>2021-06-23T14:04:14Z</time>
      </trkpt>
      <trkpt lat="48.07237" lon="6.95275">
        <ele>755.99</ele>
        <time>2021-06-23T14:04:16Z</time>
      </trkpt>
      <trkpt lat="48.07274" lon="6.95228">
        <ele>752.99</ele>
        <time>2021-06-23T14:04:19Z</time>
      </trkpt>
      <trkpt lat="48.07289" lon="6.95217">
        <ele>753.76</ele>
        <time>2021-06-23T14:04:21Z</time>
      </trkpt>
      <trkpt lat="48.07408" lon="6.95138">
        <ele>748.93</ele>
        <time>2021-06-23T14:04:24Z</time>
      </trkpt>
      <trkpt lat="48.0744" lon="6.95124">
        <ele>754.49</ele>
        <time>2021-06-23T14:04:26Z</time>
      </trkpt>
      <trkpt lat="48.07483" lon="6.9509">
        <ele>751.54</ele>
        <time>2021-06-23T14:04:29Z</time>
      </trkpt>
      <trkpt lat="48.07514" lon="6.9508">
        <ele>750</ele>
        <time>2021-06-23T14:04:31Z</time>
      </trkpt>
      <trkpt lat="48.07554" lon="6.95085">
        <ele>750.75</ele>
        <time>2021-06-23T14:04:34Z</time>
      </trkpt>
      <trkpt lat="48.07587" lon="6.95078">
        <ele>749.13</ele>
        <time>2021-06-23T14:04:37Z</time>
      </trkpt>
      <trkpt lat="48.07635" lon="6.95055">
        <ele>749.78</ele>
        <time>2021-06-23T14:04:39Z</time>
      </trkpt>
      <trkpt lat="48.07678" lon="6.95042">
        <ele>757.22</ele>
        <time>2021-06-23T14:04:42Z</time>
      </trkpt>
      <trkpt lat="48.07723" lon="6.95022">
        <ele>756</ele>
        <time>2021-06-23T14:04:44Z</time>
      </trkpt>
      <trkpt lat="48.07771" lon="6.95005">
        <ele>757.71</ele>
        <time>2021-06-23T14:04:47Z</time>
      </trkpt>
      <trkpt lat="48.07811" lon="6.94984">
        <ele>754.74</ele>
        <time>2021-06-23T14:04:49Z</time>
      </trkpt>
      <trkpt lat="48.07833" lon="6.9497">
        <ele>753.61</ele>
        <time>2021-06-23T14:04:52Z</time>
      </trkpt>
      <trkpt lat="48.07862" lon="6.94943">
        <ele>750.78</ele>
        <time>2021-06-23T14:04:54Z</time>
      </trkpt>
      <trkpt lat="48.07927" lon="6.94896">
        <ele>752.06</ele>
        <time>2021-06-23T14:04:57Z</time>
      </trkpt>
      <trkpt lat="48.08012" lon="6.9481">
        <ele>750.21</ele>
        <time>2021-06-23T14:04:59Z</time>
      </trkpt>
      <trkpt lat="48.08029" lon="6.94795">
        <ele>749.87</ele>
        <time>2021-06-23T14:05:02Z</time>
      </trkpt>
      <trkpt lat="48.08048" lon="6.94785">
        <ele>749.86</ele>
        <time>2021-06-23T14:05:04Z</time>
      </trkpt>
      <trkpt lat="48.08222" lon="6.94716">
        <ele>744.79</ele>
        <time>2021-06-23T14:05:07Z</time>
      </trkpt>
      <trkpt lat="48.08234" lon="6.94716">
        <ele>744.77</ele>
        <time>2021-06-23T14:05:10Z</time>
      </trkpt>
      <trkpt lat="48.08246" lon="6.94726">
        <ele>745.39</ele>
        <time>2021-06-23T14:05:12Z</time>
      </trkpt>
      <trkpt lat="48.08255" lon="6.94747">
        <ele>747.8</ele>
        <time>2021-06-23T14:05:15Z</time>
      </trkpt>
      <trkpt lat="48.08257" lon="6.94755">
        <ele>748.99</ele>
        <time>2021-06-23T14:05:17Z</time>
      </trkpt>
      <trkpt lat="48.08268" lon="6.94746">
        <ele>748.13</ele>
        <time>2021-06-23T14:05:27Z</time>
      </trkpt>
      <trkpt lat="48.08292" lon="6.94719">
        <ele>745.82</ele>
        <time>2021-06-23T14:05:36Z</time>
      </trkpt>
      <trkpt lat="48.08306" lon="6.94697">
        <ele>745.2</ele>
        <time>2021-06-23T14:05:45Z</time>
      </trkpt>
      <trkpt lat="48.08317" lon="6.94662">
        <ele>745.37</ele>
        <time>2021-06-23T14:05:54Z</time>
      </trkpt>
      <trkpt lat="48.08321" lon="6.94642">
        <ele>746.08</ele>
        <time>2021-06-23T14:06:04Z</time>
      </trkpt>
      <trkpt lat="48.08323" lon="6.94598">
        <ele>746.53</ele>
        <time>2021-06-23T14:06:13Z</time>
      </trkpt>
      <trkpt lat="48.0831" lon="6.94487">
        <ele>748.52</ele>
        <time>2021-06-23T14:06:22Z</time>
      </trkpt>
      <trkpt lat="48.08312" lon="6.94414">
        <ele>747.72</ele>
        <time>2021-06-23T14:06:32Z</time>
      </trkpt>
      <trkpt lat="48.0835" lon="6.9373">
        <ele>733.76</ele>
        <time>2021-06-23T14:06:41Z</time>
      </trkpt>
      <trkpt lat="48.08381" lon="6.93299">
        <ele>726.28</ele>
        <time>2021-06-23T14:06:50Z</time>
      </trkpt>
      <trkpt lat="48.08392" lon="6.93125">
        <ele>730.16</ele>
        <time>2021-06-23T14:07:00Z</time>
      </trkpt>
      <trkpt lat="48.08399" lon="6.92975">
        <ele>726.57</ele>
        <time>2021-06-23T14:07:09Z</time>
      </trkpt>
      <trkpt lat="48.08399" lon="6.92929">
        <ele>725.7</ele>
        <time>2021-06-23T14:07:18Z</time>
      </trkpt>
      <trkpt lat="48.08396" lon="6.9288">
        <ele>724.47</ele>
        <time>2021-06-23T14:07:28Z</time>
      </trkpt>
      <trkpt lat="48.0839" lon="6.92817">
        <ele>723.16</ele>
        <time>2021-06-23T14:07:37Z</time>
      </trkpt>
      <trkpt lat="48.08385" lon="6.92705">
        <ele>723.7</ele>
        <time>2021-06-23T14:07:46Z</time>
      </trkpt>
      <trkpt lat="48.08377" lon="6.92651">
        <ele>721.84</ele>
        <time>2021-06-23T14:07:55Z</time>
      </trkpt>
      <trkpt lat="48.08433" lon="6.92655">
        <ele>728.55</ele>
        <time>2021-06-23T14:07:59Z</time>
      </trkpt>
      <trkpt lat="48.08468" lon="6.92661">
        <ele>730.8</ele>
        <time>2021-06-23T14:08:03Z</time>
      </trkpt>
      <trkpt lat="48.08474" lon="6.92658">
        <ele>731.13</ele>
        <time>2021-06-23T14:08:06Z</time>
      </trkpt>
      <trkpt lat="48.08478" lon="6.92652">
        <ele>731.41</ele>
        <time>2021-06-23T14:08:10Z</time>
      </trkpt>
      <trkpt lat="48.0848" lon="6.92644">
        <ele>731.57</ele>
        <time>2021-06-23T14:08:14Z</time>
      </trkpt>
      <trkpt lat="48.08479" lon="6.92636">
        <ele>731.81</ele>
        <time>2021-06-23T14:08:17Z</time>
      </trkpt>
      <trkpt lat="48.08476" lon="6.9263">
        <ele>732.3</ele>
        <time>2021-06-23T14:08:21Z</time>
      </trkpt>
      <trkpt lat="48.08459" lon="6.9261">
        <ele>732.73</ele>
        <time>2021-06-23T14:08:25Z</time>
      </trkpt>
      <trkpt lat="48.08457" lon="6.92599">
        <ele>733.86</ele>
        <time>2021-06-23T14:08:28Z</time>
      </trkpt>
      <trkpt lat="48.08458" lon="6.9259">
        <ele>735.16</ele>
        <time>2021-06-23T14:08:32Z</time>
      </trkpt>
      <trkpt lat="48.08462" lon="6.92582">
        <ele>736.5</ele>
        <time>2021-06-23T14:08:36Z</time>
      </trkpt>
      <trkpt lat="48.08473" lon="6.92568">
        <ele>738.06</ele>
        <time>2021-06-23T14:08:39Z</time>
      </trkpt>
      <trkpt lat="48.08482" lon="6.92561">
        <ele>739.02</ele>
        <time>2021-06-23T14:08:43Z</time>
      </trkpt>
      <trkpt lat="48.08555" lon="6.92534">
        <ele>743.43</ele>
        <time>2021-06-23T14:08:47Z</time>
      </trkpt>
      <trkpt lat="48.08589" lon="6.92528">
        <ele>747.19</ele>
        <time>2021-06-23T14:08:50Z</time>
      </trkpt>
      <trkpt lat="48.08609" lon="6.92541">
        <ele>752.4</ele>
        <time>2021-06-23T14:08:54Z</time>
      </trkpt>
      <trkpt lat="48.08621" lon="6.92557">
        <ele>755.1</ele>
        <time>2021-06-23T14:08:57Z</time>
      </trkpt>
      <trkpt lat="48.08634" lon="6.92577">
        <ele>755.23</ele>
        <time>2021-06-23T14:09:01Z</time>
      </trkpt>
    </trkseg>
  </trk>
</gpx>